<?xml version="1.0" encoding="utf-8"?>
<gpx xmlns:xsi="http://www.w3.org/2001/XMLSchema-instance" xmlns:xsd="http://www.w3.org/2001/XMLSchema" version="1.1" creator="Shapelink.com" xmlns="http://www.topografix.com/GPX/1/1" xmlns:gpxtpx="http://www.garmin.com/xmlschemas/TrackPointExtension/v1">
  <metadata>
    <name>Cykling 65.76 km, 2016-04-13</name>
    <desc></desc>
    <author><name>Alexander Engvall</name></author> 
    <time>2016-04-13T17:46:16Z</time>
  </metadata>
  <trk>
    <name>Cykling 65.76 km, 2016-04-13</name>
    <trkseg>
      <trkpt lat="59.219622686634" lon="17.906863423777">
        <ele>37</ele>
        <time>2016-04-13T17:46:16Z</time>
      </trkpt>
      <trkpt lat="59.219569461569" lon="17.906839535362">
        <ele>37</ele>
        <time>2016-04-13T17:46:19Z</time>
      </trkpt>
      <trkpt lat="59.219511123545" lon="17.906814222024">
        <ele>36.2</ele>
        <time>2016-04-13T17:46:20Z</time>
      </trkpt>
      <trkpt lat="59.21944700201" lon="17.9068229392">
        <ele>36.2</ele>
        <time>2016-04-13T17:46:21Z</time>
      </trkpt>
      <trkpt lat="59.219379611534" lon="17.906874739342">
        <ele>36.2</ele>
        <time>2016-04-13T17:46:22Z</time>
      </trkpt>
      <trkpt lat="59.219207447308" lon="17.907092333466">
        <ele>36.2</ele>
        <time>2016-04-13T17:46:25Z</time>
      </trkpt>
      <trkpt lat="59.219156652994" lon="17.907173805534">
        <ele>36.2</ele>
        <time>2016-04-13T17:46:26Z</time>
      </trkpt>
      <trkpt lat="59.219101416273" lon="17.907250164643">
        <ele>35.6</ele>
        <time>2016-04-13T17:46:27Z</time>
      </trkpt>
      <trkpt lat="59.219045928095" lon="17.907312358341">
        <ele>35.2</ele>
        <time>2016-04-13T17:46:28Z</time>
      </trkpt>
      <trkpt lat="59.218982309474" lon="17.907320321146">
        <ele>34.8</ele>
        <time>2016-04-13T17:46:29Z</time>
      </trkpt>
      <trkpt lat="59.218932101893" lon="17.907253265946">
        <ele>34.4</ele>
        <time>2016-04-13T17:46:30Z</time>
      </trkpt>
      <trkpt lat="59.218886001443" lon="17.907165591272">
        <ele>34</ele>
        <time>2016-04-13T17:46:31Z</time>
      </trkpt>
      <trkpt lat="59.218803942642" lon="17.906928467321">
        <ele>34</ele>
        <time>2016-04-13T17:46:33Z</time>
      </trkpt>
      <trkpt lat="59.218589030726" lon="17.906351457325">
        <ele>34</ele>
        <time>2016-04-13T17:46:38Z</time>
      </trkpt>
      <trkpt lat="59.218554413479" lon="17.906231847612">
        <ele>34</ele>
        <time>2016-04-13T17:46:39Z</time>
      </trkpt>
      <trkpt lat="59.218508145391" lon="17.906121625627">
        <ele>34</ele>
        <time>2016-04-13T17:46:40Z</time>
      </trkpt>
      <trkpt lat="59.218357103553" lon="17.905807723472">
        <ele>34</ele>
        <time>2016-04-13T17:46:43Z</time>
      </trkpt>
      <trkpt lat="59.218315361691" lon="17.905676379099">
        <ele>34</ele>
        <time>2016-04-13T17:46:44Z</time>
      </trkpt>
      <trkpt lat="59.218187537716" lon="17.90528402236">
        <ele>34</ele>
        <time>2016-04-13T17:46:47Z</time>
      </trkpt>
      <trkpt lat="59.218138838877" lon="17.905145804829">
        <ele>34</ele>
        <time>2016-04-13T17:46:48Z</time>
      </trkpt>
      <trkpt lat="59.217888303886" lon="17.904485897842">
        <ele>34</ele>
        <time>2016-04-13T17:46:53Z</time>
      </trkpt>
      <trkpt lat="59.217519332648" lon="17.903518542763">
        <ele>34</ele>
        <time>2016-04-13T17:47:00Z</time>
      </trkpt>
      <trkpt lat="59.217409445939" lon="17.903261302252">
        <ele>34</ele>
        <time>2016-04-13T17:47:02Z</time>
      </trkpt>
      <trkpt lat="59.217240466835" lon="17.902913285764">
        <ele>34</ele>
        <time>2016-04-13T17:47:05Z</time>
      </trkpt>
      <trkpt lat="59.21702044196" lon="17.902297132295">
        <ele>34</ele>
        <time>2016-04-13T17:47:10Z</time>
      </trkpt>
      <trkpt lat="59.216995715355" lon="17.90222295248">
        <ele>34</ele>
        <time>2016-04-13T17:47:11Z</time>
      </trkpt>
      <trkpt lat="59.216740235043" lon="17.901594980532">
        <ele>34</ele>
        <time>2016-04-13T17:47:26Z</time>
      </trkpt>
      <trkpt lat="59.21670528252" lon="17.901520130165">
        <ele>34</ele>
        <time>2016-04-13T17:47:27Z</time>
      </trkpt>
      <trkpt lat="59.216554911234" lon="17.901108914151">
        <ele>34</ele>
        <time>2016-04-13T17:47:31Z</time>
      </trkpt>
      <trkpt lat="59.216238494509" lon="17.900316824601">
        <ele>34</ele>
        <time>2016-04-13T17:47:38Z</time>
      </trkpt>
      <trkpt lat="59.215968681148" lon="17.899790106005">
        <ele>34</ele>
        <time>2016-04-13T17:47:43Z</time>
      </trkpt>
      <trkpt lat="59.215912438599" lon="17.899687343911">
        <ele>34</ele>
        <time>2016-04-13T17:47:44Z</time>
      </trkpt>
      <trkpt lat="59.215486218984" lon="17.899015702264">
        <ele>34</ele>
        <time>2016-04-13T17:47:51Z</time>
      </trkpt>
      <trkpt lat="59.215025968855" lon="17.898444643417">
        <ele>34</ele>
        <time>2016-04-13T17:47:58Z</time>
      </trkpt>
      <trkpt lat="59.214620033438" lon="17.898029990824">
        <ele>34</ele>
        <time>2016-04-13T17:48:04Z</time>
      </trkpt>
      <trkpt lat="59.214242177386" lon="17.897694379548">
        <ele>34</ele>
        <time>2016-04-13T17:48:10Z</time>
      </trkpt>
      <trkpt lat="59.214136649265" lon="17.89761877481">
        <ele>34.4</ele>
        <time>2016-04-13T17:48:12Z</time>
      </trkpt>
      <trkpt lat="59.214085519675" lon="17.897580553346">
        <ele>34.8</ele>
        <time>2016-04-13T17:48:13Z</time>
      </trkpt>
      <trkpt lat="59.214036904655" lon="17.897544762633">
        <ele>35.4</ele>
        <time>2016-04-13T17:48:14Z</time>
      </trkpt>
      <trkpt lat="59.213988960187" lon="17.897509307196">
        <ele>35.8</ele>
        <time>2016-04-13T17:48:15Z</time>
      </trkpt>
      <trkpt lat="59.213944787574" lon="17.897472426836">
        <ele>36.4</ele>
        <time>2016-04-13T17:48:16Z</time>
      </trkpt>
      <trkpt lat="59.213898100391" lon="17.897442922548">
        <ele>36.8</ele>
        <time>2016-04-13T17:48:17Z</time>
      </trkpt>
      <trkpt lat="59.21385292195" lon="17.897417693029">
        <ele>37.4</ele>
        <time>2016-04-13T17:48:18Z</time>
      </trkpt>
      <trkpt lat="59.213809922803" lon="17.897387518189">
        <ele>37.8</ele>
        <time>2016-04-13T17:48:19Z</time>
      </trkpt>
      <trkpt lat="59.213767175113" lon="17.897357678625">
        <ele>38.4</ele>
        <time>2016-04-13T17:48:20Z</time>
      </trkpt>
      <trkpt lat="59.213724511242" lon="17.897329180165">
        <ele>38.8</ele>
        <time>2016-04-13T17:48:21Z</time>
      </trkpt>
      <trkpt lat="59.213684194303" lon="17.897303699189">
        <ele>39.4</ele>
        <time>2016-04-13T17:48:22Z</time>
      </trkpt>
      <trkpt lat="59.213643877364" lon="17.89728014605">
        <ele>39.8</ele>
        <time>2016-04-13T17:48:23Z</time>
      </trkpt>
      <trkpt lat="59.213601884045" lon="17.897249887391">
        <ele>40.4</ele>
        <time>2016-04-13T17:48:24Z</time>
      </trkpt>
      <trkpt lat="59.213559723088" lon="17.897211246832">
        <ele>41</ele>
        <time>2016-04-13T17:48:25Z</time>
      </trkpt>
      <trkpt lat="59.213518316502" lon="17.897178138327">
        <ele>41.6</ele>
        <time>2016-04-13T17:48:26Z</time>
      </trkpt>
      <trkpt lat="59.213473808613" lon="17.897145281279">
        <ele>42.2</ele>
        <time>2016-04-13T17:48:27Z</time>
      </trkpt>
      <trkpt lat="59.213433407855" lon="17.897112005136">
        <ele>42.8</ele>
        <time>2016-04-13T17:48:28Z</time>
      </trkpt>
      <trkpt lat="59.213387810319" lon="17.897073699853">
        <ele>43.2</ele>
        <time>2016-04-13T17:48:29Z</time>
      </trkpt>
      <trkpt lat="59.213345314086" lon="17.897035813665">
        <ele>43.8</ele>
        <time>2016-04-13T17:48:30Z</time>
      </trkpt>
      <trkpt lat="59.2133039075" lon="17.896996754011">
        <ele>44.2</ele>
        <time>2016-04-13T17:48:31Z</time>
      </trkpt>
      <trkpt lat="59.213263422923" lon="17.896957610538">
        <ele>44.6</ele>
        <time>2016-04-13T17:48:32Z</time>
      </trkpt>
      <trkpt lat="59.213224195631" lon="17.896921484549">
        <ele>45.2</ele>
        <time>2016-04-13T17:48:33Z</time>
      </trkpt>
      <trkpt lat="59.213183040502" lon="17.89688954951">
        <ele>45.6</ele>
        <time>2016-04-13T17:48:34Z</time>
      </trkpt>
      <trkpt lat="59.213143226477" lon="17.896858117385">
        <ele>46.2</ele>
        <time>2016-04-13T17:48:35Z</time>
      </trkpt>
      <trkpt lat="59.213108273954" lon="17.89682836164">
        <ele>46.6</ele>
        <time>2016-04-13T17:48:36Z</time>
      </trkpt>
      <trkpt lat="59.213073069974" lon="17.896796845696">
        <ele>47.2</ele>
        <time>2016-04-13T17:48:37Z</time>
      </trkpt>
      <trkpt lat="59.213038955641" lon="17.896764156286">
        <ele>47.6</ele>
        <time>2016-04-13T17:48:38Z</time>
      </trkpt>
      <trkpt lat="59.213004003118" lon="17.8967311316">
        <ele>48.2</ele>
        <time>2016-04-13T17:48:39Z</time>
      </trkpt>
      <trkpt lat="59.212970056423" lon="17.896702465502">
        <ele>48.8</ele>
        <time>2016-04-13T17:48:40Z</time>
      </trkpt>
      <trkpt lat="59.212937534651" lon="17.896668099712">
        <ele>49.2</ele>
        <time>2016-04-13T17:48:41Z</time>
      </trkpt>
      <trkpt lat="59.212904007051" lon="17.896639098338">
        <ele>49.8</ele>
        <time>2016-04-13T17:48:42Z</time>
      </trkpt>
      <trkpt lat="59.212831335978" lon="17.896570785853">
        <ele>50.2</ele>
        <time>2016-04-13T17:48:44Z</time>
      </trkpt>
      <trkpt lat="59.212796886369" lon="17.896542119755">
        <ele>50.6</ele>
        <time>2016-04-13T17:48:45Z</time>
      </trkpt>
      <trkpt lat="59.212760173647" lon="17.896515632951">
        <ele>51</ele>
        <time>2016-04-13T17:48:46Z</time>
      </trkpt>
      <trkpt lat="59.212724131477" lon="17.896489816699">
        <ele>51.4</ele>
        <time>2016-04-13T17:48:47Z</time>
      </trkpt>
      <trkpt lat="59.212687083479" lon="17.896462407886">
        <ele>52</ele>
        <time>2016-04-13T17:48:48Z</time>
      </trkpt>
      <trkpt lat="59.212649197291" lon="17.896434999073">
        <ele>52.4</ele>
        <time>2016-04-13T17:48:49Z</time>
      </trkpt>
      <trkpt lat="59.212608042162" lon="17.896407338803">
        <ele>52.8</ele>
        <time>2016-04-13T17:48:50Z</time>
      </trkpt>
      <trkpt lat="59.212569150146" lon="17.896383450388">
        <ele>53.2</ele>
        <time>2016-04-13T17:48:51Z</time>
      </trkpt>
      <trkpt lat="59.212525899542" lon="17.896358807602">
        <ele>53.6</ele>
        <time>2016-04-13T17:48:52Z</time>
      </trkpt>
      <trkpt lat="59.212482146024" lon="17.896333578083">
        <ele>54</ele>
        <time>2016-04-13T17:48:53Z</time>
      </trkpt>
      <trkpt lat="59.212439063058" lon="17.89631790393">
        <ele>54.4</ele>
        <time>2016-04-13T17:48:54Z</time>
      </trkpt>
      <trkpt lat="59.21239447135" lon="17.896300218121">
        <ele>54.8</ele>
        <time>2016-04-13T17:48:55Z</time>
      </trkpt>
      <trkpt lat="59.212352058936" lon="17.89628353814">
        <ele>55.2</ele>
        <time>2016-04-13T17:48:56Z</time>
      </trkpt>
      <trkpt lat="59.212310149436" lon="17.896265517055">
        <ele>55.6</ele>
        <time>2016-04-13T17:48:57Z</time>
      </trkpt>
      <trkpt lat="59.212266479737" lon="17.896242047735">
        <ele>56.2</ele>
        <time>2016-04-13T17:48:58Z</time>
      </trkpt>
      <trkpt lat="59.2122226424" lon="17.896228636695">
        <ele>56.2</ele>
        <time>2016-04-13T17:48:59Z</time>
      </trkpt>
      <trkpt lat="59.212135135364" lon="17.896201982253">
        <ele>56.2</ele>
        <time>2016-04-13T17:49:01Z</time>
      </trkpt>
      <trkpt lat="59.211785777772" lon="17.896105255127">
        <ele>56.2</ele>
        <time>2016-04-13T17:49:08Z</time>
      </trkpt>
      <trkpt lat="59.211574805349" lon="17.896048761121">
        <ele>56.6</ele>
        <time>2016-04-13T17:49:12Z</time>
      </trkpt>
      <trkpt lat="59.211520658275" lon="17.896052784433">
        <ele>57</ele>
        <time>2016-04-13T17:49:13Z</time>
      </trkpt>
      <trkpt lat="59.211469528685" lon="17.896052030062">
        <ele>57.4</ele>
        <time>2016-04-13T17:49:14Z</time>
      </trkpt>
      <trkpt lat="59.211420243113" lon="17.896065692559">
        <ele>57.8</ele>
        <time>2016-04-13T17:49:15Z</time>
      </trkpt>
      <trkpt lat="59.211363916745" lon="17.896082288721">
        <ele>58.2</ele>
        <time>2016-04-13T17:49:16Z</time>
      </trkpt>
      <trkpt lat="59.211165098077" lon="17.896193432715">
        <ele>58.2</ele>
        <time>2016-04-13T17:49:19Z</time>
      </trkpt>
      <trkpt lat="59.210917748208" lon="17.896549160551">
        <ele>58.2</ele>
        <time>2016-04-13T17:49:23Z</time>
      </trkpt>
      <trkpt lat="59.210782296704" lon="17.896686958987">
        <ele>58.2</ele>
        <time>2016-04-13T17:49:25Z</time>
      </trkpt>
      <trkpt lat="59.210633937074" lon="17.896788463796">
        <ele>57.8</ele>
        <time>2016-04-13T17:49:27Z</time>
      </trkpt>
      <trkpt lat="59.210545843305" lon="17.896822075215">
        <ele>57.4</ele>
        <time>2016-04-13T17:49:28Z</time>
      </trkpt>
      <trkpt lat="59.210455067328" lon="17.896833055504">
        <ele>57</ele>
        <time>2016-04-13T17:49:29Z</time>
      </trkpt>
      <trkpt lat="59.210358926935" lon="17.896823667776">
        <ele>56.4</ele>
        <time>2016-04-13T17:49:30Z</time>
      </trkpt>
      <trkpt lat="59.210257422126" lon="17.896798102981">
        <ele>55.8</ele>
        <time>2016-04-13T17:49:31Z</time>
      </trkpt>
      <trkpt lat="59.210151391091" lon="17.896777902602">
        <ele>55.2</ele>
        <time>2016-04-13T17:49:32Z</time>
      </trkpt>
      <trkpt lat="59.210043180762" lon="17.896763318096">
        <ele>54.2</ele>
        <time>2016-04-13T17:49:33Z</time>
      </trkpt>
      <trkpt lat="59.209927007628" lon="17.896754684739">
        <ele>53.4</ele>
        <time>2016-04-13T17:49:34Z</time>
      </trkpt>
      <trkpt lat="59.209805805354" lon="17.89676968834">
        <ele>52.2</ele>
        <time>2016-04-13T17:49:35Z</time>
      </trkpt>
      <trkpt lat="59.209675131533" lon="17.896825260337">
        <ele>51.2</ele>
        <time>2016-04-13T17:49:36Z</time>
      </trkpt>
      <trkpt lat="59.209557617295" lon="17.896908744061">
        <ele>49.8</ele>
        <time>2016-04-13T17:49:37Z</time>
      </trkpt>
      <trkpt lat="59.209430128596" lon="17.896986108998">
        <ele>48.4</ele>
        <time>2016-04-13T17:49:38Z</time>
      </trkpt>
      <trkpt lat="59.209305405924" lon="17.897069676541">
        <ele>46.8</ele>
        <time>2016-04-13T17:49:39Z</time>
      </trkpt>
      <trkpt lat="59.209178252501" lon="17.897134468628">
        <ele>45.2</ele>
        <time>2016-04-13T17:49:40Z</time>
      </trkpt>
      <trkpt lat="59.209047997775" lon="17.897178054508">
        <ele>44</ele>
        <time>2016-04-13T17:49:41Z</time>
      </trkpt>
      <trkpt lat="59.208912294814" lon="17.897192639014">
        <ele>41.2</ele>
        <time>2016-04-13T17:49:42Z</time>
      </trkpt>
      <trkpt lat="59.208781704812" lon="17.897157854129">
        <ele>39.8</ele>
        <time>2016-04-13T17:49:43Z</time>
      </trkpt>
      <trkpt lat="59.208649103154" lon="17.897118543018">
        <ele>38.4</ele>
        <time>2016-04-13T17:49:44Z</time>
      </trkpt>
      <trkpt lat="59.208524631939" lon="17.897086859436">
        <ele>37.8</ele>
        <time>2016-04-13T17:49:45Z</time>
      </trkpt>
      <trkpt lat="59.208404351674" lon="17.897048554153">
        <ele>37.2</ele>
        <time>2016-04-13T17:49:46Z</time>
      </trkpt>
      <trkpt lat="59.208284909599" lon="17.897022234987">
        <ele>36.6</ele>
        <time>2016-04-13T17:49:47Z</time>
      </trkpt>
      <trkpt lat="59.208169407017" lon="17.897001280237">
        <ele>36.2</ele>
        <time>2016-04-13T17:49:48Z</time>
      </trkpt>
      <trkpt lat="59.208054658806" lon="17.897014104544">
        <ele>35.6</ele>
        <time>2016-04-13T17:49:49Z</time>
      </trkpt>
      <trkpt lat="59.207708821612" lon="17.897219461094">
        <ele>35.6</ele>
        <time>2016-04-13T17:49:52Z</time>
      </trkpt>
      <trkpt lat="59.207446384323" lon="17.89768247725">
        <ele>35.6</ele>
        <time>2016-04-13T17:49:55Z</time>
      </trkpt>
      <trkpt lat="59.207313866484" lon="17.898007527332">
        <ele>35.6</ele>
        <time>2016-04-13T17:49:57Z</time>
      </trkpt>
      <trkpt lat="59.207189562907" lon="17.898320758935">
        <ele>35.6</ele>
        <time>2016-04-13T17:49:59Z</time>
      </trkpt>
      <trkpt lat="59.206868452318" lon="17.899110417734">
        <ele>35.6</ele>
        <time>2016-04-13T17:50:05Z</time>
      </trkpt>
      <trkpt lat="59.206790500648" lon="17.899285347987">
        <ele>36.4</ele>
        <time>2016-04-13T17:50:07Z</time>
      </trkpt>
      <trkpt lat="59.206758817066" lon="17.899357348508">
        <ele>36.8</ele>
        <time>2016-04-13T17:50:08Z</time>
      </trkpt>
      <trkpt lat="59.20672579238" lon="17.899436306006">
        <ele>37.2</ele>
        <time>2016-04-13T17:50:09Z</time>
      </trkpt>
      <trkpt lat="59.206687990011" lon="17.899521717567">
        <ele>37.8</ele>
        <time>2016-04-13T17:50:10Z</time>
      </trkpt>
      <trkpt lat="59.206575588732" lon="17.899836374093">
        <ele>37.8</ele>
        <time>2016-04-13T17:50:13Z</time>
      </trkpt>
      <trkpt lat="59.206337207496" lon="17.900433249192">
        <ele>37.8</ele>
        <time>2016-04-13T17:50:18Z</time>
      </trkpt>
      <trkpt lat="59.206284652983" lon="17.900554870561">
        <ele>37.2</ele>
        <time>2016-04-13T17:50:19Z</time>
      </trkpt>
      <trkpt lat="59.206223213656" lon="17.90066140451">
        <ele>36.8</ele>
        <time>2016-04-13T17:50:20Z</time>
      </trkpt>
      <trkpt lat="59.206162863976" lon="17.9007628255">
        <ele>36.4</ele>
        <time>2016-04-13T17:50:21Z</time>
      </trkpt>
      <trkpt lat="59.206096479328" lon="17.900865252318">
        <ele>36</ele>
        <time>2016-04-13T17:50:22Z</time>
      </trkpt>
      <trkpt lat="59.206032944526" lon="17.900961057435">
        <ele>35.6</ele>
        <time>2016-04-13T17:50:23Z</time>
      </trkpt>
      <trkpt lat="59.205918112496" lon="17.901126683779">
        <ele>35.2</ele>
        <time>2016-04-13T17:50:25Z</time>
      </trkpt>
      <trkpt lat="59.205864384517" lon="17.901210167503">
        <ele>34.8</ele>
        <time>2016-04-13T17:50:26Z</time>
      </trkpt>
      <trkpt lat="59.205813171108" lon="17.901299183281">
        <ele>34.4</ele>
        <time>2016-04-13T17:50:27Z</time>
      </trkpt>
      <trkpt lat="59.205756593283" lon="17.901382583186">
        <ele>33.8</ele>
        <time>2016-04-13T17:50:28Z</time>
      </trkpt>
      <trkpt lat="59.205690208635" lon="17.90146774329">
        <ele>33.4</ele>
        <time>2016-04-13T17:50:29Z</time>
      </trkpt>
      <trkpt lat="59.205443445499" lon="17.901793631562">
        <ele>33.4</ele>
        <time>2016-04-13T17:50:33Z</time>
      </trkpt>
      <trkpt lat="59.205313358411" lon="17.901780974893">
        <ele>32.8</ele>
        <time>2016-04-13T17:50:35Z</time>
      </trkpt>
      <trkpt lat="59.20526650359" lon="17.901696233884">
        <ele>32.4</ele>
        <time>2016-04-13T17:50:36Z</time>
      </trkpt>
      <trkpt lat="59.205225683737" lon="17.90157419342">
        <ele>31.8</ele>
        <time>2016-04-13T17:50:37Z</time>
      </trkpt>
      <trkpt lat="59.205185282979" lon="17.901447542911">
        <ele>31.2</ele>
        <time>2016-04-13T17:50:38Z</time>
      </trkpt>
      <trkpt lat="59.205135326855" lon="17.901321814411">
        <ele>30.6</ele>
        <time>2016-04-13T17:50:39Z</time>
      </trkpt>
      <trkpt lat="59.20507958722" lon="17.901193822798">
        <ele>30.6</ele>
        <time>2016-04-13T17:50:40Z</time>
      </trkpt>
      <trkpt lat="59.205022171205" lon="17.901059963855">
        <ele>30.6</ele>
        <time>2016-04-13T17:50:41Z</time>
      </trkpt>
      <trkpt lat="59.204699551874" lon="17.90021297286">
        <ele>30.6</ele>
        <time>2016-04-13T17:50:47Z</time>
      </trkpt>
      <trkpt lat="59.204650936854" lon="17.900069977646">
        <ele>30.6</ele>
        <time>2016-04-13T17:50:48Z</time>
      </trkpt>
      <trkpt lat="59.204414399636" lon="17.899324826736">
        <ele>30.2</ele>
        <time>2016-04-13T17:50:53Z</time>
      </trkpt>
      <trkpt lat="59.204361174571" lon="17.899156434365">
        <ele>29.6</ele>
        <time>2016-04-13T17:50:54Z</time>
      </trkpt>
      <trkpt lat="59.204308117144" lon="17.898978654266">
        <ele>29.2</ele>
        <time>2016-04-13T17:50:55Z</time>
      </trkpt>
      <trkpt lat="59.204253383337" lon="17.898798862511">
        <ele>27.6</ele>
        <time>2016-04-13T17:50:56Z</time>
      </trkpt>
      <trkpt lat="59.204197643702" lon="17.898610521218">
        <ele>27</ele>
        <time>2016-04-13T17:50:57Z</time>
      </trkpt>
      <trkpt lat="59.204139808592" lon="17.8984242754">
        <ele>26.2</ele>
        <time>2016-04-13T17:50:58Z</time>
      </trkpt>
      <trkpt lat="59.204072669573" lon="17.898229647682">
        <ele>25.4</ele>
        <time>2016-04-13T17:50:59Z</time>
      </trkpt>
      <trkpt lat="59.204005446735" lon="17.898053376325">
        <ele>24.6</ele>
        <time>2016-04-13T17:51:00Z</time>
      </trkpt>
      <trkpt lat="59.203936631336" lon="17.897880709185">
        <ele>24</ele>
        <time>2016-04-13T17:51:01Z</time>
      </trkpt>
      <trkpt lat="59.203868654127" lon="17.897704437828">
        <ele>23.2</ele>
        <time>2016-04-13T17:51:02Z</time>
      </trkpt>
      <trkpt lat="59.203799000538" lon="17.897540152588">
        <ele>23.2</ele>
        <time>2016-04-13T17:51:03Z</time>
      </trkpt>
      <trkpt lat="59.203479398691" lon="17.896677571259">
        <ele>23.2</ele>
        <time>2016-04-13T17:51:08Z</time>
      </trkpt>
      <trkpt lat="59.203414271328" lon="17.896488391776">
        <ele>23.2</ele>
        <time>2016-04-13T17:51:09Z</time>
      </trkpt>
      <trkpt lat="59.203354508381" lon="17.896305414899">
        <ele>22.8</ele>
        <time>2016-04-13T17:51:10Z</time>
      </trkpt>
      <trkpt lat="59.203299690755" lon="17.896132161026">
        <ele>22.4</ele>
        <time>2016-04-13T17:51:11Z</time>
      </trkpt>
      <trkpt lat="59.203250572821" lon="17.895968043424">
        <ele>21.8</ele>
        <time>2016-04-13T17:51:12Z</time>
      </trkpt>
      <trkpt lat="59.203191312788" lon="17.895791017696">
        <ele>21.4</ele>
        <time>2016-04-13T17:51:13Z</time>
      </trkpt>
      <trkpt lat="59.203141356664" lon="17.895615416891">
        <ele>21.8</ele>
        <time>2016-04-13T17:51:14Z</time>
      </trkpt>
      <trkpt lat="59.203085952305" lon="17.895437050059">
        <ele>22.2</ele>
        <time>2016-04-13T17:51:15Z</time>
      </trkpt>
      <trkpt lat="59.2030276981" lon="17.895257258304">
        <ele>22.4</ele>
        <time>2016-04-13T17:51:16Z</time>
      </trkpt>
      <trkpt lat="59.202970533542" lon="17.895078472377">
        <ele>22.8</ele>
        <time>2016-04-13T17:51:17Z</time>
      </trkpt>
      <trkpt lat="59.202910100043" lon="17.894894824948">
        <ele>23</ele>
        <time>2016-04-13T17:51:18Z</time>
      </trkpt>
      <trkpt lat="59.202719747094" lon="17.894334243476">
        <ele>23</ele>
        <time>2016-04-13T17:51:21Z</time>
      </trkpt>
      <trkpt lat="59.202393272089" lon="17.893476188373">
        <ele>23</ele>
        <time>2016-04-13T17:51:26Z</time>
      </trkpt>
      <trkpt lat="59.202269555245" lon="17.893128758618">
        <ele>23</ele>
        <time>2016-04-13T17:51:28Z</time>
      </trkpt>
      <trkpt lat="59.202029665267" lon="17.892233320241">
        <ele>23</ele>
        <time>2016-04-13T17:51:33Z</time>
      </trkpt>
      <trkpt lat="59.201850544064" lon="17.891497640878">
        <ele>23</ele>
        <time>2016-04-13T17:51:37Z</time>
      </trkpt>
      <trkpt lat="59.201639068727" lon="17.890575631878">
        <ele>23</ele>
        <time>2016-04-13T17:51:42Z</time>
      </trkpt>
      <trkpt lat="59.201427425752" lon="17.889658987294">
        <ele>23</ele>
        <time>2016-04-13T17:51:47Z</time>
      </trkpt>
      <trkpt lat="59.201157025658" lon="17.888757011035">
        <ele>22.6</ele>
        <time>2016-04-13T17:51:52Z</time>
      </trkpt>
      <trkpt lat="59.201095334874" lon="17.888585014447">
        <ele>22.2</ele>
        <time>2016-04-13T17:51:53Z</time>
      </trkpt>
      <trkpt lat="59.201030458968" lon="17.888411844393">
        <ele>21.6</ele>
        <time>2016-04-13T17:51:54Z</time>
      </trkpt>
      <trkpt lat="59.2009657507" lon="17.888235908312">
        <ele>21.2</ele>
        <time>2016-04-13T17:51:55Z</time>
      </trkpt>
      <trkpt lat="59.200906155391" lon="17.888060223688">
        <ele>20.8</ele>
        <time>2016-04-13T17:51:56Z</time>
      </trkpt>
      <trkpt lat="59.200644472473" lon="17.887350025301">
        <ele>20.8</ele>
        <time>2016-04-13T17:52:00Z</time>
      </trkpt>
      <trkpt lat="59.200371054895" lon="17.886608981522">
        <ele>20.2</ele>
        <time>2016-04-13T17:52:04Z</time>
      </trkpt>
      <trkpt lat="59.200299557288" lon="17.88642307098">
        <ele>19.8</ele>
        <time>2016-04-13T17:52:05Z</time>
      </trkpt>
      <trkpt lat="59.200230406613" lon="17.886226180149">
        <ele>19.4</ele>
        <time>2016-04-13T17:52:06Z</time>
      </trkpt>
      <trkpt lat="59.200162848499" lon="17.886045298747">
        <ele>18.8</ele>
        <time>2016-04-13T17:52:07Z</time>
      </trkpt>
      <trkpt lat="59.200098391688" lon="17.885856873635">
        <ele>18.4</ele>
        <time>2016-04-13T17:52:08Z</time>
      </trkpt>
      <trkpt lat="59.200030582117" lon="17.885670963093">
        <ele>17.4</ele>
        <time>2016-04-13T17:52:09Z</time>
      </trkpt>
      <trkpt lat="59.199969394247" lon="17.885482202705">
        <ele>16.8</ele>
        <time>2016-04-13T17:52:10Z</time>
      </trkpt>
      <trkpt lat="59.19990879311" lon="17.885290508652">
        <ele>16.4</ele>
        <time>2016-04-13T17:52:11Z</time>
      </trkpt>
      <trkpt lat="59.199804438455" lon="17.884869485815">
        <ele>15.8</ele>
        <time>2016-04-13T17:52:13Z</time>
      </trkpt>
      <trkpt lat="59.199770072665" lon="17.884650215311">
        <ele>15.4</ele>
        <time>2016-04-13T17:52:14Z</time>
      </trkpt>
      <trkpt lat="59.19973612597" lon="17.884431782997">
        <ele>15</ele>
        <time>2016-04-13T17:52:15Z</time>
      </trkpt>
      <trkpt lat="59.199710393537" lon="17.884211758122">
        <ele>14.4</ele>
        <time>2016-04-13T17:52:16Z</time>
      </trkpt>
      <trkpt lat="59.199694887022" lon="17.883982177881">
        <ele>14</ele>
        <time>2016-04-13T17:52:17Z</time>
      </trkpt>
      <trkpt lat="59.199665634191" lon="17.883056564664">
        <ele>13.6</ele>
        <time>2016-04-13T17:52:21Z</time>
      </trkpt>
      <trkpt lat="59.199663371078" lon="17.882829666631">
        <ele>13.2</ele>
        <time>2016-04-13T17:52:22Z</time>
      </trkpt>
      <trkpt lat="59.199660269775" lon="17.882608803566">
        <ele>12.8</ele>
        <time>2016-04-13T17:52:23Z</time>
      </trkpt>
      <trkpt lat="59.199662951983" lon="17.88238886251">
        <ele>12.4</ele>
        <time>2016-04-13T17:52:24Z</time>
      </trkpt>
      <trkpt lat="59.199668400218" lon="17.88217428587">
        <ele>12</ele>
        <time>2016-04-13T17:52:25Z</time>
      </trkpt>
      <trkpt lat="59.1996917019" lon="17.88175602906">
        <ele>12.4</ele>
        <time>2016-04-13T17:52:27Z</time>
      </trkpt>
      <trkpt lat="59.199703771836" lon="17.881540530411">
        <ele>12.8</ele>
        <time>2016-04-13T17:52:28Z</time>
      </trkpt>
      <trkpt lat="59.199719278351" lon="17.881336012051">
        <ele>13.4</ele>
        <time>2016-04-13T17:52:29Z</time>
      </trkpt>
      <trkpt lat="59.19973780235" lon="17.881127554198">
        <ele>14</ele>
        <time>2016-04-13T17:52:30Z</time>
      </trkpt>
      <trkpt lat="59.199760098204" lon="17.88093292648">
        <ele>14.4</ele>
        <time>2016-04-13T17:52:31Z</time>
      </trkpt>
      <trkpt lat="59.199787339379" lon="17.880730671233">
        <ele>15</ele>
        <time>2016-04-13T17:52:32Z</time>
      </trkpt>
      <trkpt lat="59.199817095124" lon="17.880528164529">
        <ele>15.6</ele>
        <time>2016-04-13T17:52:33Z</time>
      </trkpt>
      <trkpt lat="59.199838217512" lon="17.880327585662">
        <ele>16.2</ele>
        <time>2016-04-13T17:52:34Z</time>
      </trkpt>
      <trkpt lat="59.199897812821" lon="17.879925505919">
        <ele>16.8</ele>
        <time>2016-04-13T17:52:36Z</time>
      </trkpt>
      <trkpt lat="59.199929496403" lon="17.879730626744">
        <ele>17.2</ele>
        <time>2016-04-13T17:52:37Z</time>
      </trkpt>
      <trkpt lat="59.199964029831" lon="17.879533652094">
        <ele>17.6</ele>
        <time>2016-04-13T17:52:38Z</time>
      </trkpt>
      <trkpt lat="59.199996216327" lon="17.87933533634">
        <ele>18</ele>
        <time>2016-04-13T17:52:39Z</time>
      </trkpt>
      <trkpt lat="59.200031671764" lon="17.879134003102">
        <ele>18.4</ele>
        <time>2016-04-13T17:52:40Z</time>
      </trkpt>
      <trkpt lat="59.200204757999" lon="17.878139742124">
        <ele>18.4</ele>
        <time>2016-04-13T17:52:45Z</time>
      </trkpt>
      <trkpt lat="59.200406175056" lon="17.876953535636">
        <ele>18.4</ele>
        <time>2016-04-13T17:52:51Z</time>
      </trkpt>
      <trkpt lat="59.200603568801" lon="17.875769592261">
        <ele>18.4</ele>
        <time>2016-04-13T17:52:57Z</time>
      </trkpt>
      <trkpt lat="59.200642293179" lon="17.875573707258">
        <ele>18.4</ele>
        <time>2016-04-13T17:52:58Z</time>
      </trkpt>
      <trkpt lat="59.200803058021" lon="17.87440007362">
        <ele>18.4</ele>
        <time>2016-04-13T17:53:04Z</time>
      </trkpt>
      <trkpt lat="59.200830969748" lon="17.873418134035">
        <ele>18.4</ele>
        <time>2016-04-13T17:53:09Z</time>
      </trkpt>
      <trkpt lat="59.200803812392" lon="17.872507021505">
        <ele>18.4</ele>
        <time>2016-04-13T17:53:14Z</time>
      </trkpt>
      <trkpt lat="59.200795681949" lon="17.872357991323">
        <ele>18.8</ele>
        <time>2016-04-13T17:53:15Z</time>
      </trkpt>
      <trkpt lat="59.200790904266" lon="17.872184318355">
        <ele>19.2</ele>
        <time>2016-04-13T17:53:16Z</time>
      </trkpt>
      <trkpt lat="59.20077212881" lon="17.872025313712">
        <ele>19.6</ele>
        <time>2016-04-13T17:53:17Z</time>
      </trkpt>
      <trkpt lat="59.200750922603" lon="17.871871002933">
        <ele>20</ele>
        <time>2016-04-13T17:53:18Z</time>
      </trkpt>
      <trkpt lat="59.200722088867" lon="17.871721302199">
        <ele>20.8</ele>
        <time>2016-04-13T17:53:19Z</time>
      </trkpt>
      <trkpt lat="59.200700295927" lon="17.871564644488">
        <ele>21.4</ele>
        <time>2016-04-13T17:53:20Z</time>
      </trkpt>
      <trkpt lat="59.200655201305" lon="17.871415195211">
        <ele>22.2</ele>
        <time>2016-04-13T17:53:21Z</time>
      </trkpt>
      <trkpt lat="59.200596695643" lon="17.87128116863">
        <ele>22.8</ele>
        <time>2016-04-13T17:53:22Z</time>
      </trkpt>
      <trkpt lat="59.200541123646" lon="17.871167258609">
        <ele>23.6</ele>
        <time>2016-04-13T17:53:23Z</time>
      </trkpt>
      <trkpt lat="59.200486222201" lon="17.871049576733">
        <ele>23.6</ele>
        <time>2016-04-13T17:53:24Z</time>
      </trkpt>
      <trkpt lat="59.200313806518" lon="17.87069611201">
        <ele>23.6</ele>
        <time>2016-04-13T17:53:27Z</time>
      </trkpt>
      <trkpt lat="59.199949612963" lon="17.869908632505">
        <ele>23.6</ele>
        <time>2016-04-13T17:53:33Z</time>
      </trkpt>
      <trkpt lat="59.199890436749" lon="17.869764547644">
        <ele>23.6</ele>
        <time>2016-04-13T17:53:34Z</time>
      </trkpt>
      <trkpt lat="59.199766384629" lon="17.869452657145">
        <ele>23.2</ele>
        <time>2016-04-13T17:53:36Z</time>
      </trkpt>
      <trkpt lat="59.199703268922" lon="17.869293401045">
        <ele>22.8</ele>
        <time>2016-04-13T17:53:37Z</time>
      </trkpt>
      <trkpt lat="59.199641075224" lon="17.869123835208">
        <ele>22.4</ele>
        <time>2016-04-13T17:53:38Z</time>
      </trkpt>
      <trkpt lat="59.199578210974" lon="17.86895183862">
        <ele>21.8</ele>
        <time>2016-04-13T17:53:39Z</time>
      </trkpt>
      <trkpt lat="59.199518699484" lon="17.86877246596">
        <ele>21</ele>
        <time>2016-04-13T17:53:40Z</time>
      </trkpt>
      <trkpt lat="59.199462289297" lon="17.868591836015">
        <ele>20.4</ele>
        <time>2016-04-13T17:53:41Z</time>
      </trkpt>
      <trkpt lat="59.199406298205" lon="17.868409194414">
        <ele>19.8</ele>
        <time>2016-04-13T17:53:42Z</time>
      </trkpt>
      <trkpt lat="59.199350223294" lon="17.868209705194">
        <ele>19.2</ele>
        <time>2016-04-13T17:53:43Z</time>
      </trkpt>
      <trkpt lat="59.199295992401" lon="17.868019519883">
        <ele>18.6</ele>
        <time>2016-04-13T17:53:44Z</time>
      </trkpt>
      <trkpt lat="59.199246539191" lon="17.867826568545">
        <ele>17.8</ele>
        <time>2016-04-13T17:53:45Z</time>
      </trkpt>
      <trkpt lat="59.199202701854" lon="17.867619870891">
        <ele>16.8</ele>
        <time>2016-04-13T17:53:46Z</time>
      </trkpt>
      <trkpt lat="59.199157607232" lon="17.867410742486">
        <ele>16</ele>
        <time>2016-04-13T17:53:47Z</time>
      </trkpt>
      <trkpt lat="59.199114021352" lon="17.867193986552">
        <ele>14.6</ele>
        <time>2016-04-13T17:53:48Z</time>
      </trkpt>
      <trkpt lat="59.199072530947" lon="17.866974967505">
        <ele>14</ele>
        <time>2016-04-13T17:53:49Z</time>
      </trkpt>
      <trkpt lat="59.199032214008" lon="17.866742788875">
        <ele>13.2</ele>
        <time>2016-04-13T17:53:50Z</time>
      </trkpt>
      <trkpt lat="59.198998686408" lon="17.866516309937">
        <ele>12.4</ele>
        <time>2016-04-13T17:53:51Z</time>
      </trkpt>
      <trkpt lat="59.19896582936" lon="17.866297039433">
        <ele>11.8</ele>
        <time>2016-04-13T17:53:52Z</time>
      </trkpt>
      <trkpt lat="59.198939677832" lon="17.866067710649">
        <ele>11</ele>
        <time>2016-04-13T17:53:53Z</time>
      </trkpt>
      <trkpt lat="59.198914615951" lon="17.865836034933">
        <ele>10.2</ele>
        <time>2016-04-13T17:53:54Z</time>
      </trkpt>
      <trkpt lat="59.198895086124" lon="17.865606538511">
        <ele>9.4</ele>
        <time>2016-04-13T17:53:55Z</time>
      </trkpt>
      <trkpt lat="59.198865414198" lon="17.865144695821">
        <ele>9.4</ele>
        <time>2016-04-13T17:53:57Z</time>
      </trkpt>
      <trkpt lat="59.198854685366" lon="17.864009618923">
        <ele>9.4</ele>
        <time>2016-04-13T17:54:02Z</time>
      </trkpt>
      <trkpt lat="59.198890140803" lon="17.862890802911">
        <ele>9.4</ele>
        <time>2016-04-13T17:54:07Z</time>
      </trkpt>
      <trkpt lat="59.198894331753" lon="17.862669688389">
        <ele>9.4</ele>
        <time>2016-04-13T17:54:08Z</time>
      </trkpt>
      <trkpt lat="59.198907910431" lon="17.861546597608">
        <ele>9.4</ele>
        <time>2016-04-13T17:54:13Z</time>
      </trkpt>
      <trkpt lat="59.198904138576" lon="17.860906304267">
        <ele>9.4</ele>
        <time>2016-04-13T17:54:16Z</time>
      </trkpt>
      <trkpt lat="59.198890978993" lon="17.860044980223">
        <ele>9.8</ele>
        <time>2016-04-13T17:54:20Z</time>
      </trkpt>
      <trkpt lat="59.198889470251" lon="17.85982478771">
        <ele>10.2</ele>
        <time>2016-04-13T17:54:21Z</time>
      </trkpt>
      <trkpt lat="59.198890559898" lon="17.859604595197">
        <ele>10.6</ele>
        <time>2016-04-13T17:54:22Z</time>
      </trkpt>
      <trkpt lat="59.198885530758" lon="17.859381971933">
        <ele>11</ele>
        <time>2016-04-13T17:54:23Z</time>
      </trkpt>
      <trkpt lat="59.198889051156" lon="17.859168233483">
        <ele>11.4</ele>
        <time>2016-04-13T17:54:24Z</time>
      </trkpt>
      <trkpt lat="59.198921153833" lon="17.858081687786">
        <ele>11.4</ele>
        <time>2016-04-13T17:54:29Z</time>
      </trkpt>
      <trkpt lat="59.198940180746" lon="17.857422451351">
        <ele>11.4</ele>
        <time>2016-04-13T17:54:32Z</time>
      </trkpt>
      <trkpt lat="59.198969852672" lon="17.856353088549">
        <ele>11.4</ele>
        <time>2016-04-13T17:54:37Z</time>
      </trkpt>
      <trkpt lat="59.198979743314" lon="17.855950254435">
        <ele>11.4</ele>
        <time>2016-04-13T17:54:39Z</time>
      </trkpt>
      <trkpt lat="59.199021233719" lon="17.854963118072">
        <ele>11.4</ele>
        <time>2016-04-13T17:54:44Z</time>
      </trkpt>
      <trkpt lat="59.199054090767" lon="17.853987548731">
        <ele>11.4</ele>
        <time>2016-04-13T17:54:49Z</time>
      </trkpt>
      <trkpt lat="59.199061047744" lon="17.853776576308">
        <ele>11.4</ele>
        <time>2016-04-13T17:54:50Z</time>
      </trkpt>
      <trkpt lat="59.19908652872" lon="17.852913743522">
        <ele>11</ele>
        <time>2016-04-13T17:54:54Z</time>
      </trkpt>
      <trkpt lat="59.199093653335" lon="17.852682151625">
        <ele>10.6</ele>
        <time>2016-04-13T17:54:55Z</time>
      </trkpt>
      <trkpt lat="59.199097592828" lon="17.852438322154">
        <ele>9.8</ele>
        <time>2016-04-13T17:54:56Z</time>
      </trkpt>
      <trkpt lat="59.199101280864" lon="17.852194911778">
        <ele>8.8</ele>
        <time>2016-04-13T17:54:57Z</time>
      </trkpt>
      <trkpt lat="59.199105639452" lon="17.851931384842">
        <ele>7.8</ele>
        <time>2016-04-13T17:54:58Z</time>
      </trkpt>
      <trkpt lat="59.199109411307" lon="17.851677748548">
        <ele>7</ele>
        <time>2016-04-13T17:54:59Z</time>
      </trkpt>
      <trkpt lat="59.199112931705" lon="17.851430985412">
        <ele>6</ele>
        <time>2016-04-13T17:55:00Z</time>
      </trkpt>
      <trkpt lat="59.199114859542" lon="17.851179947507">
        <ele>5</ele>
        <time>2016-04-13T17:55:01Z</time>
      </trkpt>
      <trkpt lat="59.199117877026" lon="17.850926395032">
        <ele>2.8</ele>
        <time>2016-04-13T17:55:02Z</time>
      </trkpt>
      <trkpt lat="59.199120559234" lon="17.85068516395">
        <ele>1.8</ele>
        <time>2016-04-13T17:55:03Z</time>
      </trkpt>
      <trkpt lat="59.199124079632" lon="17.850435802425">
        <ele>0.8</ele>
        <time>2016-04-13T17:55:04Z</time>
      </trkpt>
      <trkpt lat="59.199125420736" lon="17.850195409533">
        <ele>0</ele>
        <time>2016-04-13T17:55:05Z</time>
      </trkpt>
      <trkpt lat="59.19914939297" lon="17.848996881652">
        <ele>0</ele>
        <time>2016-04-13T17:55:10Z</time>
      </trkpt>
      <trkpt lat="59.199163893657" lon="17.847893320698">
        <ele>0</ele>
        <time>2016-04-13T17:55:15Z</time>
      </trkpt>
      <trkpt lat="59.199165067123" lon="17.847676983859">
        <ele>0</ele>
        <time>2016-04-13T17:55:16Z</time>
      </trkpt>
      <trkpt lat="59.199182250018" lon="17.846698648491">
        <ele>0</ele>
        <time>2016-04-13T17:55:21Z</time>
      </trkpt>
      <trkpt lat="59.199213598324" lon="17.845654850484">
        <ele>0</ele>
        <time>2016-04-13T17:55:26Z</time>
      </trkpt>
      <trkpt lat="59.199218543645" lon="17.844387171928">
        <ele>0</ele>
        <time>2016-04-13T17:55:32Z</time>
      </trkpt>
      <trkpt lat="59.199220303844" lon="17.844178797894">
        <ele>0</ele>
        <time>2016-04-13T17:55:33Z</time>
      </trkpt>
      <trkpt lat="59.199201779845" lon="17.842957722702">
        <ele>0</ele>
        <time>2016-04-13T17:55:39Z</time>
      </trkpt>
      <trkpt lat="59.19917956781" lon="17.841855921947">
        <ele>0</ele>
        <time>2016-04-13T17:55:45Z</time>
      </trkpt>
      <trkpt lat="59.199171353548" lon="17.841692726354">
        <ele>0.2</ele>
        <time>2016-04-13T17:55:46Z</time>
      </trkpt>
      <trkpt lat="59.199161882001" lon="17.841541516878">
        <ele>0.6</ele>
        <time>2016-04-13T17:55:47Z</time>
      </trkpt>
      <trkpt lat="59.199150566436" lon="17.841420733699">
        <ele>1.2</ele>
        <time>2016-04-13T17:55:48Z</time>
      </trkpt>
      <trkpt lat="59.199057359708" lon="17.840466622022">
        <ele>4.6</ele>
        <time>2016-04-13T17:56:22Z</time>
      </trkpt>
      <trkpt lat="59.198982760798" lon="17.840042833158">
        <ele>4.6</ele>
        <time>2016-04-13T17:56:26Z</time>
      </trkpt>
      <trkpt lat="59.198890140803" lon="17.839476384356">
        <ele>4.6</ele>
        <time>2016-04-13T17:56:30Z</time>
      </trkpt>
      <trkpt lat="59.198688639927" lon="17.838810107125">
        <ele>4.6</ele>
        <time>2016-04-13T17:56:35Z</time>
      </trkpt>
      <trkpt lat="59.198367194062" lon="17.837870328497">
        <ele>4.6</ele>
        <time>2016-04-13T17:56:42Z</time>
      </trkpt>
      <trkpt lat="59.198322686173" lon="17.837738900305">
        <ele>4.6</ele>
        <time>2016-04-13T17:56:43Z</time>
      </trkpt>
      <trkpt lat="59.19817876895" lon="17.837343106987">
        <ele>5</ele>
        <time>2016-04-13T17:56:46Z</time>
      </trkpt>
      <trkpt lat="59.198133841966" lon="17.837207487845">
        <ele>5.4</ele>
        <time>2016-04-13T17:56:47Z</time>
      </trkpt>
      <trkpt lat="59.198083802023" lon="17.837066671925">
        <ele>5.8</ele>
        <time>2016-04-13T17:56:48Z</time>
      </trkpt>
      <trkpt lat="59.198036695745" lon="17.836936249561">
        <ele>6.2</ele>
        <time>2016-04-13T17:56:49Z</time>
      </trkpt>
      <trkpt lat="59.197988248363" lon="17.836804989007">
        <ele>6.6</ele>
        <time>2016-04-13T17:56:50Z</time>
      </trkpt>
      <trkpt lat="59.197939717162" lon="17.836670962426">
        <ele>6.6</ele>
        <time>2016-04-13T17:56:51Z</time>
      </trkpt>
      <trkpt lat="59.197596394538" lon="17.835749540159">
        <ele>6.6</ele>
        <time>2016-04-13T17:56:58Z</time>
      </trkpt>
      <trkpt lat="59.197241001978" lon="17.834828201711">
        <ele>6.6</ele>
        <time>2016-04-13T17:57:05Z</time>
      </trkpt>
      <trkpt lat="59.197193225148" lon="17.834701467383">
        <ele>6.6</ele>
        <time>2016-04-13T17:57:06Z</time>
      </trkpt>
      <trkpt lat="59.196999770896" lon="17.834173910597">
        <ele>7</ele>
        <time>2016-04-13T17:57:10Z</time>
      </trkpt>
      <trkpt lat="59.196954340998" lon="17.834038794369">
        <ele>7.4</ele>
        <time>2016-04-13T17:57:11Z</time>
      </trkpt>
      <trkpt lat="59.196906061254" lon="17.833911724765">
        <ele>8</ele>
        <time>2016-04-13T17:57:12Z</time>
      </trkpt>
      <trkpt lat="59.1968586197" lon="17.833778536374">
        <ele>8.4</ele>
        <time>2016-04-13T17:57:13Z</time>
      </trkpt>
      <trkpt lat="59.196810256137" lon="17.833649036019">
        <ele>8.8</ele>
        <time>2016-04-13T17:57:14Z</time>
      </trkpt>
      <trkpt lat="59.196495599611" lon="17.832789220717">
        <ele>8.8</ele>
        <time>2016-04-13T17:57:21Z</time>
      </trkpt>
      <trkpt lat="59.196149259503" lon="17.831837372153">
        <ele>8.8</ele>
        <time>2016-04-13T17:57:29Z</time>
      </trkpt>
      <trkpt lat="59.196106679451" lon="17.831722540123">
        <ele>9.2</ele>
        <time>2016-04-13T17:57:30Z</time>
      </trkpt>
      <trkpt lat="59.196064183218" lon="17.831612485776">
        <ele>9.6</ele>
        <time>2016-04-13T17:57:31Z</time>
      </trkpt>
      <trkpt lat="59.196020262062" lon="17.831496145004">
        <ele>10.2</ele>
        <time>2016-04-13T17:57:32Z</time>
      </trkpt>
      <trkpt lat="59.195974999802" lon="17.831387180304">
        <ele>10.6</ele>
        <time>2016-04-13T17:57:33Z</time>
      </trkpt>
      <trkpt lat="59.195933844673" lon="17.831265307478">
        <ele>11</ele>
        <time>2016-04-13T17:57:34Z</time>
      </trkpt>
      <trkpt lat="59.195844661257" lon="17.831027010061">
        <ele>11.4</ele>
        <time>2016-04-13T17:57:36Z</time>
      </trkpt>
      <trkpt lat="59.195797722617" lon="17.830907400348">
        <ele>11.8</ele>
        <time>2016-04-13T17:57:37Z</time>
      </trkpt>
      <trkpt lat="59.195743827" lon="17.830790305205">
        <ele>12.2</ele>
        <time>2016-04-13T17:57:38Z</time>
      </trkpt>
      <trkpt lat="59.195691104849" lon="17.830664744343">
        <ele>12.6</ele>
        <time>2016-04-13T17:57:39Z</time>
      </trkpt>
      <trkpt lat="59.19563821506" lon="17.830545469906">
        <ele>13</ele>
        <time>2016-04-13T17:57:40Z</time>
      </trkpt>
      <trkpt lat="59.195481389711" lon="17.830201812006">
        <ele>13</ele>
        <time>2016-04-13T17:57:43Z</time>
      </trkpt>
      <trkpt lat="59.195097331053" lon="17.829385750222">
        <ele>13</ele>
        <time>2016-04-13T17:57:50Z</time>
      </trkpt>
      <trkpt lat="59.195040753228" lon="17.829268487441">
        <ele>13</ele>
        <time>2016-04-13T17:57:51Z</time>
      </trkpt>
      <trkpt lat="59.194648480308" lon="17.828447731793">
        <ele>13</ele>
        <time>2016-04-13T17:57:58Z</time>
      </trkpt>
      <trkpt lat="59.194236929018" lon="17.827633514027">
        <ele>13</ele>
        <time>2016-04-13T17:58:05Z</time>
      </trkpt>
      <trkpt lat="59.194178590994" lon="17.827517759988">
        <ele>13.4</ele>
        <time>2016-04-13T17:58:06Z</time>
      </trkpt>
      <trkpt lat="59.19412360573" lon="17.827393791687">
        <ele>13.8</ele>
        <time>2016-04-13T17:58:07Z</time>
      </trkpt>
      <trkpt lat="59.194063507507" lon="17.827280216942">
        <ele>14.2</ele>
        <time>2016-04-13T17:58:08Z</time>
      </trkpt>
      <trkpt lat="59.194000224162" lon="17.827168150939">
        <ele>14.8</ele>
        <time>2016-04-13T17:58:09Z</time>
      </trkpt>
      <trkpt lat="59.193933588057" lon="17.827047283941">
        <ele>15.2</ele>
        <time>2016-04-13T17:58:10Z</time>
      </trkpt>
      <trkpt lat="59.193755137406" lon="17.826684347671">
        <ele>15.2</ele>
        <time>2016-04-13T17:58:13Z</time>
      </trkpt>
      <trkpt lat="59.193339227528" lon="17.825867866792">
        <ele>15.2</ele>
        <time>2016-04-13T17:58:20Z</time>
      </trkpt>
      <trkpt lat="59.192900015968" lon="17.82511533981">
        <ele>15.2</ele>
        <time>2016-04-13T17:58:27Z</time>
      </trkpt>
      <trkpt lat="59.192839414831" lon="17.825008470585">
        <ele>15.2</ele>
        <time>2016-04-13T17:58:28Z</time>
      </trkpt>
      <trkpt lat="59.192364412558" lon="17.824295925266">
        <ele>15.2</ele>
        <time>2016-04-13T17:58:35Z</time>
      </trkpt>
      <trkpt lat="59.192218818955" lon="17.824109092715">
        <ele>15.2</ele>
        <time>2016-04-13T17:58:37Z</time>
      </trkpt>
      <trkpt lat="59.19173308785" lon="17.823498219843">
        <ele>15.2</ele>
        <time>2016-04-13T17:58:44Z</time>
      </trkpt>
      <trkpt lat="59.19128046525" lon="17.822971836523">
        <ele>15.2</ele>
        <time>2016-04-13T17:58:51Z</time>
      </trkpt>
      <trkpt lat="59.190899172619" lon="17.822542683243">
        <ele>15.2</ele>
        <time>2016-04-13T17:58:58Z</time>
      </trkpt>
      <trkpt lat="59.190747879324" lon="17.822368255904">
        <ele>15.6</ele>
        <time>2016-04-13T17:59:01Z</time>
      </trkpt>
      <trkpt lat="59.190691888232" lon="17.822297093573">
        <ele>16</ele>
        <time>2016-04-13T17:59:02Z</time>
      </trkpt>
      <trkpt lat="59.190634975131" lon="17.822236324798">
        <ele>16.4</ele>
        <time>2016-04-13T17:59:03Z</time>
      </trkpt>
      <trkpt lat="59.190578984039" lon="17.822171700349">
        <ele>16.8</ele>
        <time>2016-04-13T17:59:04Z</time>
      </trkpt>
      <trkpt lat="59.190518299083" lon="17.822104477511">
        <ele>17.2</ele>
        <time>2016-04-13T17:59:05Z</time>
      </trkpt>
      <trkpt lat="59.190196182666" lon="17.821763669457">
        <ele>17.2</ele>
        <time>2016-04-13T17:59:10Z</time>
      </trkpt>
      <trkpt lat="59.1901363359" lon="17.821673647851">
        <ele>17.2</ele>
        <time>2016-04-13T17:59:11Z</time>
      </trkpt>
      <trkpt lat="59.189825032134" lon="17.821284140958">
        <ele>17.2</ele>
        <time>2016-04-13T17:59:16Z</time>
      </trkpt>
      <trkpt lat="59.189512638721" lon="17.820870075098">
        <ele>17.6</ele>
        <time>2016-04-13T17:59:21Z</time>
      </trkpt>
      <trkpt lat="59.189450864118" lon="17.820791536695">
        <ele>18.2</ele>
        <time>2016-04-13T17:59:22Z</time>
      </trkpt>
      <trkpt lat="59.189389927705" lon="17.820708220609">
        <ele>18.6</ele>
        <time>2016-04-13T17:59:23Z</time>
      </trkpt>
      <trkpt lat="59.18932580617" lon="17.820624401609">
        <ele>19</ele>
        <time>2016-04-13T17:59:24Z</time>
      </trkpt>
      <trkpt lat="59.189263696291" lon="17.820537565125">
        <ele>19.4</ele>
        <time>2016-04-13T17:59:25Z</time>
      </trkpt>
      <trkpt lat="59.189204184801" lon="17.820457937075">
        <ele>19.4</ele>
        <time>2016-04-13T17:59:26Z</time>
      </trkpt>
      <trkpt lat="59.188709568882" lon="17.819800879934">
        <ele>19.4</ele>
        <time>2016-04-13T17:59:34Z</time>
      </trkpt>
      <trkpt lat="59.18858065526" lon="17.819661405118">
        <ele>19.8</ele>
        <time>2016-04-13T17:59:36Z</time>
      </trkpt>
      <trkpt lat="59.188515695535" lon="17.819597786497">
        <ele>20.4</ele>
        <time>2016-04-13T17:59:37Z</time>
      </trkpt>
      <trkpt lat="59.188447299231" lon="17.819517236438">
        <ele>20.8</ele>
        <time>2016-04-13T17:59:38Z</time>
      </trkpt>
      <trkpt lat="59.188384267343" lon="17.819440374415">
        <ele>21.2</ele>
        <time>2016-04-13T17:59:39Z</time>
      </trkpt>
      <trkpt lat="59.188324839672" lon="17.81936032727">
        <ele>21.6</ele>
        <time>2016-04-13T17:59:40Z</time>
      </trkpt>
      <trkpt lat="59.187945810154" lon="17.818858083822">
        <ele>22.2</ele>
        <time>2016-04-13T17:59:46Z</time>
      </trkpt>
      <trkpt lat="59.187887388311" lon="17.818761189058">
        <ele>22.6</ele>
        <time>2016-04-13T17:59:47Z</time>
      </trkpt>
      <trkpt lat="59.187830894305" lon="17.818652643453">
        <ele>23</ele>
        <time>2016-04-13T17:59:48Z</time>
      </trkpt>
      <trkpt lat="59.187774232661" lon="17.818545941866">
        <ele>23.6</ele>
        <time>2016-04-13T17:59:49Z</time>
      </trkpt>
      <trkpt lat="59.187708518565" lon="17.818436893347">
        <ele>24</ele>
        <time>2016-04-13T17:59:50Z</time>
      </trkpt>
      <trkpt lat="59.187651605464" lon="17.818323653878">
        <ele>24</ele>
        <time>2016-04-13T17:59:51Z</time>
      </trkpt>
      <trkpt lat="59.187278024181" lon="17.817677828483">
        <ele>24</ele>
        <time>2016-04-13T17:59:57Z</time>
      </trkpt>
      <trkpt lat="59.186938389593" lon="17.817349090365">
        <ele>24</ele>
        <time>2016-04-13T18:00:02Z</time>
      </trkpt>
      <trkpt lat="59.186693554294" lon="17.817246495909">
        <ele>24</ele>
        <time>2016-04-13T18:00:06Z</time>
      </trkpt>
      <trkpt lat="59.186634964813" lon="17.81723635381">
        <ele>24.6</ele>
        <time>2016-04-13T18:00:07Z</time>
      </trkpt>
      <trkpt lat="59.186572938753" lon="17.817237778733">
        <ele>25.2</ele>
        <time>2016-04-13T18:00:08Z</time>
      </trkpt>
      <trkpt lat="59.186512924349" lon="17.817224702969">
        <ele>25.6</ele>
        <time>2016-04-13T18:00:09Z</time>
      </trkpt>
      <trkpt lat="59.18646422551" lon="17.817222858951">
        <ele>26.2</ele>
        <time>2016-04-13T18:00:10Z</time>
      </trkpt>
      <trkpt lat="59.186408234418" lon="17.817220763476">
        <ele>26.8</ele>
        <time>2016-04-13T18:00:11Z</time>
      </trkpt>
      <trkpt lat="59.186246463748" lon="17.817207268617">
        <ele>26.8</ele>
        <time>2016-04-13T18:00:14Z</time>
      </trkpt>
      <trkpt lat="59.186191981398" lon="17.817187487333">
        <ele>27.2</ele>
        <time>2016-04-13T18:00:15Z</time>
      </trkpt>
      <trkpt lat="59.186135738849" lon="17.81717097499">
        <ele>27.6</ele>
        <time>2016-04-13T18:00:16Z</time>
      </trkpt>
      <trkpt lat="59.186086788553" lon="17.817151277525">
        <ele>28</ele>
        <time>2016-04-13T18:00:17Z</time>
      </trkpt>
      <trkpt lat="59.186037922076" lon="17.817120013038">
        <ele>28.4</ele>
        <time>2016-04-13T18:00:18Z</time>
      </trkpt>
      <trkpt lat="59.185980841337" lon="17.817082378307">
        <ele>28.8</ele>
        <time>2016-04-13T18:00:19Z</time>
      </trkpt>
      <trkpt lat="59.185924598788" lon="17.817064860136">
        <ele>29.4</ele>
        <time>2016-04-13T18:00:20Z</time>
      </trkpt>
      <trkpt lat="59.185871373723" lon="17.817034433839">
        <ele>29.8</ele>
        <time>2016-04-13T18:00:21Z</time>
      </trkpt>
      <trkpt lat="59.185810102034" lon="17.816993613986">
        <ele>30.8</ele>
        <time>2016-04-13T18:00:22Z</time>
      </trkpt>
      <trkpt lat="59.185757044607" lon="17.816962433318">
        <ele>31.4</ele>
        <time>2016-04-13T18:00:23Z</time>
      </trkpt>
      <trkpt lat="59.185699293316" lon="17.816926139691">
        <ele>31.8</ele>
        <time>2016-04-13T18:00:24Z</time>
      </trkpt>
      <trkpt lat="59.185642715491" lon="17.81688599039">
        <ele>32.2</ele>
        <time>2016-04-13T18:00:25Z</time>
      </trkpt>
      <trkpt lat="59.185583539277" lon="17.81685330098">
        <ele>32.6</ele>
        <time>2016-04-13T18:00:26Z</time>
      </trkpt>
      <trkpt lat="59.185523021959" lon="17.816813486955">
        <ele>33.2</ele>
        <time>2016-04-13T18:00:27Z</time>
      </trkpt>
      <trkpt lat="59.185286903836" lon="17.816670910836">
        <ele>33.2</ele>
        <time>2016-04-13T18:00:31Z</time>
      </trkpt>
      <trkpt lat="59.185231415658" lon="17.816631096811">
        <ele>33.6</ele>
        <time>2016-04-13T18:00:32Z</time>
      </trkpt>
      <trkpt lat="59.185174670195" lon="17.816591534243">
        <ele>34</ele>
        <time>2016-04-13T18:00:33Z</time>
      </trkpt>
      <trkpt lat="59.185118762922" lon="17.816552642227">
        <ele>34.4</ele>
        <time>2016-04-13T18:00:34Z</time>
      </trkpt>
      <trkpt lat="59.185061430726" lon="17.81651551041">
        <ele>34.8</ele>
        <time>2016-04-13T18:00:35Z</time>
      </trkpt>
      <trkpt lat="59.185006026367" lon="17.816473349453">
        <ele>35.2</ele>
        <time>2016-04-13T18:00:36Z</time>
      </trkpt>
      <trkpt lat="59.184891445794" lon="17.816376287051">
        <ele>35.8</ele>
        <time>2016-04-13T18:00:38Z</time>
      </trkpt>
      <trkpt lat="59.184843333688" lon="17.816331527705">
        <ele>36.2</ele>
        <time>2016-04-13T18:00:39Z</time>
      </trkpt>
      <trkpt lat="59.184798658161" lon="17.816286433083">
        <ele>36.8</ele>
        <time>2016-04-13T18:00:40Z</time>
      </trkpt>
      <trkpt lat="59.184750713693" lon="17.816238404796">
        <ele>37.2</ele>
        <time>2016-04-13T18:00:41Z</time>
      </trkpt>
      <trkpt lat="59.184701679578" lon="17.816195405649">
        <ele>37.6</ele>
        <time>2016-04-13T18:00:42Z</time>
      </trkpt>
      <trkpt lat="59.184558013812" lon="17.816028186744">
        <ele>38.2</ele>
        <time>2016-04-13T18:00:45Z</time>
      </trkpt>
      <trkpt lat="59.184503950557" lon="17.815970351634">
        <ele>38.6</ele>
        <time>2016-04-13T18:00:46Z</time>
      </trkpt>
      <trkpt lat="59.184456257546" lon="17.815918551492">
        <ele>39</ele>
        <time>2016-04-13T18:00:47Z</time>
      </trkpt>
      <trkpt lat="59.184404457404" lon="17.815869433558">
        <ele>39.8</ele>
        <time>2016-04-13T18:00:48Z</time>
      </trkpt>
      <trkpt lat="59.184131794197" lon="17.815623424793">
        <ele>39.8</ele>
        <time>2016-04-13T18:00:53Z</time>
      </trkpt>
      <trkpt lat="59.183742454942" lon="17.815349839577">
        <ele>40.2</ele>
        <time>2016-04-13T18:01:00Z</time>
      </trkpt>
      <trkpt lat="59.183690990076" lon="17.815318994185">
        <ele>40.6</ele>
        <time>2016-04-13T18:01:01Z</time>
      </trkpt>
      <trkpt lat="59.183641955961" lon="17.815292255924">
        <ele>41</ele>
        <time>2016-04-13T18:01:02Z</time>
      </trkpt>
      <trkpt lat="59.183594933502" lon="17.815271552631">
        <ele>41.4</ele>
        <time>2016-04-13T18:01:03Z</time>
      </trkpt>
      <trkpt lat="59.183549671242" lon="17.8152506817">
        <ele>42</ele>
        <time>2016-04-13T18:01:04Z</time>
      </trkpt>
      <trkpt lat="59.183505917724" lon="17.81523475609">
        <ele>42</ele>
        <time>2016-04-13T18:01:05Z</time>
      </trkpt>
      <trkpt lat="59.183462415663" lon="17.815222015602">
        <ele>42.4</ele>
        <time>2016-04-13T18:01:06Z</time>
      </trkpt>
      <trkpt lat="59.183419667973" lon="17.815207514915">
        <ele>42.8</ele>
        <time>2016-04-13T18:01:07Z</time>
      </trkpt>
      <trkpt lat="59.182992358711" lon="17.815101735337">
        <ele>46</ele>
        <time>2016-04-13T18:01:24Z</time>
      </trkpt>
      <trkpt lat="59.182938546913" lon="17.815083798071">
        <ele>46</ele>
        <time>2016-04-13T18:01:25Z</time>
      </trkpt>
      <trkpt lat="59.18270829612" lon="17.815019005984">
        <ele>46</ele>
        <time>2016-04-13T18:01:29Z</time>
      </trkpt>
      <trkpt lat="59.182553482427" lon="17.814985143108">
        <ele>46</ele>
        <time>2016-04-13T18:01:31Z</time>
      </trkpt>
      <trkpt lat="59.18239313668" lon="17.814950190585">
        <ele>46</ele>
        <time>2016-04-13T18:01:33Z</time>
      </trkpt>
      <trkpt lat="59.182155258358" lon="17.814907945809">
        <ele>46</ele>
        <time>2016-04-13T18:01:36Z</time>
      </trkpt>
      <trkpt lat="59.181692074564" lon="17.81475531141">
        <ele>46</ele>
        <time>2016-04-13T18:01:42Z</time>
      </trkpt>
      <trkpt lat="59.181413376389" lon="17.814545680091">
        <ele>46</ele>
        <time>2016-04-13T18:01:46Z</time>
      </trkpt>
      <trkpt lat="59.18128337312" lon="17.814419700134">
        <ele>46.4</ele>
        <time>2016-04-13T18:01:48Z</time>
      </trkpt>
      <trkpt lat="59.181221179422" lon="17.814351387649">
        <ele>46.8</ele>
        <time>2016-04-13T18:01:49Z</time>
      </trkpt>
      <trkpt lat="59.181162506122" lon="17.814272597789">
        <ele>47.2</ele>
        <time>2016-04-13T18:01:50Z</time>
      </trkpt>
      <trkpt lat="59.18110567684" lon="17.814195149033">
        <ele>47.8</ele>
        <time>2016-04-13T18:01:51Z</time>
      </trkpt>
      <trkpt lat="59.181049601929" lon="17.814121555951">
        <ele>48.4</ele>
        <time>2016-04-13T18:01:52Z</time>
      </trkpt>
      <trkpt lat="59.180995706312" lon="17.814040251521">
        <ele>49</ele>
        <time>2016-04-13T18:01:53Z</time>
      </trkpt>
      <trkpt lat="59.180940637229" lon="17.813941093644">
        <ele>49.8</ele>
        <time>2016-04-13T18:01:54Z</time>
      </trkpt>
      <trkpt lat="59.180885484327" lon="17.813850820581">
        <ele>50.4</ele>
        <time>2016-04-13T18:01:55Z</time>
      </trkpt>
      <trkpt lat="59.18077626817" lon="17.813655773768">
        <ele>50.4</ele>
        <time>2016-04-13T18:01:57Z</time>
      </trkpt>
      <trkpt lat="59.180441746541" lon="17.813065855646">
        <ele>50.4</ele>
        <time>2016-04-13T18:02:03Z</time>
      </trkpt>
      <trkpt lat="59.18008140866" lon="17.812405529564">
        <ele>50.4</ele>
        <time>2016-04-13T18:02:09Z</time>
      </trkpt>
      <trkpt lat="59.179780666088" lon="17.811877888959">
        <ele>50.4</ele>
        <time>2016-04-13T18:02:14Z</time>
      </trkpt>
      <trkpt lat="59.179717047467" lon="17.811777641435">
        <ele>50.4</ele>
        <time>2016-04-13T18:02:15Z</time>
      </trkpt>
      <trkpt lat="59.179445473907" lon="17.811397857546">
        <ele>50.8</ele>
        <time>2016-04-13T18:02:19Z</time>
      </trkpt>
      <trkpt lat="59.179374143938" lon="17.811306243379">
        <ele>51.2</ele>
        <time>2016-04-13T18:02:20Z</time>
      </trkpt>
      <trkpt lat="59.179303233064" lon="17.811216137954">
        <ele>51.6</ele>
        <time>2016-04-13T18:02:21Z</time>
      </trkpt>
      <trkpt lat="59.179230981086" lon="17.811125697253">
        <ele>52</ele>
        <time>2016-04-13T18:02:22Z</time>
      </trkpt>
      <trkpt lat="59.179153364692" lon="17.811037016751">
        <ele>52.4</ele>
        <time>2016-04-13T18:02:23Z</time>
      </trkpt>
      <trkpt lat="59.178705687413" lon="17.810501580979">
        <ele>52.4</ele>
        <time>2016-04-13T18:02:29Z</time>
      </trkpt>
      <trkpt lat="59.178211742046" lon="17.809748383445">
        <ele>52.4</ele>
        <time>2016-04-13T18:02:36Z</time>
      </trkpt>
      <trkpt lat="59.178067573366" lon="17.809516707729">
        <ele>52.4</ele>
        <time>2016-04-13T18:02:38Z</time>
      </trkpt>
      <trkpt lat="59.177643281588" lon="17.808792092474">
        <ele>52.4</ele>
        <time>2016-04-13T18:02:44Z</time>
      </trkpt>
      <trkpt lat="59.177507075713" lon="17.808525464235">
        <ele>52.4</ele>
        <time>2016-04-13T18:02:46Z</time>
      </trkpt>
      <trkpt lat="59.17731873442" lon="17.808129838555">
        <ele>52</ele>
        <time>2016-04-13T18:02:49Z</time>
      </trkpt>
      <trkpt lat="59.177260144939" lon="17.808000673476">
        <ele>51.6</ele>
        <time>2016-04-13T18:02:50Z</time>
      </trkpt>
      <trkpt lat="59.177200381992" lon="17.807874022967">
        <ele>50.8</ele>
        <time>2016-04-13T18:02:51Z</time>
      </trkpt>
      <trkpt lat="59.177141792511" lon="17.807743265327">
        <ele>50.4</ele>
        <time>2016-04-13T18:02:52Z</time>
      </trkpt>
      <trkpt lat="59.177026709024" lon="17.807481330952">
        <ele>50.4</ele>
        <time>2016-04-13T18:02:54Z</time>
      </trkpt>
      <trkpt lat="59.176731666144" lon="17.806886886604">
        <ele>50.8</ele>
        <time>2016-04-13T18:02:59Z</time>
      </trkpt>
      <trkpt lat="59.176670310636" lon="17.806772641307">
        <ele>51.2</ele>
        <time>2016-04-13T18:03:00Z</time>
      </trkpt>
      <trkpt lat="59.176610547689" lon="17.806668202833">
        <ele>51.6</ele>
        <time>2016-04-13T18:03:01Z</time>
      </trkpt>
      <trkpt lat="59.176553215493" lon="17.806563093807">
        <ele>52</ele>
        <time>2016-04-13T18:03:02Z</time>
      </trkpt>
      <trkpt lat="59.176495296564" lon="17.806460247894">
        <ele>52.6</ele>
        <time>2016-04-13T18:03:03Z</time>
      </trkpt>
      <trkpt lat="59.176256077138" lon="17.806073758485">
        <ele>52.6</ele>
        <time>2016-04-13T18:03:07Z</time>
      </trkpt>
      <trkpt lat="59.175876377068" lon="17.805557098169">
        <ele>53</ele>
        <time>2016-04-13T18:03:13Z</time>
      </trkpt>
      <trkpt lat="59.175812674628" lon="17.805480571422">
        <ele>53.4</ele>
        <time>2016-04-13T18:03:14Z</time>
      </trkpt>
      <trkpt lat="59.175749056007" lon="17.805404296132">
        <ele>54.2</ele>
        <time>2016-04-13T18:03:15Z</time>
      </trkpt>
      <trkpt lat="59.175683509549" lon="17.805329110489">
        <ele>54.6</ele>
        <time>2016-04-13T18:03:16Z</time>
      </trkpt>
      <trkpt lat="59.175352508318" lon="17.804978830888">
        <ele>54.6</ele>
        <time>2016-04-13T18:03:21Z</time>
      </trkpt>
      <trkpt lat="59.174871806353" lon="17.804493183602">
        <ele>55</ele>
        <time>2016-04-13T18:03:28Z</time>
      </trkpt>
      <trkpt lat="59.174804415877" lon="17.804425374031">
        <ele>55.4</ele>
        <time>2016-04-13T18:03:29Z</time>
      </trkpt>
      <trkpt lat="59.174736354849" lon="17.804360414306">
        <ele>55.8</ele>
        <time>2016-04-13T18:03:30Z</time>
      </trkpt>
      <trkpt lat="59.174669048192" lon="17.804292940011">
        <ele>56.2</ele>
        <time>2016-04-13T18:03:31Z</time>
      </trkpt>
      <trkpt lat="59.174601573897" lon="17.804225549535">
        <ele>56.6</ele>
        <time>2016-04-13T18:03:32Z</time>
      </trkpt>
      <trkpt lat="59.174258418911" lon="17.803874934658">
        <ele>56.6</ele>
        <time>2016-04-13T18:03:37Z</time>
      </trkpt>
      <trkpt lat="59.173886178732" lon="17.803475285666">
        <ele>56.2</ele>
        <time>2016-04-13T18:03:42Z</time>
      </trkpt>
      <trkpt lat="59.173798839334" lon="17.803368584079">
        <ele>55.8</ele>
        <time>2016-04-13T18:03:43Z</time>
      </trkpt>
      <trkpt lat="59.173715607067" lon="17.803242101208">
        <ele>55.4</ele>
        <time>2016-04-13T18:03:44Z</time>
      </trkpt>
      <trkpt lat="59.173634302637" lon="17.803098183985">
        <ele>54.6</ele>
        <time>2016-04-13T18:03:45Z</time>
      </trkpt>
      <trkpt lat="59.173555345139" lon="17.802942783559">
        <ele>54</ele>
        <time>2016-04-13T18:03:46Z</time>
      </trkpt>
      <trkpt lat="59.173481668238" lon="17.802776821939">
        <ele>53.4</ele>
        <time>2016-04-13T18:03:47Z</time>
      </trkpt>
      <trkpt lat="59.173412601382" lon="17.802602143143">
        <ele>52.6</ele>
        <time>2016-04-13T18:03:48Z</time>
      </trkpt>
      <trkpt lat="59.173349234218" lon="17.802421597017">
        <ele>52</ele>
        <time>2016-04-13T18:03:49Z</time>
      </trkpt>
      <trkpt lat="59.173286789063" lon="17.802234596828">
        <ele>51.2</ele>
        <time>2016-04-13T18:03:50Z</time>
      </trkpt>
      <trkpt lat="59.173226355564" lon="17.802046758449">
        <ele>50.6</ele>
        <time>2016-04-13T18:03:51Z</time>
      </trkpt>
      <trkpt lat="59.17316382659" lon="17.801850705808">
        <ele>49.8</ele>
        <time>2016-04-13T18:03:52Z</time>
      </trkpt>
      <trkpt lat="59.173049748931" lon="17.801484081502">
        <ele>49.2</ele>
        <time>2016-04-13T18:03:54Z</time>
      </trkpt>
      <trkpt lat="59.17299199764" lon="17.801301942815">
        <ele>48.8</ele>
        <time>2016-04-13T18:03:55Z</time>
      </trkpt>
      <trkpt lat="59.172933659616" lon="17.801117708653">
        <ele>48.2</ele>
        <time>2016-04-13T18:03:56Z</time>
      </trkpt>
      <trkpt lat="59.172871885013" lon="17.800934983233">
        <ele>47.6</ele>
        <time>2016-04-13T18:03:57Z</time>
      </trkpt>
      <trkpt lat="59.172807763478" lon="17.800742953904">
        <ele>47</ele>
        <time>2016-04-13T18:03:58Z</time>
      </trkpt>
      <trkpt lat="59.172683376082" lon="17.800370378449">
        <ele>46.4</ele>
        <time>2016-04-13T18:04:00Z</time>
      </trkpt>
      <trkpt lat="59.172623026402" lon="17.800180528414">
        <ele>46</ele>
        <time>2016-04-13T18:04:01Z</time>
      </trkpt>
      <trkpt lat="59.17256116798" lon="17.799989588732">
        <ele>45.4</ele>
        <time>2016-04-13T18:04:02Z</time>
      </trkpt>
      <trkpt lat="59.172496292074" lon="17.799801079801">
        <ele>44.8</ele>
        <time>2016-04-13T18:04:03Z</time>
      </trkpt>
      <trkpt lat="59.172429488331" lon="17.799612487051">
        <ele>43.6</ele>
        <time>2016-04-13T18:04:04Z</time>
      </trkpt>
      <trkpt lat="59.172361511122" lon="17.799425235405">
        <ele>43</ele>
        <time>2016-04-13T18:04:05Z</time>
      </trkpt>
      <trkpt lat="59.17229043261" lon="17.799243012899">
        <ele>42.4</ele>
        <time>2016-04-13T18:04:06Z</time>
      </trkpt>
      <trkpt lat="59.172208960542" lon="17.799067160637">
        <ele>41.8</ele>
        <time>2016-04-13T18:04:07Z</time>
      </trkpt>
      <trkpt lat="59.172125141542" lon="17.798912011668">
        <ele>41.4</ele>
        <time>2016-04-13T18:04:08Z</time>
      </trkpt>
      <trkpt lat="59.172036293402" lon="17.798763568219">
        <ele>40.8</ele>
        <time>2016-04-13T18:04:09Z</time>
      </trkpt>
      <trkpt lat="59.171939985371" lon="17.798625518326">
        <ele>40.2</ele>
        <time>2016-04-13T18:04:10Z</time>
      </trkpt>
      <trkpt lat="59.171839654028" lon="17.798497023799">
        <ele>39.8</ele>
        <time>2016-04-13T18:04:11Z</time>
      </trkpt>
      <trkpt lat="59.171733371536" lon="17.79838210795">
        <ele>39.2</ele>
        <time>2016-04-13T18:04:12Z</time>
      </trkpt>
      <trkpt lat="59.17162407156" lon="17.798277585657">
        <ele>38.6</ele>
        <time>2016-04-13T18:04:13Z</time>
      </trkpt>
      <trkpt lat="59.171514184851" lon="17.798192174096">
        <ele>38</ele>
        <time>2016-04-13T18:04:14Z</time>
      </trkpt>
      <trkpt lat="59.171402035029" lon="17.79812729819">
        <ele>37.4</ele>
        <time>2016-04-13T18:04:15Z</time>
      </trkpt>
      <trkpt lat="59.171288963198" lon="17.798078180256">
        <ele>37</ele>
        <time>2016-04-13T18:04:16Z</time>
      </trkpt>
      <trkpt lat="59.171174717901" lon="17.798036857489">
        <ele>36.4</ele>
        <time>2016-04-13T18:04:17Z</time>
      </trkpt>
      <trkpt lat="59.171062819536" lon="17.798001234414">
        <ele>35.6</ele>
        <time>2016-04-13T18:04:18Z</time>
      </trkpt>
      <trkpt lat="59.170950753533" lon="17.797963348226">
        <ele>35</ele>
        <time>2016-04-13T18:04:19Z</time>
      </trkpt>
      <trkpt lat="59.170840112453" lon="17.797921271088">
        <ele>34.4</ele>
        <time>2016-04-13T18:04:20Z</time>
      </trkpt>
      <trkpt lat="59.170728968459" lon="17.797883468719">
        <ele>33.8</ele>
        <time>2016-04-13T18:04:21Z</time>
      </trkpt>
      <trkpt lat="59.170613633515" lon="17.79784650454">
        <ele>33.4</ele>
        <time>2016-04-13T18:04:22Z</time>
      </trkpt>
      <trkpt lat="59.170506093738" lon="17.79781046237">
        <ele>33</ele>
        <time>2016-04-13T18:04:23Z</time>
      </trkpt>
      <trkpt lat="59.170400565617" lon="17.797784059385">
        <ele>32.6</ele>
        <time>2016-04-13T18:04:24Z</time>
      </trkpt>
      <trkpt lat="59.170296546238" lon="17.797766457395">
        <ele>32</ele>
        <time>2016-04-13T18:04:25Z</time>
      </trkpt>
      <trkpt lat="59.17019076666" lon="17.797752878717">
        <ele>31.6</ele>
        <time>2016-04-13T18:04:26Z</time>
      </trkpt>
      <trkpt lat="59.170085825272" lon="17.797739132401">
        <ele>31.6</ele>
        <time>2016-04-13T18:04:27Z</time>
      </trkpt>
      <trkpt lat="59.169567740033" lon="17.797669059717">
        <ele>31.6</ele>
        <time>2016-04-13T18:04:32Z</time>
      </trkpt>
      <trkpt lat="59.168933649298" lon="17.797648943157">
        <ele>31.6</ele>
        <time>2016-04-13T18:04:38Z</time>
      </trkpt>
      <trkpt lat="59.168511117719" lon="17.797682973671">
        <ele>30.8</ele>
        <time>2016-04-13T18:04:42Z</time>
      </trkpt>
      <trkpt lat="59.168405757236" lon="17.797692445218">
        <ele>30.2</ele>
        <time>2016-04-13T18:04:43Z</time>
      </trkpt>
      <trkpt lat="59.168301570219" lon="17.797700156566">
        <ele>29.8</ele>
        <time>2016-04-13T18:04:44Z</time>
      </trkpt>
      <trkpt lat="59.168193946623" lon="17.79771909966">
        <ele>29.4</ele>
        <time>2016-04-13T18:04:45Z</time>
      </trkpt>
      <trkpt lat="59.167803182445" lon="17.797817084071">
        <ele>29.4</ele>
        <time>2016-04-13T18:04:49Z</time>
      </trkpt>
      <trkpt lat="59.167325917059" lon="17.797977513637">
        <ele>28.6</ele>
        <time>2016-04-13T18:04:54Z</time>
      </trkpt>
      <trkpt lat="59.167231788322" lon="17.798009783952">
        <ele>28.2</ele>
        <time>2016-04-13T18:04:55Z</time>
      </trkpt>
      <trkpt lat="59.167135731748" lon="17.798043395371">
        <ele>27.8</ele>
        <time>2016-04-13T18:04:56Z</time>
      </trkpt>
      <trkpt lat="59.167036322414" lon="17.79806946308">
        <ele>27.4</ele>
        <time>2016-04-13T18:04:57Z</time>
      </trkpt>
      <trkpt lat="59.166935069062" lon="17.798087232708">
        <ele>27</ele>
        <time>2016-04-13T18:04:58Z</time>
      </trkpt>
      <trkpt lat="59.16683381571" lon="17.798085975423">
        <ele>26.4</ele>
        <time>2016-04-13T18:04:59Z</time>
      </trkpt>
      <trkpt lat="59.166726443571" lon="17.79806443394">
        <ele>26</ele>
        <time>2016-04-13T18:05:00Z</time>
      </trkpt>
      <trkpt lat="59.16662426821" lon="17.798027888856">
        <ele>25.4</ele>
        <time>2016-04-13T18:05:01Z</time>
      </trkpt>
      <trkpt lat="59.166521925211" lon="17.79797307123">
        <ele>24.8</ele>
        <time>2016-04-13T18:05:02Z</time>
      </trkpt>
      <trkpt lat="59.166421510049" lon="17.797905932211">
        <ele>24.2</ele>
        <time>2016-04-13T18:05:03Z</time>
      </trkpt>
      <trkpt lat="59.166319669964" lon="17.797834602242">
        <ele>23.6</ele>
        <time>2016-04-13T18:05:04Z</time>
      </trkpt>
      <trkpt lat="59.166219338621" lon="17.79776352373">
        <ele>23</ele>
        <time>2016-04-13T18:05:05Z</time>
      </trkpt>
      <trkpt lat="59.166119845468" lon="17.797690182105">
        <ele>22.2</ele>
        <time>2016-04-13T18:05:06Z</time>
      </trkpt>
      <trkpt lat="59.166015155537" lon="17.797614661186">
        <ele>21.6</ele>
        <time>2016-04-13T18:05:07Z</time>
      </trkpt>
      <trkpt lat="59.165913818366" lon="17.797549366185">
        <ele>20.8</ele>
        <time>2016-04-13T18:05:08Z</time>
      </trkpt>
      <trkpt lat="59.165710222015" lon="17.797432690137">
        <ele>19.4</ele>
        <time>2016-04-13T18:05:09Z</time>
      </trkpt>
      <trkpt lat="59.165710222015" lon="17.797432690137">
        <ele>19.4</ele>
        <time>2016-04-13T18:05:10Z</time>
      </trkpt>
      <trkpt lat="59.16561173469" lon="17.797372508095">
        <ele>18.8</ele>
        <time>2016-04-13T18:05:11Z</time>
      </trkpt>
      <trkpt lat="59.165513331184" lon="17.797309560026">
        <ele>18.2</ele>
        <time>2016-04-13T18:05:12Z</time>
      </trkpt>
      <trkpt lat="59.165414089488" lon="17.797249797079">
        <ele>17.8</ele>
        <time>2016-04-13T18:05:13Z</time>
      </trkpt>
      <trkpt lat="59.165315183068" lon="17.797193470711">
        <ele>17.2</ele>
        <time>2016-04-13T18:05:14Z</time>
      </trkpt>
      <trkpt lat="59.165214516449" lon="17.797137647257">
        <ele>16.2</ele>
        <time>2016-04-13T18:05:15Z</time>
      </trkpt>
      <trkpt lat="59.165113933649" lon="17.797088529323">
        <ele>16.2</ele>
        <time>2016-04-13T18:05:16Z</time>
      </trkpt>
      <trkpt lat="59.164630130381" lon="17.796879987651">
        <ele>16.2</ele>
        <time>2016-04-13T18:05:21Z</time>
      </trkpt>
      <trkpt lat="59.164540863146" lon="17.796811926623">
        <ele>16.2</ele>
        <time>2016-04-13T18:05:22Z</time>
      </trkpt>
      <trkpt lat="59.164309522706" lon="17.796593242852">
        <ele>16.2</ele>
        <time>2016-04-13T18:05:25Z</time>
      </trkpt>
      <trkpt lat="59.1642530287" lon="17.796484110514">
        <ele>16.2</ele>
        <time>2016-04-13T18:05:26Z</time>
      </trkpt>
      <trkpt lat="59.164143812543" lon="17.796277664317">
        <ele>16.2</ele>
        <time>2016-04-13T18:05:28Z</time>
      </trkpt>
      <trkpt lat="59.164075500058" lon="17.796272216082">
        <ele>16.2</ele>
        <time>2016-04-13T18:05:29Z</time>
      </trkpt>
      <trkpt lat="59.163885398566" lon="17.796461982298">
        <ele>16.2</ele>
        <time>2016-04-13T18:05:32Z</time>
      </trkpt>
      <trkpt lat="59.163767884328" lon="17.796667757943">
        <ele>15.8</ele>
        <time>2016-04-13T18:05:34Z</time>
      </trkpt>
      <trkpt lat="59.163704517164" lon="17.796777560833">
        <ele>15.4</ele>
        <time>2016-04-13T18:05:35Z</time>
      </trkpt>
      <trkpt lat="59.163631343177" lon="17.796891722311">
        <ele>14.8</ele>
        <time>2016-04-13T18:05:36Z</time>
      </trkpt>
      <trkpt lat="59.163561438131" lon="17.79700160902">
        <ele>14.4</ele>
        <time>2016-04-13T18:05:37Z</time>
      </trkpt>
      <trkpt lat="59.163493544741" lon="17.797105628399">
        <ele>14</ele>
        <time>2016-04-13T18:05:38Z</time>
      </trkpt>
      <trkpt lat="59.163159358388" lon="17.797645171302">
        <ele>14</ele>
        <time>2016-04-13T18:05:43Z</time>
      </trkpt>
      <trkpt lat="59.162720733561" lon="17.798417731025">
        <ele>14</ele>
        <time>2016-04-13T18:05:50Z</time>
      </trkpt>
      <trkpt lat="59.162388307407" lon="17.799188782006">
        <ele>14</ele>
        <time>2016-04-13T18:05:56Z</time>
      </trkpt>
      <trkpt lat="59.162125451023" lon="17.80011464668">
        <ele>13.6</ele>
        <time>2016-04-13T18:06:02Z</time>
      </trkpt>
      <trkpt lat="59.162081697505" lon="17.800281781766">
        <ele>13.2</ele>
        <time>2016-04-13T18:06:03Z</time>
      </trkpt>
      <trkpt lat="59.162036770521" lon="17.800452604888">
        <ele>12.6</ele>
        <time>2016-04-13T18:06:04Z</time>
      </trkpt>
      <trkpt lat="59.161995028659" lon="17.800626529313">
        <ele>11.8</ele>
        <time>2016-04-13T18:06:05Z</time>
      </trkpt>
      <trkpt lat="59.16191950774" lon="17.800984855538">
        <ele>11.4</ele>
        <time>2016-04-13T18:06:07Z</time>
      </trkpt>
      <trkpt lat="59.161877682059" lon="17.801156852126">
        <ele>11</ele>
        <time>2016-04-13T18:06:08Z</time>
      </trkpt>
      <trkpt lat="59.161834179998" lon="17.801323568117">
        <ele>10.6</ele>
        <time>2016-04-13T18:06:09Z</time>
      </trkpt>
      <trkpt lat="59.161782212218" lon="17.801479722914">
        <ele>10.2</ele>
        <time>2016-04-13T18:06:10Z</time>
      </trkpt>
      <trkpt lat="59.161722616909" lon="17.801621041748">
        <ele>9.8</ele>
        <time>2016-04-13T18:06:11Z</time>
      </trkpt>
      <trkpt lat="59.161474261212" lon="17.801943493441">
        <ele>9.8</ele>
        <time>2016-04-13T18:06:14Z</time>
      </trkpt>
      <trkpt lat="59.161127250552" lon="17.802138456435">
        <ele>9.8</ele>
        <time>2016-04-13T18:06:18Z</time>
      </trkpt>
      <trkpt lat="59.160659289075" lon="17.80233585018">
        <ele>9.8</ele>
        <time>2016-04-13T18:06:24Z</time>
      </trkpt>
      <trkpt lat="59.160586450364" lon="17.802364600097">
        <ele>10.2</ele>
        <time>2016-04-13T18:06:25Z</time>
      </trkpt>
      <trkpt lat="59.160512605825" lon="17.80239200891">
        <ele>10.6</ele>
        <time>2016-04-13T18:06:26Z</time>
      </trkpt>
      <trkpt lat="59.160442281684" lon="17.802421848474">
        <ele>11</ele>
        <time>2016-04-13T18:06:27Z</time>
      </trkpt>
      <trkpt lat="59.160367850412" lon="17.802443892871">
        <ele>11.4</ele>
        <time>2016-04-13T18:06:28Z</time>
      </trkpt>
      <trkpt lat="59.160294844063" lon="17.802466524001">
        <ele>11.8</ele>
        <time>2016-04-13T18:06:29Z</time>
      </trkpt>
      <trkpt lat="59.160157464722" lon="17.802515306659">
        <ele>12.4</ele>
        <time>2016-04-13T18:06:31Z</time>
      </trkpt>
      <trkpt lat="59.160092840273" lon="17.802545481499">
        <ele>12.8</ele>
        <time>2016-04-13T18:06:32Z</time>
      </trkpt>
      <trkpt lat="59.160028383462" lon="17.802582361859">
        <ele>13.2</ele>
        <time>2016-04-13T18:06:33Z</time>
      </trkpt>
      <trkpt lat="59.159963004642" lon="17.802621253875">
        <ele>13.6</ele>
        <time>2016-04-13T18:06:34Z</time>
      </trkpt>
      <trkpt lat="59.159898128736" lon="17.802657798959">
        <ele>14</ele>
        <time>2016-04-13T18:06:35Z</time>
      </trkpt>
      <trkpt lat="59.159825792939" lon="17.80269291912">
        <ele>14.6</ele>
        <time>2016-04-13T18:06:36Z</time>
      </trkpt>
      <trkpt lat="59.159755552617" lon="17.802730218575">
        <ele>15</ele>
        <time>2016-04-13T18:06:37Z</time>
      </trkpt>
      <trkpt lat="59.159688162141" lon="17.802778330681">
        <ele>15.4</ele>
        <time>2016-04-13T18:06:38Z</time>
      </trkpt>
      <trkpt lat="59.159623202416" lon="17.802834070316">
        <ele>16</ele>
        <time>2016-04-13T18:06:39Z</time>
      </trkpt>
      <trkpt lat="59.159560673442" lon="17.802898191851">
        <ele>16</ele>
        <time>2016-04-13T18:06:40Z</time>
      </trkpt>
      <trkpt lat="59.159498060649" lon="17.802964911775">
        <ele>16</ele>
        <time>2016-04-13T18:06:41Z</time>
      </trkpt>
      <trkpt lat="59.159438046245" lon="17.803038169581">
        <ele>16</ele>
        <time>2016-04-13T18:06:42Z</time>
      </trkpt>
      <trkpt lat="59.159272671358" lon="17.803306558019">
        <ele>16</ele>
        <time>2016-04-13T18:06:45Z</time>
      </trkpt>
      <trkpt lat="59.158997409762" lon="17.803971242689">
        <ele>16</ele>
        <time>2016-04-13T18:06:51Z</time>
      </trkpt>
      <trkpt lat="59.158955332624" lon="17.804095713904">
        <ele>15.6</ele>
        <time>2016-04-13T18:06:52Z</time>
      </trkpt>
      <trkpt lat="59.158914177495" lon="17.804215575074">
        <ele>15.2</ele>
        <time>2016-04-13T18:06:53Z</time>
      </trkpt>
      <trkpt lat="59.158873357642" lon="17.804332502579">
        <ele>14.4</ele>
        <time>2016-04-13T18:06:54Z</time>
      </trkpt>
      <trkpt lat="59.158833543617" lon="17.804452447568">
        <ele>14</ele>
        <time>2016-04-13T18:06:55Z</time>
      </trkpt>
      <trkpt lat="59.158755256671" lon="17.80468613494">
        <ele>14</ele>
        <time>2016-04-13T18:06:57Z</time>
      </trkpt>
      <trkpt lat="59.15849885435" lon="17.805544609138">
        <ele>14</ele>
        <time>2016-04-13T18:07:04Z</time>
      </trkpt>
      <trkpt lat="59.158334820567" lon="17.806374584876">
        <ele>14</ele>
        <time>2016-04-13T18:07:10Z</time>
      </trkpt>
      <trkpt lat="59.158295593275" lon="17.807172290299">
        <ele>14</ele>
        <time>2016-04-13T18:07:15Z</time>
      </trkpt>
      <trkpt lat="59.158312859989" lon="17.808348354688">
        <ele>14</ele>
        <time>2016-04-13T18:07:22Z</time>
      </trkpt>
      <trkpt lat="59.158315961292" lon="17.808684385059">
        <ele>14</ele>
        <time>2016-04-13T18:07:24Z</time>
      </trkpt>
      <trkpt lat="59.158316548025" lon="17.809457363877">
        <ele>14</ele>
        <time>2016-04-13T18:07:29Z</time>
      </trkpt>
      <trkpt lat="59.158266927177" lon="17.810391861908">
        <ele>14</ele>
        <time>2016-04-13T18:07:35Z</time>
      </trkpt>
      <trkpt lat="59.158133571148" lon="17.811253018314">
        <ele>14</ele>
        <time>2016-04-13T18:07:41Z</time>
      </trkpt>
      <trkpt lat="59.157885383089" lon="17.812223809972">
        <ele>14</ele>
        <time>2016-04-13T18:07:48Z</time>
      </trkpt>
      <trkpt lat="59.157609953855" lon="17.813149926103">
        <ele>14</ele>
        <time>2016-04-13T18:07:55Z</time>
      </trkpt>
      <trkpt lat="59.157570810382" lon="17.81328512615">
        <ele>14</ele>
        <time>2016-04-13T18:07:56Z</time>
      </trkpt>
      <trkpt lat="59.157292279845" lon="17.814200178173">
        <ele>14</ele>
        <time>2016-04-13T18:08:03Z</time>
      </trkpt>
      <trkpt lat="59.157016263878" lon="17.815157474972">
        <ele>14</ele>
        <time>2016-04-13T18:08:10Z</time>
      </trkpt>
      <trkpt lat="59.156977455681" lon="17.815289908992">
        <ele>14</ele>
        <time>2016-04-13T18:08:11Z</time>
      </trkpt>
      <trkpt lat="59.15676044829" lon="17.816106054595">
        <ele>14</ele>
        <time>2016-04-13T18:08:17Z</time>
      </trkpt>
      <trkpt lat="59.156650142486" lon="17.816525149595">
        <ele>13.6</ele>
        <time>2016-04-13T18:08:20Z</time>
      </trkpt>
      <trkpt lat="59.156609238814" lon="17.816673676863">
        <ele>13.2</ele>
        <time>2016-04-13T18:08:21Z</time>
      </trkpt>
      <trkpt lat="59.156572358454" lon="17.816812984041">
        <ele>12.6</ele>
        <time>2016-04-13T18:08:22Z</time>
      </trkpt>
      <trkpt lat="59.156533214981" lon="17.816954889608">
        <ele>12.2</ele>
        <time>2016-04-13T18:08:23Z</time>
      </trkpt>
      <trkpt lat="59.156496837535" lon="17.817099393564">
        <ele>11.8</ele>
        <time>2016-04-13T18:08:24Z</time>
      </trkpt>
      <trkpt lat="59.156420729883" lon="17.817392089512">
        <ele>11.8</ele>
        <time>2016-04-13T18:08:26Z</time>
      </trkpt>
      <trkpt lat="59.156159549879" lon="17.818395402942">
        <ele>11.8</ele>
        <time>2016-04-13T18:08:33Z</time>
      </trkpt>
      <trkpt lat="59.155931226923" lon="17.819195622935">
        <ele>11.4</ele>
        <time>2016-04-13T18:08:39Z</time>
      </trkpt>
      <trkpt lat="59.155896358219" lon="17.819325374747">
        <ele>11</ele>
        <time>2016-04-13T18:08:40Z</time>
      </trkpt>
      <trkpt lat="59.155849587217" lon="17.819428891212">
        <ele>10.6</ele>
        <time>2016-04-13T18:08:41Z</time>
      </trkpt>
      <trkpt lat="59.155793093211" lon="17.819474991662">
        <ele>10.2</ele>
        <time>2016-04-13T18:08:42Z</time>
      </trkpt>
      <trkpt lat="59.155729642228" lon="17.819439703863">
        <ele>9.8</ele>
        <time>2016-04-13T18:08:43Z</time>
      </trkpt>
      <trkpt lat="59.155686894538" lon="17.819353286474">
        <ele>9.8</ele>
        <time>2016-04-13T18:08:44Z</time>
      </trkpt>
      <trkpt lat="59.155612798542" lon="17.81915161796">
        <ele>9.8</ele>
        <time>2016-04-13T18:08:46Z</time>
      </trkpt>
      <trkpt lat="59.155537864356" lon="17.818912230896">
        <ele>9.8</ele>
        <time>2016-04-13T18:08:48Z</time>
      </trkpt>
      <trkpt lat="59.155341224982" lon="17.818246624217">
        <ele>9.8</ele>
        <time>2016-04-13T18:08:53Z</time>
      </trkpt>
      <trkpt lat="59.155311804513" lon="17.818103629003">
        <ele>9.8</ele>
        <time>2016-04-13T18:08:54Z</time>
      </trkpt>
      <trkpt lat="59.155221363812" lon="17.817493594321">
        <ele>9.8</ele>
        <time>2016-04-13T18:08:58Z</time>
      </trkpt>
      <trkpt lat="59.155139221192" lon="17.816545014698">
        <ele>9.8</ele>
        <time>2016-04-13T18:09:04Z</time>
      </trkpt>
      <trkpt lat="59.155094210389" lon="17.81536970468">
        <ele>9.8</ele>
        <time>2016-04-13T18:09:11Z</time>
      </trkpt>
      <trkpt lat="59.155085074118" lon="17.814211409919">
        <ele>9.8</ele>
        <time>2016-04-13T18:09:18Z</time>
      </trkpt>
      <trkpt lat="59.155024640619" lon="17.813043392154">
        <ele>9.8</ele>
        <time>2016-04-13T18:09:25Z</time>
      </trkpt>
      <trkpt lat="59.15499019101" lon="17.811868836507">
        <ele>9.8</ele>
        <time>2016-04-13T18:09:32Z</time>
      </trkpt>
      <trkpt lat="59.154982731119" lon="17.811699857403">
        <ele>9.8</ele>
        <time>2016-04-13T18:09:33Z</time>
      </trkpt>
      <trkpt lat="59.154923974" lon="17.810696208697">
        <ele>9.8</ele>
        <time>2016-04-13T18:09:39Z</time>
      </trkpt>
      <trkpt lat="59.154782655166" lon="17.809749808368">
        <ele>9.8</ele>
        <time>2016-04-13T18:09:45Z</time>
      </trkpt>
      <trkpt lat="59.154667655498" lon="17.809148323224">
        <ele>9.8</ele>
        <time>2016-04-13T18:09:49Z</time>
      </trkpt>
      <trkpt lat="59.154471267581" lon="17.808459163406">
        <ele>9.8</ele>
        <time>2016-04-13T18:09:54Z</time>
      </trkpt>
      <trkpt lat="59.154385688382" lon="17.808208796053">
        <ele>10.4</ele>
        <time>2016-04-13T18:09:56Z</time>
      </trkpt>
      <trkpt lat="59.154341264312" lon="17.808077367861">
        <ele>10.8</ele>
        <time>2016-04-13T18:09:57Z</time>
      </trkpt>
      <trkpt lat="59.154295750595" lon="17.807948118963">
        <ele>11.2</ele>
        <time>2016-04-13T18:09:58Z</time>
      </trkpt>
      <trkpt lat="59.154249985421" lon="17.8078243183">
        <ele>11.8</ele>
        <time>2016-04-13T18:09:59Z</time>
      </trkpt>
      <trkpt lat="59.154204304066" lon="17.807698505981">
        <ele>12.2</ele>
        <time>2016-04-13T18:10:00Z</time>
      </trkpt>
      <trkpt lat="59.154017471515" lon="17.807125184021">
        <ele>12.2</ele>
        <time>2016-04-13T18:10:04Z</time>
      </trkpt>
      <trkpt lat="59.153915463792" lon="17.806848916597">
        <ele>12.2</ele>
        <time>2016-04-13T18:10:06Z</time>
      </trkpt>
      <trkpt lat="59.153831141878" lon="17.806588742421">
        <ele>12.2</ele>
        <time>2016-04-13T18:10:08Z</time>
      </trkpt>
      <trkpt lat="59.153671299045" lon="17.806036878125">
        <ele>12.6</ele>
        <time>2016-04-13T18:10:12Z</time>
      </trkpt>
      <trkpt lat="59.153631652658" lon="17.805899079689">
        <ele>13</ele>
        <time>2016-04-13T18:10:13Z</time>
      </trkpt>
      <trkpt lat="59.153589994615" lon="17.805770585162">
        <ele>13.4</ele>
        <time>2016-04-13T18:10:14Z</time>
      </trkpt>
      <trkpt lat="59.153547079287" lon="17.805642593549">
        <ele>13.8</ele>
        <time>2016-04-13T18:10:15Z</time>
      </trkpt>
      <trkpt lat="59.153507181443" lon="17.805512171185">
        <ele>14.2</ele>
        <time>2016-04-13T18:10:16Z</time>
      </trkpt>
      <trkpt lat="59.153465439581" lon="17.805356770759">
        <ele>14.2</ele>
        <time>2016-04-13T18:10:17Z</time>
      </trkpt>
      <trkpt lat="59.153249940932" lon="17.804639112481">
        <ele>14.8</ele>
        <time>2016-04-13T18:10:22Z</time>
      </trkpt>
      <trkpt lat="59.153211384192" lon="17.804500140579">
        <ele>15.2</ele>
        <time>2016-04-13T18:10:23Z</time>
      </trkpt>
      <trkpt lat="59.153172240719" lon="17.80436007903">
        <ele>15.6</ele>
        <time>2016-04-13T18:10:24Z</time>
      </trkpt>
      <trkpt lat="59.153138880757" lon="17.804218005825">
        <ele>16.2</ele>
        <time>2016-04-13T18:10:25Z</time>
      </trkpt>
      <trkpt lat="59.153101916578" lon="17.804073082774">
        <ele>16.6</ele>
        <time>2016-04-13T18:10:26Z</time>
      </trkpt>
      <trkpt lat="59.152798994712" lon="17.803072367733">
        <ele>16.6</ele>
        <time>2016-04-13T18:10:33Z</time>
      </trkpt>
      <trkpt lat="59.15268433032" lon="17.802776905758">
        <ele>16.6</ele>
        <time>2016-04-13T18:10:35Z</time>
      </trkpt>
      <trkpt lat="59.15255441087" lon="17.802503152904">
        <ele>16.2</ele>
        <time>2016-04-13T18:10:37Z</time>
      </trkpt>
      <trkpt lat="59.152487104213" lon="17.802367533762">
        <ele>15.8</ele>
        <time>2016-04-13T18:10:38Z</time>
      </trkpt>
      <trkpt lat="59.152420887203" lon="17.802233004267">
        <ele>15.4</ele>
        <time>2016-04-13T18:10:39Z</time>
      </trkpt>
      <trkpt lat="59.152355173107" lon="17.802099145324">
        <ele>14.8</ele>
        <time>2016-04-13T18:10:40Z</time>
      </trkpt>
      <trkpt lat="59.152289626649" lon="17.801966711304">
        <ele>14.2</ele>
        <time>2016-04-13T18:10:41Z</time>
      </trkpt>
      <trkpt lat="59.152222403811" lon="17.80183545075">
        <ele>13.6</ele>
        <time>2016-04-13T18:10:42Z</time>
      </trkpt>
      <trkpt lat="59.152160042475" lon="17.801712153001">
        <ele>13</ele>
        <time>2016-04-13T18:10:43Z</time>
      </trkpt>
      <trkpt lat="59.152095250388" lon="17.801597991523">
        <ele>12.4</ele>
        <time>2016-04-13T18:10:44Z</time>
      </trkpt>
      <trkpt lat="59.152030961215" lon="17.801497827818">
        <ele>12.4</ele>
        <time>2016-04-13T18:10:45Z</time>
      </trkpt>
      <trkpt lat="59.151974299571" lon="17.801393640801">
        <ele>12.4</ele>
        <time>2016-04-13T18:10:46Z</time>
      </trkpt>
      <trkpt lat="59.151809511417" lon="17.801057358973">
        <ele>12.4</ele>
        <time>2016-04-13T18:10:49Z</time>
      </trkpt>
      <trkpt lat="59.151754526153" lon="17.800942359305">
        <ele>13</ele>
        <time>2016-04-13T18:10:50Z</time>
      </trkpt>
      <trkpt lat="59.151701887821" lon="17.800828281646">
        <ele>13.4</ele>
        <time>2016-04-13T18:10:51Z</time>
      </trkpt>
      <trkpt lat="59.151649584765" lon="17.800719484584">
        <ele>14</ele>
        <time>2016-04-13T18:10:52Z</time>
      </trkpt>
      <trkpt lat="59.151595018596" lon="17.800604736373">
        <ele>14.4</ele>
        <time>2016-04-13T18:10:53Z</time>
      </trkpt>
      <trkpt lat="59.151540871522" lon="17.800489904343">
        <ele>15</ele>
        <time>2016-04-13T18:10:54Z</time>
      </trkpt>
      <trkpt lat="59.151389913503" lon="17.800129566462">
        <ele>15</ele>
        <time>2016-04-13T18:10:57Z</time>
      </trkpt>
      <trkpt lat="59.151207020445" lon="17.799482316144">
        <ele>15</ele>
        <time>2016-04-13T18:11:02Z</time>
      </trkpt>
      <trkpt lat="59.151137115399" lon="17.799038662177">
        <ele>15</ele>
        <time>2016-04-13T18:11:05Z</time>
      </trkpt>
      <trkpt lat="59.151122363255" lon="17.798887955615">
        <ele>15.4</ele>
        <time>2016-04-13T18:11:06Z</time>
      </trkpt>
      <trkpt lat="59.151105599455" lon="17.798735237397">
        <ele>15.8</ele>
        <time>2016-04-13T18:11:07Z</time>
      </trkpt>
      <trkpt lat="59.151082633049" lon="17.798578328229">
        <ele>16.4</ele>
        <time>2016-04-13T18:11:08Z</time>
      </trkpt>
      <trkpt lat="59.151054721322" lon="17.798417731025">
        <ele>16.8</ele>
        <time>2016-04-13T18:11:09Z</time>
      </trkpt>
      <trkpt lat="59.151019265885" lon="17.798255457441">
        <ele>17.2</ele>
        <time>2016-04-13T18:11:10Z</time>
      </trkpt>
      <trkpt lat="59.150976518195" lon="17.798089663459">
        <ele>17.2</ele>
        <time>2016-04-13T18:11:11Z</time>
      </trkpt>
      <trkpt lat="59.150928573727" lon="17.797921019631">
        <ele>16.8</ele>
        <time>2016-04-13T18:11:12Z</time>
      </trkpt>
      <trkpt lat="59.150875600119" lon="17.797776264218">
        <ele>16.4</ele>
        <time>2016-04-13T18:11:13Z</time>
      </trkpt>
      <trkpt lat="59.150813741697" lon="17.797627988407">
        <ele>15.8</ele>
        <time>2016-04-13T18:11:14Z</time>
      </trkpt>
      <trkpt lat="59.150747943782" lon="17.797484490279">
        <ele>15.2</ele>
        <time>2016-04-13T18:11:15Z</time>
      </trkpt>
      <trkpt lat="59.15069027631" lon="17.797355911933">
        <ele>14.6</ele>
        <time>2016-04-13T18:11:16Z</time>
      </trkpt>
      <trkpt lat="59.150626825327" lon="17.797233284736">
        <ele>14.2</ele>
        <time>2016-04-13T18:11:17Z</time>
      </trkpt>
      <trkpt lat="59.150560440679" lon="17.797119039439">
        <ele>13.6</ele>
        <time>2016-04-13T18:11:18Z</time>
      </trkpt>
      <trkpt lat="59.150488943072" lon="17.797019713924">
        <ele>13</ele>
        <time>2016-04-13T18:11:19Z</time>
      </trkpt>
      <trkpt lat="59.150042858354" lon="17.796424766662">
        <ele>13</ele>
        <time>2016-04-13T18:11:25Z</time>
      </trkpt>
      <trkpt lat="59.14997781481" lon="17.796299121981">
        <ele>13</ele>
        <time>2016-04-13T18:11:26Z</time>
      </trkpt>
      <trkpt lat="59.149878573114" lon="17.795999301418">
        <ele>13</ele>
        <time>2016-04-13T18:11:28Z</time>
      </trkpt>
      <trkpt lat="59.149810512086" lon="17.795677771734">
        <ele>13</ele>
        <time>2016-04-13T18:11:30Z</time>
      </trkpt>
      <trkpt lat="59.149719317014" lon="17.795175863562">
        <ele>13</ele>
        <time>2016-04-13T18:11:33Z</time>
      </trkpt>
      <trkpt lat="59.149554864136" lon="17.794498438404">
        <ele>13</ele>
        <time>2016-04-13T18:11:37Z</time>
      </trkpt>
      <trkpt lat="59.149414718768" lon="17.794252597277">
        <ele>12.4</ele>
        <time>2016-04-13T18:11:39Z</time>
      </trkpt>
      <trkpt lat="59.149333079062" lon="17.794144638405">
        <ele>12</ele>
        <time>2016-04-13T18:11:40Z</time>
      </trkpt>
      <trkpt lat="59.149252696641" lon="17.794060651767">
        <ele>11.6</ele>
        <time>2016-04-13T18:11:41Z</time>
      </trkpt>
      <trkpt lat="59.149171308392" lon="17.793983873563">
        <ele>11.2</ele>
        <time>2016-04-13T18:11:42Z</time>
      </trkpt>
      <trkpt lat="59.149087405573" lon="17.793914974345">
        <ele>10.8</ele>
        <time>2016-04-13T18:11:43Z</time>
      </trkpt>
      <trkpt lat="59.149004340944" lon="17.793850601353">
        <ele>10.8</ele>
        <time>2016-04-13T18:11:44Z</time>
      </trkpt>
      <trkpt lat="59.148923539428" lon="17.793788407655">
        <ele>11.2</ele>
        <time>2016-04-13T18:11:45Z</time>
      </trkpt>
      <trkpt lat="59.148845336301" lon="17.793728393251">
        <ele>11.6</ele>
        <time>2016-04-13T18:11:46Z</time>
      </trkpt>
      <trkpt lat="59.148772581409" lon="17.793672569797">
        <ele>12.4</ele>
        <time>2016-04-13T18:11:47Z</time>
      </trkpt>
      <trkpt lat="59.148703682191" lon="17.793621440207">
        <ele>12.8</ele>
        <time>2016-04-13T18:11:48Z</time>
      </trkpt>
      <trkpt lat="59.148631514032" lon="17.793567041676">
        <ele>12.8</ele>
        <time>2016-04-13T18:11:49Z</time>
      </trkpt>
      <trkpt lat="59.148566470488" lon="17.793515912086">
        <ele>13.2</ele>
        <time>2016-04-13T18:11:50Z</time>
      </trkpt>
      <trkpt lat="59.148505617894" lon="17.793472326206">
        <ele>13.8</ele>
        <time>2016-04-13T18:11:51Z</time>
      </trkpt>
      <trkpt lat="59.148449962078" lon="17.793429662335">
        <ele>14.2</ele>
        <time>2016-04-13T18:11:52Z</time>
      </trkpt>
      <trkpt lat="59.148394222443" lon="17.793372078682">
        <ele>14.6</ele>
        <time>2016-04-13T18:11:53Z</time>
      </trkpt>
      <trkpt lat="59.148336303514" lon="17.793308795337">
        <ele>15.2</ele>
        <time>2016-04-13T18:11:54Z</time>
      </trkpt>
      <trkpt lat="59.148006811025" lon="17.792906967051">
        <ele>15.2</ele>
        <time>2016-04-13T18:11:59Z</time>
      </trkpt>
      <trkpt lat="59.147582854523" lon="17.792272792497">
        <ele>15.2</ele>
        <time>2016-04-13T18:12:05Z</time>
      </trkpt>
      <trkpt lat="59.14716065822" lon="17.791540214437">
        <ele>15.2</ele>
        <time>2016-04-13T18:12:11Z</time>
      </trkpt>
      <trkpt lat="59.147089160613" lon="17.791403924743">
        <ele>14.2</ele>
        <time>2016-04-13T18:12:12Z</time>
      </trkpt>
      <trkpt lat="59.147021434861" lon="17.791275849311">
        <ele>13.8</ele>
        <time>2016-04-13T18:12:13Z</time>
      </trkpt>
      <trkpt lat="59.146955050213" lon="17.791149450259">
        <ele>13.4</ele>
        <time>2016-04-13T18:12:14Z</time>
      </trkpt>
      <trkpt lat="59.1468857319" lon="17.791021291008">
        <ele>12.8</ele>
        <time>2016-04-13T18:12:15Z</time>
      </trkpt>
      <trkpt lat="59.14668121354" lon="17.790641758576">
        <ele>12.8</ele>
        <time>2016-04-13T18:12:18Z</time>
      </trkpt>
      <trkpt lat="59.146330514844" lon="17.79008151238">
        <ele>12.8</ele>
        <time>2016-04-13T18:12:23Z</time>
      </trkpt>
      <trkpt lat="59.146251054432" lon="17.790002973977">
        <ele>12.8</ele>
        <time>2016-04-13T18:12:24Z</time>
      </trkpt>
      <trkpt lat="59.145974200275" lon="17.789919071158">
        <ele>12.8</ele>
        <time>2016-04-13T18:12:27Z</time>
      </trkpt>
      <trkpt lat="59.145875880588" lon="17.78991974171">
        <ele>12.8</ele>
        <time>2016-04-13T18:12:28Z</time>
      </trkpt>
      <trkpt lat="59.145680498499" lon="17.789942540478">
        <ele>12.4</ele>
        <time>2016-04-13T18:12:30Z</time>
      </trkpt>
      <trkpt lat="59.145582262631" lon="17.789962824676">
        <ele>12</ele>
        <time>2016-04-13T18:12:31Z</time>
      </trkpt>
      <trkpt lat="59.145484529677" lon="17.789989646756">
        <ele>11.6</ele>
        <time>2016-04-13T18:12:32Z</time>
      </trkpt>
      <trkpt lat="59.145386461447" lon="17.790010852963">
        <ele>11.2</ele>
        <time>2016-04-13T18:12:33Z</time>
      </trkpt>
      <trkpt lat="59.145291662158" lon="17.790022252347">
        <ele>10.6</ele>
        <time>2016-04-13T18:12:34Z</time>
      </trkpt>
      <trkpt lat="59.145093430223" lon="17.790024264003">
        <ele>10.6</ele>
        <time>2016-04-13T18:12:36Z</time>
      </trkpt>
      <trkpt lat="59.144910788622" lon="17.789961315934">
        <ele>10.6</ele>
        <time>2016-04-13T18:12:38Z</time>
      </trkpt>
      <trkpt lat="59.144825712337" lon="17.789913958199">
        <ele>11.2</ele>
        <time>2016-04-13T18:12:39Z</time>
      </trkpt>
      <trkpt lat="59.144741977156" lon="17.789856542184">
        <ele>11.6</ele>
        <time>2016-04-13T18:12:40Z</time>
      </trkpt>
      <trkpt lat="59.144658828708" lon="17.789791414821">
        <ele>12.2</ele>
        <time>2016-04-13T18:12:41Z</time>
      </trkpt>
      <trkpt lat="59.144575093527" lon="17.789723102336">
        <ele>12.6</ele>
        <time>2016-04-13T18:12:42Z</time>
      </trkpt>
      <trkpt lat="59.144483144084" lon="17.789648922521">
        <ele>13.2</ele>
        <time>2016-04-13T18:12:43Z</time>
      </trkpt>
      <trkpt lat="59.143997077703" lon="17.789187498926">
        <ele>13.2</ele>
        <time>2016-04-13T18:12:49Z</time>
      </trkpt>
      <trkpt lat="59.143468934184" lon="17.788745605158">
        <ele>13.2</ele>
        <time>2016-04-13T18:12:55Z</time>
      </trkpt>
      <trkpt lat="59.143375978913" lon="17.788668240221">
        <ele>12.6</ele>
        <time>2016-04-13T18:12:56Z</time>
      </trkpt>
      <trkpt lat="59.143279670882" lon="17.788592803121">
        <ele>12.2</ele>
        <time>2016-04-13T18:12:57Z</time>
      </trkpt>
      <trkpt lat="59.143173053114" lon="17.788526837568">
        <ele>11.8</ele>
        <time>2016-04-13T18:12:58Z</time>
      </trkpt>
      <trkpt lat="59.143065094242" lon="17.788476546168">
        <ele>11.4</ele>
        <time>2016-04-13T18:12:59Z</time>
      </trkpt>
      <trkpt lat="59.142954201705" lon="17.788426506225">
        <ele>10.8</ele>
        <time>2016-04-13T18:13:00Z</time>
      </trkpt>
      <trkpt lat="59.142840459322" lon="17.788380489594">
        <ele>9.4</ele>
        <time>2016-04-13T18:13:01Z</time>
      </trkpt>
      <trkpt lat="59.142724286188" lon="17.788335059696">
        <ele>8.6</ele>
        <time>2016-04-13T18:13:02Z</time>
      </trkpt>
      <trkpt lat="59.14260844833" lon="17.78826850741">
        <ele>7.4</ele>
        <time>2016-04-13T18:13:03Z</time>
      </trkpt>
      <trkpt lat="59.142491772282" lon="17.788180748917">
        <ele>6.4</ele>
        <time>2016-04-13T18:13:04Z</time>
      </trkpt>
      <trkpt lat="59.142385154514" lon="17.788056780616">
        <ele>5.2</ele>
        <time>2016-04-13T18:13:05Z</time>
      </trkpt>
      <trkpt lat="59.142295216727" lon="17.787917138162">
        <ele>4</ele>
        <time>2016-04-13T18:13:06Z</time>
      </trkpt>
      <trkpt lat="59.14221449903" lon="17.78776056427">
        <ele>3</ele>
        <time>2016-04-13T18:13:07Z</time>
      </trkpt>
      <trkpt lat="59.142089441082" lon="17.787406261357">
        <ele>2.4</ele>
        <time>2016-04-13T18:13:09Z</time>
      </trkpt>
      <trkpt lat="59.142041077519" lon="17.787213310019">
        <ele>2</ele>
        <time>2016-04-13T18:13:10Z</time>
      </trkpt>
      <trkpt lat="59.142003107512" lon="17.787015497179">
        <ele>1.4</ele>
        <time>2016-04-13T18:13:11Z</time>
      </trkpt>
      <trkpt lat="59.141963964039" lon="17.786823216393">
        <ele>1</ele>
        <time>2016-04-13T18:13:12Z</time>
      </trkpt>
      <trkpt lat="59.14192113253" lon="17.786624984458">
        <ele>0.6</ele>
        <time>2016-04-13T18:13:13Z</time>
      </trkpt>
      <trkpt lat="59.141729522296" lon="17.78591989903">
        <ele>0.6</ele>
        <time>2016-04-13T18:13:17Z</time>
      </trkpt>
      <trkpt lat="59.14165710268" lon="17.78577656854">
        <ele>0.6</ele>
        <time>2016-04-13T18:13:18Z</time>
      </trkpt>
      <trkpt lat="59.141200540587" lon="17.785029825069">
        <ele>0.6</ele>
        <time>2016-04-13T18:13:24Z</time>
      </trkpt>
      <trkpt lat="59.140744397589" lon="17.784366900598">
        <ele>0.6</ele>
        <time>2016-04-13T18:13:30Z</time>
      </trkpt>
      <trkpt lat="59.140674324905" lon="17.784262378305">
        <ele>1</ele>
        <time>2016-04-13T18:13:31Z</time>
      </trkpt>
      <trkpt lat="59.140604922773" lon="17.784163555704">
        <ele>1.4</ele>
        <time>2016-04-13T18:13:32Z</time>
      </trkpt>
      <trkpt lat="59.140536777926" lon="17.784064733103">
        <ele>1.8</ele>
        <time>2016-04-13T18:13:33Z</time>
      </trkpt>
      <trkpt lat="59.14046771107" lon="17.78396859271">
        <ele>2.2</ele>
        <time>2016-04-13T18:13:34Z</time>
      </trkpt>
      <trkpt lat="59.140395375273" lon="17.783871446489">
        <ele>2.6</ele>
        <time>2016-04-13T18:13:35Z</time>
      </trkpt>
      <trkpt lat="59.140177781149" lon="17.783601381671">
        <ele>2.6</ele>
        <time>2016-04-13T18:13:38Z</time>
      </trkpt>
      <trkpt lat="59.139719123581" lon="17.783030155186">
        <ele>2.6</ele>
        <time>2016-04-13T18:13:44Z</time>
      </trkpt>
      <trkpt lat="59.139380327183" lon="17.782424814368">
        <ele>2.6</ele>
        <time>2016-04-13T18:13:49Z</time>
      </trkpt>
      <trkpt lat="59.138971877196" lon="17.781640436166">
        <ele>2.6</ele>
        <time>2016-04-13T18:13:55Z</time>
      </trkpt>
      <trkpt lat="59.13890281034" lon="17.781513282743">
        <ele>2.6</ele>
        <time>2016-04-13T18:13:56Z</time>
      </trkpt>
      <trkpt lat="59.138508609583" lon="17.780953455642">
        <ele>2.6</ele>
        <time>2016-04-13T18:14:01Z</time>
      </trkpt>
      <trkpt lat="59.138340636307" lon="17.780734352776">
        <ele>2.2</ele>
        <time>2016-04-13T18:14:03Z</time>
      </trkpt>
      <trkpt lat="59.138256817307" lon="17.780621616221">
        <ele>1.8</ele>
        <time>2016-04-13T18:14:04Z</time>
      </trkpt>
      <trkpt lat="59.138174842325" lon="17.780504688716">
        <ele>1.4</ele>
        <time>2016-04-13T18:14:05Z</time>
      </trkpt>
      <trkpt lat="59.138089263126" lon="17.780378960216">
        <ele>0.8</ele>
        <time>2016-04-13T18:14:06Z</time>
      </trkpt>
      <trkpt lat="59.138009551257" lon="17.780267061851">
        <ele>0.4</ele>
        <time>2016-04-13T18:14:07Z</time>
      </trkpt>
      <trkpt lat="59.137859431428" lon="17.780033039203">
        <ele>0.4</ele>
        <time>2016-04-13T18:14:09Z</time>
      </trkpt>
      <trkpt lat="59.137433798546" lon="17.779261652946">
        <ele>0.4</ele>
        <time>2016-04-13T18:14:15Z</time>
      </trkpt>
      <trkpt lat="59.137150909421" lon="17.778580875028">
        <ele>0.4</ele>
        <time>2016-04-13T18:14:20Z</time>
      </trkpt>
      <trkpt lat="59.136787470237" lon="17.777594912131">
        <ele>0.4</ele>
        <time>2016-04-13T18:14:27Z</time>
      </trkpt>
      <trkpt lat="59.136734496629" lon="17.77744998908">
        <ele>0.8</ele>
        <time>2016-04-13T18:14:28Z</time>
      </trkpt>
      <trkpt lat="59.136683953772" lon="17.777311939187">
        <ele>1.2</ele>
        <time>2016-04-13T18:14:29Z</time>
      </trkpt>
      <trkpt lat="59.136635087295" lon="17.777176068588">
        <ele>1.8</ele>
        <time>2016-04-13T18:14:30Z</time>
      </trkpt>
      <trkpt lat="59.136586556094" lon="17.777045478586">
        <ele>2.2</ele>
        <time>2016-04-13T18:14:31Z</time>
      </trkpt>
      <trkpt lat="59.136535091228" lon="17.776917403154">
        <ele>2.6</ele>
        <time>2016-04-13T18:14:32Z</time>
      </trkpt>
      <trkpt lat="59.136443477061" lon="17.776666197611">
        <ele>2.6</ele>
        <time>2016-04-13T18:14:34Z</time>
      </trkpt>
      <trkpt lat="59.136344486822" lon="17.776415075887">
        <ele>2.6</ele>
        <time>2016-04-13T18:14:36Z</time>
      </trkpt>
      <trkpt lat="59.136289836834" lon="17.776286748998">
        <ele>3</ele>
        <time>2016-04-13T18:14:37Z</time>
      </trkpt>
      <trkpt lat="59.13623485157" lon="17.776149872571">
        <ele>3.4</ele>
        <time>2016-04-13T18:14:38Z</time>
      </trkpt>
      <trkpt lat="59.136183219066" lon="17.776023222062">
        <ele>3.8</ele>
        <time>2016-04-13T18:14:39Z</time>
      </trkpt>
      <trkpt lat="59.136132508571" lon="17.775900511046">
        <ele>4.6</ele>
        <time>2016-04-13T18:14:40Z</time>
      </trkpt>
      <trkpt lat="59.135918686302" lon="17.775412013914">
        <ele>4.6</ele>
        <time>2016-04-13T18:14:44Z</time>
      </trkpt>
      <trkpt lat="59.135531693979" lon="17.774555216096">
        <ele>4.6</ele>
        <time>2016-04-13T18:14:51Z</time>
      </trkpt>
      <trkpt lat="59.135474277964" lon="17.774438204772">
        <ele>4.6</ele>
        <time>2016-04-13T18:14:52Z</time>
      </trkpt>
      <trkpt lat="59.135139001964" lon="17.773648881249">
        <ele>4.6</ele>
        <time>2016-04-13T18:14:58Z</time>
      </trkpt>
      <trkpt lat="59.134981589882" lon="17.773223332186">
        <ele>4.2</ele>
        <time>2016-04-13T18:15:01Z</time>
      </trkpt>
      <trkpt lat="59.13493062793" lon="17.773073882909">
        <ele>3.8</ele>
        <time>2016-04-13T18:15:02Z</time>
      </trkpt>
      <trkpt lat="59.134881929091" lon="17.772919404492">
        <ele>3.2</ele>
        <time>2016-04-13T18:15:03Z</time>
      </trkpt>
      <trkpt lat="59.134831050958" lon="17.77276366879">
        <ele>2.8</ele>
        <time>2016-04-13T18:15:04Z</time>
      </trkpt>
      <trkpt lat="59.134780256644" lon="17.772601646663">
        <ele>2.2</ele>
        <time>2016-04-13T18:15:05Z</time>
      </trkpt>
      <trkpt lat="59.134511700568" lon="17.771778879359">
        <ele>1.8</ele>
        <time>2016-04-13T18:15:10Z</time>
      </trkpt>
      <trkpt lat="59.13444783049" lon="17.77163714143">
        <ele>1.4</ele>
        <time>2016-04-13T18:15:11Z</time>
      </trkpt>
      <trkpt lat="59.13437826072" lon="17.771498420985">
        <ele>1</ele>
        <time>2016-04-13T18:15:12Z</time>
      </trkpt>
      <trkpt lat="59.134299387041" lon="17.771368836811">
        <ele>0.6</ele>
        <time>2016-04-13T18:15:13Z</time>
      </trkpt>
      <trkpt lat="59.134221938285" lon="17.771253418048">
        <ele>0.2</ele>
        <time>2016-04-13T18:15:14Z</time>
      </trkpt>
      <trkpt lat="59.134138622199" lon="17.771156188008">
        <ele>0.2</ele>
        <time>2016-04-13T18:15:15Z</time>
      </trkpt>
      <trkpt lat="59.133680216088" lon="17.770798532335">
        <ele>0.2</ele>
        <time>2016-04-13T18:15:20Z</time>
      </trkpt>
      <trkpt lat="59.133382574819" lon="17.77070675053">
        <ele>0.2</ele>
        <time>2016-04-13T18:15:23Z</time>
      </trkpt>
      <trkpt lat="59.133182917961" lon="17.770733488791">
        <ele>0.2</ele>
        <time>2016-04-13T18:15:25Z</time>
      </trkpt>
      <trkpt lat="59.132911512039" lon="17.770957536978">
        <ele>0.2</ele>
        <time>2016-04-13T18:15:28Z</time>
      </trkpt>
      <trkpt lat="59.132829034143" lon="17.771045546928">
        <ele>0.2</ele>
        <time>2016-04-13T18:15:29Z</time>
      </trkpt>
      <trkpt lat="59.132516892187" lon="17.771335141573">
        <ele>0.2</ele>
        <time>2016-04-13T18:15:33Z</time>
      </trkpt>
      <trkpt lat="59.131946503892" lon="17.771756499686">
        <ele>0.2</ele>
        <time>2016-04-13T18:15:40Z</time>
      </trkpt>
      <trkpt lat="59.131436716734" lon="17.772012985826">
        <ele>0.2</ele>
        <time>2016-04-13T18:15:46Z</time>
      </trkpt>
      <trkpt lat="59.1313456893" lon="17.772027235056">
        <ele>0.2</ele>
        <time>2016-04-13T18:15:47Z</time>
      </trkpt>
      <trkpt lat="59.131263211404" lon="17.772001334985">
        <ele>0.2</ele>
        <time>2016-04-13T18:15:48Z</time>
      </trkpt>
      <trkpt lat="59.131090376626" lon="17.771939392744">
        <ele>0.2</ele>
        <time>2016-04-13T18:15:50Z</time>
      </trkpt>
      <trkpt lat="59.131006809083" lon="17.771882647281">
        <ele>0.2</ele>
        <time>2016-04-13T18:15:51Z</time>
      </trkpt>
      <trkpt lat="59.130879236565" lon="17.771736802221">
        <ele>0.2</ele>
        <time>2016-04-13T18:15:53Z</time>
      </trkpt>
      <trkpt lat="59.130696427326" lon="17.771540581942">
        <ele>0.6</ele>
        <time>2016-04-13T18:15:56Z</time>
      </trkpt>
      <trkpt lat="59.130625264995" lon="17.771488530343">
        <ele>1</ele>
        <time>2016-04-13T18:15:57Z</time>
      </trkpt>
      <trkpt lat="59.130550582266" lon="17.771431701061">
        <ele>1.4</ele>
        <time>2016-04-13T18:15:58Z</time>
      </trkpt>
      <trkpt lat="59.130475815718" lon="17.771380236195">
        <ele>2</ele>
        <time>2016-04-13T18:15:59Z</time>
      </trkpt>
      <trkpt lat="59.130406329767" lon="17.771330280071">
        <ele>2.4</ele>
        <time>2016-04-13T18:16:00Z</time>
      </trkpt>
      <trkpt lat="59.130182365399" lon="17.77118787159">
        <ele>2.4</ele>
        <time>2016-04-13T18:16:03Z</time>
      </trkpt>
      <trkpt lat="59.129797971465" lon="17.770873801797">
        <ele>2.4</ele>
        <time>2016-04-13T18:16:08Z</time>
      </trkpt>
      <trkpt lat="59.129499492006" lon="17.770536514141">
        <ele>2</ele>
        <time>2016-04-13T18:16:12Z</time>
      </trkpt>
      <trkpt lat="59.129427994399" lon="17.770446576354">
        <ele>1.6</ele>
        <time>2016-04-13T18:16:13Z</time>
      </trkpt>
      <trkpt lat="59.129359933371" lon="17.770351022694">
        <ele>1.2</ele>
        <time>2016-04-13T18:16:14Z</time>
      </trkpt>
      <trkpt lat="59.129293381085" lon="17.770255636672">
        <ele>0.6</ele>
        <time>2016-04-13T18:16:15Z</time>
      </trkpt>
      <trkpt lat="59.129225822971" lon="17.770156814071">
        <ele>0.2</ele>
        <time>2016-04-13T18:16:16Z</time>
      </trkpt>
      <trkpt lat="59.128813768767" lon="17.769557424402">
        <ele>0.2</ele>
        <time>2016-04-13T18:16:22Z</time>
      </trkpt>
      <trkpt lat="59.128483605726" lon="17.769302614642">
        <ele>0</ele>
        <time>2016-04-13T18:16:26Z</time>
      </trkpt>
      <trkpt lat="59.128398948536" lon="17.769254334898">
        <ele>0</ele>
        <time>2016-04-13T18:16:27Z</time>
      </trkpt>
      <trkpt lat="59.128311609138" lon="17.769207731534">
        <ele>0</ele>
        <time>2016-04-13T18:16:28Z</time>
      </trkpt>
      <trkpt lat="59.128229969432" lon="17.769170599717">
        <ele>0</ele>
        <time>2016-04-13T18:16:29Z</time>
      </trkpt>
      <trkpt lat="59.12815050902" lon="17.769136904479">
        <ele>0</ele>
        <time>2016-04-13T18:16:30Z</time>
      </trkpt>
      <trkpt lat="59.127910032309" lon="17.769014696377">
        <ele>0</ele>
        <time>2016-04-13T18:16:33Z</time>
      </trkpt>
      <trkpt lat="59.127678859507" lon="17.768901373089">
        <ele>0</ele>
        <time>2016-04-13T18:16:36Z</time>
      </trkpt>
      <trkpt lat="59.127471323663" lon="17.768749409242">
        <ele>0</ele>
        <time>2016-04-13T18:16:39Z</time>
      </trkpt>
      <trkpt lat="59.127405609567" lon="17.768684784793">
        <ele>0</ele>
        <time>2016-04-13T18:16:40Z</time>
      </trkpt>
      <trkpt lat="59.127344421697" lon="17.768609263874">
        <ele>0</ele>
        <time>2016-04-13T18:16:41Z</time>
      </trkpt>
      <trkpt lat="59.127282563275" lon="17.768525444874">
        <ele>0</ele>
        <time>2016-04-13T18:16:42Z</time>
      </trkpt>
      <trkpt lat="59.127215675713" lon="17.768428633929">
        <ele>0.6</ele>
        <time>2016-04-13T18:16:43Z</time>
      </trkpt>
      <trkpt lat="59.127161696277" lon="17.768335175744">
        <ele>0.6</ele>
        <time>2016-04-13T18:16:44Z</time>
      </trkpt>
      <trkpt lat="59.126897331151" lon="17.767802003085">
        <ele>1</ele>
        <time>2016-04-13T18:16:49Z</time>
      </trkpt>
      <trkpt lat="59.126854415823" lon="17.767684153571">
        <ele>1.4</ele>
        <time>2016-04-13T18:16:50Z</time>
      </trkpt>
      <trkpt lat="59.126811416676" lon="17.767559933813">
        <ele>1.8</ele>
        <time>2016-04-13T18:16:51Z</time>
      </trkpt>
      <trkpt lat="59.126772692298" lon="17.767447951629">
        <ele>2.2</ele>
        <time>2016-04-13T18:16:52Z</time>
      </trkpt>
      <trkpt lat="59.126730196065" lon="17.767340747128">
        <ele>2.8</ele>
        <time>2016-04-13T18:16:53Z</time>
      </trkpt>
      <trkpt lat="59.126688202746" lon="17.767233877903">
        <ele>3.4</ele>
        <time>2016-04-13T18:16:54Z</time>
      </trkpt>
      <trkpt lat="59.126637827527" lon="17.767139749166">
        <ele>3.8</ele>
        <time>2016-04-13T18:16:55Z</time>
      </trkpt>
      <trkpt lat="59.126583345177" lon="17.767050062836">
        <ele>4.4</ele>
        <time>2016-04-13T18:16:56Z</time>
      </trkpt>
      <trkpt lat="59.126527856999" lon="17.766966160017">
        <ele>5</ele>
        <time>2016-04-13T18:16:57Z</time>
      </trkpt>
      <trkpt lat="59.126463484007" lon="17.766894913867">
        <ele>5</ele>
        <time>2016-04-13T18:16:58Z</time>
      </trkpt>
      <trkpt lat="59.12631822568" lon="17.766815453455">
        <ele>5</ele>
        <time>2016-04-13T18:17:00Z</time>
      </trkpt>
      <trkpt lat="59.126088310163" lon="17.76674546459">
        <ele>5</ele>
        <time>2016-04-13T18:17:03Z</time>
      </trkpt>
      <trkpt lat="59.125928970244" lon="17.766744207305">
        <ele>5</ele>
        <time>2016-04-13T18:17:05Z</time>
      </trkpt>
      <trkpt lat="59.125682123289" lon="17.766766922254">
        <ele>4.6</ele>
        <time>2016-04-13T18:17:08Z</time>
      </trkpt>
      <trkpt lat="59.125598974841" lon="17.766769604462">
        <ele>3.6</ele>
        <time>2016-04-13T18:17:09Z</time>
      </trkpt>
      <trkpt lat="59.125516832221" lon="17.766778908371">
        <ele>3.2</ele>
        <time>2016-04-13T18:17:10Z</time>
      </trkpt>
      <trkpt lat="59.125436701257" lon="17.766771532299">
        <ele>2.8</ele>
        <time>2016-04-13T18:17:11Z</time>
      </trkpt>
      <trkpt lat="59.125357073207" lon="17.766745883685">
        <ele>2.8</ele>
        <time>2016-04-13T18:17:12Z</time>
      </trkpt>
      <trkpt lat="59.125204019713" lon="17.766664076341">
        <ele>2.8</ele>
        <time>2016-04-13T18:17:14Z</time>
      </trkpt>
      <trkpt lat="59.125080889602" lon="17.766531223226">
        <ele>2.8</ele>
        <time>2016-04-13T18:17:16Z</time>
      </trkpt>
      <trkpt lat="59.125032609858" lon="17.766462407827">
        <ele>3.2</ele>
        <time>2016-04-13T18:17:17Z</time>
      </trkpt>
      <trkpt lat="59.124992292919" lon="17.766393173333">
        <ele>3.6</ele>
        <time>2016-04-13T18:17:18Z</time>
      </trkpt>
      <trkpt lat="59.124952562713" lon="17.766318574423">
        <ele>4.2</ele>
        <time>2016-04-13T18:17:19Z</time>
      </trkpt>
      <trkpt lat="59.124916939638" lon="17.766263924435">
        <ele>4.6</ele>
        <time>2016-04-13T18:17:20Z</time>
      </trkpt>
      <trkpt lat="59.124885088418" lon="17.76621824308">
        <ele>5.2</ele>
        <time>2016-04-13T18:17:21Z</time>
      </trkpt>
      <trkpt lat="59.124852399008" lon="17.766167532585">
        <ele>5.8</ele>
        <time>2016-04-13T18:17:22Z</time>
      </trkpt>
      <trkpt lat="59.124824654919" lon="17.766108524009">
        <ele>6.4</ele>
        <time>2016-04-13T18:17:23Z</time>
      </trkpt>
      <trkpt lat="59.124795569726" lon="17.766042390818">
        <ele>7</ele>
        <time>2016-04-13T18:17:24Z</time>
      </trkpt>
      <trkpt lat="59.124767238904" lon="17.765969552107">
        <ele>7.6</ele>
        <time>2016-04-13T18:17:25Z</time>
      </trkpt>
      <trkpt lat="59.124737734616" lon="17.765881961252">
        <ele>8.2</ele>
        <time>2016-04-13T18:17:26Z</time>
      </trkpt>
      <trkpt lat="59.124712588916" lon="17.765783725384">
        <ele>8.8</ele>
        <time>2016-04-13T18:17:27Z</time>
      </trkpt>
      <trkpt lat="59.124684341913" lon="17.765681969118">
        <ele>9.4</ele>
        <time>2016-04-13T18:17:28Z</time>
      </trkpt>
      <trkpt lat="59.124661291688" lon="17.765576943911">
        <ele>9.4</ele>
        <time>2016-04-13T18:17:29Z</time>
      </trkpt>
      <trkpt lat="59.124511758592" lon="17.76484864062">
        <ele>9.4</ele>
        <time>2016-04-13T18:17:35Z</time>
      </trkpt>
      <trkpt lat="59.124329619905" lon="17.763832502883">
        <ele>9.4</ele>
        <time>2016-04-13T18:17:43Z</time>
      </trkpt>
      <trkpt lat="59.12428058579" lon="17.763614573483">
        <ele>10</ele>
        <time>2016-04-13T18:17:45Z</time>
      </trkpt>
      <trkpt lat="59.124259966316" lon="17.763507788077">
        <ele>10.4</ele>
        <time>2016-04-13T18:17:46Z</time>
      </trkpt>
      <trkpt lat="59.124241023222" lon="17.763399577748">
        <ele>10.8</ele>
        <time>2016-04-13T18:17:47Z</time>
      </trkpt>
      <trkpt lat="59.12421185421" lon="17.763292624704">
        <ele>11.4</ele>
        <time>2016-04-13T18:17:48Z</time>
      </trkpt>
      <trkpt lat="59.124179248619" lon="17.763181396891">
        <ele>11.8</ele>
        <time>2016-04-13T18:17:49Z</time>
      </trkpt>
      <trkpt lat="59.124013873732" lon="17.762736066544">
        <ele>11.8</ele>
        <time>2016-04-13T18:17:53Z</time>
      </trkpt>
      <trkpt lat="59.123846654827" lon="17.762435240153">
        <ele>11.8</ele>
        <time>2016-04-13T18:17:56Z</time>
      </trkpt>
      <trkpt lat="59.123780353998" lon="17.762358545768">
        <ele>11.8</ele>
        <time>2016-04-13T18:17:57Z</time>
      </trkpt>
      <trkpt lat="59.123532333577" lon="17.762271457827">
        <ele>11.8</ele>
        <time>2016-04-13T18:18:00Z</time>
      </trkpt>
      <trkpt lat="59.123439378306" lon="17.762296100613">
        <ele>11.4</ele>
        <time>2016-04-13T18:18:01Z</time>
      </trkpt>
      <trkpt lat="59.123350278709" lon="17.762336249914">
        <ele>11</ele>
        <time>2016-04-13T18:18:02Z</time>
      </trkpt>
      <trkpt lat="59.123264448053" lon="17.762379751975">
        <ele>10.6</ele>
        <time>2016-04-13T18:18:03Z</time>
      </trkpt>
      <trkpt lat="59.12317836594" lon="17.76242543333">
        <ele>10.2</ele>
        <time>2016-04-13T18:18:04Z</time>
      </trkpt>
      <trkpt lat="59.123091026542" lon="17.762473377798">
        <ele>9.8</ele>
        <time>2016-04-13T18:18:05Z</time>
      </trkpt>
      <trkpt lat="59.122995724339" lon="17.762523669198">
        <ele>9.4</ele>
        <time>2016-04-13T18:18:06Z</time>
      </trkpt>
      <trkpt lat="59.122904780724" lon="17.762563483223">
        <ele>9</ele>
        <time>2016-04-13T18:18:07Z</time>
      </trkpt>
      <trkpt lat="59.122814004747" lon="17.762596256452">
        <ele>8.6</ele>
        <time>2016-04-13T18:18:08Z</time>
      </trkpt>
      <trkpt lat="59.122722055304" lon="17.762615953917">
        <ele>8.2</ele>
        <time>2016-04-13T18:18:09Z</time>
      </trkpt>
      <trkpt lat="59.122632285155" lon="17.762621653609">
        <ele>7.8</ele>
        <time>2016-04-13T18:18:10Z</time>
      </trkpt>
      <trkpt lat="59.122544861938" lon="17.762605057447">
        <ele>7.8</ele>
        <time>2016-04-13T18:18:11Z</time>
      </trkpt>
      <trkpt lat="59.122378900318" lon="17.762536493505">
        <ele>7.8</ele>
        <time>2016-04-13T18:18:13Z</time>
      </trkpt>
      <trkpt lat="59.122222158788" lon="17.762415626507">
        <ele>7.8</ele>
        <time>2016-04-13T18:18:15Z</time>
      </trkpt>
      <trkpt lat="59.122073882977" lon="17.762291742025">
        <ele>7.8</ele>
        <time>2016-04-13T18:18:17Z</time>
      </trkpt>
      <trkpt lat="59.121569376416" lon="17.761854793578">
        <ele>7.8</ele>
        <time>2016-04-13T18:18:24Z</time>
      </trkpt>
      <trkpt lat="59.121501566845" lon="17.761797712839">
        <ele>7.8</ele>
        <time>2016-04-13T18:18:25Z</time>
      </trkpt>
      <trkpt lat="59.121055649765" lon="17.761423628642">
        <ele>7.8</ele>
        <time>2016-04-13T18:18:32Z</time>
      </trkpt>
      <trkpt lat="59.120944002857" lon="17.761314077209">
        <ele>8.2</ele>
        <time>2016-04-13T18:18:34Z</time>
      </trkpt>
      <trkpt lat="59.120889771964" lon="17.761250207131">
        <ele>8.6</ele>
        <time>2016-04-13T18:18:35Z</time>
      </trkpt>
      <trkpt lat="59.120836546899" lon="17.761170746719">
        <ele>9</ele>
        <time>2016-04-13T18:18:36Z</time>
      </trkpt>
      <trkpt lat="59.120788518612" lon="17.761086089529">
        <ele>9.6</ele>
        <time>2016-04-13T18:18:37Z</time>
      </trkpt>
      <trkpt lat="59.120742418162" lon="17.761000258873">
        <ele>10</ele>
        <time>2016-04-13T18:18:38Z</time>
      </trkpt>
      <trkpt lat="59.12057159504" lon="17.760611673989">
        <ele>10.4</ele>
        <time>2016-04-13T18:18:42Z</time>
      </trkpt>
      <trkpt lat="59.120538989449" lon="17.760500194719">
        <ele>10.8</ele>
        <time>2016-04-13T18:18:43Z</time>
      </trkpt>
      <trkpt lat="59.120510239532" lon="17.760382093748">
        <ele>11.2</ele>
        <time>2016-04-13T18:18:44Z</time>
      </trkpt>
      <trkpt lat="59.120486770212" lon="17.76025368304">
        <ele>11.6</ele>
        <time>2016-04-13T18:18:45Z</time>
      </trkpt>
      <trkpt lat="59.120466737471" lon="17.760135833526">
        <ele>12</ele>
        <time>2016-04-13T18:18:46Z</time>
      </trkpt>
      <trkpt lat="59.120444776893" lon="17.759890160037">
        <ele>12</ele>
        <time>2016-04-13T18:18:48Z</time>
      </trkpt>
      <trkpt lat="59.120436059717" lon="17.759768119573">
        <ele>13</ele>
        <time>2016-04-13T18:18:49Z</time>
      </trkpt>
      <trkpt lat="59.120425582342" lon="17.759647420213">
        <ele>13.4</ele>
        <time>2016-04-13T18:18:50Z</time>
      </trkpt>
      <trkpt lat="59.120419128279" lon="17.75952864869">
        <ele>13.8</ele>
        <time>2016-04-13T18:18:51Z</time>
      </trkpt>
      <trkpt lat="59.120419128279" lon="17.759402836371">
        <ele>14.2</ele>
        <time>2016-04-13T18:18:52Z</time>
      </trkpt>
      <trkpt lat="59.120464390539" lon="17.759054484607">
        <ele>14.2</ele>
        <time>2016-04-13T18:18:55Z</time>
      </trkpt>
      <trkpt lat="59.120490877343" lon="17.758953901807">
        <ele>14.6</ele>
        <time>2016-04-13T18:18:56Z</time>
      </trkpt>
      <trkpt lat="59.120521638916" lon="17.758858767242">
        <ele>15</ele>
        <time>2016-04-13T18:18:57Z</time>
      </trkpt>
      <trkpt lat="59.120556591439" lon="17.758767655989">
        <ele>15.4</ele>
        <time>2016-04-13T18:18:58Z</time>
      </trkpt>
      <trkpt lat="59.12059254979" lon="17.75867872403">
        <ele>15.8</ele>
        <time>2016-04-13T18:18:59Z</time>
      </trkpt>
      <trkpt lat="59.120628089046" lon="17.758591049356">
        <ele>16.4</ele>
        <time>2016-04-13T18:19:00Z</time>
      </trkpt>
      <trkpt lat="59.12066044318" lon="17.758505553976">
        <ele>16.8</ele>
        <time>2016-04-13T18:19:01Z</time>
      </trkpt>
      <trkpt lat="59.120690450382" lon="17.758425423012">
        <ele>17.4</ele>
        <time>2016-04-13T18:19:02Z</time>
      </trkpt>
      <trkpt lat="59.120720709041" lon="17.758344202401">
        <ele>17.8</ele>
        <time>2016-04-13T18:19:03Z</time>
      </trkpt>
      <trkpt lat="59.120748704587" lon="17.758257617374">
        <ele>18.4</ele>
        <time>2016-04-13T18:19:04Z</time>
      </trkpt>
      <trkpt lat="59.120767815319" lon="17.758165500293">
        <ele>18.8</ele>
        <time>2016-04-13T18:19:05Z</time>
      </trkpt>
      <trkpt lat="59.120781729273" lon="17.758065588045">
        <ele>19.2</ele>
        <time>2016-04-13T18:19:06Z</time>
      </trkpt>
      <trkpt lat="59.12079371539" lon="17.757975147344">
        <ele>19.6</ele>
        <time>2016-04-13T18:19:07Z</time>
      </trkpt>
      <trkpt lat="59.12079622996" lon="17.757871295603">
        <ele>20</ele>
        <time>2016-04-13T18:19:08Z</time>
      </trkpt>
      <trkpt lat="59.120794134485" lon="17.757788733888">
        <ele>20.4</ele>
        <time>2016-04-13T18:19:09Z</time>
      </trkpt>
      <trkpt lat="59.120759265781" lon="17.757476927208">
        <ele>20.4</ele>
        <time>2016-04-13T18:19:12Z</time>
      </trkpt>
      <trkpt lat="59.120740406506" lon="17.757382211738">
        <ele>20.4</ele>
        <time>2016-04-13T18:19:13Z</time>
      </trkpt>
      <trkpt lat="59.120654324393" lon="17.756982143651">
        <ele>20.4</ele>
        <time>2016-04-13T18:19:17Z</time>
      </trkpt>
      <trkpt lat="59.120587436831" lon="17.756788437942">
        <ele>20.4</ele>
        <time>2016-04-13T18:19:19Z</time>
      </trkpt>
      <trkpt lat="59.120515352491" lon="17.756557684235">
        <ele>20.4</ele>
        <time>2016-04-13T18:19:21Z</time>
      </trkpt>
      <trkpt lat="59.120318796936" lon="17.755806582176">
        <ele>20.4</ele>
        <time>2016-04-13T18:19:27Z</time>
      </trkpt>
      <trkpt lat="59.120217711222" lon="17.755225632687">
        <ele>20.8</ele>
        <time>2016-04-13T18:19:32Z</time>
      </trkpt>
      <trkpt lat="59.120207988218" lon="17.755108621363">
        <ele>21.2</ele>
        <time>2016-04-13T18:19:33Z</time>
      </trkpt>
      <trkpt lat="59.120200947422" lon="17.755002171233">
        <ele>21.6</ele>
        <time>2016-04-13T18:19:34Z</time>
      </trkpt>
      <trkpt lat="59.120195499187" lon="17.754894044723">
        <ele>22.2</ele>
        <time>2016-04-13T18:19:35Z</time>
      </trkpt>
      <trkpt lat="59.120192565522" lon="17.754797820511">
        <ele>22.6</ele>
        <time>2016-04-13T18:19:36Z</time>
      </trkpt>
      <trkpt lat="59.120192146427" lon="17.754689107268">
        <ele>23.6</ele>
        <time>2016-04-13T18:19:37Z</time>
      </trkpt>
      <trkpt lat="59.120185943821" lon="17.754573101772">
        <ele>24</ele>
        <time>2016-04-13T18:19:38Z</time>
      </trkpt>
      <trkpt lat="59.120179573577" lon="17.754458605018">
        <ele>24.4</ele>
        <time>2016-04-13T18:19:39Z</time>
      </trkpt>
      <trkpt lat="59.120171024039" lon="17.754342683341">
        <ele>25</ele>
        <time>2016-04-13T18:19:40Z</time>
      </trkpt>
      <trkpt lat="59.120155266067" lon="17.75423128789">
        <ele>25</ele>
        <time>2016-04-13T18:19:41Z</time>
      </trkpt>
      <trkpt lat="59.120034063793" lon="17.753602226295">
        <ele>25</ele>
        <time>2016-04-13T18:19:46Z</time>
      </trkpt>
      <trkpt lat="59.120000871469" lon="17.753349092915">
        <ele>25.4</ele>
        <time>2016-04-13T18:19:48Z</time>
      </trkpt>
      <trkpt lat="59.119993998311" lon="17.753209282823">
        <ele>25.8</ele>
        <time>2016-04-13T18:19:49Z</time>
      </trkpt>
      <trkpt lat="59.119988130981" lon="17.753084224875">
        <ele>26.2</ele>
        <time>2016-04-13T18:19:50Z</time>
      </trkpt>
      <trkpt lat="59.119988550076" lon="17.752963441696">
        <ele>26.6</ele>
        <time>2016-04-13T18:19:51Z</time>
      </trkpt>
      <trkpt lat="59.119987041334" lon="17.752842909974">
        <ele>27</ele>
        <time>2016-04-13T18:19:52Z</time>
      </trkpt>
      <trkpt lat="59.119993914492" lon="17.752717349112">
        <ele>27</ele>
        <time>2016-04-13T18:19:53Z</time>
      </trkpt>
      <trkpt lat="59.120008247541" lon="17.752479722247">
        <ele>27</ele>
        <time>2016-04-13T18:19:55Z</time>
      </trkpt>
      <trkpt lat="59.120033309422" lon="17.752263553046">
        <ele>27.4</ele>
        <time>2016-04-13T18:19:57Z</time>
      </trkpt>
      <trkpt lat="59.12005946095" lon="17.752165652454">
        <ele>28</ele>
        <time>2016-04-13T18:19:58Z</time>
      </trkpt>
      <trkpt lat="59.120076308569" lon="17.752054173184">
        <ele>28.4</ele>
        <time>2016-04-13T18:19:59Z</time>
      </trkpt>
      <trkpt lat="59.120081421528" lon="17.751932635634">
        <ele>28.8</ele>
        <time>2016-04-13T18:20:00Z</time>
      </trkpt>
      <trkpt lat="59.120081840623" lon="17.751802632365">
        <ele>29.4</ele>
        <time>2016-04-13T18:20:01Z</time>
      </trkpt>
      <trkpt lat="59.120075638017" lon="17.751667851413">
        <ele>29.4</ele>
        <time>2016-04-13T18:20:02Z</time>
      </trkpt>
      <trkpt lat="59.12006532828" lon="17.751537093773">
        <ele>29.4</ele>
        <time>2016-04-13T18:20:03Z</time>
      </trkpt>
      <trkpt lat="59.119965248394" lon="17.750818764943">
        <ele>29.4</ele>
        <time>2016-04-13T18:20:08Z</time>
      </trkpt>
      <trkpt lat="59.119769028115" lon="17.749921901643">
        <ele>29.4</ele>
        <time>2016-04-13T18:20:14Z</time>
      </trkpt>
      <trkpt lat="59.119515391821" lon="17.748840133629">
        <ele>29.4</ele>
        <time>2016-04-13T18:20:21Z</time>
      </trkpt>
      <trkpt lat="59.119482870049" lon="17.748688672696">
        <ele>29.4</ele>
        <time>2016-04-13T18:20:22Z</time>
      </trkpt>
      <trkpt lat="59.119238118569" lon="17.747659291557">
        <ele>29.4</ele>
        <time>2016-04-13T18:20:29Z</time>
      </trkpt>
      <trkpt lat="59.119172153016" lon="17.747377659717">
        <ele>29.4</ele>
        <time>2016-04-13T18:20:31Z</time>
      </trkpt>
      <trkpt lat="59.11895807929" lon="17.746466211911">
        <ele>29.4</ele>
        <time>2016-04-13T18:20:38Z</time>
      </trkpt>
      <trkpt lat="59.11886839296" lon="17.746078632855">
        <ele>29.8</ele>
        <time>2016-04-13T18:20:41Z</time>
      </trkpt>
      <trkpt lat="59.118837966663" lon="17.745947120844">
        <ele>30.2</ele>
        <time>2016-04-13T18:20:42Z</time>
      </trkpt>
      <trkpt lat="59.118808378556" lon="17.745814267729">
        <ele>30.6</ele>
        <time>2016-04-13T18:20:43Z</time>
      </trkpt>
      <trkpt lat="59.118779125725" lon="17.74568007351">
        <ele>31</ele>
        <time>2016-04-13T18:20:44Z</time>
      </trkpt>
      <trkpt lat="59.118748364152" lon="17.745546130748">
        <ele>31.4</ele>
        <time>2016-04-13T18:20:45Z</time>
      </trkpt>
      <trkpt lat="59.118506378699" lon="17.744484227837">
        <ele>31.4</ele>
        <time>2016-04-13T18:20:53Z</time>
      </trkpt>
      <trkpt lat="59.118379979647" lon="17.743893722982">
        <ele>31.8</ele>
        <time>2016-04-13T18:20:58Z</time>
      </trkpt>
      <trkpt lat="59.118353911938" lon="17.743798756055">
        <ele>32.4</ele>
        <time>2016-04-13T18:20:59Z</time>
      </trkpt>
      <trkpt lat="59.118331364627" lon="17.743705130232">
        <ele>32.8</ele>
        <time>2016-04-13T18:21:00Z</time>
      </trkpt>
      <trkpt lat="59.118310828972" lon="17.743615946816">
        <ele>33.2</ele>
        <time>2016-04-13T18:21:01Z</time>
      </trkpt>
      <trkpt lat="59.118291382964" lon="17.743528858875">
        <ele>33.8</ele>
        <time>2016-04-13T18:21:02Z</time>
      </trkpt>
      <trkpt lat="59.118269506205" lon="17.743444704599">
        <ele>34.4</ele>
        <time>2016-04-13T18:21:03Z</time>
      </trkpt>
      <trkpt lat="59.118242935582" lon="17.743364908911">
        <ele>35</ele>
        <time>2016-04-13T18:21:04Z</time>
      </trkpt>
      <trkpt lat="59.118217873701" lon="17.743276479866">
        <ele>35.4</ele>
        <time>2016-04-13T18:21:05Z</time>
      </trkpt>
      <trkpt lat="59.118190548707" lon="17.743191152124">
        <ele>36</ele>
        <time>2016-04-13T18:21:06Z</time>
      </trkpt>
      <trkpt lat="59.118159116582" lon="17.743107752219">
        <ele>36</ele>
        <time>2016-04-13T18:21:07Z</time>
      </trkpt>
      <trkpt lat="59.118020731413" lon="17.742866772594">
        <ele>36</ele>
        <time>2016-04-13T18:21:10Z</time>
      </trkpt>
      <trkpt lat="59.117964572683" lon="17.742798041014">
        <ele>36</ele>
        <time>2016-04-13T18:21:11Z</time>
      </trkpt>
      <trkpt lat="59.117742619971" lon="17.742548176575">
        <ele>36</ele>
        <time>2016-04-13T18:21:15Z</time>
      </trkpt>
      <trkpt lat="59.117627452665" lon="17.742436110572">
        <ele>36.4</ele>
        <time>2016-04-13T18:21:17Z</time>
      </trkpt>
      <trkpt lat="59.117567857356" lon="17.742388836656">
        <ele>37</ele>
        <time>2016-04-13T18:21:18Z</time>
      </trkpt>
      <trkpt lat="59.117501221251" lon="17.74233401903">
        <ele>37.4</ele>
        <time>2016-04-13T18:21:19Z</time>
      </trkpt>
      <trkpt lat="59.117428550178" lon="17.742281632155">
        <ele>37.8</ele>
        <time>2016-04-13T18:21:20Z</time>
      </trkpt>
      <trkpt lat="59.117355292372" lon="17.742237710999">
        <ele>38.2</ele>
        <time>2016-04-13T18:21:21Z</time>
      </trkpt>
      <trkpt lat="59.117071062143" lon="17.742063786574">
        <ele>38.2</ele>
        <time>2016-04-13T18:21:25Z</time>
      </trkpt>
      <trkpt lat="59.116751879391" lon="17.741920036989">
        <ele>37.8</ele>
        <time>2016-04-13T18:21:29Z</time>
      </trkpt>
      <trkpt lat="59.116660768138" lon="17.741895561841">
        <ele>37.4</ele>
        <time>2016-04-13T18:21:30Z</time>
      </trkpt>
      <trkpt lat="59.116556497302" lon="17.741881731706">
        <ele>36.6</ele>
        <time>2016-04-13T18:21:31Z</time>
      </trkpt>
      <trkpt lat="59.116457339425" lon="17.74187385272">
        <ele>36</ele>
        <time>2016-04-13T18:21:32Z</time>
      </trkpt>
      <trkpt lat="59.116359522652" lon="17.741867566295">
        <ele>35.2</ele>
        <time>2016-04-13T18:21:33Z</time>
      </trkpt>
      <trkpt lat="59.116262041155" lon="17.741864716449">
        <ele>34.6</ele>
        <time>2016-04-13T18:21:34Z</time>
      </trkpt>
      <trkpt lat="59.116162045088" lon="17.741864464992">
        <ele>34</ele>
        <time>2016-04-13T18:21:35Z</time>
      </trkpt>
      <trkpt lat="59.116066575247" lon="17.741863459164">
        <ele>33.4</ele>
        <time>2016-04-13T18:21:36Z</time>
      </trkpt>
      <trkpt lat="59.115973033243" lon="17.741868655942">
        <ele>33</ele>
        <time>2016-04-13T18:21:37Z</time>
      </trkpt>
      <trkpt lat="59.115878485411" lon="17.741876199652">
        <ele>32.4</ele>
        <time>2016-04-13T18:21:38Z</time>
      </trkpt>
      <trkpt lat="59.115779495172" lon="17.741885922656">
        <ele>32</ele>
        <time>2016-04-13T18:21:39Z</time>
      </trkpt>
      <trkpt lat="59.115685534073" lon="17.741905284845">
        <ele>31.6</ele>
        <time>2016-04-13T18:21:40Z</time>
      </trkpt>
      <trkpt lat="59.11559190825" lon="17.741928586527">
        <ele>31.6</ele>
        <time>2016-04-13T18:21:41Z</time>
      </trkpt>
      <trkpt lat="59.1153111146" lon="17.742013914269">
        <ele>31</ele>
        <time>2016-04-13T18:21:44Z</time>
      </trkpt>
      <trkpt lat="59.115216650587" lon="17.742048363878">
        <ele>30.6</ele>
        <time>2016-04-13T18:21:45Z</time>
      </trkpt>
      <trkpt lat="59.115125204058" lon="17.742080801831">
        <ele>30</ele>
        <time>2016-04-13T18:21:46Z</time>
      </trkpt>
      <trkpt lat="59.115034092805" lon="17.74211692782">
        <ele>29.6</ele>
        <time>2016-04-13T18:21:47Z</time>
      </trkpt>
      <trkpt lat="59.114942813914" lon="17.742148276126">
        <ele>29.2</ele>
        <time>2016-04-13T18:21:48Z</time>
      </trkpt>
      <trkpt lat="59.114416095318" lon="17.742398727298">
        <ele>29.2</ele>
        <time>2016-04-13T18:21:54Z</time>
      </trkpt>
      <trkpt lat="59.114192717683" lon="17.742544153263">
        <ele>29.6</ele>
        <time>2016-04-13T18:21:57Z</time>
      </trkpt>
      <trkpt lat="59.114123064094" lon="17.742601485459">
        <ele>30</ele>
        <time>2016-04-13T18:21:58Z</time>
      </trkpt>
      <trkpt lat="59.114051734125" lon="17.742665858451">
        <ele>30.4</ele>
        <time>2016-04-13T18:21:59Z</time>
      </trkpt>
      <trkpt lat="59.113973530998" lon="17.742738780981">
        <ele>31</ele>
        <time>2016-04-13T18:22:00Z</time>
      </trkpt>
      <trkpt lat="59.113888957627" lon="17.742802148145">
        <ele>31.4</ele>
        <time>2016-04-13T18:22:01Z</time>
      </trkpt>
      <trkpt lat="59.113701622162" lon="17.742902814764">
        <ele>31.4</ele>
        <time>2016-04-13T18:22:03Z</time>
      </trkpt>
      <trkpt lat="59.11360623614" lon="17.742930642672">
        <ele>30.8</ele>
        <time>2016-04-13T18:22:04Z</time>
      </trkpt>
      <trkpt lat="59.113510263385" lon="17.742945730092">
        <ele>30.2</ele>
        <time>2016-04-13T18:22:05Z</time>
      </trkpt>
      <trkpt lat="59.113411273146" lon="17.742948663757">
        <ele>29.2</ele>
        <time>2016-04-13T18:22:06Z</time>
      </trkpt>
      <trkpt lat="59.113319407522" lon="17.74294757411">
        <ele>28.6</ele>
        <time>2016-04-13T18:22:07Z</time>
      </trkpt>
      <trkpt lat="59.112871059691" lon="17.742862330187">
        <ele>28.6</ele>
        <time>2016-04-13T18:22:12Z</time>
      </trkpt>
      <trkpt lat="59.112779613162" lon="17.742812290244">
        <ele>28.6</ele>
        <time>2016-04-13T18:22:13Z</time>
      </trkpt>
      <trkpt lat="59.11254173484" lon="17.742586984772">
        <ele>28.6</ele>
        <time>2016-04-13T18:22:16Z</time>
      </trkpt>
      <trkpt lat="59.112156083621" lon="17.742080801831">
        <ele>28.2</ele>
        <time>2016-04-13T18:22:21Z</time>
      </trkpt>
      <trkpt lat="59.112072096983" lon="17.741975106072">
        <ele>27.6</ele>
        <time>2016-04-13T18:22:22Z</time>
      </trkpt>
      <trkpt lat="59.111997917168" lon="17.741858346205">
        <ele>27.2</ele>
        <time>2016-04-13T18:22:23Z</time>
      </trkpt>
      <trkpt lat="59.111914181987" lon="17.741736557198">
        <ele>26.6</ele>
        <time>2016-04-13T18:22:24Z</time>
      </trkpt>
      <trkpt lat="59.111822400182" lon="17.741626335213">
        <ele>26</ele>
        <time>2016-04-13T18:22:25Z</time>
      </trkpt>
      <trkpt lat="59.111734306413" lon="17.741514604486">
        <ele>25.4</ele>
        <time>2016-04-13T18:22:26Z</time>
      </trkpt>
      <trkpt lat="59.111657276752" lon="17.741397676981">
        <ele>24.6</ele>
        <time>2016-04-13T18:22:27Z</time>
      </trkpt>
      <trkpt lat="59.111565159671" lon="17.741275133603">
        <ele>23.8</ele>
        <time>2016-04-13T18:22:28Z</time>
      </trkpt>
      <trkpt lat="59.111466672346" lon="17.741141777574">
        <ele>23</ele>
        <time>2016-04-13T18:22:29Z</time>
      </trkpt>
      <trkpt lat="59.111370364315" lon="17.741016635807">
        <ele>20.8</ele>
        <time>2016-04-13T18:22:30Z</time>
      </trkpt>
      <trkpt lat="59.111277241406" lon="17.740885123796">
        <ele>19.6</ele>
        <time>2016-04-13T18:22:31Z</time>
      </trkpt>
      <trkpt lat="59.111186046334" lon="17.740750426663">
        <ele>18.4</ele>
        <time>2016-04-13T18:22:32Z</time>
      </trkpt>
      <trkpt lat="59.111097784927" lon="17.740599468644">
        <ele>17.4</ele>
        <time>2016-04-13T18:22:33Z</time>
      </trkpt>
      <trkpt lat="59.111010864624" lon="17.740437949431">
        <ele>17.4</ele>
        <time>2016-04-13T18:22:34Z</time>
      </trkpt>
      <trkpt lat="59.110761838375" lon="17.739910895559">
        <ele>16.8</ele>
        <time>2016-04-13T18:22:37Z</time>
      </trkpt>
      <trkpt lat="59.110687826198" lon="17.739728337777">
        <ele>16.2</ele>
        <time>2016-04-13T18:22:38Z</time>
      </trkpt>
      <trkpt lat="59.110617418238" lon="17.739541756683">
        <ele>15.8</ele>
        <time>2016-04-13T18:22:39Z</time>
      </trkpt>
      <trkpt lat="59.110481212363" lon="17.739177898404">
        <ele>14.8</ele>
        <time>2016-04-13T18:22:41Z</time>
      </trkpt>
      <trkpt lat="59.11020569931" lon="17.738485134369">
        <ele>14.8</ele>
        <time>2016-04-13T18:22:45Z</time>
      </trkpt>
      <trkpt lat="59.110130848943" lon="17.738323112242">
        <ele>14.4</ele>
        <time>2016-04-13T18:22:46Z</time>
      </trkpt>
      <trkpt lat="59.110048622504" lon="17.738172657137">
        <ele>14</ele>
        <time>2016-04-13T18:22:47Z</time>
      </trkpt>
      <trkpt lat="59.109962791848" lon="17.738035864529">
        <ele>13.6</ele>
        <time>2016-04-13T18:22:48Z</time>
      </trkpt>
      <trkpt lat="59.109875368631" lon="17.737908459649">
        <ele>13</ele>
        <time>2016-04-13T18:22:49Z</time>
      </trkpt>
      <trkpt lat="59.109787610138" lon="17.737782312054">
        <ele>12.6</ele>
        <time>2016-04-13T18:22:50Z</time>
      </trkpt>
      <trkpt lat="59.109474378535" lon="17.737230112482">
        <ele>12.6</ele>
        <time>2016-04-13T18:22:54Z</time>
      </trkpt>
      <trkpt lat="59.109411849561" lon="17.737076975169">
        <ele>12.6</ele>
        <time>2016-04-13T18:22:55Z</time>
      </trkpt>
      <trkpt lat="59.109229291779" lon="17.736640361998">
        <ele>13</ele>
        <time>2016-04-13T18:22:58Z</time>
      </trkpt>
      <trkpt lat="59.109164499692" lon="17.736495271309">
        <ele>13.6</ele>
        <time>2016-04-13T18:22:59Z</time>
      </trkpt>
      <trkpt lat="59.109102054537" lon="17.736364848945">
        <ele>14</ele>
        <time>2016-04-13T18:23:00Z</time>
      </trkpt>
      <trkpt lat="59.109039944658" lon="17.736240713006">
        <ele>14.4</ele>
        <time>2016-04-13T18:23:01Z</time>
      </trkpt>
      <trkpt lat="59.108971380716" lon="17.736129988107">
        <ele>14.8</ele>
        <time>2016-04-13T18:23:02Z</time>
      </trkpt>
      <trkpt lat="59.108755462972" lon="17.735832598295">
        <ele>14.8</ele>
        <time>2016-04-13T18:23:05Z</time>
      </trkpt>
      <trkpt lat="59.108405351009" lon="17.735369163044">
        <ele>15.2</ele>
        <time>2016-04-13T18:23:10Z</time>
      </trkpt>
      <trkpt lat="59.108341983845" lon="17.73527394466">
        <ele>15.6</ele>
        <time>2016-04-13T18:23:11Z</time>
      </trkpt>
      <trkpt lat="59.108278365224" lon="17.735171769299">
        <ele>16</ele>
        <time>2016-04-13T18:23:12Z</time>
      </trkpt>
      <trkpt lat="59.108217093535" lon="17.735058865106">
        <ele>16.4</ele>
        <time>2016-04-13T18:23:13Z</time>
      </trkpt>
      <trkpt lat="59.108151798534" lon="17.734938836298">
        <ele>16.8</ele>
        <time>2016-04-13T18:23:14Z</time>
      </trkpt>
      <trkpt lat="59.108080971479" lon="17.73480874921">
        <ele>16.4</ele>
        <time>2016-04-13T18:23:15Z</time>
      </trkpt>
      <trkpt lat="59.108012658994" lon="17.734677321018">
        <ele>16</ele>
        <time>2016-04-13T18:23:16Z</time>
      </trkpt>
      <trkpt lat="59.107939568826" lon="17.73454723393">
        <ele>15.6</ele>
        <time>2016-04-13T18:23:17Z</time>
      </trkpt>
      <trkpt lat="59.107863125898" lon="17.734411950064">
        <ele>15</ele>
        <time>2016-04-13T18:23:18Z</time>
      </trkpt>
      <trkpt lat="59.107779725993" lon="17.734285299555">
        <ele>13.8</ele>
        <time>2016-04-13T18:23:19Z</time>
      </trkpt>
      <trkpt lat="59.107693392423" lon="17.734159319598">
        <ele>13</ele>
        <time>2016-04-13T18:23:20Z</time>
      </trkpt>
      <trkpt lat="59.10760731031" lon="17.734032249994">
        <ele>12.2</ele>
        <time>2016-04-13T18:23:21Z</time>
      </trkpt>
      <trkpt lat="59.107429278754" lon="17.733776015311">
        <ele>10.4</ele>
        <time>2016-04-13T18:23:22Z</time>
      </trkpt>
      <trkpt lat="59.107344873021" lon="17.733650035354">
        <ele>9.6</ele>
        <time>2016-04-13T18:23:24Z</time>
      </trkpt>
      <trkpt lat="59.107255438148" lon="17.733520367361">
        <ele>8.8</ele>
        <time>2016-04-13T18:23:25Z</time>
      </trkpt>
      <trkpt lat="59.107168853121" lon="17.733388771531">
        <ele>8</ele>
        <time>2016-04-13T18:23:26Z</time>
      </trkpt>
      <trkpt lat="59.107082938646" lon="17.733259606452">
        <ele>7.2</ele>
        <time>2016-04-13T18:23:27Z</time>
      </trkpt>
      <trkpt lat="59.106993000859" lon="17.73313488378">
        <ele>6.4</ele>
        <time>2016-04-13T18:23:28Z</time>
      </trkpt>
      <trkpt lat="59.106905158547" lon="17.733011083117">
        <ele>5.6</ele>
        <time>2016-04-13T18:23:29Z</time>
      </trkpt>
      <trkpt lat="59.106724528602" lon="17.73276524199">
        <ele>5.2</ele>
        <time>2016-04-13T18:23:31Z</time>
      </trkpt>
      <trkpt lat="59.106635093729" lon="17.732642698612">
        <ele>4.8</ele>
        <time>2016-04-13T18:23:32Z</time>
      </trkpt>
      <trkpt lat="59.106548005788" lon="17.732510599868">
        <ele>4.4</ele>
        <time>2016-04-13T18:23:33Z</time>
      </trkpt>
      <trkpt lat="59.106458654734" lon="17.732377662934">
        <ele>4</ele>
        <time>2016-04-13T18:23:34Z</time>
      </trkpt>
      <trkpt lat="59.106375422467" lon="17.732250677149">
        <ele>3.6</ele>
        <time>2016-04-13T18:23:35Z</time>
      </trkpt>
      <trkpt lat="59.105958506761" lon="17.731671236402">
        <ele>3.6</ele>
        <time>2016-04-13T18:23:40Z</time>
      </trkpt>
      <trkpt lat="59.105779804653" lon="17.731449954242">
        <ele>3.2</ele>
        <time>2016-04-13T18:23:42Z</time>
      </trkpt>
      <trkpt lat="59.105684334812" lon="17.731333362013">
        <ele>2.8</ele>
        <time>2016-04-13T18:23:43Z</time>
      </trkpt>
      <trkpt lat="59.105590289894" lon="17.73121961963">
        <ele>1.8</ele>
        <time>2016-04-13T18:23:44Z</time>
      </trkpt>
      <trkpt lat="59.10550261522" lon="17.731107385989">
        <ele>1.4</ele>
        <time>2016-04-13T18:23:45Z</time>
      </trkpt>
      <trkpt lat="59.1053282717" lon="17.730887864028">
        <ele>1</ele>
        <time>2016-04-13T18:23:47Z</time>
      </trkpt>
      <trkpt lat="59.105240094112" lon="17.730781413898">
        <ele>0.6</ele>
        <time>2016-04-13T18:23:48Z</time>
      </trkpt>
      <trkpt lat="59.105145462461" lon="17.730678651804">
        <ele>0</ele>
        <time>2016-04-13T18:23:49Z</time>
      </trkpt>
      <trkpt lat="59.105053596837" lon="17.730570609113">
        <ele>0</ele>
        <time>2016-04-13T18:23:50Z</time>
      </trkpt>
      <trkpt lat="59.104952427304" lon="17.730464494259">
        <ele>0</ele>
        <time>2016-04-13T18:23:51Z</time>
      </trkpt>
      <trkpt lat="59.104855029626" lon="17.73036382764">
        <ele>0</ele>
        <time>2016-04-13T18:23:52Z</time>
      </trkpt>
      <trkpt lat="59.104760146518" lon="17.73025737751">
        <ele>0</ele>
        <time>2016-04-13T18:23:53Z</time>
      </trkpt>
      <trkpt lat="59.104666436876" lon="17.730158638728">
        <ele>0</ele>
        <time>2016-04-13T18:23:54Z</time>
      </trkpt>
      <trkpt lat="59.104563339506" lon="17.730080687058">
        <ele>0</ele>
        <time>2016-04-13T18:23:55Z</time>
      </trkpt>
      <trkpt lat="59.104455632091" lon="17.730004160311">
        <ele>0</ele>
        <time>2016-04-13T18:23:56Z</time>
      </trkpt>
      <trkpt lat="59.104347337943" lon="17.72993551255">
        <ele>0</ele>
        <time>2016-04-13T18:23:57Z</time>
      </trkpt>
      <trkpt lat="59.104015498522" lon="17.729725462136">
        <ele>0</ele>
        <time>2016-04-13T18:24:00Z</time>
      </trkpt>
      <trkpt lat="59.103906533822" lon="17.729663603714">
        <ele>0</ele>
        <time>2016-04-13T18:24:01Z</time>
      </trkpt>
      <trkpt lat="59.103798910226" lon="17.729598141075">
        <ele>0</ele>
        <time>2016-04-13T18:24:02Z</time>
      </trkpt>
      <trkpt lat="59.103689442612" lon="17.729532259341">
        <ele>0</ele>
        <time>2016-04-13T18:24:03Z</time>
      </trkpt>
      <trkpt lat="59.10358316012" lon="17.729466545245">
        <ele>0</ele>
        <time>2016-04-13T18:24:04Z</time>
      </trkpt>
      <trkpt lat="59.103043952493" lon="17.729104363346">
        <ele>0</ele>
        <time>2016-04-13T18:24:09Z</time>
      </trkpt>
      <trkpt lat="59.102845385282" lon="17.728969414756">
        <ele>0</ele>
        <time>2016-04-13T18:24:11Z</time>
      </trkpt>
      <trkpt lat="59.102395109614" lon="17.728695997178">
        <ele>0</ele>
        <time>2016-04-13T18:24:16Z</time>
      </trkpt>
      <trkpt lat="59.101892111795" lon="17.728510757188">
        <ele>0</ele>
        <time>2016-04-13T18:24:22Z</time>
      </trkpt>
      <trkpt lat="59.101730927858" lon="17.728473541552">
        <ele>0</ele>
        <time>2016-04-13T18:24:24Z</time>
      </trkpt>
      <trkpt lat="59.101650713075" lon="17.728457699761">
        <ele>0</ele>
        <time>2016-04-13T18:24:25Z</time>
      </trkpt>
      <trkpt lat="59.101573934871" lon="17.728435236269">
        <ele>0</ele>
        <time>2016-04-13T18:24:26Z</time>
      </trkpt>
      <trkpt lat="59.10149690521" lon="17.728414532976">
        <ele>0</ele>
        <time>2016-04-13T18:24:27Z</time>
      </trkpt>
      <trkpt lat="59.101421719567" lon="17.728393662045">
        <ele>0</ele>
        <time>2016-04-13T18:24:28Z</time>
      </trkpt>
      <trkpt lat="59.10134267825" lon="17.728377484978">
        <ele>0</ele>
        <time>2016-04-13T18:24:29Z</time>
      </trkpt>
      <trkpt lat="59.101058364202" lon="17.728301461145">
        <ele>0</ele>
        <time>2016-04-13T18:24:33Z</time>
      </trkpt>
      <trkpt lat="59.10098812388" lon="17.7282884692">
        <ele>0</ele>
        <time>2016-04-13T18:24:34Z</time>
      </trkpt>
      <trkpt lat="59.100920901042" lon="17.728276985997">
        <ele>0</ele>
        <time>2016-04-13T18:24:35Z</time>
      </trkpt>
      <trkpt lat="59.100853594385" lon="17.728266257165">
        <ele>0</ele>
        <time>2016-04-13T18:24:36Z</time>
      </trkpt>
      <trkpt lat="59.10078444371" lon="17.728255695971">
        <ele>0</ele>
        <time>2016-04-13T18:24:37Z</time>
      </trkpt>
      <trkpt lat="59.100308603247" lon="17.728245553872">
        <ele>0</ele>
        <time>2016-04-13T18:24:44Z</time>
      </trkpt>
      <trkpt lat="59.100108359656" lon="17.728258545817">
        <ele>0</ele>
        <time>2016-04-13T18:24:47Z</time>
      </trkpt>
      <trkpt lat="59.100044238121" lon="17.728259803102">
        <ele>0</ele>
        <time>2016-04-13T18:24:48Z</time>
      </trkpt>
      <trkpt lat="59.099977769654" lon="17.728263072043">
        <ele>0.2</ele>
        <time>2016-04-13T18:24:49Z</time>
      </trkpt>
      <trkpt lat="59.099911301187" lon="17.728265167518">
        <ele>0.6</ele>
        <time>2016-04-13T18:24:50Z</time>
      </trkpt>
      <trkpt lat="59.099845838548" lon="17.728270699572">
        <ele>1</ele>
        <time>2016-04-13T18:24:51Z</time>
      </trkpt>
      <trkpt lat="59.099536881714" lon="17.728273884694">
        <ele>1.6</ele>
        <time>2016-04-13T18:24:56Z</time>
      </trkpt>
      <trkpt lat="59.099482902278" lon="17.72826667626">
        <ele>2</ele>
        <time>2016-04-13T18:24:57Z</time>
      </trkpt>
      <trkpt lat="59.099431185955" lon="17.728249744822">
        <ele>3</ele>
        <time>2016-04-13T18:24:58Z</time>
      </trkpt>
      <trkpt lat="59.099380559279" lon="17.728233735393">
        <ele>3.4</ele>
        <time>2016-04-13T18:24:59Z</time>
      </trkpt>
      <trkpt lat="59.099245107775" lon="17.728195933024">
        <ele>3.8</ele>
        <time>2016-04-13T18:25:02Z</time>
      </trkpt>
      <trkpt lat="59.099206467216" lon="17.728179755957">
        <ele>4.2</ele>
        <time>2016-04-13T18:25:03Z</time>
      </trkpt>
      <trkpt lat="59.099166569372" lon="17.728160812863">
        <ele>4.6</ele>
        <time>2016-04-13T18:25:04Z</time>
      </trkpt>
      <trkpt lat="59.099128264089" lon="17.728143881425">
        <ele>5</ele>
        <time>2016-04-13T18:25:05Z</time>
      </trkpt>
      <trkpt lat="59.09909046172" lon="17.728127704358">
        <ele>5.4</ele>
        <time>2016-04-13T18:25:06Z</time>
      </trkpt>
      <trkpt lat="59.098982083753" lon="17.728086884505">
        <ele>6</ele>
        <time>2016-04-13T18:25:09Z</time>
      </trkpt>
      <trkpt lat="59.098943694651" lon="17.728077664415">
        <ele>6.6</ele>
        <time>2016-04-13T18:25:10Z</time>
      </trkpt>
      <trkpt lat="59.098908825947" lon="17.728071294171">
        <ele>7</ele>
        <time>2016-04-13T18:25:11Z</time>
      </trkpt>
      <trkpt lat="59.098871358854" lon="17.728068695782">
        <ele>7.6</ele>
        <time>2016-04-13T18:25:12Z</time>
      </trkpt>
      <trkpt lat="59.098833556485" lon="17.728077664415">
        <ele>8</ele>
        <time>2016-04-13T18:25:13Z</time>
      </trkpt>
      <trkpt lat="59.098752335874" lon="17.728077832053">
        <ele>8.6</ele>
        <time>2016-04-13T18:25:15Z</time>
      </trkpt>
      <trkpt lat="59.09871243803" lon="17.728090153446">
        <ele>9</ele>
        <time>2016-04-13T18:25:16Z</time>
      </trkpt>
      <trkpt lat="59.098671115263" lon="17.72809820007">
        <ele>9.4</ele>
        <time>2016-04-13T18:25:17Z</time>
      </trkpt>
      <trkpt lat="59.098629876315" lon="17.728096858966">
        <ele>9.8</ele>
        <time>2016-04-13T18:25:18Z</time>
      </trkpt>
      <trkpt lat="59.098591654851" lon="17.728103648305">
        <ele>10.4</ele>
        <time>2016-04-13T18:25:19Z</time>
      </trkpt>
      <trkpt lat="59.098470033482" lon="17.728158968845">
        <ele>11.2</ele>
        <time>2016-04-13T18:25:22Z</time>
      </trkpt>
      <trkpt lat="59.09842829162" lon="17.728181516156">
        <ele>11.6</ele>
        <time>2016-04-13T18:25:23Z</time>
      </trkpt>
      <trkpt lat="59.098384454283" lon="17.728205069295">
        <ele>12.2</ele>
        <time>2016-04-13T18:25:24Z</time>
      </trkpt>
      <trkpt lat="59.098342041869" lon="17.728226778416">
        <ele>12.6</ele>
        <time>2016-04-13T18:25:25Z</time>
      </trkpt>
      <trkpt lat="59.098166608702" lon="17.728317135298">
        <ele>13</ele>
        <time>2016-04-13T18:25:29Z</time>
      </trkpt>
      <trkpt lat="59.098121346442" lon="17.728342364817">
        <ele>13.4</ele>
        <time>2016-04-13T18:25:30Z</time>
      </trkpt>
      <trkpt lat="59.098078514933" lon="17.728366672327">
        <ele>13.8</ele>
        <time>2016-04-13T18:25:31Z</time>
      </trkpt>
      <trkpt lat="59.098038868546" lon="17.72839994847">
        <ele>14.2</ele>
        <time>2016-04-13T18:25:32Z</time>
      </trkpt>
      <trkpt lat="59.097998970702" lon="17.728435320088">
        <ele>14.6</ele>
        <time>2016-04-13T18:25:33Z</time>
      </trkpt>
      <trkpt lat="59.097948427845" lon="17.728465075833">
        <ele>14.6</ele>
        <time>2016-04-13T18:25:34Z</time>
      </trkpt>
      <trkpt lat="59.097896292427" lon="17.728493993388">
        <ele>14.6</ele>
        <time>2016-04-13T18:25:35Z</time>
      </trkpt>
      <trkpt lat="59.097613990035" lon="17.728681831767">
        <ele>14.6</ele>
        <time>2016-04-13T18:25:40Z</time>
      </trkpt>
      <trkpt lat="59.097305703753" lon="17.728861874979">
        <ele>14.6</ele>
        <time>2016-04-13T18:25:46Z</time>
      </trkpt>
      <trkpt lat="59.097206462057" lon="17.728930858016">
        <ele>15</ele>
        <time>2016-04-13T18:25:48Z</time>
      </trkpt>
      <trkpt lat="59.097151560612" lon="17.728964637073">
        <ele>15.4</ele>
        <time>2016-04-13T18:25:49Z</time>
      </trkpt>
      <trkpt lat="59.097095234244" lon="17.728997242664">
        <ele>15.8</ele>
        <time>2016-04-13T18:25:50Z</time>
      </trkpt>
      <trkpt lat="59.09703689622" lon="17.729032614282">
        <ele>16.2</ele>
        <time>2016-04-13T18:25:51Z</time>
      </trkpt>
      <trkpt lat="59.096975875988" lon="17.729076283981">
        <ele>16.6</ele>
        <time>2016-04-13T18:25:52Z</time>
      </trkpt>
      <trkpt lat="59.096604809275" lon="17.729396053466">
        <ele>16.6</ele>
        <time>2016-04-13T18:25:58Z</time>
      </trkpt>
      <trkpt lat="59.096222762273" lon="17.729628818829">
        <ele>16.6</ele>
        <time>2016-04-13T18:26:04Z</time>
      </trkpt>
      <trkpt lat="59.095888156825" lon="17.729712721648">
        <ele>16.6</ele>
        <time>2016-04-13T18:26:09Z</time>
      </trkpt>
      <trkpt lat="59.095403766824" lon="17.729786147092">
        <ele>16.6</ele>
        <time>2016-04-13T18:26:16Z</time>
      </trkpt>
      <trkpt lat="59.09514091044" lon="17.729718253702">
        <ele>16.6</ele>
        <time>2016-04-13T18:26:20Z</time>
      </trkpt>
      <trkpt lat="59.095077878552" lon="17.729673913451">
        <ele>16.6</ele>
        <time>2016-04-13T18:26:21Z</time>
      </trkpt>
      <trkpt lat="59.09486849869" lon="17.729370321033">
        <ele>17</ele>
        <time>2016-04-13T18:26:25Z</time>
      </trkpt>
      <trkpt lat="59.094830696321" lon="17.72927166607">
        <ele>17.4</ele>
        <time>2016-04-13T18:26:26Z</time>
      </trkpt>
      <trkpt lat="59.094803287508" lon="17.729162533732">
        <ele>17.8</ele>
        <time>2016-04-13T18:26:27Z</time>
      </trkpt>
      <trkpt lat="59.094783170948" lon="17.729034961214">
        <ele>18.2</ele>
        <time>2016-04-13T18:26:28Z</time>
      </trkpt>
      <trkpt lat="59.094770598098" lon="17.728911076732">
        <ele>18.6</ele>
        <time>2016-04-13T18:26:29Z</time>
      </trkpt>
      <trkpt lat="59.094776213971" lon="17.728621985001">
        <ele>18.6</ele>
        <time>2016-04-13T18:26:31Z</time>
      </trkpt>
      <trkpt lat="59.094783506224" lon="17.728492903741">
        <ele>18.6</ele>
        <time>2016-04-13T18:26:32Z</time>
      </trkpt>
      <trkpt lat="59.094796917264" lon="17.728223425656">
        <ele>19</ele>
        <time>2016-04-13T18:26:34Z</time>
      </trkpt>
      <trkpt lat="59.094801527309" lon="17.728086213953">
        <ele>19.4</ele>
        <time>2016-04-13T18:26:35Z</time>
      </trkpt>
      <trkpt lat="59.094804041879" lon="17.727949924259">
        <ele>19.8</ele>
        <time>2016-04-13T18:26:36Z</time>
      </trkpt>
      <trkpt lat="59.09480563444" lon="17.727813886022">
        <ele>20.6</ele>
        <time>2016-04-13T18:26:37Z</time>
      </trkpt>
      <trkpt lat="59.094791720486" lon="17.727390348615">
        <ele>20.6</ele>
        <time>2016-04-13T18:26:40Z</time>
      </trkpt>
      <trkpt lat="59.094759785447" lon="17.727104190549">
        <ele>20.6</ele>
        <time>2016-04-13T18:26:42Z</time>
      </trkpt>
      <trkpt lat="59.09468409689" lon="17.726851057169">
        <ele>20.6</ele>
        <time>2016-04-13T18:26:44Z</time>
      </trkpt>
      <trkpt lat="59.094507825533" lon="17.726573364822">
        <ele>20.6</ele>
        <time>2016-04-13T18:26:47Z</time>
      </trkpt>
      <trkpt lat="59.094303474811" lon="17.726493317677">
        <ele>20.6</ele>
        <time>2016-04-13T18:26:50Z</time>
      </trkpt>
      <trkpt lat="59.094115720251" lon="17.726569509148">
        <ele>20.6</ele>
        <time>2016-04-13T18:26:53Z</time>
      </trkpt>
      <trkpt lat="59.094060148254" lon="17.726615190503">
        <ele>20.6</ele>
        <time>2016-04-13T18:26:54Z</time>
      </trkpt>
      <trkpt lat="59.094007342284" lon="17.726662715876">
        <ele>21.2</ele>
        <time>2016-04-13T18:26:55Z</time>
      </trkpt>
      <trkpt lat="59.093963756404" lon="17.726712755819">
        <ele>21.6</ele>
        <time>2016-04-13T18:26:56Z</time>
      </trkpt>
      <trkpt lat="59.093914470832" lon="17.726761622296">
        <ele>22.2</ele>
        <time>2016-04-13T18:26:57Z</time>
      </trkpt>
      <trkpt lat="59.093875746454" lon="17.72679565281">
        <ele>22.6</ele>
        <time>2016-04-13T18:26:58Z</time>
      </trkpt>
      <trkpt lat="59.093838279361" lon="17.726844603106">
        <ele>23.2</ele>
        <time>2016-04-13T18:26:59Z</time>
      </trkpt>
      <trkpt lat="59.09379896825" lon="17.726902605854">
        <ele>23.8</ele>
        <time>2016-04-13T18:27:00Z</time>
      </trkpt>
      <trkpt lat="59.093765189193" lon="17.726965218647">
        <ele>24.4</ele>
        <time>2016-04-13T18:27:01Z</time>
      </trkpt>
      <trkpt lat="59.093735852543" lon="17.72703286058">
        <ele>25.6</ele>
        <time>2016-04-13T18:27:02Z</time>
      </trkpt>
      <trkpt lat="59.093694529776" lon="17.727167641532">
        <ele>26</ele>
        <time>2016-04-13T18:27:04Z</time>
      </trkpt>
      <trkpt lat="59.093689332998" lon="17.727247018125">
        <ele>26.4</ele>
        <time>2016-04-13T18:27:05Z</time>
      </trkpt>
      <trkpt lat="59.093676173415" lon="17.72732538889">
        <ele>26.8</ele>
        <time>2016-04-13T18:27:06Z</time>
      </trkpt>
      <trkpt lat="59.093662930013" lon="17.727410716632">
        <ele>27.2</ele>
        <time>2016-04-13T18:27:07Z</time>
      </trkpt>
      <trkpt lat="59.093658739063" lon="17.727481208411">
        <ele>27.8</ele>
        <time>2016-04-13T18:27:08Z</time>
      </trkpt>
      <trkpt lat="59.093659493434" lon="17.727650774248">
        <ele>28.2</ele>
        <time>2016-04-13T18:27:10Z</time>
      </trkpt>
      <trkpt lat="59.09365312319" lon="17.727734677067">
        <ele>28.6</ele>
        <time>2016-04-13T18:27:11Z</time>
      </trkpt>
      <trkpt lat="59.093660247805" lon="17.727826291234">
        <ele>29</ele>
        <time>2016-04-13T18:27:12Z</time>
      </trkpt>
      <trkpt lat="59.093643567824" lon="17.727910529329">
        <ele>29.4</ele>
        <time>2016-04-13T18:27:13Z</time>
      </trkpt>
      <trkpt lat="59.093639628331" lon="17.72799677908">
        <ele>29.8</ele>
        <time>2016-04-13T18:27:14Z</time>
      </trkpt>
      <trkpt lat="59.09362965387" lon="17.728080514261">
        <ele>29.8</ele>
        <time>2016-04-13T18:27:15Z</time>
      </trkpt>
      <trkpt lat="59.093554132951" lon="17.728302802249">
        <ele>30.2</ele>
        <time>2016-04-13T18:27:18Z</time>
      </trkpt>
      <trkpt lat="59.0935265565" lon="17.728374635132">
        <ele>30.6</ele>
        <time>2016-04-13T18:27:19Z</time>
      </trkpt>
      <trkpt lat="59.093498560954" lon="17.728456191019">
        <ele>31</ele>
        <time>2016-04-13T18:27:20Z</time>
      </trkpt>
      <trkpt lat="59.093469894856" lon="17.728551074127">
        <ele>31.4</ele>
        <time>2016-04-13T18:27:21Z</time>
      </trkpt>
      <trkpt lat="59.09344189931" lon="17.728647382158">
        <ele>31.8</ele>
        <time>2016-04-13T18:27:22Z</time>
      </trkpt>
      <trkpt lat="59.093351458609" lon="17.728952986232">
        <ele>31.8</ele>
        <time>2016-04-13T18:27:25Z</time>
      </trkpt>
      <trkpt lat="59.093180216392" lon="17.729549526055">
        <ele>31.8</ele>
        <time>2016-04-13T18:27:31Z</time>
      </trkpt>
      <trkpt lat="59.093157501443" lon="17.729650611769">
        <ele>31.8</ele>
        <time>2016-04-13T18:27:32Z</time>
      </trkpt>
      <trkpt lat="59.09300268775" lon="17.730130978458">
        <ele>31.8</ele>
        <time>2016-04-13T18:27:37Z</time>
      </trkpt>
      <trkpt lat="59.092822728357" lon="17.730298113544">
        <ele>31.8</ele>
        <time>2016-04-13T18:27:40Z</time>
      </trkpt>
      <trkpt lat="59.092630363752" lon="17.73026911217">
        <ele>31.8</ele>
        <time>2016-04-13T18:27:43Z</time>
      </trkpt>
      <trkpt lat="59.092452918929" lon="17.730154112502">
        <ele>31.8</ele>
        <time>2016-04-13T18:27:46Z</time>
      </trkpt>
      <trkpt lat="59.092346217342" lon="17.730057720652">
        <ele>31.8</ele>
        <time>2016-04-13T18:27:48Z</time>
      </trkpt>
      <trkpt lat="59.092006582754" lon="17.729763935057">
        <ele>32.2</ele>
        <time>2016-04-13T18:27:54Z</time>
      </trkpt>
      <trkpt lat="59.091951681309" lon="17.729713811295">
        <ele>32.6</ele>
        <time>2016-04-13T18:27:55Z</time>
      </trkpt>
      <trkpt lat="59.091894684389" lon="17.729670141596">
        <ele>33</ele>
        <time>2016-04-13T18:27:56Z</time>
      </trkpt>
      <trkpt lat="59.091848751577" lon="17.729630662847">
        <ele>33.4</ele>
        <time>2016-04-13T18:27:57Z</time>
      </trkpt>
      <trkpt lat="59.091796616159" lon="17.729590681184">
        <ele>34</ele>
        <time>2016-04-13T18:27:58Z</time>
      </trkpt>
      <trkpt lat="59.091587739211" lon="17.729478531362">
        <ele>34.4</ele>
        <time>2016-04-13T18:28:02Z</time>
      </trkpt>
      <trkpt lat="59.091531496662" lon="17.729456403146">
        <ele>34.8</ele>
        <time>2016-04-13T18:28:03Z</time>
      </trkpt>
      <trkpt lat="59.091471985172" lon="17.729439471708">
        <ele>35.2</ele>
        <time>2016-04-13T18:28:04Z</time>
      </trkpt>
      <trkpt lat="59.091413898605" lon="17.729432514731">
        <ele>35.6</ele>
        <time>2016-04-13T18:28:05Z</time>
      </trkpt>
      <trkpt lat="59.091356063495" lon="17.729422959365">
        <ele>36</ele>
        <time>2016-04-13T18:28:06Z</time>
      </trkpt>
      <trkpt lat="59.091128914005" lon="17.729382390969">
        <ele>36</ele>
        <time>2016-04-13T18:28:10Z</time>
      </trkpt>
      <trkpt lat="59.091075605121" lon="17.729388258299">
        <ele>36</ele>
        <time>2016-04-13T18:28:11Z</time>
      </trkpt>
      <trkpt lat="59.091016596545" lon="17.729380211675">
        <ele>36.6</ele>
        <time>2016-04-13T18:28:12Z</time>
      </trkpt>
      <trkpt lat="59.090958593797" lon="17.72937141068">
        <ele>37</ele>
        <time>2016-04-13T18:28:13Z</time>
      </trkpt>
      <trkpt lat="59.090900591049" lon="17.729359508382">
        <ele>37.4</ele>
        <time>2016-04-13T18:28:14Z</time>
      </trkpt>
      <trkpt lat="59.090841666292" lon="17.729348528093">
        <ele>38.2</ele>
        <time>2016-04-13T18:28:15Z</time>
      </trkpt>
      <trkpt lat="59.090468168828" lon="17.729247861474">
        <ele>38.2</ele>
        <time>2016-04-13T18:28:21Z</time>
      </trkpt>
      <trkpt lat="59.090343697613" lon="17.729174855125">
        <ele>38.2</ele>
        <time>2016-04-13T18:28:23Z</time>
      </trkpt>
      <trkpt lat="59.090138508701" lon="17.729017359224">
        <ele>38.2</ele>
        <time>2016-04-13T18:28:26Z</time>
      </trkpt>
      <trkpt lat="59.089748079799" lon="17.728700188128">
        <ele>38.2</ele>
        <time>2016-04-13T18:28:32Z</time>
      </trkpt>
      <trkpt lat="59.089354633413" lon="17.728439930133">
        <ele>38.2</ele>
        <time>2016-04-13T18:28:38Z</time>
      </trkpt>
      <trkpt lat="59.089212811665" lon="17.728372623476">
        <ele>38.6</ele>
        <time>2016-04-13T18:28:40Z</time>
      </trkpt>
      <trkpt lat="59.089145085913" lon="17.728336329849">
        <ele>39</ele>
        <time>2016-04-13T18:28:41Z</time>
      </trkpt>
      <trkpt lat="59.089083059853" lon="17.728295258539">
        <ele>39.4</ele>
        <time>2016-04-13T18:28:42Z</time>
      </trkpt>
      <trkpt lat="59.089019441232" lon="17.728252091754">
        <ele>39.8</ele>
        <time>2016-04-13T18:28:43Z</time>
      </trkpt>
      <trkpt lat="59.088954397688" lon="17.728209427883">
        <ele>40.2</ele>
        <time>2016-04-13T18:28:44Z</time>
      </trkpt>
      <trkpt lat="59.088885582289" lon="17.728177995758">
        <ele>40.2</ele>
        <time>2016-04-13T18:28:45Z</time>
      </trkpt>
      <trkpt lat="59.0886315269" lon="17.728007256455">
        <ele>40.6</ele>
        <time>2016-04-13T18:28:49Z</time>
      </trkpt>
      <trkpt lat="59.088570506668" lon="17.727962497109">
        <ele>41</ele>
        <time>2016-04-13T18:28:50Z</time>
      </trkpt>
      <trkpt lat="59.088507223323" lon="17.72791379827">
        <ele>41.4</ele>
        <time>2016-04-13T18:28:51Z</time>
      </trkpt>
      <trkpt lat="59.088437485915" lon="17.727869038924">
        <ele>41.8</ele>
        <time>2016-04-13T18:28:52Z</time>
      </trkpt>
      <trkpt lat="59.088379986081" lon="17.727823609026">
        <ele>42.2</ele>
        <time>2016-04-13T18:28:53Z</time>
      </trkpt>
      <trkpt lat="59.08825769416" lon="17.727748507202">
        <ele>42.2</ele>
        <time>2016-04-13T18:28:55Z</time>
      </trkpt>
      <trkpt lat="59.087878329366" lon="17.727638452855">
        <ele>42.2</ele>
        <time>2016-04-13T18:29:01Z</time>
      </trkpt>
      <trkpt lat="59.087407266586" lon="17.727637782303">
        <ele>42.2</ele>
        <time>2016-04-13T18:29:08Z</time>
      </trkpt>
      <trkpt lat="59.087245076821" lon="17.727676841957">
        <ele>42.2</ele>
        <time>2016-04-13T18:29:10Z</time>
      </trkpt>
      <trkpt lat="59.087104679996" lon="17.727663682374">
        <ele>42.2</ele>
        <time>2016-04-13T18:29:12Z</time>
      </trkpt>
      <trkpt lat="59.08675062854" lon="17.727572152026">
        <ele>42.2</ele>
        <time>2016-04-13T18:29:17Z</time>
      </trkpt>
      <trkpt lat="59.086680891132" lon="17.727523620825">
        <ele>42.2</ele>
        <time>2016-04-13T18:29:18Z</time>
      </trkpt>
      <trkpt lat="59.086430272322" lon="17.72728683215">
        <ele>42.2</ele>
        <time>2016-04-13T18:29:22Z</time>
      </trkpt>
      <trkpt lat="59.086370425556" lon="17.727223716443">
        <ele>42.2</ele>
        <time>2016-04-13T18:29:23Z</time>
      </trkpt>
      <trkpt lat="59.086322229631" lon="17.727150710094">
        <ele>42.6</ele>
        <time>2016-04-13T18:29:24Z</time>
      </trkpt>
      <trkpt lat="59.086276129181" lon="17.727071501139">
        <ele>43.2</ele>
        <time>2016-04-13T18:29:25Z</time>
      </trkpt>
      <trkpt lat="59.086242014848" lon="17.727013917486">
        <ele>43.6</ele>
        <time>2016-04-13T18:29:26Z</time>
      </trkpt>
      <trkpt lat="59.086204380117" lon="17.726962201163">
        <ele>44</ele>
        <time>2016-04-13T18:29:27Z</time>
      </trkpt>
      <trkpt lat="59.086164482273" lon="17.726901097112">
        <ele>44.4</ele>
        <time>2016-04-13T18:29:28Z</time>
      </trkpt>
      <trkpt lat="59.086119890565" lon="17.726861534544">
        <ele>45.2</ele>
        <time>2016-04-13T18:29:29Z</time>
      </trkpt>
      <trkpt lat="59.086072868106" lon="17.726819205949">
        <ele>45.8</ele>
        <time>2016-04-13T18:29:30Z</time>
      </trkpt>
      <trkpt lat="59.086034059909" lon="17.72678140358">
        <ele>46.2</ele>
        <time>2016-04-13T18:29:31Z</time>
      </trkpt>
      <trkpt lat="59.085990474029" lon="17.726743601211">
        <ele>46.6</ele>
        <time>2016-04-13T18:29:32Z</time>
      </trkpt>
      <trkpt lat="59.085884442994" lon="17.726660201306">
        <ele>47</ele>
        <time>2016-04-13T18:29:34Z</time>
      </trkpt>
      <trkpt lat="59.085828368083" lon="17.726612340657">
        <ele>47.4</ele>
        <time>2016-04-13T18:29:35Z</time>
      </trkpt>
      <trkpt lat="59.085777657588" lon="17.726576633763">
        <ele>47.8</ele>
        <time>2016-04-13T18:29:36Z</time>
      </trkpt>
      <trkpt lat="59.085720660668" lon="17.726545117819">
        <ele>48.2</ele>
        <time>2016-04-13T18:29:37Z</time>
      </trkpt>
      <trkpt lat="59.085665004852" lon="17.726514942979">
        <ele>48.6</ele>
        <time>2016-04-13T18:29:38Z</time>
      </trkpt>
      <trkpt lat="59.085495522834" lon="17.726414443998">
        <ele>48.6</ele>
        <time>2016-04-13T18:29:41Z</time>
      </trkpt>
      <trkpt lat="59.085365771022" lon="17.726305479298">
        <ele>48.6</ele>
        <time>2016-04-13T18:29:43Z</time>
      </trkpt>
      <trkpt lat="59.085167119992" lon="17.726109007562">
        <ele>48.2</ele>
        <time>2016-04-13T18:29:46Z</time>
      </trkpt>
      <trkpt lat="59.085095622385" lon="17.726035246842">
        <ele>47.8</ele>
        <time>2016-04-13T18:29:47Z</time>
      </trkpt>
      <trkpt lat="59.085025382063" lon="17.725956792258">
        <ele>47.4</ele>
        <time>2016-04-13T18:29:48Z</time>
      </trkpt>
      <trkpt lat="59.084959081234" lon="17.725867189747">
        <ele>47</ele>
        <time>2016-04-13T18:29:49Z</time>
      </trkpt>
      <trkpt lat="59.084885488152" lon="17.725769037698">
        <ele>46.4</ele>
        <time>2016-04-13T18:29:50Z</time>
      </trkpt>
      <trkpt lat="59.084805441007" lon="17.725668035803">
        <ele>46</ele>
        <time>2016-04-13T18:29:51Z</time>
      </trkpt>
      <trkpt lat="59.084729333355" lon="17.725563262053">
        <ele>45.6</ele>
        <time>2016-04-13T18:29:52Z</time>
      </trkpt>
      <trkpt lat="59.084647777468" lon="17.725462595434">
        <ele>44.8</ele>
        <time>2016-04-13T18:29:53Z</time>
      </trkpt>
      <trkpt lat="59.084554989835" lon="17.725387242153">
        <ele>43.2</ele>
        <time>2016-04-13T18:29:54Z</time>
      </trkpt>
      <trkpt lat="59.084457173062" lon="17.725330915785">
        <ele>42.4</ele>
        <time>2016-04-13T18:29:55Z</time>
      </trkpt>
      <trkpt lat="59.084357176995" lon="17.725299064565">
        <ele>41.6</ele>
        <time>2016-04-13T18:29:56Z</time>
      </trkpt>
      <trkpt lat="59.084256258919" lon="17.725282133127">
        <ele>40.6</ele>
        <time>2016-04-13T18:29:57Z</time>
      </trkpt>
      <trkpt lat="59.084145282563" lon="17.725303339334">
        <ele>39.6</ele>
        <time>2016-04-13T18:29:58Z</time>
      </trkpt>
      <trkpt lat="59.084031456361" lon="17.725333933269">
        <ele>38.6</ele>
        <time>2016-04-13T18:29:59Z</time>
      </trkpt>
      <trkpt lat="59.083915534684" lon="17.725351116164">
        <ele>37.4</ele>
        <time>2016-04-13T18:30:00Z</time>
      </trkpt>
      <trkpt lat="59.083794835324" lon="17.725374836941">
        <ele>36.4</ele>
        <time>2016-04-13T18:30:01Z</time>
      </trkpt>
      <trkpt lat="59.083680422389" lon="17.725388750895">
        <ele>35.4</ele>
        <time>2016-04-13T18:30:02Z</time>
      </trkpt>
      <trkpt lat="59.083548072188" lon="17.725413645138">
        <ele>34.4</ele>
        <time>2016-04-13T18:30:03Z</time>
      </trkpt>
      <trkpt lat="59.083429133027" lon="17.725420434477">
        <ele>33.2</ele>
        <time>2016-04-13T18:30:04Z</time>
      </trkpt>
      <trkpt lat="59.083318156671" lon="17.725440467218">
        <ele>32</ele>
        <time>2016-04-13T18:30:05Z</time>
      </trkpt>
      <trkpt lat="59.083207180315" lon="17.725511964825">
        <ele>30.8</ele>
        <time>2016-04-13T18:30:06Z</time>
      </trkpt>
      <trkpt lat="59.083110704646" lon="17.725595616187">
        <ele>29.6</ele>
        <time>2016-04-13T18:30:07Z</time>
      </trkpt>
      <trkpt lat="59.083014899529" lon="17.725726038551">
        <ele>28.4</ele>
        <time>2016-04-13T18:30:08Z</time>
      </trkpt>
      <trkpt lat="59.082927057217" lon="17.725872721801">
        <ele>27.2</ele>
        <time>2016-04-13T18:30:09Z</time>
      </trkpt>
      <trkpt lat="59.082855978705" lon="17.726035079204">
        <ele>26</ele>
        <time>2016-04-13T18:30:10Z</time>
      </trkpt>
      <trkpt lat="59.082769728954" lon="17.726202298109">
        <ele>26</ele>
        <time>2016-04-13T18:30:11Z</time>
      </trkpt>
      <trkpt lat="59.08245741936" lon="17.726648047551">
        <ele>25.6</ele>
        <time>2016-04-13T18:30:14Z</time>
      </trkpt>
      <trkpt lat="59.082341162407" lon="17.726776709716">
        <ele>25.2</ele>
        <time>2016-04-13T18:30:15Z</time>
      </trkpt>
      <trkpt lat="59.082234293182" lon="17.726896067972">
        <ele>24.8</ele>
        <time>2016-04-13T18:30:16Z</time>
      </trkpt>
      <trkpt lat="59.082123735921" lon="17.727023556671">
        <ele>24.4</ele>
        <time>2016-04-13T18:30:17Z</time>
      </trkpt>
      <trkpt lat="59.082011334642" lon="17.727140232719">
        <ele>23.8</ele>
        <time>2016-04-13T18:30:18Z</time>
      </trkpt>
      <trkpt lat="59.081572625996" lon="17.727493948899">
        <ele>23.8</ele>
        <time>2016-04-13T18:30:22Z</time>
      </trkpt>
      <trkpt lat="59.081347152886" lon="17.727641302701">
        <ele>23.4</ele>
        <time>2016-04-13T18:30:24Z</time>
      </trkpt>
      <trkpt lat="59.081233410503" lon="17.727716236887">
        <ele>23</ele>
        <time>2016-04-13T18:30:25Z</time>
      </trkpt>
      <trkpt lat="59.081114806618" lon="17.727789662331">
        <ele>22.4</ele>
        <time>2016-04-13T18:30:26Z</time>
      </trkpt>
      <trkpt lat="59.081011625429" lon="17.72784674307">
        <ele>22</ele>
        <time>2016-04-13T18:30:27Z</time>
      </trkpt>
      <trkpt lat="59.080910707353" lon="17.727932573726">
        <ele>21.6</ele>
        <time>2016-04-13T18:30:28Z</time>
      </trkpt>
      <trkpt lat="59.08056981548" lon="17.728144049063">
        <ele>21.6</ele>
        <time>2016-04-13T18:30:31Z</time>
      </trkpt>
      <trkpt lat="59.080126496789" lon="17.728322248257">
        <ele>21.6</ele>
        <time>2016-04-13T18:30:35Z</time>
      </trkpt>
      <trkpt lat="59.079573542846" lon="17.728460465788">
        <ele>21.6</ele>
        <time>2016-04-13T18:30:40Z</time>
      </trkpt>
      <trkpt lat="59.07911890859" lon="17.728482845461">
        <ele>21.6</ele>
        <time>2016-04-13T18:30:44Z</time>
      </trkpt>
      <trkpt lat="59.078643403403" lon="17.728483096918">
        <ele>21.6</ele>
        <time>2016-04-13T18:30:49Z</time>
      </trkpt>
      <trkpt lat="59.078137723376" lon="17.728484773298">
        <ele>21.6</ele>
        <time>2016-04-13T18:30:54Z</time>
      </trkpt>
      <trkpt lat="59.077729357208" lon="17.728412772777">
        <ele>21.6</ele>
        <time>2016-04-13T18:30:58Z</time>
      </trkpt>
      <trkpt lat="59.077619302861" lon="17.728396176615">
        <ele>21</ele>
        <time>2016-04-13T18:30:59Z</time>
      </trkpt>
      <trkpt lat="59.077518468604" lon="17.728389974009">
        <ele>20.6</ele>
        <time>2016-04-13T18:31:00Z</time>
      </trkpt>
      <trkpt lat="59.077413527216" lon="17.728386369792">
        <ele>20.2</ele>
        <time>2016-04-13T18:31:01Z</time>
      </trkpt>
      <trkpt lat="59.077310429846" lon="17.728392823855">
        <ele>19.6</ele>
        <time>2016-04-13T18:31:02Z</time>
      </trkpt>
      <trkpt lat="59.077211858702" lon="17.728403971782">
        <ele>19.2</ele>
        <time>2016-04-13T18:31:03Z</time>
      </trkpt>
      <trkpt lat="59.076743645768" lon="17.728520312554">
        <ele>19.2</ele>
        <time>2016-04-13T18:31:08Z</time>
      </trkpt>
      <trkpt lat="59.076398898221" lon="17.728529448825">
        <ele>19.6</ele>
        <time>2016-04-13T18:31:12Z</time>
      </trkpt>
      <trkpt lat="59.076322371474" lon="17.728518300898">
        <ele>20</ele>
        <time>2016-04-13T18:31:13Z</time>
      </trkpt>
      <trkpt lat="59.07624894603" lon="17.728497932881">
        <ele>20.6</ele>
        <time>2016-04-13T18:31:14Z</time>
      </trkpt>
      <trkpt lat="59.076176610233" lon="17.728468763869">
        <ele>21</ele>
        <time>2016-04-13T18:31:15Z</time>
      </trkpt>
      <trkpt lat="59.076096227812" lon="17.728449234042">
        <ele>21.4</ele>
        <time>2016-04-13T18:31:16Z</time>
      </trkpt>
      <trkpt lat="59.075949041648" lon="17.728391650389">
        <ele>21.4</ele>
        <time>2016-04-13T18:31:18Z</time>
      </trkpt>
      <trkpt lat="59.075808812461" lon="17.728311687063">
        <ele>21.8</ele>
        <time>2016-04-13T18:31:20Z</time>
      </trkpt>
      <trkpt lat="59.075732453352" lon="17.728273046504">
        <ele>22.2</ele>
        <time>2016-04-13T18:31:21Z</time>
      </trkpt>
      <trkpt lat="59.075658776451" lon="17.728235495592">
        <ele>22.6</ele>
        <time>2016-04-13T18:31:22Z</time>
      </trkpt>
      <trkpt lat="59.075589541957" lon="17.728193334635">
        <ele>23</ele>
        <time>2016-04-13T18:31:23Z</time>
      </trkpt>
      <trkpt lat="59.075525671879" lon="17.728155783723">
        <ele>23.6</ele>
        <time>2016-04-13T18:31:24Z</time>
      </trkpt>
      <trkpt lat="59.0751953412" lon="17.727953109381">
        <ele>24</ele>
        <time>2016-04-13T18:31:29Z</time>
      </trkpt>
      <trkpt lat="59.075135410615" lon="17.727905919284">
        <ele>24.4</ele>
        <time>2016-04-13T18:31:30Z</time>
      </trkpt>
      <trkpt lat="59.075075731487" lon="17.727857555721">
        <ele>25</ele>
        <time>2016-04-13T18:31:31Z</time>
      </trkpt>
      <trkpt lat="59.07500758664" lon="17.727816400592">
        <ele>25.4</ele>
        <time>2016-04-13T18:31:32Z</time>
      </trkpt>
      <trkpt lat="59.074941453449" lon="17.727775999834">
        <ele>25.8</ele>
        <time>2016-04-13T18:31:33Z</time>
      </trkpt>
      <trkpt lat="59.074742970057" lon="17.727659659062">
        <ele>25.8</ele>
        <time>2016-04-13T18:31:36Z</time>
      </trkpt>
      <trkpt lat="59.074443400951" lon="17.727612217508">
        <ele>25.8</ele>
        <time>2016-04-13T18:31:40Z</time>
      </trkpt>
      <trkpt lat="59.074197224548" lon="17.727610624947">
        <ele>25.4</ele>
        <time>2016-04-13T18:31:43Z</time>
      </trkpt>
      <trkpt lat="59.074115165747" lon="17.727594783156">
        <ele>24.8</ele>
        <time>2016-04-13T18:31:44Z</time>
      </trkpt>
      <trkpt lat="59.074038639" lon="17.727552789837">
        <ele>24.2</ele>
        <time>2016-04-13T18:31:45Z</time>
      </trkpt>
      <trkpt lat="59.07395984914" lon="17.727515909477">
        <ele>23.8</ele>
        <time>2016-04-13T18:31:46Z</time>
      </trkpt>
      <trkpt lat="59.073877790339" lon="17.727473916158">
        <ele>23.2</ele>
        <time>2016-04-13T18:31:47Z</time>
      </trkpt>
      <trkpt lat="59.073561205976" lon="17.72730359595">
        <ele>23.2</ele>
        <time>2016-04-13T18:31:51Z</time>
      </trkpt>
      <trkpt lat="59.07306130946" lon="17.727121541082">
        <ele>23.2</ele>
        <time>2016-04-13T18:31:57Z</time>
      </trkpt>
      <trkpt lat="59.072732990437" lon="17.726950298865">
        <ele>23.2</ele>
        <time>2016-04-13T18:32:01Z</time>
      </trkpt>
      <trkpt lat="59.072348596503" lon="17.726656010356">
        <ele>23.2</ele>
        <time>2016-04-13T18:32:06Z</time>
      </trkpt>
      <trkpt lat="59.071943499276" lon="17.726371361032">
        <ele>23.2</ele>
        <time>2016-04-13T18:32:11Z</time>
      </trkpt>
      <trkpt lat="59.071666226024" lon="17.726253092423">
        <ele>23.2</ele>
        <time>2016-04-13T18:32:15Z</time>
      </trkpt>
      <trkpt lat="59.071599757557" lon="17.726225348334">
        <ele>23.6</ele>
        <time>2016-04-13T18:32:16Z</time>
      </trkpt>
      <trkpt lat="59.071522727896" lon="17.726193664752">
        <ele>24.2</ele>
        <time>2016-04-13T18:32:17Z</time>
      </trkpt>
      <trkpt lat="59.071447123158" lon="17.726153180175">
        <ele>24.6</ele>
        <time>2016-04-13T18:32:18Z</time>
      </trkpt>
      <trkpt lat="59.071347713824" lon="17.726103726965">
        <ele>25</ele>
        <time>2016-04-13T18:32:19Z</time>
      </trkpt>
      <trkpt lat="59.071270516525" lon="17.726056788325">
        <ele>25.6</ele>
        <time>2016-04-13T18:32:20Z</time>
      </trkpt>
      <trkpt lat="59.071049402003" lon="17.725822011306">
        <ele>25.6</ele>
        <time>2016-04-13T18:32:23Z</time>
      </trkpt>
      <trkpt lat="59.0709792455" lon="17.72572025504">
        <ele>25</ele>
        <time>2016-04-13T18:32:24Z</time>
      </trkpt>
      <trkpt lat="59.070918644363" lon="17.725604836277">
        <ele>24.6</ele>
        <time>2016-04-13T18:32:25Z</time>
      </trkpt>
      <trkpt lat="59.070873382103" lon="17.725458907398">
        <ele>24</ele>
        <time>2016-04-13T18:32:26Z</time>
      </trkpt>
      <trkpt lat="59.070833651897" lon="17.725308117017">
        <ele>23.6</ele>
        <time>2016-04-13T18:32:27Z</time>
      </trkpt>
      <trkpt lat="59.070798615555" lon="17.725151375487">
        <ele>23.2</ele>
        <time>2016-04-13T18:32:28Z</time>
      </trkpt>
      <trkpt lat="59.070757628064" lon="17.724827163595">
        <ele>23.2</ele>
        <time>2016-04-13T18:32:30Z</time>
      </trkpt>
      <trkpt lat="59.070734326382" lon="17.724665979658">
        <ele>23.2</ele>
        <time>2016-04-13T18:32:31Z</time>
      </trkpt>
      <trkpt lat="59.070557803568" lon="17.72372368646">
        <ele>23.2</ele>
        <time>2016-04-13T18:32:37Z</time>
      </trkpt>
      <trkpt lat="59.070340293263" lon="17.72261559928">
        <ele>23.2</ele>
        <time>2016-04-13T18:32:44Z</time>
      </trkpt>
      <trkpt lat="59.070274243891" lon="17.722132047469">
        <ele>23.2</ele>
        <time>2016-04-13T18:32:47Z</time>
      </trkpt>
      <trkpt lat="59.070243649956" lon="17.721787970474">
        <ele>23.2</ele>
        <time>2016-04-13T18:32:49Z</time>
      </trkpt>
      <trkpt lat="59.070204506483" lon="17.721438612882">
        <ele>22.8</ele>
        <time>2016-04-13T18:32:51Z</time>
      </trkpt>
      <trkpt lat="59.070180031335" lon="17.721266029561">
        <ele>22.2</ele>
        <time>2016-04-13T18:32:52Z</time>
      </trkpt>
      <trkpt lat="59.07016117206" lon="17.721090596394">
        <ele>21.8</ele>
        <time>2016-04-13T18:32:53Z</time>
      </trkpt>
      <trkpt lat="59.0701410555" lon="17.720914241218">
        <ele>21.4</ele>
        <time>2016-04-13T18:32:54Z</time>
      </trkpt>
      <trkpt lat="59.070112808497" lon="17.720738221318">
        <ele>21</ele>
        <time>2016-04-13T18:32:55Z</time>
      </trkpt>
      <trkpt lat="59.070023373624" lon="17.720209239609">
        <ele>20.6</ele>
        <time>2016-04-13T18:32:58Z</time>
      </trkpt>
      <trkpt lat="59.069993701698" lon="17.720040595781">
        <ele>20.2</ele>
        <time>2016-04-13T18:32:59Z</time>
      </trkpt>
      <trkpt lat="59.06997257931" lon="17.719863486234">
        <ele>19.6</ele>
        <time>2016-04-13T18:33:00Z</time>
      </trkpt>
      <trkpt lat="59.069940560452" lon="17.719694171854">
        <ele>19.2</ele>
        <time>2016-04-13T18:33:01Z</time>
      </trkpt>
      <trkpt lat="59.069915833847" lon="17.719520415067">
        <ele>18.8</ele>
        <time>2016-04-13T18:33:02Z</time>
      </trkpt>
      <trkpt lat="59.069830841381" lon="17.719003754751">
        <ele>18.8</ele>
        <time>2016-04-13T18:33:05Z</time>
      </trkpt>
      <trkpt lat="59.069793290469" lon="17.718645679983">
        <ele>18.8</ele>
        <time>2016-04-13T18:33:07Z</time>
      </trkpt>
      <trkpt lat="59.069784238017" lon="17.718461445821">
        <ele>18.8</ele>
        <time>2016-04-13T18:33:08Z</time>
      </trkpt>
      <trkpt lat="59.069798487247" lon="17.717937157976">
        <ele>18.8</ele>
        <time>2016-04-13T18:33:11Z</time>
      </trkpt>
      <trkpt lat="59.069892448346" lon="17.717192258523">
        <ele>18.4</ele>
        <time>2016-04-13T18:33:15Z</time>
      </trkpt>
      <trkpt lat="59.069933854932" lon="17.717007940542">
        <ele>18</ele>
        <time>2016-04-13T18:33:16Z</time>
      </trkpt>
      <trkpt lat="59.06995581551" lon="17.716823119647">
        <ele>17.4</ele>
        <time>2016-04-13T18:33:17Z</time>
      </trkpt>
      <trkpt lat="59.069996383906" lon="17.716642405883">
        <ele>17</ele>
        <time>2016-04-13T18:33:18Z</time>
      </trkpt>
      <trkpt lat="59.070035611198" lon="17.716460434834">
        <ele>16.6</ele>
        <time>2016-04-13T18:33:19Z</time>
      </trkpt>
      <trkpt lat="59.070075006128" lon="17.716295311404">
        <ele>16.6</ele>
        <time>2016-04-13T18:33:20Z</time>
      </trkpt>
      <trkpt lat="59.070099146" lon="17.716110574328">
        <ele>16.6</ele>
        <time>2016-04-13T18:33:21Z</time>
      </trkpt>
      <trkpt lat="59.070157484024" lon="17.715562900982">
        <ele>16.6</ele>
        <time>2016-04-13T18:33:24Z</time>
      </trkpt>
      <trkpt lat="59.070249768743" lon="17.714836106433">
        <ele>16.6</ele>
        <time>2016-04-13T18:33:28Z</time>
      </trkpt>
      <trkpt lat="59.070280949411" lon="17.714293713684">
        <ele>16.6</ele>
        <time>2016-04-13T18:33:31Z</time>
      </trkpt>
      <trkpt lat="59.070275249719" lon="17.713909403569">
        <ele>16.6</ele>
        <time>2016-04-13T18:33:33Z</time>
      </trkpt>
      <trkpt lat="59.070229316907" lon="17.712811961402">
        <ele>16.6</ele>
        <time>2016-04-13T18:33:39Z</time>
      </trkpt>
      <trkpt lat="59.070179193145" lon="17.712344754296">
        <ele>16.6</ele>
        <time>2016-04-13T18:33:42Z</time>
      </trkpt>
      <trkpt lat="59.070176175661" lon="17.712175272278">
        <ele>16.6</ele>
        <time>2016-04-13T18:33:43Z</time>
      </trkpt>
      <trkpt lat="59.070169302503" lon="17.711256029305">
        <ele>16.6</ele>
        <time>2016-04-13T18:33:48Z</time>
      </trkpt>
      <trkpt lat="59.070164021906" lon="17.711046565624">
        <ele>16</ele>
        <time>2016-04-13T18:33:49Z</time>
      </trkpt>
      <trkpt lat="59.070155388549" lon="17.710830815518">
        <ele>15.4</ele>
        <time>2016-04-13T18:33:50Z</time>
      </trkpt>
      <trkpt lat="59.070135607265" lon="17.710599810354">
        <ele>15</ele>
        <time>2016-04-13T18:33:51Z</time>
      </trkpt>
      <trkpt lat="59.070106186796" lon="17.710385988085">
        <ele>14.2</ele>
        <time>2016-04-13T18:33:52Z</time>
      </trkpt>
      <trkpt lat="59.070067630056" lon="17.710170573255">
        <ele>13.4</ele>
        <time>2016-04-13T18:33:53Z</time>
      </trkpt>
      <trkpt lat="59.070021529606" lon="17.709968401827">
        <ele>12.6</ele>
        <time>2016-04-13T18:33:54Z</time>
      </trkpt>
      <trkpt lat="59.069964448867" lon="17.709775031394">
        <ele>12</ele>
        <time>2016-04-13T18:33:55Z</time>
      </trkpt>
      <trkpt lat="59.069899321504" lon="17.709581577142">
        <ele>11.2</ele>
        <time>2016-04-13T18:33:56Z</time>
      </trkpt>
      <trkpt lat="59.069821872748" lon="17.709399522274">
        <ele>10.4</ele>
        <time>2016-04-13T18:33:57Z</time>
      </trkpt>
      <trkpt lat="59.069731264409" lon="17.709234482663">
        <ele>9.6</ele>
        <time>2016-04-13T18:33:58Z</time>
      </trkpt>
      <trkpt lat="59.069646607219" lon="17.709075645658">
        <ele>9</ele>
        <time>2016-04-13T18:33:59Z</time>
      </trkpt>
      <trkpt lat="59.069558597269" lon="17.708931896073">
        <ele>7.8</ele>
        <time>2016-04-13T18:34:00Z</time>
      </trkpt>
      <trkpt lat="59.06947385626" lon="17.708783620262">
        <ele>7</ele>
        <time>2016-04-13T18:34:01Z</time>
      </trkpt>
      <trkpt lat="59.069389282889" lon="17.70863626646">
        <ele>6.4</ele>
        <time>2016-04-13T18:34:02Z</time>
      </trkpt>
      <trkpt lat="59.069115194759" lon="17.708226810645">
        <ele>6</ele>
        <time>2016-04-13T18:34:05Z</time>
      </trkpt>
      <trkpt lat="59.069009247543" lon="17.708108039122">
        <ele>5.4</ele>
        <time>2016-04-13T18:34:06Z</time>
      </trkpt>
      <trkpt lat="59.068910927856" lon="17.707985663382">
        <ele>5</ele>
        <time>2016-04-13T18:34:07Z</time>
      </trkpt>
      <trkpt lat="59.068833898195" lon="17.707848870774">
        <ele>4.4</ele>
        <time>2016-04-13T18:34:08Z</time>
      </trkpt>
      <trkpt lat="59.068742786942" lon="17.707716520573">
        <ele>3.8</ele>
        <time>2016-04-13T18:34:09Z</time>
      </trkpt>
      <trkpt lat="59.068651256594" lon="17.707586433485">
        <ele>3.2</ele>
        <time>2016-04-13T18:34:10Z</time>
      </trkpt>
      <trkpt lat="59.06855855278" lon="17.707452909818">
        <ele>2.4</ele>
        <time>2016-04-13T18:34:11Z</time>
      </trkpt>
      <trkpt lat="59.068475739608" lon="17.707308405862">
        <ele>1.8</ele>
        <time>2016-04-13T18:34:12Z</time>
      </trkpt>
      <trkpt lat="59.068288236505" lon="17.707040771795">
        <ele>1.8</ele>
        <time>2016-04-13T18:34:14Z</time>
      </trkpt>
      <trkpt lat="59.067967880287" lon="17.706446243628">
        <ele>1.4</ele>
        <time>2016-04-13T18:34:18Z</time>
      </trkpt>
      <trkpt lat="59.067898142879" lon="17.706276342515">
        <ele>1</ele>
        <time>2016-04-13T18:34:19Z</time>
      </trkpt>
      <trkpt lat="59.067835110991" lon="17.706113146922">
        <ele>0.6</ele>
        <time>2016-04-13T18:34:20Z</time>
      </trkpt>
      <trkpt lat="59.067770402723" lon="17.705952465899">
        <ele>0.2</ele>
        <time>2016-04-13T18:34:21Z</time>
      </trkpt>
      <trkpt lat="59.067713405803" lon="17.70578139132">
        <ele>0</ele>
        <time>2016-04-13T18:34:22Z</time>
      </trkpt>
      <trkpt lat="59.067546270717" lon="17.705273531999">
        <ele>0</ele>
        <time>2016-04-13T18:34:25Z</time>
      </trkpt>
      <trkpt lat="59.067335130656" lon="17.704420506036">
        <ele>0.2</ele>
        <time>2016-04-13T18:34:30Z</time>
      </trkpt>
      <trkpt lat="59.067274278062" lon="17.704291340957">
        <ele>0.6</ele>
        <time>2016-04-13T18:34:31Z</time>
      </trkpt>
      <trkpt lat="59.067193644184" lon="17.704185645198">
        <ele>1</ele>
        <time>2016-04-13T18:34:32Z</time>
      </trkpt>
      <trkpt lat="59.067112423573" lon="17.704104676044">
        <ele>1.4</ele>
        <time>2016-04-13T18:34:33Z</time>
      </trkpt>
      <trkpt lat="59.067026425279" lon="17.704043907269">
        <ele>1.8</ele>
        <time>2016-04-13T18:34:34Z</time>
      </trkpt>
      <trkpt lat="59.066851746483" lon="17.703955562043">
        <ele>1.8</ele>
        <time>2016-04-13T18:34:36Z</time>
      </trkpt>
      <trkpt lat="59.066620992776" lon="17.703821116367">
        <ele>2.2</ele>
        <time>2016-04-13T18:34:39Z</time>
      </trkpt>
      <trkpt lat="59.066569192634" lon="17.703732603503">
        <ele>2.6</ele>
        <time>2016-04-13T18:34:40Z</time>
      </trkpt>
      <trkpt lat="59.066512279533" lon="17.703657501679">
        <ele>3</ele>
        <time>2016-04-13T18:34:41Z</time>
      </trkpt>
      <trkpt lat="59.066455282613" lon="17.703556332146">
        <ele>3.8</ele>
        <time>2016-04-13T18:34:42Z</time>
      </trkpt>
      <trkpt lat="59.066410187991" lon="17.703442338306">
        <ele>4.4</ele>
        <time>2016-04-13T18:34:43Z</time>
      </trkpt>
      <trkpt lat="59.066361572971" lon="17.703324321154">
        <ele>5</ele>
        <time>2016-04-13T18:34:44Z</time>
      </trkpt>
      <trkpt lat="59.066306168612" lon="17.703232874625">
        <ele>5.6</ele>
        <time>2016-04-13T18:34:45Z</time>
      </trkpt>
      <trkpt lat="59.066232826987" lon="17.703142182467">
        <ele>6.2</ele>
        <time>2016-04-13T18:34:46Z</time>
      </trkpt>
      <trkpt lat="59.066014227035" lon="17.702911177303">
        <ele>6.2</ele>
        <time>2016-04-13T18:34:49Z</time>
      </trkpt>
      <trkpt lat="59.06560896217" lon="17.702357552808">
        <ele>6.2</ele>
        <time>2016-04-13T18:34:55Z</time>
      </trkpt>
      <trkpt lat="59.065368066364" lon="17.701829996022">
        <ele>6.6</ele>
        <time>2016-04-13T18:35:00Z</time>
      </trkpt>
      <trkpt lat="59.065319367525" lon="17.701727569204">
        <ele>7</ele>
        <time>2016-04-13T18:35:01Z</time>
      </trkpt>
      <trkpt lat="59.065259856035" lon="17.701601170152">
        <ele>7.6</ele>
        <time>2016-04-13T18:35:02Z</time>
      </trkpt>
      <trkpt lat="59.065196069776" lon="17.701492708366">
        <ele>8</ele>
        <time>2016-04-13T18:35:03Z</time>
      </trkpt>
      <trkpt lat="59.0651286793" lon="17.701373433929">
        <ele>8.4</ele>
        <time>2016-04-13T18:35:04Z</time>
      </trkpt>
      <trkpt lat="59.065048296879" lon="17.70125432713">
        <ele>8.4</ele>
        <time>2016-04-13T18:35:05Z</time>
      </trkpt>
      <trkpt lat="59.064973362693" lon="17.701144859516">
        <ele>7.8</ele>
        <time>2016-04-13T18:35:06Z</time>
      </trkpt>
      <trkpt lat="59.064900523982" lon="17.701036984463">
        <ele>7.4</ele>
        <time>2016-04-13T18:35:07Z</time>
      </trkpt>
      <trkpt lat="59.064821231208" lon="17.700925337555">
        <ele>7</ele>
        <time>2016-04-13T18:35:08Z</time>
      </trkpt>
      <trkpt lat="59.064747973402" lon="17.700820647624">
        <ele>6.4</ele>
        <time>2016-04-13T18:35:09Z</time>
      </trkpt>
      <trkpt lat="59.064672117207" lon="17.700715873874">
        <ele>6</ele>
        <time>2016-04-13T18:35:10Z</time>
      </trkpt>
      <trkpt lat="59.064230642534" lon="17.700074742343">
        <ele>6</ele>
        <time>2016-04-13T18:35:16Z</time>
      </trkpt>
      <trkpt lat="59.063944149192" lon="17.699654725334">
        <ele>6</ele>
        <time>2016-04-13T18:35:21Z</time>
      </trkpt>
      <trkpt lat="59.063901736778" lon="17.699586580487">
        <ele>6.6</ele>
        <time>2016-04-13T18:35:22Z</time>
      </trkpt>
      <trkpt lat="59.063858905269" lon="17.699521956038">
        <ele>7</ele>
        <time>2016-04-13T18:35:23Z</time>
      </trkpt>
      <trkpt lat="59.06381607376" lon="17.699460935806">
        <ele>7.8</ele>
        <time>2016-04-13T18:35:24Z</time>
      </trkpt>
      <trkpt lat="59.063773493708" lon="17.699388683828">
        <ele>8.4</ele>
        <time>2016-04-13T18:35:25Z</time>
      </trkpt>
      <trkpt lat="59.063729404914" lon="17.699308720502">
        <ele>9.2</ele>
        <time>2016-04-13T18:35:26Z</time>
      </trkpt>
      <trkpt lat="59.06368615431" lon="17.699240910931">
        <ele>10</ele>
        <time>2016-04-13T18:35:27Z</time>
      </trkpt>
      <trkpt lat="59.06364089205" lon="17.699147620384">
        <ele>10.6</ele>
        <time>2016-04-13T18:35:28Z</time>
      </trkpt>
      <trkpt lat="59.063482138864" lon="17.69879340129">
        <ele>10.6</ele>
        <time>2016-04-13T18:35:32Z</time>
      </trkpt>
      <trkpt lat="59.063253983546" lon="17.698170207025">
        <ele>11.6</ele>
        <time>2016-04-13T18:35:38Z</time>
      </trkpt>
      <trkpt lat="59.063211654951" lon="17.698057386651">
        <ele>12</ele>
        <time>2016-04-13T18:35:39Z</time>
      </trkpt>
      <trkpt lat="59.063169410175" lon="17.697935849101">
        <ele>12.4</ele>
        <time>2016-04-13T18:35:40Z</time>
      </trkpt>
      <trkpt lat="59.063126578666" lon="17.697808360402">
        <ele>12.8</ele>
        <time>2016-04-13T18:35:41Z</time>
      </trkpt>
      <trkpt lat="59.062964891815" lon="17.697276109752">
        <ele>12.4</ele>
        <time>2016-04-13T18:35:45Z</time>
      </trkpt>
      <trkpt lat="59.062922982315" lon="17.697139484782">
        <ele>12</ele>
        <time>2016-04-13T18:35:46Z</time>
      </trkpt>
      <trkpt lat="59.062874283476" lon="17.696997243939">
        <ele>11.6</ele>
        <time>2016-04-13T18:35:47Z</time>
      </trkpt>
      <trkpt lat="59.062827093379" lon="17.696871850715">
        <ele>11.2</ele>
        <time>2016-04-13T18:35:48Z</time>
      </trkpt>
      <trkpt lat="59.062747213872" lon="17.696772944295">
        <ele>10.6</ele>
        <time>2016-04-13T18:35:49Z</time>
      </trkpt>
      <trkpt lat="59.062667166727" lon="17.696704715629">
        <ele>10.6</ele>
        <time>2016-04-13T18:35:50Z</time>
      </trkpt>
      <trkpt lat="59.062586029935" lon="17.696648724537">
        <ele>10.2</ele>
        <time>2016-04-13T18:35:51Z</time>
      </trkpt>
      <trkpt lat="59.062496092148" lon="17.696602037354">
        <ele>9.8</ele>
        <time>2016-04-13T18:35:52Z</time>
      </trkpt>
      <trkpt lat="59.062410010035" lon="17.696568258297">
        <ele>9.4</ele>
        <time>2016-04-13T18:35:53Z</time>
      </trkpt>
      <trkpt lat="59.062323005913" lon="17.696532635222">
        <ele>8.8</ele>
        <time>2016-04-13T18:35:54Z</time>
      </trkpt>
      <trkpt lat="59.062233906316" lon="17.69649759888">
        <ele>8.4</ele>
        <time>2016-04-13T18:35:55Z</time>
      </trkpt>
      <trkpt lat="59.061796538774" lon="17.696339516246">
        <ele>8.4</ele>
        <time>2016-04-13T18:36:00Z</time>
      </trkpt>
      <trkpt lat="59.061528569431" lon="17.696258044178">
        <ele>8</ele>
        <time>2016-04-13T18:36:03Z</time>
      </trkpt>
      <trkpt lat="59.061445504802" lon="17.696229042804">
        <ele>7.6</ele>
        <time>2016-04-13T18:36:04Z</time>
      </trkpt>
      <trkpt lat="59.061352046617" lon="17.696209345339">
        <ele>7.2</ele>
        <time>2016-04-13T18:36:05Z</time>
      </trkpt>
      <trkpt lat="59.061264539581" lon="17.696169531314">
        <ele>6.6</ele>
        <time>2016-04-13T18:36:06Z</time>
      </trkpt>
      <trkpt lat="59.061177200183" lon="17.696112282937">
        <ele>6.2</ele>
        <time>2016-04-13T18:36:07Z</time>
      </trkpt>
      <trkpt lat="59.061091872441" lon="17.69604246171">
        <ele>6.2</ele>
        <time>2016-04-13T18:36:08Z</time>
      </trkpt>
      <trkpt lat="59.060919037663" lon="17.695862167041">
        <ele>6.2</ele>
        <time>2016-04-13T18:36:10Z</time>
      </trkpt>
      <trkpt lat="59.060844606391" lon="17.695752280332">
        <ele>6.2</ele>
        <time>2016-04-13T18:36:11Z</time>
      </trkpt>
      <trkpt lat="59.060496757541" lon="17.6951715823">
        <ele>5.8</ele>
        <time>2016-04-13T18:36:16Z</time>
      </trkpt>
      <trkpt lat="59.060423164459" lon="17.695043506868">
        <ele>5.2</ele>
        <time>2016-04-13T18:36:17Z</time>
      </trkpt>
      <trkpt lat="59.060344542237" lon="17.694921885499">
        <ele>4.8</ele>
        <time>2016-04-13T18:36:18Z</time>
      </trkpt>
      <trkpt lat="59.060264075997" lon="17.694803700709">
        <ele>4.4</ele>
        <time>2016-04-13T18:36:19Z</time>
      </trkpt>
      <trkpt lat="59.060184615585" lon="17.694694568371">
        <ele>3.8</ele>
        <time>2016-04-13T18:36:20Z</time>
      </trkpt>
      <trkpt lat="59.060097527644" lon="17.694609827362">
        <ele>3.2</ele>
        <time>2016-04-13T18:36:21Z</time>
      </trkpt>
      <trkpt lat="59.060009517694" lon="17.694538162117">
        <ele>2.6</ele>
        <time>2016-04-13T18:36:22Z</time>
      </trkpt>
      <trkpt lat="59.05992016664" lon="17.694482003387">
        <ele>2.2</ele>
        <time>2016-04-13T18:36:23Z</time>
      </trkpt>
      <trkpt lat="59.059829139206" lon="17.694434729471">
        <ele>1.6</ele>
        <time>2016-04-13T18:36:24Z</time>
      </trkpt>
      <trkpt lat="59.059736435392" lon="17.694395585998">
        <ele>1.6</ele>
        <time>2016-04-13T18:36:25Z</time>
      </trkpt>
      <trkpt lat="59.059296218004" lon="17.694250998223">
        <ele>2</ele>
        <time>2016-04-13T18:36:30Z</time>
      </trkpt>
      <trkpt lat="59.059205358208" lon="17.694219649917">
        <ele>2.4</ele>
        <time>2016-04-13T18:36:31Z</time>
      </trkpt>
      <trkpt lat="59.059125730158" lon="17.69419341457">
        <ele>2.8</ele>
        <time>2016-04-13T18:36:32Z</time>
      </trkpt>
      <trkpt lat="59.059046269746" lon="17.694168436508">
        <ele>3.4</ele>
        <time>2016-04-13T18:36:33Z</time>
      </trkpt>
      <trkpt lat="59.058966222601" lon="17.694148236129">
        <ele>3.8</ele>
        <time>2016-04-13T18:36:34Z</time>
      </trkpt>
      <trkpt lat="59.058876787728" lon="17.694128119569">
        <ele>4.4</ele>
        <time>2016-04-13T18:36:35Z</time>
      </trkpt>
      <trkpt lat="59.058794645108" lon="17.694104817887">
        <ele>4.8</ele>
        <time>2016-04-13T18:36:36Z</time>
      </trkpt>
      <trkpt lat="59.058710490832" lon="17.6940735534">
        <ele>5.4</ele>
        <time>2016-04-13T18:36:37Z</time>
      </trkpt>
      <trkpt lat="59.058624408719" lon="17.694051173727">
        <ele>6</ele>
        <time>2016-04-13T18:36:38Z</time>
      </trkpt>
      <trkpt lat="59.058528687421" lon="17.69405176046">
        <ele>6.4</ele>
        <time>2016-04-13T18:36:39Z</time>
      </trkpt>
      <trkpt lat="59.058440006919" lon="17.694049497347">
        <ele>6.8</ele>
        <time>2016-04-13T18:36:40Z</time>
      </trkpt>
      <trkpt lat="59.05836951514" lon="17.694026530941">
        <ele>7.4</ele>
        <time>2016-04-13T18:36:41Z</time>
      </trkpt>
      <trkpt lat="59.058302879035" lon="17.69398721983">
        <ele>7.8</ele>
        <time>2016-04-13T18:36:42Z</time>
      </trkpt>
      <trkpt lat="59.058227441935" lon="17.693945980882">
        <ele>8.4</ele>
        <time>2016-04-13T18:36:43Z</time>
      </trkpt>
      <trkpt lat="59.058148652075" lon="17.693916225137">
        <ele>8.8</ele>
        <time>2016-04-13T18:36:44Z</time>
      </trkpt>
      <trkpt lat="59.058068185835" lon="17.693891498532">
        <ele>9.2</ele>
        <time>2016-04-13T18:36:45Z</time>
      </trkpt>
      <trkpt lat="59.057987719595" lon="17.693861323692">
        <ele>9.6</ele>
        <time>2016-04-13T18:36:46Z</time>
      </trkpt>
      <trkpt lat="59.057918317463" lon="17.693833747241">
        <ele>10</ele>
        <time>2016-04-13T18:36:47Z</time>
      </trkpt>
      <trkpt lat="59.057841120164" lon="17.693807428075">
        <ele>10.4</ele>
        <time>2016-04-13T18:36:48Z</time>
      </trkpt>
      <trkpt lat="59.057597206874" lon="17.693728135301">
        <ele>10.4</ele>
        <time>2016-04-13T18:36:51Z</time>
      </trkpt>
      <trkpt lat="59.05735111429" lon="17.693649093984">
        <ele>10</ele>
        <time>2016-04-13T18:36:54Z</time>
      </trkpt>
      <trkpt lat="59.057264277806" lon="17.693621266076">
        <ele>9.4</ele>
        <time>2016-04-13T18:36:55Z</time>
      </trkpt>
      <trkpt lat="59.057175848761" lon="17.693589666313">
        <ele>9</ele>
        <time>2016-04-13T18:36:56Z</time>
      </trkpt>
      <trkpt lat="59.057085743336" lon="17.693560497301">
        <ele>8.6</ele>
        <time>2016-04-13T18:36:57Z</time>
      </trkpt>
      <trkpt lat="59.056989351486" lon="17.693530993013">
        <ele>8.2</ele>
        <time>2016-04-13T18:36:58Z</time>
      </trkpt>
      <trkpt lat="59.056896312396" lon="17.693498135965">
        <ele>7.8</ele>
        <time>2016-04-13T18:36:59Z</time>
      </trkpt>
      <trkpt lat="59.056802854211" lon="17.693465362736">
        <ele>7.4</ele>
        <time>2016-04-13T18:37:00Z</time>
      </trkpt>
      <trkpt lat="59.056708809293" lon="17.693436361362">
        <ele>7</ele>
        <time>2016-04-13T18:37:01Z</time>
      </trkpt>
      <trkpt lat="59.05661015433" lon="17.693411131843">
        <ele>6.4</ele>
        <time>2016-04-13T18:37:02Z</time>
      </trkpt>
      <trkpt lat="59.056513175747" lon="17.693386069962">
        <ele>5.8</ele>
        <time>2016-04-13T18:37:03Z</time>
      </trkpt>
      <trkpt lat="59.056415861888" lon="17.693354051104">
        <ele>5</ele>
        <time>2016-04-13T18:37:04Z</time>
      </trkpt>
      <trkpt lat="59.056316117278" lon="17.693318847124">
        <ele>4.4</ele>
        <time>2016-04-13T18:37:05Z</time>
      </trkpt>
      <trkpt lat="59.0559002074" lon="17.69324206892">
        <ele>2.2</ele>
        <time>2016-04-13T18:37:06Z</time>
      </trkpt>
      <trkpt lat="59.055790907424" lon="17.693251456648">
        <ele>1.4</ele>
        <time>2016-04-13T18:37:10Z</time>
      </trkpt>
      <trkpt lat="59.05568395438" lon="17.693277356719">
        <ele>0.8</ele>
        <time>2016-04-13T18:37:11Z</time>
      </trkpt>
      <trkpt lat="59.055578929173" lon="17.693311387233">
        <ele>0.2</ele>
        <time>2016-04-13T18:37:12Z</time>
      </trkpt>
      <trkpt lat="59.055475831803" lon="17.693353883466">
        <ele>0</ele>
        <time>2016-04-13T18:37:13Z</time>
      </trkpt>
      <trkpt lat="59.055373572623" lon="17.693401157382">
        <ele>0</ele>
        <time>2016-04-13T18:37:14Z</time>
      </trkpt>
      <trkpt lat="59.055267876864" lon="17.693452873705">
        <ele>0</ele>
        <time>2016-04-13T18:37:15Z</time>
      </trkpt>
      <trkpt lat="59.055166288236" lon="17.693503835657">
        <ele>0</ele>
        <time>2016-04-13T18:37:16Z</time>
      </trkpt>
      <trkpt lat="59.05506034102" lon="17.693555719618">
        <ele>0</ele>
        <time>2016-04-13T18:37:17Z</time>
      </trkpt>
      <trkpt lat="59.05495556727" lon="17.693606430113">
        <ele>0</ele>
        <time>2016-04-13T18:37:18Z</time>
      </trkpt>
      <trkpt lat="59.054854062461" lon="17.693660744825">
        <ele>0</ele>
        <time>2016-04-13T18:37:19Z</time>
      </trkpt>
      <trkpt lat="59.054749875444" lon="17.693717071193">
        <ele>0</ele>
        <time>2016-04-13T18:37:20Z</time>
      </trkpt>
      <trkpt lat="59.054640575468" lon="17.693777001778">
        <ele>0</ele>
        <time>2016-04-13T18:37:21Z</time>
      </trkpt>
      <trkpt lat="59.054539741211" lon="17.693831987042">
        <ele>0</ele>
        <time>2016-04-13T18:37:22Z</time>
      </trkpt>
      <trkpt lat="59.054436560022" lon="17.69388831341">
        <ele>0</ele>
        <time>2016-04-13T18:37:23Z</time>
      </trkpt>
      <trkpt lat="59.054336563955" lon="17.693940029733">
        <ele>0</ele>
        <time>2016-04-13T18:37:24Z</time>
      </trkpt>
      <trkpt lat="59.054240172105" lon="17.693989315305">
        <ele>0</ele>
        <time>2016-04-13T18:37:25Z</time>
      </trkpt>
      <trkpt lat="59.0541483903" lon="17.694041450723">
        <ele>0</ele>
        <time>2016-04-13T18:37:26Z</time>
      </trkpt>
      <trkpt lat="59.054059206884" lon="17.694092077399">
        <ele>0</ele>
        <time>2016-04-13T18:37:27Z</time>
      </trkpt>
      <trkpt lat="59.053609350311" lon="17.694315371215">
        <ele>0</ele>
        <time>2016-04-13T18:37:32Z</time>
      </trkpt>
      <trkpt lat="59.053180029393" lon="17.694387707012">
        <ele>0</ele>
        <time>2016-04-13T18:37:37Z</time>
      </trkpt>
      <trkpt lat="59.052958244319" lon="17.694263403435">
        <ele>0</ele>
        <time>2016-04-13T18:37:40Z</time>
      </trkpt>
      <trkpt lat="59.052681893076" lon="17.694010437693">
        <ele>0</ele>
        <time>2016-04-13T18:37:45Z</time>
      </trkpt>
      <trkpt lat="59.052577454602" lon="17.693723944351">
        <ele>0</ele>
        <time>2016-04-13T18:37:49Z</time>
      </trkpt>
      <trkpt lat="59.052554907291" lon="17.693655045133">
        <ele>0</ele>
        <time>2016-04-13T18:37:50Z</time>
      </trkpt>
      <trkpt lat="59.052387520748" lon="17.693607100665">
        <ele>0</ele>
        <time>2016-04-13T18:45:52Z</time>
      </trkpt>
      <trkpt lat="59.052585836502" lon="17.69391681187">
        <ele>0</ele>
        <time>2016-04-13T18:45:56Z</time>
      </trkpt>
      <trkpt lat="59.052651802055" lon="17.694011275883">
        <ele>0</ele>
        <time>2016-04-13T18:45:57Z</time>
      </trkpt>
      <trkpt lat="59.052724976042" lon="17.694110769036">
        <ele>0</ele>
        <time>2016-04-13T18:45:58Z</time>
      </trkpt>
      <trkpt lat="59.052802089522" lon="17.694213614949">
        <ele>0</ele>
        <time>2016-04-13T18:45:59Z</time>
      </trkpt>
      <trkpt lat="59.052878029536" lon="17.69429483556">
        <ele>0</ele>
        <time>2016-04-13T18:46:00Z</time>
      </trkpt>
      <trkpt lat="59.052958831052" lon="17.694361220208">
        <ele>0</ele>
        <time>2016-04-13T18:46:01Z</time>
      </trkpt>
      <trkpt lat="59.053126469052" lon="17.694443027552">
        <ele>0</ele>
        <time>2016-04-13T18:46:03Z</time>
      </trkpt>
      <trkpt lat="59.053477754481" lon="17.694432131082">
        <ele>0</ele>
        <time>2016-04-13T18:46:07Z</time>
      </trkpt>
      <trkpt lat="59.053564926241" lon="17.694394161075">
        <ele>0</ele>
        <time>2016-04-13T18:46:08Z</time>
      </trkpt>
      <trkpt lat="59.053975052608" lon="17.694185703222">
        <ele>0</ele>
        <time>2016-04-13T18:46:13Z</time>
      </trkpt>
      <trkpt lat="59.054295157369" lon="17.694020998887">
        <ele>0</ele>
        <time>2016-04-13T18:46:17Z</time>
      </trkpt>
      <trkpt lat="59.054373528134" lon="17.693979005568">
        <ele>0</ele>
        <time>2016-04-13T18:46:18Z</time>
      </trkpt>
      <trkpt lat="59.054450557795" lon="17.693939107724">
        <ele>0</ele>
        <time>2016-04-13T18:46:19Z</time>
      </trkpt>
      <trkpt lat="59.054529096198" lon="17.693900383346">
        <ele>0</ele>
        <time>2016-04-13T18:46:20Z</time>
      </trkpt>
      <trkpt lat="59.054602018728" lon="17.693860820778">
        <ele>0</ele>
        <time>2016-04-13T18:46:21Z</time>
      </trkpt>
      <trkpt lat="59.054818187929" lon="17.693753616277">
        <ele>0</ele>
        <time>2016-04-13T18:46:24Z</time>
      </trkpt>
      <trkpt lat="59.054883650568" lon="17.693716903555">
        <ele>0</ele>
        <time>2016-04-13T18:46:25Z</time>
      </trkpt>
      <trkpt lat="59.05495053813" lon="17.693680358471">
        <ele>0</ele>
        <time>2016-04-13T18:46:26Z</time>
      </trkpt>
      <trkpt lat="59.05501340238" lon="17.693650854183">
        <ele>0</ele>
        <time>2016-04-13T18:46:27Z</time>
      </trkpt>
      <trkpt lat="59.05514248364" lon="17.693587906114">
        <ele>0</ele>
        <time>2016-04-13T18:46:29Z</time>
      </trkpt>
      <trkpt lat="59.055202917139" lon="17.69355555198">
        <ele>0</ele>
        <time>2016-04-13T18:46:30Z</time>
      </trkpt>
      <trkpt lat="59.055261841896" lon="17.693520348">
        <ele>0</ele>
        <time>2016-04-13T18:46:31Z</time>
      </trkpt>
      <trkpt lat="59.055318671178" lon="17.693488915875">
        <ele>0</ele>
        <time>2016-04-13T18:46:32Z</time>
      </trkpt>
      <trkpt lat="59.055371644786" lon="17.6934616747">
        <ele>0</ele>
        <time>2016-04-13T18:46:33Z</time>
      </trkpt>
      <trkpt lat="59.055473987785" lon="17.693409120187">
        <ele>0</ele>
        <time>2016-04-13T18:46:35Z</time>
      </trkpt>
      <trkpt lat="59.055521596977" lon="17.693385986143">
        <ele>0</ele>
        <time>2016-04-13T18:46:36Z</time>
      </trkpt>
      <trkpt lat="59.055572391291" lon="17.693368467972">
        <ele>0</ele>
        <time>2016-04-13T18:46:37Z</time>
      </trkpt>
      <trkpt lat="59.05562528108" lon="17.693359583158">
        <ele>0</ele>
        <time>2016-04-13T18:46:38Z</time>
      </trkpt>
      <trkpt lat="59.055679009059" lon="17.693350363068">
        <ele>0</ele>
        <time>2016-04-13T18:46:39Z</time>
      </trkpt>
      <trkpt lat="59.055732066486" lon="17.693342148806">
        <ele>0</ele>
        <time>2016-04-13T18:46:40Z</time>
      </trkpt>
      <trkpt lat="59.055787470845" lon="17.693329073042">
        <ele>0</ele>
        <time>2016-04-13T18:46:41Z</time>
      </trkpt>
      <trkpt lat="59.055840863548" lon="17.693314572355">
        <ele>0</ele>
        <time>2016-04-13T18:46:42Z</time>
      </trkpt>
      <trkpt lat="59.055890903491" lon="17.693310465224">
        <ele>0</ele>
        <time>2016-04-13T18:46:43Z</time>
      </trkpt>
      <trkpt lat="59.055940775796" lon="17.69331750602">
        <ele>0</ele>
        <time>2016-04-13T18:46:44Z</time>
      </trkpt>
      <trkpt lat="59.055989809911" lon="17.693323624807">
        <ele>0</ele>
        <time>2016-04-13T18:46:45Z</time>
      </trkpt>
      <trkpt lat="59.056081172621" lon="17.693346339756">
        <ele>0</ele>
        <time>2016-04-13T18:46:47Z</time>
      </trkpt>
      <trkpt lat="59.056126937795" lon="17.69335354819">
        <ele>0</ele>
        <time>2016-04-13T18:46:48Z</time>
      </trkpt>
      <trkpt lat="59.056178821756" lon="17.693359164063">
        <ele>0.4</ele>
        <time>2016-04-13T18:46:49Z</time>
      </trkpt>
      <trkpt lat="59.056228023509" lon="17.693372072189">
        <ele>0.8</ele>
        <time>2016-04-13T18:46:50Z</time>
      </trkpt>
      <trkpt lat="59.056273621045" lon="17.693394954776">
        <ele>1.2</ele>
        <time>2016-04-13T18:46:51Z</time>
      </trkpt>
      <trkpt lat="59.056375544949" lon="17.693430158756">
        <ele>1.2</ele>
        <time>2016-04-13T18:46:53Z</time>
      </trkpt>
      <trkpt lat="59.05648442583" lon="17.693446754918">
        <ele>1.2</ele>
        <time>2016-04-13T18:46:55Z</time>
      </trkpt>
      <trkpt lat="59.056535723058" lon="17.693466871478">
        <ele>1.6</ele>
        <time>2016-04-13T18:46:56Z</time>
      </trkpt>
      <trkpt lat="59.056586098277" lon="17.693480282518">
        <ele>2</ele>
        <time>2016-04-13T18:46:57Z</time>
      </trkpt>
      <trkpt lat="59.056637479324" lon="17.69348933497">
        <ele>2.4</ele>
        <time>2016-04-13T18:46:58Z</time>
      </trkpt>
      <trkpt lat="59.056689195647" lon="17.693508278064">
        <ele>2.8</ele>
        <time>2016-04-13T18:46:59Z</time>
      </trkpt>
      <trkpt lat="59.056742755988" lon="17.693529316633">
        <ele>3.2</ele>
        <time>2016-04-13T18:47:00Z</time>
      </trkpt>
      <trkpt lat="59.056900335708" lon="17.693585140087">
        <ele>3.6</ele>
        <time>2016-04-13T18:47:03Z</time>
      </trkpt>
      <trkpt lat="59.056951884393" lon="17.693598551127">
        <ele>4</ele>
        <time>2016-04-13T18:47:04Z</time>
      </trkpt>
      <trkpt lat="59.057003768354" lon="17.693609782873">
        <ele>4.4</ele>
        <time>2016-04-13T18:47:05Z</time>
      </trkpt>
      <trkpt lat="59.057054478849" lon="17.693624032103">
        <ele>5</ele>
        <time>2016-04-13T18:47:06Z</time>
      </trkpt>
      <trkpt lat="59.057105943715" lon="17.693641214998">
        <ele>5.4</ele>
        <time>2016-04-13T18:47:07Z</time>
      </trkpt>
      <trkpt lat="59.057306941677" lon="17.6937215136">
        <ele>5.8</ele>
        <time>2016-04-13T18:47:11Z</time>
      </trkpt>
      <trkpt lat="59.057360166742" lon="17.69374163016">
        <ele>6.2</ele>
        <time>2016-04-13T18:47:12Z</time>
      </trkpt>
      <trkpt lat="59.057408697943" lon="17.693756549942">
        <ele>7</ele>
        <time>2016-04-13T18:47:13Z</time>
      </trkpt>
      <trkpt lat="59.057462761198" lon="17.693765853851">
        <ele>7.4</ele>
        <time>2016-04-13T18:47:14Z</time>
      </trkpt>
      <trkpt lat="59.057518500833" lon="17.693781779461">
        <ele>7.4</ele>
        <time>2016-04-13T18:47:15Z</time>
      </trkpt>
      <trkpt lat="59.057780351389" lon="17.693851768326">
        <ele>7.4</ele>
        <time>2016-04-13T18:47:20Z</time>
      </trkpt>
      <trkpt lat="59.057941786783" lon="17.693923936485">
        <ele>8</ele>
        <time>2016-04-13T18:47:23Z</time>
      </trkpt>
      <trkpt lat="59.057995850038" lon="17.693945226511">
        <ele>8.4</ele>
        <time>2016-04-13T18:47:24Z</time>
      </trkpt>
      <trkpt lat="59.058054020424" lon="17.693962577044">
        <ele>8.8</ele>
        <time>2016-04-13T18:47:25Z</time>
      </trkpt>
      <trkpt lat="59.058110430611" lon="17.69397380879">
        <ele>9.2</ele>
        <time>2016-04-13T18:47:26Z</time>
      </trkpt>
      <trkpt lat="59.058164577685" lon="17.693991243142">
        <ele>9.8</ele>
        <time>2016-04-13T18:47:27Z</time>
      </trkpt>
      <trkpt lat="59.058338669748" lon="17.694042624189">
        <ele>9.8</ele>
        <time>2016-04-13T18:47:30Z</time>
      </trkpt>
      <trkpt lat="59.058456770719" lon="17.694086880621">
        <ele>9.8</ele>
        <time>2016-04-13T18:47:32Z</time>
      </trkpt>
      <trkpt lat="59.058659612699" lon="17.694167514499">
        <ele>9.8</ele>
        <time>2016-04-13T18:47:35Z</time>
      </trkpt>
      <trkpt lat="59.058735552713" lon="17.694187295783">
        <ele>9.8</ele>
        <time>2016-04-13T18:47:36Z</time>
      </trkpt>
      <trkpt lat="59.058815096944" lon="17.694215626605">
        <ele>9.2</ele>
        <time>2016-04-13T18:47:37Z</time>
      </trkpt>
      <trkpt lat="59.0588925457" lon="17.694242783961">
        <ele>8.4</ele>
        <time>2016-04-13T18:47:38Z</time>
      </trkpt>
      <trkpt lat="59.058976113243" lon="17.694268097299">
        <ele>8</ele>
        <time>2016-04-13T18:47:39Z</time>
      </trkpt>
      <trkpt lat="59.05906521284" lon="17.694294584103">
        <ele>7.2</ele>
        <time>2016-04-13T18:47:40Z</time>
      </trkpt>
      <trkpt lat="59.059159173939" lon="17.69431914307">
        <ele>6.6</ele>
        <time>2016-04-13T18:47:41Z</time>
      </trkpt>
      <trkpt lat="59.059256068703" lon="17.694344624046">
        <ele>6</ele>
        <time>2016-04-13T18:47:42Z</time>
      </trkpt>
      <trkpt lat="59.059357657331" lon="17.694371781402">
        <ele>5.2</ele>
        <time>2016-04-13T18:47:43Z</time>
      </trkpt>
      <trkpt lat="59.05945664757" lon="17.694403884079">
        <ele>4.4</ele>
        <time>2016-04-13T18:47:44Z</time>
      </trkpt>
      <trkpt lat="59.059563684433" lon="17.694442608457">
        <ele>3.8</ele>
        <time>2016-04-13T18:47:45Z</time>
      </trkpt>
      <trkpt lat="59.059661836482" lon="17.694477980075">
        <ele>3</ele>
        <time>2016-04-13T18:47:46Z</time>
      </trkpt>
      <trkpt lat="59.059756887228" lon="17.694511759132">
        <ele>2.2</ele>
        <time>2016-04-13T18:47:47Z</time>
      </trkpt>
      <trkpt lat="59.060111609236" lon="17.694732789835">
        <ele>2.2</ele>
        <time>2016-04-13T18:47:51Z</time>
      </trkpt>
      <trkpt lat="59.060431881635" lon="17.69514224565">
        <ele>2.2</ele>
        <time>2016-04-13T18:47:55Z</time>
      </trkpt>
      <trkpt lat="59.060759362468" lon="17.69570215657">
        <ele>2.2</ele>
        <time>2016-04-13T18:48:00Z</time>
      </trkpt>
      <trkpt lat="59.06103412115" lon="17.696086801961">
        <ele>2.6</ele>
        <time>2016-04-13T18:48:04Z</time>
      </trkpt>
      <trkpt lat="59.061108049508" lon="17.69615394098">
        <ele>3</ele>
        <time>2016-04-13T18:48:05Z</time>
      </trkpt>
      <trkpt lat="59.061187426101" lon="17.696211859909">
        <ele>3.6</ele>
        <time>2016-04-13T18:48:06Z</time>
      </trkpt>
      <trkpt lat="59.061271664196" lon="17.696262570404">
        <ele>4</ele>
        <time>2016-04-13T18:48:07Z</time>
      </trkpt>
      <trkpt lat="59.061354142092" lon="17.696303557895">
        <ele>4.4</ele>
        <time>2016-04-13T18:48:08Z</time>
      </trkpt>
      <trkpt lat="59.061435278884" lon="17.696341024988">
        <ele>4.4</ele>
        <time>2016-04-13T18:48:09Z</time>
      </trkpt>
      <trkpt lat="59.06151775678" lon="17.69636851762">
        <ele>4.4</ele>
        <time>2016-04-13T18:48:10Z</time>
      </trkpt>
      <trkpt lat="59.061922854007" lon="17.696472285542">
        <ele>4.4</ele>
        <time>2016-04-13T18:48:15Z</time>
      </trkpt>
      <trkpt lat="59.062490811551" lon="17.696687281277">
        <ele>4.4</ele>
        <time>2016-04-13T18:48:22Z</time>
      </trkpt>
      <trkpt lat="59.062654258601" lon="17.696774955951">
        <ele>4.4</ele>
        <time>2016-04-13T18:48:24Z</time>
      </trkpt>
      <trkpt lat="59.062788704277" lon="17.696955334439">
        <ele>4.8</ele>
        <time>2016-04-13T18:48:26Z</time>
      </trkpt>
      <trkpt lat="59.062838157487" lon="17.697070166469">
        <ele>5.2</ele>
        <time>2016-04-13T18:48:27Z</time>
      </trkpt>
      <trkpt lat="59.062878893521" lon="17.697188602716">
        <ele>6</ele>
        <time>2016-04-13T18:48:28Z</time>
      </trkpt>
      <trkpt lat="59.062917450261" lon="17.697303602384">
        <ele>6.4</ele>
        <time>2016-04-13T18:48:29Z</time>
      </trkpt>
      <trkpt lat="59.06295609082" lon="17.697419021147">
        <ele>6.4</ele>
        <time>2016-04-13T18:48:30Z</time>
      </trkpt>
      <trkpt lat="59.06299464756" lon="17.697534020815">
        <ele>6.8</ele>
        <time>2016-04-13T18:48:31Z</time>
      </trkpt>
      <trkpt lat="59.063034545404" lon="17.697646254456">
        <ele>7.2</ele>
        <time>2016-04-13T18:48:32Z</time>
      </trkpt>
      <trkpt lat="59.06306840828" lon="17.697758571916">
        <ele>7.8</ele>
        <time>2016-04-13T18:48:33Z</time>
      </trkpt>
      <trkpt lat="59.063102857889" lon="17.697869799729">
        <ele>8.2</ele>
        <time>2016-04-13T18:48:34Z</time>
      </trkpt>
      <trkpt lat="59.063139570611" lon="17.697976082221">
        <ele>8.6</ele>
        <time>2016-04-13T18:48:35Z</time>
      </trkpt>
      <trkpt lat="59.063256749573" lon="17.698286380159">
        <ele>8.6</ele>
        <time>2016-04-13T18:48:38Z</time>
      </trkpt>
      <trkpt lat="59.063517259025" lon="17.698943604938">
        <ele>8.6</ele>
        <time>2016-04-13T18:48:44Z</time>
      </trkpt>
      <trkpt lat="59.063870053196" lon="17.699613318748">
        <ele>8.6</ele>
        <time>2016-04-13T18:48:50Z</time>
      </trkpt>
      <trkpt lat="59.064125533508" lon="17.699974578638">
        <ele>7.4</ele>
        <time>2016-04-13T18:48:53Z</time>
      </trkpt>
      <trkpt lat="59.064213543458" lon="17.70010265407">
        <ele>6.4</ele>
        <time>2016-04-13T18:48:54Z</time>
      </trkpt>
      <trkpt lat="59.06430138577" lon="17.700231567692">
        <ele>5.6</ele>
        <time>2016-04-13T18:48:55Z</time>
      </trkpt>
      <trkpt lat="59.064388641349" lon="17.700355619812">
        <ele>4.4</ele>
        <time>2016-04-13T18:48:56Z</time>
      </trkpt>
      <trkpt lat="59.064473466177" lon="17.700477325">
        <ele>3.4</ele>
        <time>2016-04-13T18:48:57Z</time>
      </trkpt>
      <trkpt lat="59.064555105883" lon="17.700595928885">
        <ele>2.4</ele>
        <time>2016-04-13T18:48:58Z</time>
      </trkpt>
      <trkpt lat="59.064633644286" lon="17.700709335992">
        <ele>1.4</ele>
        <time>2016-04-13T18:48:59Z</time>
      </trkpt>
      <trkpt lat="59.064711847413" lon="17.700831544094">
        <ele>0.4</ele>
        <time>2016-04-13T18:49:00Z</time>
      </trkpt>
      <trkpt lat="59.065136474467" lon="17.701503185741">
        <ele>1</ele>
        <time>2016-04-13T18:49:06Z</time>
      </trkpt>
      <trkpt lat="59.065196153595" lon="17.701613575364">
        <ele>1.4</ele>
        <time>2016-04-13T18:49:07Z</time>
      </trkpt>
      <trkpt lat="59.065254743076" lon="17.701734190905">
        <ele>1.8</ele>
        <time>2016-04-13T18:49:08Z</time>
      </trkpt>
      <trkpt lat="59.065307800503" lon="17.701841143949">
        <ele>2.6</ele>
        <time>2016-04-13T18:49:09Z</time>
      </trkpt>
      <trkpt lat="59.06536672526" lon="17.70195924492">
        <ele>3.2</ele>
        <time>2016-04-13T18:49:10Z</time>
      </trkpt>
      <trkpt lat="59.06542539856" lon="17.702084386687">
        <ele>4</ele>
        <time>2016-04-13T18:49:11Z</time>
      </trkpt>
      <trkpt lat="59.065484155679" lon="17.702216820707">
        <ele>4.6</ele>
        <time>2016-04-13T18:49:12Z</time>
      </trkpt>
      <trkpt lat="59.06554525973" lon="17.702345985786">
        <ele>5.2</ele>
        <time>2016-04-13T18:49:13Z</time>
      </trkpt>
      <trkpt lat="59.06575480723" lon="17.70271696868">
        <ele>5.2</ele>
        <time>2016-04-13T18:49:16Z</time>
      </trkpt>
      <trkpt lat="59.065911297303" lon="17.702917044633">
        <ele>5.2</ele>
        <time>2016-04-13T18:49:18Z</time>
      </trkpt>
      <trkpt lat="59.066076504552" lon="17.70308577228">
        <ele>5.2</ele>
        <time>2016-04-13T18:49:20Z</time>
      </trkpt>
      <trkpt lat="59.066305330422" lon="17.703359441315">
        <ele>5.2</ele>
        <time>2016-04-13T18:49:23Z</time>
      </trkpt>
      <trkpt lat="59.066426532696" lon="17.703583908597">
        <ele>5.2</ele>
        <time>2016-04-13T18:49:25Z</time>
      </trkpt>
      <trkpt lat="59.066555362499" lon="17.70379320464">
        <ele>5.2</ele>
        <time>2016-04-13T18:49:27Z</time>
      </trkpt>
      <trkpt lat="59.066724090146" lon="17.703953801844">
        <ele>4.8</ele>
        <time>2016-04-13T18:49:29Z</time>
      </trkpt>
      <trkpt lat="59.066820481996" lon="17.704010128212">
        <ele>4.4</ele>
        <time>2016-04-13T18:49:30Z</time>
      </trkpt>
      <trkpt lat="59.066922070624" lon="17.704068466236">
        <ele>4</ele>
        <time>2016-04-13T18:49:31Z</time>
      </trkpt>
      <trkpt lat="59.067014439162" lon="17.704130827572">
        <ele>3.2</ele>
        <time>2016-04-13T18:49:32Z</time>
      </trkpt>
      <trkpt lat="59.067104544587" lon="17.704205929396">
        <ele>2.6</ele>
        <time>2016-04-13T18:49:33Z</time>
      </trkpt>
      <trkpt lat="59.067189117958" lon="17.704299555219">
        <ele>1.8</ele>
        <time>2016-04-13T18:49:34Z</time>
      </trkpt>
      <trkpt lat="59.067266147619" lon="17.704416901819">
        <ele>1.2</ele>
        <time>2016-04-13T18:49:35Z</time>
      </trkpt>
      <trkpt lat="59.067332029353" lon="17.704560232309">
        <ele>0.4</ele>
        <time>2016-04-13T18:49:36Z</time>
      </trkpt>
      <trkpt lat="59.067385170599" lon="17.704721583884">
        <ele>0.4</ele>
        <time>2016-04-13T18:49:37Z</time>
      </trkpt>
      <trkpt lat="59.067486591589" lon="17.705056440789">
        <ele>0</ele>
        <time>2016-04-13T18:49:39Z</time>
      </trkpt>
      <trkpt lat="59.06753596098" lon="17.705220474572">
        <ele>0</ele>
        <time>2016-04-13T18:49:40Z</time>
      </trkpt>
      <trkpt lat="59.067586000923" lon="17.70537989831">
        <ele>0</ele>
        <time>2016-04-13T18:49:41Z</time>
      </trkpt>
      <trkpt lat="59.067632855744" lon="17.705536556021">
        <ele>0</ele>
        <time>2016-04-13T18:49:42Z</time>
      </trkpt>
      <trkpt lat="59.067678788556" lon="17.705692710818">
        <ele>0</ele>
        <time>2016-04-13T18:49:43Z</time>
      </trkpt>
      <trkpt lat="59.067994618548" lon="17.706542886935">
        <ele>0</ele>
        <time>2016-04-13T18:49:49Z</time>
      </trkpt>
      <trkpt lat="59.068176170502" lon="17.706898447133">
        <ele>0</ele>
        <time>2016-04-13T18:49:52Z</time>
      </trkpt>
      <trkpt lat="59.068240627313" lon="17.707015123181">
        <ele>0</ele>
        <time>2016-04-13T18:49:53Z</time>
      </trkpt>
      <trkpt lat="59.068300222622" lon="17.707121154216">
        <ele>0</ele>
        <time>2016-04-13T18:49:54Z</time>
      </trkpt>
      <trkpt lat="59.068358057732" lon="17.70723397459">
        <ele>0.2</ele>
        <time>2016-04-13T18:49:55Z</time>
      </trkpt>
      <trkpt lat="59.068417988317" lon="17.707333300105">
        <ele>0.8</ele>
        <time>2016-04-13T18:49:56Z</time>
      </trkpt>
      <trkpt lat="59.068589649629" lon="17.707610824814">
        <ele>1.2</ele>
        <time>2016-04-13T18:49:59Z</time>
      </trkpt>
      <trkpt lat="59.068646646549" lon="17.707700343506">
        <ele>1.6</ele>
        <time>2016-04-13T18:50:00Z</time>
      </trkpt>
      <trkpt lat="59.068706577134" lon="17.707789862198">
        <ele>2</ele>
        <time>2016-04-13T18:50:01Z</time>
      </trkpt>
      <trkpt lat="59.068763490235" lon="17.707865802212">
        <ele>2.4</ele>
        <time>2016-04-13T18:50:02Z</time>
      </trkpt>
      <trkpt lat="59.068816631481" lon="17.707949621212">
        <ele>2.8</ele>
        <time>2016-04-13T18:50:03Z</time>
      </trkpt>
      <trkpt lat="59.068915370263" lon="17.708111391882">
        <ele>2.8</ele>
        <time>2016-04-13T18:50:05Z</time>
      </trkpt>
      <trkpt lat="59.069100442615" lon="17.708346336539">
        <ele>3.4</ele>
        <time>2016-04-13T18:50:08Z</time>
      </trkpt>
      <trkpt lat="59.069165569978" lon="17.70843929181">
        <ele>3.8</ele>
        <time>2016-04-13T18:50:09Z</time>
      </trkpt>
      <trkpt lat="59.069227260762" lon="17.70853149271">
        <ele>4.2</ele>
        <time>2016-04-13T18:50:10Z</time>
      </trkpt>
      <trkpt lat="59.06928861627" lon="17.708622268687">
        <ele>4.6</ele>
        <time>2016-04-13T18:50:11Z</time>
      </trkpt>
      <trkpt lat="59.06934561319" lon="17.708714385768">
        <ele>5</ele>
        <time>2016-04-13T18:50:12Z</time>
      </trkpt>
      <trkpt lat="59.069547449342" lon="17.709063408084">
        <ele>5.6</ele>
        <time>2016-04-13T18:50:16Z</time>
      </trkpt>
      <trkpt lat="59.069596315819" lon="17.709149574016">
        <ele>6</ele>
        <time>2016-04-13T18:50:17Z</time>
      </trkpt>
      <trkpt lat="59.069642919183" lon="17.709235823767">
        <ele>6.4</ele>
        <time>2016-04-13T18:50:18Z</time>
      </trkpt>
      <trkpt lat="59.069687510891" lon="17.709322660251">
        <ele>6.8</ele>
        <time>2016-04-13T18:50:19Z</time>
      </trkpt>
      <trkpt lat="59.06973453335" lon="17.709408071812">
        <ele>7.4</ele>
        <time>2016-04-13T18:50:20Z</time>
      </trkpt>
      <trkpt lat="59.069821118377" lon="17.709592473612">
        <ele>7.4</ele>
        <time>2016-04-13T18:50:22Z</time>
      </trkpt>
      <trkpt lat="59.069929663982" lon="17.709901178989">
        <ele>7.4</ele>
        <time>2016-04-13T18:50:25Z</time>
      </trkpt>
      <trkpt lat="59.069957994804" lon="17.710006204196">
        <ele>7.8</ele>
        <time>2016-04-13T18:50:26Z</time>
      </trkpt>
      <trkpt lat="59.069983140504" lon="17.710120114217">
        <ele>8.2</ele>
        <time>2016-04-13T18:50:27Z</time>
      </trkpt>
      <trkpt lat="59.070008705299" lon="17.710229833288">
        <ele>8.6</ele>
        <time>2016-04-13T18:50:28Z</time>
      </trkpt>
      <trkpt lat="59.070034270094" lon="17.710338462712">
        <ele>9</ele>
        <time>2016-04-13T18:50:29Z</time>
      </trkpt>
      <trkpt lat="59.070058745242" lon="17.710446086308">
        <ele>9.6</ele>
        <time>2016-04-13T18:50:30Z</time>
      </trkpt>
      <trkpt lat="59.07011926256" lon="17.710844645653">
        <ele>10</ele>
        <time>2016-04-13T18:50:34Z</time>
      </trkpt>
      <trkpt lat="59.070126470994" lon="17.710932571784">
        <ele>10.4</ele>
        <time>2016-04-13T18:50:35Z</time>
      </trkpt>
      <trkpt lat="59.070132338324" lon="17.711017648069">
        <ele>10.8</ele>
        <time>2016-04-13T18:50:36Z</time>
      </trkpt>
      <trkpt lat="59.070129153202" lon="17.711105406562">
        <ele>11.2</ele>
        <time>2016-04-13T18:50:37Z</time>
      </trkpt>
      <trkpt lat="59.070128231193" lon="17.711192326865">
        <ele>11.6</ele>
        <time>2016-04-13T18:50:38Z</time>
      </trkpt>
      <trkpt lat="59.070125716623" lon="17.711279414806">
        <ele>12.2</ele>
        <time>2016-04-13T18:50:39Z</time>
      </trkpt>
      <trkpt lat="59.070122866777" lon="17.711369520231">
        <ele>12.6</ele>
        <time>2016-04-13T18:50:40Z</time>
      </trkpt>
      <trkpt lat="59.070125046071" lon="17.711455769982">
        <ele>13.2</ele>
        <time>2016-04-13T18:50:41Z</time>
      </trkpt>
      <trkpt lat="59.070126973908" lon="17.711539505163">
        <ele>13.6</ele>
        <time>2016-04-13T18:50:42Z</time>
      </trkpt>
      <trkpt lat="59.070127309184" lon="17.711720554203">
        <ele>14</ele>
        <time>2016-04-13T18:50:44Z</time>
      </trkpt>
      <trkpt lat="59.070123621148" lon="17.71182222665">
        <ele>14.4</ele>
        <time>2016-04-13T18:50:45Z</time>
      </trkpt>
      <trkpt lat="59.070122028587" lon="17.711920462518">
        <ele>15</ele>
        <time>2016-04-13T18:50:46Z</time>
      </trkpt>
      <trkpt lat="59.070122112406" lon="17.712009478296">
        <ele>15.4</ele>
        <time>2016-04-13T18:50:47Z</time>
      </trkpt>
      <trkpt lat="59.070122280044" lon="17.712102936481">
        <ele>15.8</ele>
        <time>2016-04-13T18:50:48Z</time>
      </trkpt>
      <trkpt lat="59.07016787758" lon="17.712336288577">
        <ele>15.8</ele>
        <time>2016-04-13T18:50:51Z</time>
      </trkpt>
      <trkpt lat="59.070205679949" lon="17.712627643421">
        <ele>15.8</ele>
        <time>2016-04-13T18:50:54Z</time>
      </trkpt>
      <trkpt lat="59.070223617215" lon="17.712869293598">
        <ele>15.8</ele>
        <time>2016-04-13T18:50:56Z</time>
      </trkpt>
      <trkpt lat="59.070249433467" lon="17.713454014942">
        <ele>15.8</ele>
        <time>2016-04-13T18:51:00Z</time>
      </trkpt>
      <trkpt lat="59.070252031856" lon="17.713770096391">
        <ele>15.8</ele>
        <time>2016-04-13T18:51:02Z</time>
      </trkpt>
      <trkpt lat="59.070257480091" lon="17.714070587506">
        <ele>15.8</ele>
        <time>2016-04-13T18:51:04Z</time>
      </trkpt>
      <trkpt lat="59.07023828554" lon="17.714653297194">
        <ele>15.8</ele>
        <time>2016-04-13T18:51:08Z</time>
      </trkpt>
      <trkpt lat="59.070220935007" lon="17.714798387883">
        <ele>15.8</ele>
        <time>2016-04-13T18:51:09Z</time>
      </trkpt>
      <trkpt lat="59.070113646687" lon="17.715650659475">
        <ele>15.8</ele>
        <time>2016-04-13T18:51:15Z</time>
      </trkpt>
      <trkpt lat="59.070030079144" lon="17.716339986931">
        <ele>15.8</ele>
        <time>2016-04-13T18:51:20Z</time>
      </trkpt>
      <trkpt lat="59.069999736666" lon="17.716479629385">
        <ele>15.8</ele>
        <time>2016-04-13T18:51:21Z</time>
      </trkpt>
      <trkpt lat="59.069946343963" lon="17.716739971199">
        <ele>15.8</ele>
        <time>2016-04-13T18:51:23Z</time>
      </trkpt>
      <trkpt lat="59.069896806934" lon="17.717015400433">
        <ele>15.8</ele>
        <time>2016-04-13T18:51:25Z</time>
      </trkpt>
      <trkpt lat="59.069798990161" lon="17.717552680223">
        <ele>16.2</ele>
        <time>2016-04-13T18:51:29Z</time>
      </trkpt>
      <trkpt lat="59.069780885257" lon="17.717691987401">
        <ele>16.6</ele>
        <time>2016-04-13T18:51:30Z</time>
      </trkpt>
      <trkpt lat="59.069765127285" lon="17.717829618199">
        <ele>17</ele>
        <time>2016-04-13T18:51:31Z</time>
      </trkpt>
      <trkpt lat="59.069750794236" lon="17.717978396924">
        <ele>17.4</ele>
        <time>2016-04-13T18:51:32Z</time>
      </trkpt>
      <trkpt lat="59.069744256354" lon="17.718118039378">
        <ele>17.8</ele>
        <time>2016-04-13T18:51:33Z</time>
      </trkpt>
      <trkpt lat="59.06973369516" lon="17.71842381109">
        <ele>17.8</ele>
        <time>2016-04-13T18:51:35Z</time>
      </trkpt>
      <trkpt lat="59.069747609114" lon="17.718721871454">
        <ele>17.8</ele>
        <time>2016-04-13T18:51:37Z</time>
      </trkpt>
      <trkpt lat="59.069799576894" lon="17.719026888795">
        <ele>17.8</ele>
        <time>2016-04-13T18:51:39Z</time>
      </trkpt>
      <trkpt lat="59.069917091132" lon="17.71975318043">
        <ele>17.8</ele>
        <time>2016-04-13T18:51:44Z</time>
      </trkpt>
      <trkpt lat="59.070057907052" lon="17.720621712908">
        <ele>17.8</ele>
        <time>2016-04-13T18:51:50Z</time>
      </trkpt>
      <trkpt lat="59.070082633657" lon="17.720763115561">
        <ele>17.8</ele>
        <time>2016-04-13T18:51:51Z</time>
      </trkpt>
      <trkpt lat="59.070163183716" lon="17.721342807765">
        <ele>18.2</ele>
        <time>2016-04-13T18:51:55Z</time>
      </trkpt>
      <trkpt lat="59.070177349127" lon="17.721480857658">
        <ele>18.8</ele>
        <time>2016-04-13T18:51:56Z</time>
      </trkpt>
      <trkpt lat="59.07019469966" lon="17.721614716601">
        <ele>19.2</ele>
        <time>2016-04-13T18:51:57Z</time>
      </trkpt>
      <trkpt lat="59.070210038537" lon="17.721750503381">
        <ele>19.6</ele>
        <time>2016-04-13T18:51:58Z</time>
      </trkpt>
      <trkpt lat="59.070222024654" lon="17.721894001509">
        <ele>20.2</ele>
        <time>2016-04-13T18:51:59Z</time>
      </trkpt>
      <trkpt lat="59.070263766516" lon="17.722326088454">
        <ele>20.2</ele>
        <time>2016-04-13T18:52:02Z</time>
      </trkpt>
      <trkpt lat="59.070372898854" lon="17.723174252915">
        <ele>20.2</ele>
        <time>2016-04-13T18:52:08Z</time>
      </trkpt>
      <trkpt lat="59.070522264312" lon="17.723860646706">
        <ele>20.2</ele>
        <time>2016-04-13T18:52:13Z</time>
      </trkpt>
      <trkpt lat="59.07054171032" lon="17.724002049359">
        <ele>20.2</ele>
        <time>2016-04-13T18:52:14Z</time>
      </trkpt>
      <trkpt lat="59.070591247349" lon="17.724276221308">
        <ele>20.2</ele>
        <time>2016-04-13T18:52:16Z</time>
      </trkpt>
      <trkpt lat="59.070620248723" lon="17.724411672812">
        <ele>20.6</ele>
        <time>2016-04-13T18:52:17Z</time>
      </trkpt>
      <trkpt lat="59.070648495726" lon="17.72454092171">
        <ele>21</ele>
        <time>2016-04-13T18:52:18Z</time>
      </trkpt>
      <trkpt lat="59.07067079158" lon="17.724679893612">
        <ele>21.4</ele>
        <time>2016-04-13T18:52:19Z</time>
      </trkpt>
      <trkpt lat="59.070694009443" lon="17.724808388139">
        <ele>21.8</ele>
        <time>2016-04-13T18:52:20Z</time>
      </trkpt>
      <trkpt lat="59.070716221478" lon="17.724944761652">
        <ele>22.2</ele>
        <time>2016-04-13T18:52:21Z</time>
      </trkpt>
      <trkpt lat="59.070740948083" lon="17.725081721898">
        <ele>22.2</ele>
        <time>2016-04-13T18:52:22Z</time>
      </trkpt>
      <trkpt lat="59.070836250286" lon="17.725476928483">
        <ele>22.2</ele>
        <time>2016-04-13T18:52:25Z</time>
      </trkpt>
      <trkpt lat="59.070933396507" lon="17.725706760181">
        <ele>22.2</ele>
        <time>2016-04-13T18:52:27Z</time>
      </trkpt>
      <trkpt lat="59.071092317331" lon="17.725965760891">
        <ele>22.2</ele>
        <time>2016-04-13T18:52:30Z</time>
      </trkpt>
      <trkpt lat="59.071155935952" lon="17.726020997612">
        <ele>22.2</ele>
        <time>2016-04-13T18:52:31Z</time>
      </trkpt>
      <trkpt lat="59.071459025456" lon="17.726251164586">
        <ele>22.6</ele>
        <time>2016-04-13T18:52:35Z</time>
      </trkpt>
      <trkpt lat="59.071534378737" lon="17.726298354683">
        <ele>23</ele>
        <time>2016-04-13T18:52:36Z</time>
      </trkpt>
      <trkpt lat="59.071606043982" lon="17.726339342174">
        <ele>23.4</ele>
        <time>2016-04-13T18:52:37Z</time>
      </trkpt>
      <trkpt lat="59.071675697571" lon="17.726377563638">
        <ele>24</ele>
        <time>2016-04-13T18:52:38Z</time>
      </trkpt>
      <trkpt lat="59.071750631757" lon="17.726423999364">
        <ele>24.4</ele>
        <time>2016-04-13T18:52:39Z</time>
      </trkpt>
      <trkpt lat="59.07198842626" lon="17.726582501093">
        <ele>23.8</ele>
        <time>2016-04-13T18:52:42Z</time>
      </trkpt>
      <trkpt lat="59.072065120645" lon="17.726644108058">
        <ele>23.2</ele>
        <time>2016-04-13T18:52:43Z</time>
      </trkpt>
      <trkpt lat="59.072146089799" lon="17.726715438027">
        <ele>22.6</ele>
        <time>2016-04-13T18:52:44Z</time>
      </trkpt>
      <trkpt lat="59.072229238247" lon="17.726782744684">
        <ele>22.2</ele>
        <time>2016-04-13T18:52:45Z</time>
      </trkpt>
      <trkpt lat="59.072313979256" lon="17.726856421585">
        <ele>21.6</ele>
        <time>2016-04-13T18:52:46Z</time>
      </trkpt>
      <trkpt lat="59.072474241184" lon="17.726978713506">
        <ele>21.6</ele>
        <time>2016-04-13T18:52:48Z</time>
      </trkpt>
      <trkpt lat="59.07296240304" lon="17.727262859916">
        <ele>21.6</ele>
        <time>2016-04-13T18:52:54Z</time>
      </trkpt>
      <trkpt lat="59.073402368971" lon="17.72741088427">
        <ele>21.6</ele>
        <time>2016-04-13T18:52:59Z</time>
      </trkpt>
      <trkpt lat="59.073874772855" lon="17.727628897489">
        <ele>21.6</ele>
        <time>2016-04-13T18:53:05Z</time>
      </trkpt>
      <trkpt lat="59.074274254209" lon="17.727697377612">
        <ele>22</ele>
        <time>2016-04-13T18:53:10Z</time>
      </trkpt>
      <trkpt lat="59.074355307182" lon="17.727689666264">
        <ele>22.4</ele>
        <time>2016-04-13T18:53:11Z</time>
      </trkpt>
      <trkpt lat="59.074437114526" lon="17.727683631296">
        <ele>22.8</ele>
        <time>2016-04-13T18:53:12Z</time>
      </trkpt>
      <trkpt lat="59.074520179155" lon="17.727687570789">
        <ele>23.2</ele>
        <time>2016-04-13T18:53:13Z</time>
      </trkpt>
      <trkpt lat="59.074602992327" lon="17.727695114499">
        <ele>23.6</ele>
        <time>2016-04-13T18:53:14Z</time>
      </trkpt>
      <trkpt lat="59.074767277567" lon="17.727728893556">
        <ele>23.6</ele>
        <time>2016-04-13T18:53:16Z</time>
      </trkpt>
      <trkpt lat="59.074846737979" lon="17.727768623762">
        <ele>23.6</ele>
        <time>2016-04-13T18:53:17Z</time>
      </trkpt>
      <trkpt lat="59.075302545701" lon="17.728054195095">
        <ele>23.6</ele>
        <time>2016-04-13T18:53:23Z</time>
      </trkpt>
      <trkpt lat="59.075881734991" lon="17.728410342026">
        <ele>23.6</ele>
        <time>2016-04-13T18:53:30Z</time>
      </trkpt>
      <trkpt lat="59.076061862022" lon="17.728499776899">
        <ele>23.2</ele>
        <time>2016-04-13T18:53:32Z</time>
      </trkpt>
      <trkpt lat="59.076156661311" lon="17.728545961168">
        <ele>22.8</ele>
        <time>2016-04-13T18:53:33Z</time>
      </trkpt>
      <trkpt lat="59.076250370953" lon="17.728575465456">
        <ele>22.4</ele>
        <time>2016-04-13T18:53:34Z</time>
      </trkpt>
      <trkpt lat="59.076344583509" lon="17.72860195226">
        <ele>22</ele>
        <time>2016-04-13T18:53:35Z</time>
      </trkpt>
      <trkpt lat="59.076438628427" lon="17.728619889526">
        <ele>21.6</ele>
        <time>2016-04-13T18:53:36Z</time>
      </trkpt>
      <trkpt lat="59.076532924802" lon="17.728620140983">
        <ele>21.6</ele>
        <time>2016-04-13T18:53:37Z</time>
      </trkpt>
      <trkpt lat="59.076819921058" lon="17.728579907863">
        <ele>21.6</ele>
        <time>2016-04-13T18:53:40Z</time>
      </trkpt>
      <trkpt lat="59.076919917125" lon="17.728564066072">
        <ele>21.2</ele>
        <time>2016-04-13T18:53:41Z</time>
      </trkpt>
      <trkpt lat="59.077014464957" lon="17.7285399262">
        <ele>20.6</ele>
        <time>2016-04-13T18:53:42Z</time>
      </trkpt>
      <trkpt lat="59.07711144354" lon="17.728514277586">
        <ele>20.2</ele>
        <time>2016-04-13T18:53:43Z</time>
      </trkpt>
      <trkpt lat="59.077206326648" lon="17.728491059723">
        <ele>19.8</ele>
        <time>2016-04-13T18:53:44Z</time>
      </trkpt>
      <trkpt lat="59.0772991981" lon="17.728479408882">
        <ele>19.4</ele>
        <time>2016-04-13T18:53:45Z</time>
      </trkpt>
      <trkpt lat="59.077484857185" lon="17.728460717245">
        <ele>19.4</ele>
        <time>2016-04-13T18:53:47Z</time>
      </trkpt>
      <trkpt lat="59.077928762609" lon="17.728507069152">
        <ele>19.4</ele>
        <time>2016-04-13T18:53:52Z</time>
      </trkpt>
      <trkpt lat="59.078432850075" lon="17.728556773819">
        <ele>19.8</ele>
        <time>2016-04-13T18:53:58Z</time>
      </trkpt>
      <trkpt lat="59.078514405962" lon="17.728572447972">
        <ele>20.2</ele>
        <time>2016-04-13T18:53:59Z</time>
      </trkpt>
      <trkpt lat="59.078594369288" lon="17.728580913691">
        <ele>20.6</ele>
        <time>2016-04-13T18:54:00Z</time>
      </trkpt>
      <trkpt lat="59.078671566587" lon="17.728589966143">
        <ele>21</ele>
        <time>2016-04-13T18:54:01Z</time>
      </trkpt>
      <trkpt lat="59.078754044483" lon="17.728588122125">
        <ele>21.4</ele>
        <time>2016-04-13T18:54:02Z</time>
      </trkpt>
      <trkpt lat="59.078845993926" lon="17.728580075501">
        <ele>21.4</ele>
        <time>2016-04-13T18:54:03Z</time>
      </trkpt>
      <trkpt lat="59.079296185775" lon="17.728548475738">
        <ele>21.4</ele>
        <time>2016-04-13T18:54:08Z</time>
      </trkpt>
      <trkpt lat="59.079800859974" lon="17.728507069152">
        <ele>21.4</ele>
        <time>2016-04-13T18:54:14Z</time>
      </trkpt>
      <trkpt lat="59.080394549951" lon="17.728321829162">
        <ele>21.4</ele>
        <time>2016-04-13T18:54:21Z</time>
      </trkpt>
      <trkpt lat="59.080901403444" lon="17.7280202484">
        <ele>21.4</ele>
        <time>2016-04-13T18:54:27Z</time>
      </trkpt>
      <trkpt lat="59.081233829598" lon="17.727775161644">
        <ele>21.4</ele>
        <time>2016-04-13T18:54:31Z</time>
      </trkpt>
      <trkpt lat="59.081315050209" lon="17.727733671239">
        <ele>21.4</ele>
        <time>2016-04-13T18:54:32Z</time>
      </trkpt>
      <trkpt lat="59.081631299296" lon="17.727531918906">
        <ele>22</ele>
        <time>2016-04-13T18:54:36Z</time>
      </trkpt>
      <trkpt lat="59.081711094984" lon="17.727476011633">
        <ele>22.4</ele>
        <time>2016-04-13T18:54:37Z</time>
      </trkpt>
      <trkpt lat="59.081789801025" lon="17.727423708577">
        <ele>22.8</ele>
        <time>2016-04-13T18:54:38Z</time>
      </trkpt>
      <trkpt lat="59.081866663048" lon="17.727366795476">
        <ele>23.8</ele>
        <time>2016-04-13T18:54:39Z</time>
      </trkpt>
      <trkpt lat="59.08223446082" lon="17.727040739566">
        <ele>23.8</ele>
        <time>2016-04-13T18:54:44Z</time>
      </trkpt>
      <trkpt lat="59.082299504364" lon="17.726971337434">
        <ele>24.2</ele>
        <time>2016-04-13T18:54:45Z</time>
      </trkpt>
      <trkpt lat="59.082364967003" lon="17.726895648877">
        <ele>24.6</ele>
        <time>2016-04-13T18:54:46Z</time>
      </trkpt>
      <trkpt lat="59.082426993063" lon="17.726823229261">
        <ele>25</ele>
        <time>2016-04-13T18:54:47Z</time>
      </trkpt>
      <trkpt lat="59.08249262334" lon="17.726747205428">
        <ele>25.6</ele>
        <time>2016-04-13T18:54:48Z</time>
      </trkpt>
      <trkpt lat="59.0825546494" lon="17.726678892943">
        <ele>26</ele>
        <time>2016-04-13T18:54:49Z</time>
      </trkpt>
      <trkpt lat="59.082668224145" lon="17.726527012915">
        <ele>26</ele>
        <time>2016-04-13T18:54:51Z</time>
      </trkpt>
      <trkpt lat="59.082716922984" lon="17.726439505879">
        <ele>26</ele>
        <time>2016-04-13T18:54:52Z</time>
      </trkpt>
      <trkpt lat="59.082898223481" lon="17.726076904885">
        <ele>26.4</ele>
        <time>2016-04-13T18:54:56Z</time>
      </trkpt>
      <trkpt lat="59.08294189318" lon="17.725986380365">
        <ele>26.8</ele>
        <time>2016-04-13T18:54:57Z</time>
      </trkpt>
      <trkpt lat="59.082986233431" lon="17.725898118958">
        <ele>27.4</ele>
        <time>2016-04-13T18:54:58Z</time>
      </trkpt>
      <trkpt lat="59.083024203438" lon="17.725813797044">
        <ele>27.8</ele>
        <time>2016-04-13T18:54:59Z</time>
      </trkpt>
      <trkpt lat="59.083071980268" lon="17.725737773211">
        <ele>28.2</ele>
        <time>2016-04-13T18:55:00Z</time>
      </trkpt>
      <trkpt lat="59.083129899197" lon="17.725675747151">
        <ele>28.2</ele>
        <time>2016-04-13T18:55:01Z</time>
      </trkpt>
      <trkpt lat="59.083187985764" lon="17.725617828222">
        <ele>28.2</ele>
        <time>2016-04-13T18:55:02Z</time>
      </trkpt>
      <trkpt lat="59.083421421679" lon="17.725488579324">
        <ele>28.6</ele>
        <time>2016-04-13T18:55:06Z</time>
      </trkpt>
      <trkpt lat="59.083476490762" lon="17.725473240447">
        <ele>29.2</ele>
        <time>2016-04-13T18:55:07Z</time>
      </trkpt>
      <trkpt lat="59.083530470198" lon="17.725464104176">
        <ele>29.6</ele>
        <time>2016-04-13T18:55:08Z</time>
      </trkpt>
      <trkpt lat="59.083579420494" lon="17.725464020357">
        <ele>30</ele>
        <time>2016-04-13T18:55:09Z</time>
      </trkpt>
      <trkpt lat="59.08363004717" lon="17.72546544528">
        <ele>30.6</ele>
        <time>2016-04-13T18:55:10Z</time>
      </trkpt>
      <trkpt lat="59.083712608885" lon="17.72545706338">
        <ele>31</ele>
        <time>2016-04-13T18:55:12Z</time>
      </trkpt>
      <trkpt lat="59.083753009643" lon="17.725445161082">
        <ele>31.4</ele>
        <time>2016-04-13T18:55:13Z</time>
      </trkpt>
      <trkpt lat="59.083789470908" lon="17.725435354259">
        <ele>31.8</ele>
        <time>2016-04-13T18:55:14Z</time>
      </trkpt>
      <trkpt lat="59.083827105639" lon="17.725430408938">
        <ele>32.4</ele>
        <time>2016-04-13T18:55:15Z</time>
      </trkpt>
      <trkpt lat="59.083865997655" lon="17.72542018302">
        <ele>32.8</ele>
        <time>2016-04-13T18:55:16Z</time>
      </trkpt>
      <trkpt lat="59.083906817508" lon="17.72541180112">
        <ele>33.2</ele>
        <time>2016-04-13T18:55:17Z</time>
      </trkpt>
      <trkpt lat="59.083948643189" lon="17.725395372596">
        <ele>33.8</ele>
        <time>2016-04-13T18:55:18Z</time>
      </trkpt>
      <trkpt lat="59.083988121938" lon="17.72538162628">
        <ele>34.2</ele>
        <time>2016-04-13T18:55:19Z</time>
      </trkpt>
      <trkpt lat="59.084027768325" lon="17.725372322371">
        <ele>34.8</ele>
        <time>2016-04-13T18:55:20Z</time>
      </trkpt>
      <trkpt lat="59.084070348377" lon="17.725369723982">
        <ele>35.2</ele>
        <time>2016-04-13T18:55:21Z</time>
      </trkpt>
      <trkpt lat="59.084202363302" lon="17.725332843622">
        <ele>35.6</ele>
        <time>2016-04-13T18:55:24Z</time>
      </trkpt>
      <trkpt lat="59.084251062141" lon="17.725326054283">
        <ele>36</ele>
        <time>2016-04-13T18:55:25Z</time>
      </trkpt>
      <trkpt lat="59.084298252238" lon="17.725324126446">
        <ele>36.4</ele>
        <time>2016-04-13T18:55:26Z</time>
      </trkpt>
      <trkpt lat="59.084340999928" lon="17.725325132274">
        <ele>36.8</ele>
        <time>2016-04-13T18:55:27Z</time>
      </trkpt>
      <trkpt lat="59.084380311039" lon="17.725332005432">
        <ele>37.2</ele>
        <time>2016-04-13T18:55:28Z</time>
      </trkpt>
      <trkpt lat="59.08441962215" lon="17.725339800599">
        <ele>37.8</ele>
        <time>2016-04-13T18:55:29Z</time>
      </trkpt>
      <trkpt lat="59.084459100899" lon="17.725350445612">
        <ele>38.2</ele>
        <time>2016-04-13T18:55:30Z</time>
      </trkpt>
      <trkpt lat="59.08449757382" lon="17.725375256036">
        <ele>38.6</ele>
        <time>2016-04-13T18:55:31Z</time>
      </trkpt>
      <trkpt lat="59.084537387845" lon="17.725389337628">
        <ele>39</ele>
        <time>2016-04-13T18:55:32Z</time>
      </trkpt>
      <trkpt lat="59.084573094739" lon="17.72540761017">
        <ele>39.4</ele>
        <time>2016-04-13T18:55:33Z</time>
      </trkpt>
      <trkpt lat="59.084718101609" lon="17.725513808843">
        <ele>40</ele>
        <time>2016-04-13T18:55:37Z</time>
      </trkpt>
      <trkpt lat="59.084751293933" lon="17.72555345523">
        <ele>40.4</ele>
        <time>2016-04-13T18:55:38Z</time>
      </trkpt>
      <trkpt lat="59.084784737714" lon="17.725594442721">
        <ele>41</ele>
        <time>2016-04-13T18:55:39Z</time>
      </trkpt>
      <trkpt lat="59.084817594762" lon="17.725638699153">
        <ele>41.4</ele>
        <time>2016-04-13T18:55:40Z</time>
      </trkpt>
      <trkpt lat="59.084850284172" lon="17.725683877594">
        <ele>41.8</ele>
        <time>2016-04-13T18:55:41Z</time>
      </trkpt>
      <trkpt lat="59.084911304404" lon="17.725774905028">
        <ele>41.8</ele>
        <time>2016-04-13T18:55:43Z</time>
      </trkpt>
      <trkpt lat="59.084970564437" lon="17.72586190915">
        <ele>42.4</ele>
        <time>2016-04-13T18:55:45Z</time>
      </trkpt>
      <trkpt lat="59.084996967422" lon="17.725907339048">
        <ele>42.8</ele>
        <time>2016-04-13T18:55:46Z</time>
      </trkpt>
      <trkpt lat="59.085031417031" lon="17.725947153073">
        <ele>43.4</ele>
        <time>2016-04-13T18:55:47Z</time>
      </trkpt>
      <trkpt lat="59.085062262423" lon="17.725985793632">
        <ele>44</ele>
        <time>2016-04-13T18:55:48Z</time>
      </trkpt>
      <trkpt lat="59.085096963489" lon="17.726029882426">
        <ele>44.4</ele>
        <time>2016-04-13T18:55:49Z</time>
      </trkpt>
      <trkpt lat="59.085160665929" lon="17.72612007167">
        <ele>44.4</ele>
        <time>2016-04-13T18:55:51Z</time>
      </trkpt>
      <trkpt lat="59.085209951501" lon="17.726205147955">
        <ele>44.4</ele>
        <time>2016-04-13T18:55:53Z</time>
      </trkpt>
      <trkpt lat="59.085241635083" lon="17.726244794342">
        <ele>44.8</ele>
        <time>2016-04-13T18:55:54Z</time>
      </trkpt>
      <trkpt lat="59.085279437452" lon="17.726283937815">
        <ele>45.2</ele>
        <time>2016-04-13T18:55:55Z</time>
      </trkpt>
      <trkpt lat="59.085312965052" lon="17.726320063804">
        <ele>45.6</ele>
        <time>2016-04-13T18:55:56Z</time>
      </trkpt>
      <trkpt lat="59.085348755765" lon="17.726360548381">
        <ele>46</ele>
        <time>2016-04-13T18:55:57Z</time>
      </trkpt>
      <trkpt lat="59.085384295021" lon="17.726378988561">
        <ele>46.4</ele>
        <time>2016-04-13T18:55:58Z</time>
      </trkpt>
      <trkpt lat="59.085489655504" lon="17.726457107869">
        <ele>46.4</ele>
        <time>2016-04-13T18:56:01Z</time>
      </trkpt>
      <trkpt lat="59.085682942118" lon="17.726595409219">
        <ele>46.4</ele>
        <time>2016-04-13T18:56:05Z</time>
      </trkpt>
      <trkpt lat="59.085776484122" lon="17.726647041723">
        <ele>46.4</ele>
        <time>2016-04-13T18:56:07Z</time>
      </trkpt>
      <trkpt lat="59.085888298668" lon="17.726725412488">
        <ele>46.4</ele>
        <time>2016-04-13T18:56:09Z</time>
      </trkpt>
      <trkpt lat="59.086009920037" lon="17.726823983632">
        <ele>46.4</ele>
        <time>2016-04-13T18:56:11Z</time>
      </trkpt>
      <trkpt lat="59.086143946618" lon="17.726951807607">
        <ele>46.4</ele>
        <time>2016-04-13T18:56:13Z</time>
      </trkpt>
      <trkpt lat="59.08628291852" lon="17.727138388701">
        <ele>46</ele>
        <time>2016-04-13T18:56:15Z</time>
      </trkpt>
      <trkpt lat="59.086361456923" lon="17.72723654075">
        <ele>45.6</ele>
        <time>2016-04-13T18:56:16Z</time>
      </trkpt>
      <trkpt lat="59.086430691417" lon="17.727336620636">
        <ele>44.6</ele>
        <time>2016-04-13T18:56:17Z</time>
      </trkpt>
      <trkpt lat="59.086505374146" lon="17.727443406042">
        <ele>44</ele>
        <time>2016-04-13T18:56:18Z</time>
      </trkpt>
      <trkpt lat="59.086589947517" lon="17.727531080716">
        <ele>43.4</ele>
        <time>2016-04-13T18:56:19Z</time>
      </trkpt>
      <trkpt lat="59.08667770601" lon="17.727594699337">
        <ele>42.8</ele>
        <time>2016-04-13T18:56:20Z</time>
      </trkpt>
      <trkpt lat="59.086763033752" lon="17.727652199171">
        <ele>42.2</ele>
        <time>2016-04-13T18:56:21Z</time>
      </trkpt>
      <trkpt lat="59.086853977367" lon="17.7276849724">
        <ele>42.2</ele>
        <time>2016-04-13T18:56:22Z</time>
      </trkpt>
      <trkpt lat="59.087036870425" lon="17.727709866643">
        <ele>42.2</ele>
        <time>2016-04-13T18:56:24Z</time>
      </trkpt>
      <trkpt lat="59.087130160972" lon="17.727713638498">
        <ele>41.6</ele>
        <time>2016-04-13T18:56:25Z</time>
      </trkpt>
      <trkpt lat="59.087225630813" lon="17.727719924923">
        <ele>41.2</ele>
        <time>2016-04-13T18:56:26Z</time>
      </trkpt>
      <trkpt lat="59.087316825885" lon="17.727725624615">
        <ele>40.6</ele>
        <time>2016-04-13T18:56:27Z</time>
      </trkpt>
      <trkpt lat="59.087408942966" lon="17.727731408126">
        <ele>40.2</ele>
        <time>2016-04-13T18:56:28Z</time>
      </trkpt>
      <trkpt lat="59.087503658436" lon="17.727739203293">
        <ele>39.6</ele>
        <time>2016-04-13T18:56:29Z</time>
      </trkpt>
      <trkpt lat="59.08777908767" lon="17.727743813338">
        <ele>39.6</ele>
        <time>2016-04-13T18:56:32Z</time>
      </trkpt>
      <trkpt lat="59.088153842419" lon="17.727775832196">
        <ele>39.6</ele>
        <time>2016-04-13T18:56:36Z</time>
      </trkpt>
      <trkpt lat="59.088242187645" lon="17.727822770836">
        <ele>39.6</ele>
        <time>2016-04-13T18:56:37Z</time>
      </trkpt>
      <trkpt lat="59.088765134386" lon="17.728171876971">
        <ele>39.6</ele>
        <time>2016-04-13T18:56:43Z</time>
      </trkpt>
      <trkpt lat="59.089307694773" lon="17.728501453279">
        <ele>39.6</ele>
        <time>2016-04-13T18:56:49Z</time>
      </trkpt>
      <trkpt lat="59.089405092451" lon="17.728562305873">
        <ele>39.2</ele>
        <time>2016-04-13T18:56:50Z</time>
      </trkpt>
      <trkpt lat="59.089507016355" lon="17.728611088531">
        <ele>38.6</ele>
        <time>2016-04-13T18:56:51Z</time>
      </trkpt>
      <trkpt lat="59.089598462884" lon="17.728675377704">
        <ele>38.2</ele>
        <time>2016-04-13T18:56:52Z</time>
      </trkpt>
      <trkpt lat="59.089692088707" lon="17.728742851999">
        <ele>37.8</ele>
        <time>2016-04-13T18:56:53Z</time>
      </trkpt>
      <trkpt lat="59.089785463073" lon="17.728812757045">
        <ele>37.4</ele>
        <time>2016-04-13T18:56:54Z</time>
      </trkpt>
      <trkpt lat="59.090249317419" lon="17.729226739086">
        <ele>37.4</ele>
        <time>2016-04-13T18:56:59Z</time>
      </trkpt>
      <trkpt lat="59.090637231751" lon="17.729441986278">
        <ele>37.4</ele>
        <time>2016-04-13T18:57:03Z</time>
      </trkpt>
      <trkpt lat="59.090957420331" lon="17.729483392864">
        <ele>36.8</ele>
        <time>2016-04-13T18:57:06Z</time>
      </trkpt>
      <trkpt lat="59.091065882117" lon="17.729493367325">
        <ele>36</ele>
        <time>2016-04-13T18:57:07Z</time>
      </trkpt>
      <trkpt lat="59.091174930636" lon="17.729498647922">
        <ele>35.4</ele>
        <time>2016-04-13T18:57:08Z</time>
      </trkpt>
      <trkpt lat="59.091282470413" lon="17.729507029822">
        <ele>35</ele>
        <time>2016-04-13T18:57:09Z</time>
      </trkpt>
      <trkpt lat="59.091391938027" lon="17.729520105586">
        <ele>34.6</ele>
        <time>2016-04-13T18:57:10Z</time>
      </trkpt>
      <trkpt lat="59.091501405641" lon="17.729539383956">
        <ele>34</ele>
        <time>2016-04-13T18:57:11Z</time>
      </trkpt>
      <trkpt lat="59.091618668422" lon="17.729572492461">
        <ele>33.6</ele>
        <time>2016-04-13T18:57:12Z</time>
      </trkpt>
      <trkpt lat="59.091726878751" lon="17.729619263463">
        <ele>33</ele>
        <time>2016-04-13T18:57:13Z</time>
      </trkpt>
      <trkpt lat="59.091837016917" lon="17.729682630627">
        <ele>32.4</ele>
        <time>2016-04-13T18:57:14Z</time>
      </trkpt>
      <trkpt lat="59.091947155083" lon="17.729757564813">
        <ele>31.8</ele>
        <time>2016-04-13T18:57:15Z</time>
      </trkpt>
      <trkpt lat="59.092050336272" lon="17.729846832048">
        <ele>31.2</ele>
        <time>2016-04-13T18:57:16Z</time>
      </trkpt>
      <trkpt lat="59.092155026203" lon="17.729933333256">
        <ele>30.6</ele>
        <time>2016-04-13T18:57:17Z</time>
      </trkpt>
      <trkpt lat="59.092260470505" lon="17.730023773957">
        <ele>30.6</ele>
        <time>2016-04-13T18:57:18Z</time>
      </trkpt>
      <trkpt lat="59.092470520919" lon="17.730212282888">
        <ele>30.2</ele>
        <time>2016-04-13T18:57:20Z</time>
      </trkpt>
      <trkpt lat="59.092570014072" lon="17.730298616458">
        <ele>29.8</ele>
        <time>2016-04-13T18:57:21Z</time>
      </trkpt>
      <trkpt lat="59.092667327931" lon="17.730372796273">
        <ele>29.4</ele>
        <time>2016-04-13T18:57:22Z</time>
      </trkpt>
      <trkpt lat="59.092767240179" lon="17.730430631383">
        <ele>29</ele>
        <time>2016-04-13T18:57:23Z</time>
      </trkpt>
      <trkpt lat="59.092867571522" lon="17.730458794567">
        <ele>28.6</ele>
        <time>2016-04-13T18:57:24Z</time>
      </trkpt>
      <trkpt lat="59.093054739349" lon="17.730354859007">
        <ele>28.6</ele>
        <time>2016-04-13T18:57:26Z</time>
      </trkpt>
      <trkpt lat="59.093182563324" lon="17.730090074786">
        <ele>28.6</ele>
        <time>2016-04-13T18:57:28Z</time>
      </trkpt>
      <trkpt lat="59.093333269886" lon="17.729584227121">
        <ele>29.4</ele>
        <time>2016-04-13T18:57:31Z</time>
      </trkpt>
      <trkpt lat="59.093382723096" lon="17.729409799782">
        <ele>29.8</ele>
        <time>2016-04-13T18:57:32Z</time>
      </trkpt>
      <trkpt lat="59.093434020324" lon="17.729230343303">
        <ele>30.2</ele>
        <time>2016-04-13T18:57:33Z</time>
      </trkpt>
      <trkpt lat="59.093487915941" lon="17.729041666734">
        <ele>30.6</ele>
        <time>2016-04-13T18:57:34Z</time>
      </trkpt>
      <trkpt lat="59.093541727739" lon="17.728862964626">
        <ele>30.2</ele>
        <time>2016-04-13T18:57:35Z</time>
      </trkpt>
      <trkpt lat="59.093602747971" lon="17.72869415316">
        <ele>29.6</ele>
        <time>2016-04-13T18:57:36Z</time>
      </trkpt>
      <trkpt lat="59.093663684384" lon="17.728531628119">
        <ele>29.2</ele>
        <time>2016-04-13T18:57:37Z</time>
      </trkpt>
      <trkpt lat="59.093720513666" lon="17.728363151929">
        <ele>28.8</ele>
        <time>2016-04-13T18:57:38Z</time>
      </trkpt>
      <trkpt lat="59.093759238044" lon="17.72818285726">
        <ele>28.4</ele>
        <time>2016-04-13T18:57:39Z</time>
      </trkpt>
      <trkpt lat="59.093775582749" lon="17.727776251291">
        <ele>28</ele>
        <time>2016-04-13T18:57:41Z</time>
      </trkpt>
      <trkpt lat="59.093781198622" lon="17.727552873656">
        <ele>27.6</ele>
        <time>2016-04-13T18:57:42Z</time>
      </trkpt>
      <trkpt lat="59.093798465336" lon="17.72733209441">
        <ele>27.2</ele>
        <time>2016-04-13T18:57:43Z</time>
      </trkpt>
      <trkpt lat="59.093843140863" lon="17.727123888014">
        <ele>26.4</ele>
        <time>2016-04-13T18:57:44Z</time>
      </trkpt>
      <trkpt lat="59.09390793295" lon="17.726951472331">
        <ele>25.8</ele>
        <time>2016-04-13T18:57:45Z</time>
      </trkpt>
      <trkpt lat="59.094000720583" lon="17.726819457406">
        <ele>25.2</ele>
        <time>2016-04-13T18:57:46Z</time>
      </trkpt>
      <trkpt lat="59.094104488505" lon="17.726713845466">
        <ele>24.4</ele>
        <time>2016-04-13T18:57:47Z</time>
      </trkpt>
      <trkpt lat="59.094215129585" lon="17.726634552692">
        <ele>23.6</ele>
        <time>2016-04-13T18:57:48Z</time>
      </trkpt>
      <trkpt lat="59.094339433162" lon="17.726592224097">
        <ele>22.6</ele>
        <time>2016-04-13T18:57:49Z</time>
      </trkpt>
      <trkpt lat="59.094462395635" lon="17.726616866883">
        <ele>21.8</ele>
        <time>2016-04-13T18:57:50Z</time>
      </trkpt>
      <trkpt lat="59.094575216009" lon="17.726696159657">
        <ele>20.6</ele>
        <time>2016-04-13T18:57:51Z</time>
      </trkpt>
      <trkpt lat="59.094666913995" lon="17.726826833478">
        <ele>19.6</ele>
        <time>2016-04-13T18:57:52Z</time>
      </trkpt>
      <trkpt lat="59.094730532616" lon="17.726993298012">
        <ele>18.6</ele>
        <time>2016-04-13T18:57:53Z</time>
      </trkpt>
      <trkpt lat="59.094778560903" lon="17.727185578798">
        <ele>17.4</ele>
        <time>2016-04-13T18:57:54Z</time>
      </trkpt>
      <trkpt lat="59.094805382983" lon="17.727392276452">
        <ele>16.4</ele>
        <time>2016-04-13T18:57:55Z</time>
      </trkpt>
      <trkpt lat="59.094791133753" lon="17.727835762781">
        <ele>16.4</ele>
        <time>2016-04-13T18:57:57Z</time>
      </trkpt>
      <trkpt lat="59.094776130152" lon="17.728043130987">
        <ele>16.4</ele>
        <time>2016-04-13T18:57:58Z</time>
      </trkpt>
      <trkpt lat="59.094758779619" lon="17.728835723451">
        <ele>16.4</ele>
        <time>2016-04-13T18:58:02Z</time>
      </trkpt>
      <trkpt lat="59.094850477605" lon="17.729376942734">
        <ele>16.4</ele>
        <time>2016-04-13T18:58:05Z</time>
      </trkpt>
      <trkpt lat="59.095092798334" lon="17.729755636976">
        <ele>15.8</ele>
        <time>2016-04-13T18:58:08Z</time>
      </trkpt>
      <trkpt lat="59.095198494093" lon="17.729825122927">
        <ele>15.2</ele>
        <time>2016-04-13T18:58:09Z</time>
      </trkpt>
      <trkpt lat="59.095310308639" lon="17.729854711034">
        <ele>14.6</ele>
        <time>2016-04-13T18:58:10Z</time>
      </trkpt>
      <trkpt lat="59.09542505685" lon="17.729861500373">
        <ele>14</ele>
        <time>2016-04-13T18:58:11Z</time>
      </trkpt>
      <trkpt lat="59.095538799233" lon="17.729856638871">
        <ele>13.4</ele>
        <time>2016-04-13T18:58:12Z</time>
      </trkpt>
      <trkpt lat="59.095650278503" lon="17.729840713261">
        <ele>13.4</ele>
        <time>2016-04-13T18:58:13Z</time>
      </trkpt>
      <trkpt lat="59.095856892338" lon="17.729798300847">
        <ele>13.4</ele>
        <time>2016-04-13T18:58:15Z</time>
      </trkpt>
      <trkpt lat="59.096486540666" lon="17.729573330651">
        <ele>13.4</ele>
        <time>2016-04-13T18:58:21Z</time>
      </trkpt>
      <trkpt lat="59.096588213113" lon="17.729490685117">
        <ele>13</ele>
        <time>2016-04-13T18:58:22Z</time>
      </trkpt>
      <trkpt lat="59.09668904737" lon="17.729403178081">
        <ele>12.6</ele>
        <time>2016-04-13T18:58:23Z</time>
      </trkpt>
      <trkpt lat="59.096787786152" lon="17.729311731552">
        <ele>12</ele>
        <time>2016-04-13T18:58:24Z</time>
      </trkpt>
      <trkpt lat="59.09688937478" lon="17.729223302507">
        <ele>11.4</ele>
        <time>2016-04-13T18:58:25Z</time>
      </trkpt>
      <trkpt lat="59.096986185725" lon="17.729151134348">
        <ele>10.6</ele>
        <time>2016-04-13T18:58:26Z</time>
      </trkpt>
      <trkpt lat="59.097092552036" lon="17.729085001157">
        <ele>10</ele>
        <time>2016-04-13T18:58:27Z</time>
      </trkpt>
      <trkpt lat="59.097192464284" lon="17.729019538518">
        <ele>10.2</ele>
        <time>2016-04-13T18:58:28Z</time>
      </trkpt>
      <trkpt lat="59.097289275229" lon="17.728951561309">
        <ele>10.4</ele>
        <time>2016-04-13T18:58:29Z</time>
      </trkpt>
      <trkpt lat="59.097384996527" lon="17.728880315159">
        <ele>10.6</ele>
        <time>2016-04-13T18:58:30Z</time>
      </trkpt>
      <trkpt lat="59.09747778416" lon="17.728818540556">
        <ele>10.8</ele>
        <time>2016-04-13T18:58:31Z</time>
      </trkpt>
      <trkpt lat="59.097572415811" lon="17.728761878912">
        <ele>11</ele>
        <time>2016-04-13T18:58:32Z</time>
      </trkpt>
      <trkpt lat="59.097946835284" lon="17.728529951739">
        <ele>11</ele>
        <time>2016-04-13T18:58:36Z</time>
      </trkpt>
      <trkpt lat="59.098543710383" lon="17.728177911939">
        <ele>11</ele>
        <time>2016-04-13T18:58:42Z</time>
      </trkpt>
      <trkpt lat="59.098657536585" lon="17.728141283036">
        <ele>10.4</ele>
        <time>2016-04-13T18:58:43Z</time>
      </trkpt>
      <trkpt lat="59.098777733031" lon="17.728133068774">
        <ele>9.8</ele>
        <time>2016-04-13T18:58:44Z</time>
      </trkpt>
      <trkpt lat="59.098903629169" lon="17.728138684647">
        <ele>9</ele>
        <time>2016-04-13T18:58:45Z</time>
      </trkpt>
      <trkpt lat="59.099034805904" lon="17.728169278582">
        <ele>7.2</ele>
        <time>2016-04-13T18:58:46Z</time>
      </trkpt>
      <trkpt lat="59.099166485553" lon="17.728220156715">
        <ele>6</ele>
        <time>2016-04-13T18:58:47Z</time>
      </trkpt>
      <trkpt lat="59.099298584297" lon="17.728269023192">
        <ele>4.6</ele>
        <time>2016-04-13T18:58:48Z</time>
      </trkpt>
      <trkpt lat="59.09943160505" lon="17.728312441434">
        <ele>3.4</ele>
        <time>2016-04-13T18:58:49Z</time>
      </trkpt>
      <trkpt lat="59.099564374346" lon="17.728342029541">
        <ele>2</ele>
        <time>2016-04-13T18:58:50Z</time>
      </trkpt>
      <trkpt lat="59.099706866646" lon="17.728343454464">
        <ele>0.6</ele>
        <time>2016-04-13T18:58:51Z</time>
      </trkpt>
      <trkpt lat="59.099838713933" lon="17.728336916582">
        <ele>0</ele>
        <time>2016-04-13T18:58:52Z</time>
      </trkpt>
      <trkpt lat="59.099970142125" lon="17.728337251858">
        <ele>0</ele>
        <time>2016-04-13T18:58:53Z</time>
      </trkpt>
      <trkpt lat="59.100098888109" lon="17.728332222718">
        <ele>0</ele>
        <time>2016-04-13T18:58:54Z</time>
      </trkpt>
      <trkpt lat="59.100228220826" lon="17.728324259913">
        <ele>0</ele>
        <time>2016-04-13T18:58:55Z</time>
      </trkpt>
      <trkpt lat="59.100353781688" lon="17.728320236601">
        <ele>0</ele>
        <time>2016-04-13T18:58:56Z</time>
      </trkpt>
      <trkpt lat="59.100477163256" lon="17.728323170266">
        <ele>0</ele>
        <time>2016-04-13T18:58:57Z</time>
      </trkpt>
      <trkpt lat="59.100841692087" lon="17.728356949323">
        <ele>0</ele>
        <time>2016-04-13T18:59:00Z</time>
      </trkpt>
      <trkpt lat="59.101432113123" lon="17.728489802438">
        <ele>0</ele>
        <time>2016-04-13T18:59:05Z</time>
      </trkpt>
      <trkpt lat="59.101670159083" lon="17.728549565385">
        <ele>0</ele>
        <time>2016-04-13T18:59:07Z</time>
      </trkpt>
      <trkpt lat="59.102131163583" lon="17.728681328853">
        <ele>0</ele>
        <time>2016-04-13T18:59:11Z</time>
      </trkpt>
      <trkpt lat="59.10224624707" lon="17.728724328">
        <ele>0</ele>
        <time>2016-04-13T18:59:12Z</time>
      </trkpt>
      <trkpt lat="59.10236694643" lon="17.728777469246">
        <ele>0</ele>
        <time>2016-04-13T18:59:13Z</time>
      </trkpt>
      <trkpt lat="59.102482113736" lon="17.728830945768">
        <ele>0</ele>
        <time>2016-04-13T18:59:14Z</time>
      </trkpt>
      <trkpt lat="59.102597029585" lon="17.728897414235">
        <ele>0</ele>
        <time>2016-04-13T18:59:15Z</time>
      </trkpt>
      <trkpt lat="59.102927611721" lon="17.729119618404">
        <ele>0</ele>
        <time>2016-04-13T18:59:18Z</time>
      </trkpt>
      <trkpt lat="59.10344737334" lon="17.729461516105">
        <ele>0</ele>
        <time>2016-04-13T18:59:23Z</time>
      </trkpt>
      <trkpt lat="59.103648119845" lon="17.729585819682">
        <ele>0</ele>
        <time>2016-04-13T18:59:25Z</time>
      </trkpt>
      <trkpt lat="59.104182214513" lon="17.72992210151">
        <ele>0</ele>
        <time>2016-04-13T18:59:31Z</time>
      </trkpt>
      <trkpt lat="59.104343985183" lon="17.730012877487">
        <ele>0</ele>
        <time>2016-04-13T18:59:33Z</time>
      </trkpt>
      <trkpt lat="59.104416488618" lon="17.730060738136">
        <ele>0</ele>
        <time>2016-04-13T18:59:34Z</time>
      </trkpt>
      <trkpt lat="59.10448924351" lon="17.730111280993">
        <ele>0</ele>
        <time>2016-04-13T18:59:35Z</time>
      </trkpt>
      <trkpt lat="59.104565602619" lon="17.730170624845">
        <ele>0</ele>
        <time>2016-04-13T18:59:36Z</time>
      </trkpt>
      <trkpt lat="59.104636932588" lon="17.730229633421">
        <ele>0</ele>
        <time>2016-04-13T18:59:37Z</time>
      </trkpt>
      <trkpt lat="59.105051752819" lon="17.73067982527">
        <ele>0</ele>
        <time>2016-04-13T18:59:43Z</time>
      </trkpt>
      <trkpt lat="59.105116377268" lon="17.730752831619">
        <ele>0</ele>
        <time>2016-04-13T18:59:44Z</time>
      </trkpt>
      <trkpt lat="59.105186030857" lon="17.73083489042">
        <ele>0</ele>
        <time>2016-04-13T18:59:45Z</time>
      </trkpt>
      <trkpt lat="59.105251493496" lon="17.730906723303">
        <ele>0</ele>
        <time>2016-04-13T18:59:46Z</time>
      </trkpt>
      <trkpt lat="59.105315531212" lon="17.730976376892">
        <ele>0</ele>
        <time>2016-04-13T18:59:47Z</time>
      </trkpt>
      <trkpt lat="59.105378060186" lon="17.73104443792">
        <ele>0</ele>
        <time>2016-04-13T18:59:48Z</time>
      </trkpt>
      <trkpt lat="59.105541674874" lon="17.731268653745">
        <ele>0</ele>
        <time>2016-04-13T18:59:51Z</time>
      </trkpt>
      <trkpt lat="59.10559816888" lon="17.731333026737">
        <ele>0</ele>
        <time>2016-04-13T18:59:52Z</time>
      </trkpt>
      <trkpt lat="59.105653908515" lon="17.731396561539">
        <ele>0</ele>
        <time>2016-04-13T18:59:53Z</time>
      </trkpt>
      <trkpt lat="59.105711659806" lon="17.731464538748">
        <ele>0</ele>
        <time>2016-04-13T18:59:54Z</time>
      </trkpt>
      <trkpt lat="59.105766393613" lon="17.731529247016">
        <ele>0</ele>
        <time>2016-04-13T18:59:55Z</time>
      </trkpt>
      <trkpt lat="59.105874855399" lon="17.731676349361">
        <ele>0</ele>
        <time>2016-04-13T18:59:57Z</time>
      </trkpt>
      <trkpt lat="59.105934953622" lon="17.731746422045">
        <ele>0</ele>
        <time>2016-04-13T18:59:58Z</time>
      </trkpt>
      <trkpt lat="59.105988597782" lon="17.731807777553">
        <ele>0</ele>
        <time>2016-04-13T18:59:59Z</time>
      </trkpt>
      <trkpt lat="59.106043080132" lon="17.731865361206">
        <ele>0.6</ele>
        <time>2016-04-13T19:00:00Z</time>
      </trkpt>
      <trkpt lat="59.10610108288" lon="17.731945995084">
        <ele>1</ele>
        <time>2016-04-13T19:00:01Z</time>
      </trkpt>
      <trkpt lat="59.106148608253" lon="17.732019504347">
        <ele>1</ele>
        <time>2016-04-13T19:00:02Z</time>
      </trkpt>
      <trkpt lat="59.106569714909" lon="17.732649152675">
        <ele>1</ele>
        <time>2016-04-13T19:00:10Z</time>
      </trkpt>
      <trkpt lat="59.106781860798" lon="17.732953080369">
        <ele>1.4</ele>
        <time>2016-04-13T19:00:14Z</time>
      </trkpt>
      <trkpt lat="59.106832319836" lon="17.7330242427">
        <ele>1.8</ele>
        <time>2016-04-13T19:00:15Z</time>
      </trkpt>
      <trkpt lat="59.10688311415" lon="17.73309381247">
        <ele>2.4</ele>
        <time>2016-04-13T19:00:16Z</time>
      </trkpt>
      <trkpt lat="59.106933489369" lon="17.733167824647">
        <ele>2.8</ele>
        <time>2016-04-13T19:00:17Z</time>
      </trkpt>
      <trkpt lat="59.106983194036" lon="17.733240411901">
        <ele>3.2</ele>
        <time>2016-04-13T19:00:18Z</time>
      </trkpt>
      <trkpt lat="59.10718653893" lon="17.73353889136">
        <ele>3.6</ele>
        <time>2016-04-13T19:00:22Z</time>
      </trkpt>
      <trkpt lat="59.107235237769" lon="17.733608628768">
        <ele>4</ele>
        <time>2016-04-13T19:00:23Z</time>
      </trkpt>
      <trkpt lat="59.107281841133" lon="17.733682389488">
        <ele>4.6</ele>
        <time>2016-04-13T19:00:24Z</time>
      </trkpt>
      <trkpt lat="59.107329198868" lon="17.733749696145">
        <ele>5.4</ele>
        <time>2016-04-13T19:00:25Z</time>
      </trkpt>
      <trkpt lat="59.107422405596" lon="17.733878777405">
        <ele>5.4</ele>
        <time>2016-04-13T19:00:27Z</time>
      </trkpt>
      <trkpt lat="59.107470517702" lon="17.733949688279">
        <ele>6</ele>
        <time>2016-04-13T19:00:28Z</time>
      </trkpt>
      <trkpt lat="59.107515360867" lon="17.734021772619">
        <ele>6.4</ele>
        <time>2016-04-13T19:00:29Z</time>
      </trkpt>
      <trkpt lat="59.107559701118" lon="17.734083295765">
        <ele>6.8</ele>
        <time>2016-04-13T19:00:30Z</time>
      </trkpt>
      <trkpt lat="59.10760228117" lon="17.734148590766">
        <ele>7.2</ele>
        <time>2016-04-13T19:00:31Z</time>
      </trkpt>
      <trkpt lat="59.107645531774" lon="17.734211203559">
        <ele>7.8</ele>
        <time>2016-04-13T19:00:32Z</time>
      </trkpt>
      <trkpt lat="59.107765895858" lon="17.734394431893">
        <ele>8.2</ele>
        <time>2016-04-13T19:00:35Z</time>
      </trkpt>
      <trkpt lat="59.107805542245" lon="17.734456290315">
        <ele>8.6</ele>
        <time>2016-04-13T19:00:36Z</time>
      </trkpt>
      <trkpt lat="59.107841332958" lon="17.734513035778">
        <ele>9</ele>
        <time>2016-04-13T19:00:37Z</time>
      </trkpt>
      <trkpt lat="59.107875028196" lon="17.734573636915">
        <ele>9.6</ele>
        <time>2016-04-13T19:00:38Z</time>
      </trkpt>
      <trkpt lat="59.107908974891" lon="17.734629795645">
        <ele>10</ele>
        <time>2016-04-13T19:00:39Z</time>
      </trkpt>
      <trkpt lat="59.107969659847" lon="17.734742783657">
        <ele>10.4</ele>
        <time>2016-04-13T19:00:41Z</time>
      </trkpt>
      <trkpt lat="59.107999331773" lon="17.73480372007">
        <ele>10.8</ele>
        <time>2016-04-13T19:00:42Z</time>
      </trkpt>
      <trkpt lat="59.108028333147" lon="17.734857531868">
        <ele>11.2</ele>
        <time>2016-04-13T19:00:43Z</time>
      </trkpt>
      <trkpt lat="59.108059262358" lon="17.734925928172">
        <ele>11.8</ele>
        <time>2016-04-13T19:00:44Z</time>
      </trkpt>
      <trkpt lat="59.10809094594" lon="17.734984182377">
        <ele>12.2</ele>
        <time>2016-04-13T19:00:45Z</time>
      </trkpt>
      <trkpt lat="59.108151044163" lon="17.735113347456">
        <ele>12.2</ele>
        <time>2016-04-13T19:00:47Z</time>
      </trkpt>
      <trkpt lat="59.108184990858" lon="17.73516833272">
        <ele>12.6</ele>
        <time>2016-04-13T19:00:48Z</time>
      </trkpt>
      <trkpt lat="59.108220613933" lon="17.735221725423">
        <ele>13.6</ele>
        <time>2016-04-13T19:00:49Z</time>
      </trkpt>
      <trkpt lat="59.108254225352" lon="17.735280231085">
        <ele>14</ele>
        <time>2016-04-13T19:00:50Z</time>
      </trkpt>
      <trkpt lat="59.10828959697" lon="17.735337228005">
        <ele>14.4</ele>
        <time>2016-04-13T19:00:51Z</time>
      </trkpt>
      <trkpt lat="59.108376265816" lon="17.73546421379">
        <ele>14.4</ele>
        <time>2016-04-13T19:00:53Z</time>
      </trkpt>
      <trkpt lat="59.108554716467" lon="17.735695889506">
        <ele>14.4</ele>
        <time>2016-04-13T19:00:57Z</time>
      </trkpt>
      <trkpt lat="59.108896027435" lon="17.736151613409">
        <ele>14.4</ele>
        <time>2016-04-13T19:01:03Z</time>
      </trkpt>
      <trkpt lat="59.109175479981" lon="17.736681014213">
        <ele>14.4</ele>
        <time>2016-04-13T19:01:08Z</time>
      </trkpt>
      <trkpt lat="59.109273464392" lon="17.73693859">
        <ele>14</ele>
        <time>2016-04-13T19:01:10Z</time>
      </trkpt>
      <trkpt lat="59.109322414688" lon="17.737069096183">
        <ele>13.4</ele>
        <time>2016-04-13T19:01:11Z</time>
      </trkpt>
      <trkpt lat="59.109378741056" lon="17.73719172338">
        <ele>13</ele>
        <time>2016-04-13T19:01:12Z</time>
      </trkpt>
      <trkpt lat="59.109431630845" lon="17.73731661369">
        <ele>12.6</ele>
        <time>2016-04-13T19:01:13Z</time>
      </trkpt>
      <trkpt lat="59.109489298317" lon="17.737434044109">
        <ele>12</ele>
        <time>2016-04-13T19:01:14Z</time>
      </trkpt>
      <trkpt lat="59.109556437336" lon="17.737543595542">
        <ele>12</ele>
        <time>2016-04-13T19:01:15Z</time>
      </trkpt>
      <trkpt lat="59.109755004547" lon="17.737865292864">
        <ele>12</ele>
        <time>2016-04-13T19:01:18Z</time>
      </trkpt>
      <trkpt lat="59.110186588578" lon="17.738660399898">
        <ele>12</ele>
        <time>2016-04-13T19:01:25Z</time>
      </trkpt>
      <trkpt lat="59.110519685284" lon="17.739504373409">
        <ele>12</ele>
        <time>2016-04-13T19:01:32Z</time>
      </trkpt>
      <trkpt lat="59.110829564127" lon="17.740274670019">
        <ele>12</ele>
        <time>2016-04-13T19:01:39Z</time>
      </trkpt>
      <trkpt lat="59.110873066188" lon="17.740381706882">
        <ele>12.4</ele>
        <time>2016-04-13T19:01:40Z</time>
      </trkpt>
      <trkpt lat="59.110925369244" lon="17.740484804252">
        <ele>12.8</ele>
        <time>2016-04-13T19:01:41Z</time>
      </trkpt>
      <trkpt lat="59.110968368391" lon="17.740567198329">
        <ele>13.4</ele>
        <time>2016-04-13T19:01:42Z</time>
      </trkpt>
      <trkpt lat="59.111010445529" lon="17.74063584609">
        <ele>13.8</ele>
        <time>2016-04-13T19:01:43Z</time>
      </trkpt>
      <trkpt lat="59.111104741904" lon="17.740786385014">
        <ele>14.8</ele>
        <time>2016-04-13T19:01:44Z</time>
      </trkpt>
      <trkpt lat="59.111147405775" lon="17.740851177101">
        <ele>15.4</ele>
        <time>2016-04-13T19:01:46Z</time>
      </trkpt>
      <trkpt lat="59.111195434062" lon="17.740923093803">
        <ele>16</ele>
        <time>2016-04-13T19:01:47Z</time>
      </trkpt>
      <trkpt lat="59.111240780141" lon="17.740991741564">
        <ele>16.4</ele>
        <time>2016-04-13T19:01:48Z</time>
      </trkpt>
      <trkpt lat="59.11128528803" lon="17.741059215859">
        <ele>17</ele>
        <time>2016-04-13T19:01:49Z</time>
      </trkpt>
      <trkpt lat="59.111334992697" lon="17.741131719294">
        <ele>17.6</ele>
        <time>2016-04-13T19:01:50Z</time>
      </trkpt>
      <trkpt lat="59.111383523898" lon="17.741202713987">
        <ele>18</ele>
        <time>2016-04-13T19:01:51Z</time>
      </trkpt>
      <trkpt lat="59.11143783861" lon="17.74125610669">
        <ele>18.6</ele>
        <time>2016-04-13T19:01:52Z</time>
      </trkpt>
      <trkpt lat="59.111573290114" lon="17.741437658644">
        <ele>18.6</ele>
        <time>2016-04-13T19:01:55Z</time>
      </trkpt>
      <trkpt lat="59.111616289261" lon="17.741481998895">
        <ele>18.6</ele>
        <time>2016-04-13T19:01:56Z</time>
      </trkpt>
      <trkpt lat="59.111659288408" lon="17.741527512612">
        <ele>19</ele>
        <time>2016-04-13T19:01:57Z</time>
      </trkpt>
      <trkpt lat="59.111702622831" lon="17.741587024102">
        <ele>19.6</ele>
        <time>2016-04-13T19:01:58Z</time>
      </trkpt>
      <trkpt lat="59.111742436856" lon="17.741652235284">
        <ele>20</ele>
        <time>2016-04-13T19:01:59Z</time>
      </trkpt>
      <trkpt lat="59.111780825958" lon="17.741707639643">
        <ele>20.4</ele>
        <time>2016-04-13T19:02:00Z</time>
      </trkpt>
      <trkpt lat="59.111822400182" lon="17.741766145305">
        <ele>21</ele>
        <time>2016-04-13T19:02:01Z</time>
      </trkpt>
      <trkpt lat="59.111905045716" lon="17.741865638458">
        <ele>21</ele>
        <time>2016-04-13T19:02:03Z</time>
      </trkpt>
      <trkpt lat="59.111945697931" lon="17.741920204627">
        <ele>22</ele>
        <time>2016-04-13T19:02:04Z</time>
      </trkpt>
      <trkpt lat="59.111979812264" lon="17.74197695009">
        <ele>22.4</ele>
        <time>2016-04-13T19:02:05Z</time>
      </trkpt>
      <trkpt lat="59.112015770615" lon="17.742030258974">
        <ele>22.8</ele>
        <time>2016-04-13T19:02:06Z</time>
      </trkpt>
      <trkpt lat="59.112063379807" lon="17.74209848764">
        <ele>23.4</ele>
        <time>2016-04-13T19:02:07Z</time>
      </trkpt>
      <trkpt lat="59.112133033396" lon="17.742188593065">
        <ele>23.8</ele>
        <time>2016-04-13T19:02:09Z</time>
      </trkpt>
      <trkpt lat="59.112166309539" lon="17.742233520049">
        <ele>24.2</ele>
        <time>2016-04-13T19:02:10Z</time>
      </trkpt>
      <trkpt lat="59.112194640361" lon="17.742286661295">
        <ele>24.6</ele>
        <time>2016-04-13T19:02:11Z</time>
      </trkpt>
      <trkpt lat="59.112225318115" lon="17.742324631302">
        <ele>25</ele>
        <time>2016-04-13T19:02:12Z</time>
      </trkpt>
      <trkpt lat="59.112257839887" lon="17.742363607137">
        <ele>25.4</ele>
        <time>2016-04-13T19:02:13Z</time>
      </trkpt>
      <trkpt lat="59.112293798238" lon="17.742413814718">
        <ele>25.8</ele>
        <time>2016-04-13T19:02:14Z</time>
      </trkpt>
      <trkpt lat="59.112332857892" lon="17.742464944308">
        <ele>26.2</ele>
        <time>2016-04-13T19:02:15Z</time>
      </trkpt>
      <trkpt lat="59.112369319157" lon="17.742521941228">
        <ele>26.6</ele>
        <time>2016-04-13T19:02:16Z</time>
      </trkpt>
      <trkpt lat="59.112409468458" lon="17.74257038861">
        <ele>27</ele>
        <time>2016-04-13T19:02:17Z</time>
      </trkpt>
      <trkpt lat="59.112451126501" lon="17.742621015286">
        <ele>27.4</ele>
        <time>2016-04-13T19:02:18Z</time>
      </trkpt>
      <trkpt lat="59.112607616574" lon="17.742800304127">
        <ele>27.4</ele>
        <time>2016-04-13T19:02:21Z</time>
      </trkpt>
      <trkpt lat="59.112835520435" lon="17.742958805856">
        <ele>27.4</ele>
        <time>2016-04-13T19:02:25Z</time>
      </trkpt>
      <trkpt lat="59.11289628921" lon="17.742976491665">
        <ele>27.4</ele>
        <time>2016-04-13T19:02:26Z</time>
      </trkpt>
      <trkpt lat="59.113307505224" lon="17.743042876313">
        <ele>27.4</ele>
        <time>2016-04-13T19:02:32Z</time>
      </trkpt>
      <trkpt lat="59.113650241115" lon="17.742968947955">
        <ele>27.4</ele>
        <time>2016-04-13T19:02:37Z</time>
      </trkpt>
      <trkpt lat="59.113884263763" lon="17.742846069301">
        <ele>27.8</ele>
        <time>2016-04-13T19:02:41Z</time>
      </trkpt>
      <trkpt lat="59.113937488828" lon="17.74279083258">
        <ele>28.2</ele>
        <time>2016-04-13T19:02:42Z</time>
      </trkpt>
      <trkpt lat="59.113989540427" lon="17.742742804293">
        <ele>28.6</ele>
        <time>2016-04-13T19:02:43Z</time>
      </trkpt>
      <trkpt lat="59.114037987809" lon="17.742694189273">
        <ele>29</ele>
        <time>2016-04-13T19:02:44Z</time>
      </trkpt>
      <trkpt lat="59.114086099915" lon="17.742656135447">
        <ele>29.6</ele>
        <time>2016-04-13T19:02:45Z</time>
      </trkpt>
      <trkpt lat="59.11413178127" lon="17.742607688065">
        <ele>30.2</ele>
        <time>2016-04-13T19:02:46Z</time>
      </trkpt>
      <trkpt lat="59.114187185629" lon="17.742569298963">
        <ele>30.6</ele>
        <time>2016-04-13T19:02:47Z</time>
      </trkpt>
      <trkpt lat="59.114249546965" lon="17.742546751652">
        <ele>31.2</ele>
        <time>2016-04-13T19:02:48Z</time>
      </trkpt>
      <trkpt lat="59.114304280772" lon="17.742517079726">
        <ele>31.8</ele>
        <time>2016-04-13T19:02:49Z</time>
      </trkpt>
      <trkpt lat="59.114438474991" lon="17.742462429738">
        <ele>31.8</ele>
        <time>2016-04-13T19:02:51Z</time>
      </trkpt>
      <trkpt lat="59.114676185675" lon="17.742369893562">
        <ele>31.8</ele>
        <time>2016-04-13T19:02:54Z</time>
      </trkpt>
      <trkpt lat="59.114753382974" lon="17.742337455609">
        <ele>31.2</ele>
        <time>2016-04-13T19:02:55Z</time>
      </trkpt>
      <trkpt lat="59.114831502282" lon="17.742299569421">
        <ele>30.8</ele>
        <time>2016-04-13T19:02:56Z</time>
      </trkpt>
      <trkpt lat="59.114908448124" lon="17.742256486455">
        <ele>30.4</ele>
        <time>2016-04-13T19:02:57Z</time>
      </trkpt>
      <trkpt lat="59.114985310147" lon="17.74222170157">
        <ele>29.8</ele>
        <time>2016-04-13T19:02:58Z</time>
      </trkpt>
      <trkpt lat="59.115067033672" lon="17.742183396287">
        <ele>29.4</ele>
        <time>2016-04-13T19:02:59Z</time>
      </trkpt>
      <trkpt lat="59.115223691383" lon="17.742139307493">
        <ele>29.4</ele>
        <time>2016-04-13T19:03:01Z</time>
      </trkpt>
      <trkpt lat="59.115793325307" lon="17.741979883755">
        <ele>29.4</ele>
        <time>2016-04-13T19:03:08Z</time>
      </trkpt>
      <trkpt lat="59.116354996426" lon="17.741963874326">
        <ele>29.4</ele>
        <time>2016-04-13T19:03:15Z</time>
      </trkpt>
      <trkpt lat="59.116635873895" lon="17.742030342793">
        <ele>29.8</ele>
        <time>2016-04-13T19:03:19Z</time>
      </trkpt>
      <trkpt lat="59.116705276027" lon="17.742056997235">
        <ele>30.2</ele>
        <time>2016-04-13T19:03:20Z</time>
      </trkpt>
      <trkpt lat="59.11677040339" lon="17.742099409649">
        <ele>30.6</ele>
        <time>2016-04-13T19:03:21Z</time>
      </trkpt>
      <trkpt lat="59.116832177993" lon="17.742126734643">
        <ele>31</ele>
        <time>2016-04-13T19:03:22Z</time>
      </trkpt>
      <trkpt lat="59.116895796614" lon="17.742154227275">
        <ele>31.6</ele>
        <time>2016-04-13T19:03:23Z</time>
      </trkpt>
      <trkpt lat="59.116954553733" lon="17.742187168142">
        <ele>32.2</ele>
        <time>2016-04-13T19:03:24Z</time>
      </trkpt>
      <trkpt lat="59.117020519286" lon="17.742219438457">
        <ele>32.6</ele>
        <time>2016-04-13T19:03:25Z</time>
      </trkpt>
      <trkpt lat="59.117088412676" lon="17.742255648265">
        <ele>33.2</ele>
        <time>2016-04-13T19:03:26Z</time>
      </trkpt>
      <trkpt lat="59.117157479532" lon="17.742290181693">
        <ele>33.8</ele>
        <time>2016-04-13T19:03:27Z</time>
      </trkpt>
      <trkpt lat="59.117286896068" lon="17.742374922702">
        <ele>33.8</ele>
        <time>2016-04-13T19:03:29Z</time>
      </trkpt>
      <trkpt lat="59.117796850864" lon="17.742738110429">
        <ele>33.8</ele>
        <time>2016-04-13T19:03:36Z</time>
      </trkpt>
      <trkpt lat="59.11786675591" lon="17.742818660488">
        <ele>33.8</ele>
        <time>2016-04-13T19:03:37Z</time>
      </trkpt>
      <trkpt lat="59.11811821291" lon="17.743226775199">
        <ele>33.8</ele>
        <time>2016-04-13T19:03:41Z</time>
      </trkpt>
      <trkpt lat="59.118166744111" lon="17.743367842576">
        <ele>33.8</ele>
        <time>2016-04-13T19:03:42Z</time>
      </trkpt>
      <trkpt lat="59.118263052142" lon="17.743694988133">
        <ele>33.4</ele>
        <time>2016-04-13T19:03:44Z</time>
      </trkpt>
      <trkpt lat="59.118307308574" lon="17.743868996377">
        <ele>33</ele>
        <time>2016-04-13T19:03:45Z</time>
      </trkpt>
      <trkpt lat="59.118350642997" lon="17.744049626322">
        <ele>32.2</ele>
        <time>2016-04-13T19:03:46Z</time>
      </trkpt>
      <trkpt lat="59.118390708479" lon="17.744234531036">
        <ele>31.4</ele>
        <time>2016-04-13T19:03:47Z</time>
      </trkpt>
      <trkpt lat="59.118430773961" lon="17.744415412438">
        <ele>30.4</ele>
        <time>2016-04-13T19:03:48Z</time>
      </trkpt>
      <trkpt lat="59.118473856927" lon="17.744598556953">
        <ele>29.4</ele>
        <time>2016-04-13T19:03:49Z</time>
      </trkpt>
      <trkpt lat="59.118517778083" lon="17.744781030916">
        <ele>28.6</ele>
        <time>2016-04-13T19:03:50Z</time>
      </trkpt>
      <trkpt lat="59.118557005375" lon="17.744964929802">
        <ele>27.6</ele>
        <time>2016-04-13T19:03:51Z</time>
      </trkpt>
      <trkpt lat="59.118600591255" lon="17.745156037122">
        <ele>26.6</ele>
        <time>2016-04-13T19:03:52Z</time>
      </trkpt>
      <trkpt lat="59.118641997841" lon="17.745340774198">
        <ele>26.6</ele>
        <time>2016-04-13T19:03:53Z</time>
      </trkpt>
      <trkpt lat="59.118688433567" lon="17.745523751075">
        <ele>26.2</ele>
        <time>2016-04-13T19:03:54Z</time>
      </trkpt>
      <trkpt lat="59.118731516533" lon="17.745706811771">
        <ele>25.8</ele>
        <time>2016-04-13T19:03:55Z</time>
      </trkpt>
      <trkpt lat="59.118775270051" lon="17.745886435888">
        <ele>25.4</ele>
        <time>2016-04-13T19:03:56Z</time>
      </trkpt>
      <trkpt lat="59.118820783768" lon="17.746068574575">
        <ele>25</ele>
        <time>2016-04-13T19:03:57Z</time>
      </trkpt>
      <trkpt lat="59.118861603621" lon="17.746245767941">
        <ele>24.6</ele>
        <time>2016-04-13T19:03:58Z</time>
      </trkpt>
      <trkpt lat="59.11898909232" lon="17.746795620581">
        <ele>24.6</ele>
        <time>2016-04-13T19:04:01Z</time>
      </trkpt>
      <trkpt lat="59.119241722786" lon="17.74787529312">
        <ele>24.2</ele>
        <time>2016-04-13T19:04:07Z</time>
      </trkpt>
      <trkpt lat="59.119285308666" lon="17.748063634413">
        <ele>23.4</ele>
        <time>2016-04-13T19:04:08Z</time>
      </trkpt>
      <trkpt lat="59.119326715252" lon="17.748247700937">
        <ele>23</ele>
        <time>2016-04-13T19:04:09Z</time>
      </trkpt>
      <trkpt lat="59.119366613096" lon="17.748435455497">
        <ele>22.6</ele>
        <time>2016-04-13T19:04:10Z</time>
      </trkpt>
      <trkpt lat="59.119620417028" lon="17.749497777503">
        <ele>22.6</ele>
        <time>2016-04-13T19:04:16Z</time>
      </trkpt>
      <trkpt lat="59.119658638492" lon="17.749670109367">
        <ele>22.6</ele>
        <time>2016-04-13T19:04:17Z</time>
      </trkpt>
      <trkpt lat="59.119871874028" lon="17.750697646488">
        <ele>22.6</ele>
        <time>2016-04-13T19:04:23Z</time>
      </trkpt>
      <trkpt lat="59.119901965049" lon="17.750862518461">
        <ele>22.6</ele>
        <time>2016-04-13T19:04:24Z</time>
      </trkpt>
      <trkpt lat="59.119984275307" lon="17.751735409527">
        <ele>22.6</ele>
        <time>2016-04-13T19:04:29Z</time>
      </trkpt>
      <trkpt lat="59.119981341642" lon="17.751922577354">
        <ele>22.6</ele>
        <time>2016-04-13T19:04:30Z</time>
      </trkpt>
      <trkpt lat="59.119963991109" lon="17.752461784981">
        <ele>22.6</ele>
        <time>2016-04-13T19:04:33Z</time>
      </trkpt>
      <trkpt lat="59.119959045788" lon="17.753322187016">
        <ele>22.6</ele>
        <time>2016-04-13T19:04:38Z</time>
      </trkpt>
      <trkpt lat="59.119988382438" lon="17.753633490782">
        <ele>22.6</ele>
        <time>2016-04-13T19:04:40Z</time>
      </trkpt>
      <trkpt lat="59.12003682982" lon="17.753942782892">
        <ele>22.6</ele>
        <time>2016-04-13T19:04:42Z</time>
      </trkpt>
      <trkpt lat="59.120118218069" lon="17.75459590054">
        <ele>22.2</ele>
        <time>2016-04-13T19:04:46Z</time>
      </trkpt>
      <trkpt lat="59.120127689616" lon="17.754773261544">
        <ele>21.6</ele>
        <time>2016-04-13T19:04:47Z</time>
      </trkpt>
      <trkpt lat="59.120153924963" lon="17.755134102339">
        <ele>20.6</ele>
        <time>2016-04-13T19:04:49Z</time>
      </trkpt>
      <trkpt lat="59.120171443134" lon="17.755312972085">
        <ele>20.2</ele>
        <time>2016-04-13T19:04:50Z</time>
      </trkpt>
      <trkpt lat="59.120188877486" lon="17.755502151568">
        <ele>19.6</ele>
        <time>2016-04-13T19:04:51Z</time>
      </trkpt>
      <trkpt lat="59.120213939367" lon="17.755695019087">
        <ele>19.2</ele>
        <time>2016-04-13T19:04:52Z</time>
      </trkpt>
      <trkpt lat="59.12024889189" lon="17.755890484995">
        <ele>18.4</ele>
        <time>2016-04-13T19:04:53Z</time>
      </trkpt>
      <trkpt lat="59.120289627924" lon="17.756072707501">
        <ele>17.8</ele>
        <time>2016-04-13T19:04:54Z</time>
      </trkpt>
      <trkpt lat="59.120337153297" lon="17.75624713484">
        <ele>17.2</ele>
        <time>2016-04-13T19:04:55Z</time>
      </trkpt>
      <trkpt lat="59.120385097765" lon="17.756409156967">
        <ele>16.6</ele>
        <time>2016-04-13T19:04:56Z</time>
      </trkpt>
      <trkpt lat="59.120437400821" lon="17.756571011456">
        <ele>15.8</ele>
        <time>2016-04-13T19:04:57Z</time>
      </trkpt>
      <trkpt lat="59.120728085113" lon="17.757516573595">
        <ele>15.8</ele>
        <time>2016-04-13T19:05:03Z</time>
      </trkpt>
      <trkpt lat="59.120737808117" lon="17.757697371178">
        <ele>15.8</ele>
        <time>2016-04-13T19:05:04Z</time>
      </trkpt>
      <trkpt lat="59.120726744009" lon="17.757887640308">
        <ele>15.8</ele>
        <time>2016-04-13T19:05:05Z</time>
      </trkpt>
      <trkpt lat="59.120621551164" lon="17.758427769944">
        <ele>15.4</ele>
        <time>2016-04-13T19:05:08Z</time>
      </trkpt>
      <trkpt lat="59.12057830056" lon="17.758585852578">
        <ele>15</ele>
        <time>2016-04-13T19:05:09Z</time>
      </trkpt>
      <trkpt lat="59.120516777414" lon="17.758746365963">
        <ele>14.4</ele>
        <time>2016-04-13T19:05:10Z</time>
      </trkpt>
      <trkpt lat="59.120472856258" lon="17.758909813013">
        <ele>13.8</ele>
        <time>2016-04-13T19:05:11Z</time>
      </trkpt>
      <trkpt lat="59.120425498523" lon="17.759094801546">
        <ele>13.2</ele>
        <time>2016-04-13T19:05:12Z</time>
      </trkpt>
      <trkpt lat="59.120390210724" lon="17.759287836703">
        <ele>12.6</ele>
        <time>2016-04-13T19:05:13Z</time>
      </trkpt>
      <trkpt lat="59.120372357277" lon="17.759492103606">
        <ele>12</ele>
        <time>2016-04-13T19:05:14Z</time>
      </trkpt>
      <trkpt lat="59.120385265403" lon="17.759698046889">
        <ele>11.4</ele>
        <time>2016-04-13T19:05:15Z</time>
      </trkpt>
      <trkpt lat="59.120398508805" lon="17.759895692091">
        <ele>10.8</ele>
        <time>2016-04-13T19:05:16Z</time>
      </trkpt>
      <trkpt lat="59.120419379736" lon="17.760088727248">
        <ele>10.2</ele>
        <time>2016-04-13T19:05:17Z</time>
      </trkpt>
      <trkpt lat="59.120446788549" lon="17.76027799055">
        <ele>9.4</ele>
        <time>2016-04-13T19:05:18Z</time>
      </trkpt>
      <trkpt lat="59.120485093832" lon="17.760465912748">
        <ele>8.8</ele>
        <time>2016-04-13T19:05:19Z</time>
      </trkpt>
      <trkpt lat="59.120529182626" lon="17.760653583489">
        <ele>8.4</ele>
        <time>2016-04-13T19:05:20Z</time>
      </trkpt>
      <trkpt lat="59.120588191202" lon="17.760820970032">
        <ele>8</ele>
        <time>2016-04-13T19:05:21Z</time>
      </trkpt>
      <trkpt lat="59.120652648013" lon="17.760985506729">
        <ele>7.2</ele>
        <time>2016-04-13T19:05:22Z</time>
      </trkpt>
      <trkpt lat="59.120729929131" lon="17.761143589363">
        <ele>6.8</ele>
        <time>2016-04-13T19:05:23Z</time>
      </trkpt>
      <trkpt lat="59.1210024247" lon="17.761483978322">
        <ele>6.8</ele>
        <time>2016-04-13T19:05:26Z</time>
      </trkpt>
      <trkpt lat="59.121102336948" lon="17.761583387656">
        <ele>6.2</ele>
        <time>2016-04-13T19:05:27Z</time>
      </trkpt>
      <trkpt lat="59.121204177033" lon="17.761663770077">
        <ele>5.8</ele>
        <time>2016-04-13T19:05:28Z</time>
      </trkpt>
      <trkpt lat="59.121307861136" lon="17.761748259629">
        <ele>5.4</ele>
        <time>2016-04-13T19:05:29Z</time>
      </trkpt>
      <trkpt lat="59.121412802524" lon="17.761825121652">
        <ele>5</ele>
        <time>2016-04-13T19:05:30Z</time>
      </trkpt>
      <trkpt lat="59.121525119984" lon="17.761909778842">
        <ele>4.6</ele>
        <time>2016-04-13T19:05:31Z</time>
      </trkpt>
      <trkpt lat="59.122039768644" lon="17.762339854131">
        <ele>4</ele>
        <time>2016-04-13T19:05:36Z</time>
      </trkpt>
      <trkpt lat="59.122143536566" lon="17.762422248208">
        <ele>3.6</ele>
        <time>2016-04-13T19:05:37Z</time>
      </trkpt>
      <trkpt lat="59.122249986696" lon="17.762509419968">
        <ele>3.2</ele>
        <time>2016-04-13T19:05:38Z</time>
      </trkpt>
      <trkpt lat="59.122351323867" lon="17.762580163204">
        <ele>2.8</ele>
        <time>2016-04-13T19:05:39Z</time>
      </trkpt>
      <trkpt lat="59.122452661038" lon="17.762638585047">
        <ele>2.4</ele>
        <time>2016-04-13T19:05:40Z</time>
      </trkpt>
      <trkpt lat="59.122558189159" lon="17.762672531742">
        <ele>2.4</ele>
        <time>2016-04-13T19:05:41Z</time>
      </trkpt>
      <trkpt lat="59.122773771627" lon="17.762691726293">
        <ele>2.4</ele>
        <time>2016-04-13T19:05:43Z</time>
      </trkpt>
      <trkpt lat="59.123096055682" lon="17.762535822953">
        <ele>2.4</ele>
        <time>2016-04-13T19:05:46Z</time>
      </trkpt>
      <trkpt lat="59.12359326999" lon="17.762318899381">
        <ele>2.8</ele>
        <time>2016-04-13T19:05:52Z</time>
      </trkpt>
      <trkpt lat="59.123685051795" lon="17.762359719234">
        <ele>3.2</ele>
        <time>2016-04-13T19:05:53Z</time>
      </trkpt>
      <trkpt lat="59.123781778921" lon="17.762428534633">
        <ele>3.6</ele>
        <time>2016-04-13T19:05:54Z</time>
      </trkpt>
      <trkpt lat="59.123859898229" lon="17.762534817125">
        <ele>4</ele>
        <time>2016-04-13T19:05:55Z</time>
      </trkpt>
      <trkpt lat="59.123931395836" lon="17.762661132358">
        <ele>4.4</ele>
        <time>2016-04-13T19:05:56Z</time>
      </trkpt>
      <trkpt lat="59.123993002801" lon="17.762801277726">
        <ele>4.4</ele>
        <time>2016-04-13T19:05:57Z</time>
      </trkpt>
      <trkpt lat="59.124096100171" lon="17.763093638398">
        <ele>4.4</ele>
        <time>2016-04-13T19:05:59Z</time>
      </trkpt>
      <trkpt lat="59.124142368259" lon="17.763235711603">
        <ele>4.8</ele>
        <time>2016-04-13T19:06:00Z</time>
      </trkpt>
      <trkpt lat="59.124182098465" lon="17.763376695161">
        <ele>5.4</ele>
        <time>2016-04-13T19:06:01Z</time>
      </trkpt>
      <trkpt lat="59.124219481739" lon="17.763528239913">
        <ele>5.8</ele>
        <time>2016-04-13T19:06:02Z</time>
      </trkpt>
      <trkpt lat="59.124256110642" lon="17.763676683362">
        <ele>6.2</ele>
        <time>2016-04-13T19:06:03Z</time>
      </trkpt>
      <trkpt lat="59.124293661554" lon="17.763839795136">
        <ele>6.8</ele>
        <time>2016-04-13T19:06:04Z</time>
      </trkpt>
      <trkpt lat="59.124352837768" lon="17.7641881469">
        <ele>6.8</ele>
        <time>2016-04-13T19:06:06Z</time>
      </trkpt>
      <trkpt lat="59.124411175792" lon="17.764538761777">
        <ele>6.4</ele>
        <time>2016-04-13T19:06:08Z</time>
      </trkpt>
      <trkpt lat="59.124431376171" lon="17.764715787505">
        <ele>6</ele>
        <time>2016-04-13T19:06:09Z</time>
      </trkpt>
      <trkpt lat="59.124463478848" lon="17.764894573432">
        <ele>5</ele>
        <time>2016-04-13T19:06:10Z</time>
      </trkpt>
      <trkpt lat="59.124498682828" lon="17.765063636355">
        <ele>4.6</ele>
        <time>2016-04-13T19:06:11Z</time>
      </trkpt>
      <trkpt lat="59.124534138265" lon="17.765229933251">
        <ele>4.6</ele>
        <time>2016-04-13T19:06:12Z</time>
      </trkpt>
      <trkpt lat="59.124729520354" lon="17.765988746658">
        <ele>4.6</ele>
        <time>2016-04-13T19:06:17Z</time>
      </trkpt>
      <trkpt lat="59.124920460036" lon="17.766423431992">
        <ele>4.2</ele>
        <time>2016-04-13T19:06:20Z</time>
      </trkpt>
      <trkpt lat="59.125003608484" lon="17.766551088329">
        <ele>3.8</ele>
        <time>2016-04-13T19:06:21Z</time>
      </trkpt>
      <trkpt lat="59.125093797728" lon="17.766663238151">
        <ele>3</ele>
        <time>2016-04-13T19:06:22Z</time>
      </trkpt>
      <trkpt lat="59.125189686664" lon="17.766757702164">
        <ele>2.4</ele>
        <time>2016-04-13T19:06:23Z</time>
      </trkpt>
      <trkpt lat="59.125289682731" lon="17.766822494251">
        <ele>1.6</ele>
        <time>2016-04-13T19:06:24Z</time>
      </trkpt>
      <trkpt lat="59.125395713766" lon="17.76686113481">
        <ele>0.8</ele>
        <time>2016-04-13T19:06:25Z</time>
      </trkpt>
      <trkpt lat="59.12549847586" lon="17.766875216402">
        <ele>0</ele>
        <time>2016-04-13T19:06:26Z</time>
      </trkpt>
      <trkpt lat="59.125599310117" lon="17.76686448757">
        <ele>0</ele>
        <time>2016-04-13T19:06:27Z</time>
      </trkpt>
      <trkpt lat="59.125695618148" lon="17.766842778449">
        <ele>0</ele>
        <time>2016-04-13T19:06:28Z</time>
      </trkpt>
      <trkpt lat="59.125789914523" lon="17.766821320785">
        <ele>0</ele>
        <time>2016-04-13T19:06:29Z</time>
      </trkpt>
      <trkpt lat="59.125981776214" lon="17.76679575599">
        <ele>0</ele>
        <time>2016-04-13T19:06:31Z</time>
      </trkpt>
      <trkpt lat="59.126267179909" lon="17.766848981055">
        <ele>0</ele>
        <time>2016-04-13T19:06:34Z</time>
      </trkpt>
      <trkpt lat="59.126352926746" lon="17.766895584419">
        <ele>0</ele>
        <time>2016-04-13T19:06:35Z</time>
      </trkpt>
      <trkpt lat="59.126658195544" lon="17.767286348597">
        <ele>0</ele>
        <time>2016-04-13T19:06:39Z</time>
      </trkpt>
      <trkpt lat="59.126774871592" lon="17.767585750065">
        <ele>0</ele>
        <time>2016-04-13T19:06:41Z</time>
      </trkpt>
      <trkpt lat="59.126882243731" lon="17.767886324999">
        <ele>0</ele>
        <time>2016-04-13T19:06:43Z</time>
      </trkpt>
      <trkpt lat="59.127219363749" lon="17.768560648854">
        <ele>0</ele>
        <time>2016-04-13T19:06:48Z</time>
      </trkpt>
      <trkpt lat="59.127472245672" lon="17.76884932149">
        <ele>0</ele>
        <time>2016-04-13T19:06:51Z</time>
      </trkpt>
      <trkpt lat="59.127571655006" lon="17.76890967117">
        <ele>0</ele>
        <time>2016-04-13T19:06:52Z</time>
      </trkpt>
      <trkpt lat="59.127990163273" lon="17.76912005686">
        <ele>0</ele>
        <time>2016-04-13T19:06:56Z</time>
      </trkpt>
      <trkpt lat="59.128093847376" lon="17.769170934993">
        <ele>0</ele>
        <time>2016-04-13T19:06:57Z</time>
      </trkpt>
      <trkpt lat="59.128197866755" lon="17.769219550013">
        <ele>0</ele>
        <time>2016-04-13T19:06:58Z</time>
      </trkpt>
      <trkpt lat="59.128301969953" lon="17.769270260508">
        <ele>0</ele>
        <time>2016-04-13T19:06:59Z</time>
      </trkpt>
      <trkpt lat="59.128406324608" lon="17.769324323763">
        <ele>0</ele>
        <time>2016-04-13T19:07:00Z</time>
      </trkpt>
      <trkpt lat="59.128789712714" lon="17.769619785738">
        <ele>0</ele>
        <time>2016-04-13T19:07:04Z</time>
      </trkpt>
      <trkpt lat="59.129022729534" lon="17.769930335133">
        <ele>0</ele>
        <time>2016-04-13T19:07:07Z</time>
      </trkpt>
      <trkpt lat="59.129092383123" lon="17.770035444159">
        <ele>0</ele>
        <time>2016-04-13T19:07:08Z</time>
      </trkpt>
      <trkpt lat="59.129234037233" lon="17.770248176781">
        <ele>0</ele>
        <time>2016-04-13T19:07:10Z</time>
      </trkpt>
      <trkpt lat="59.129308719962" lon="17.770362170621">
        <ele>0</ele>
        <time>2016-04-13T19:07:11Z</time>
      </trkpt>
      <trkpt lat="59.129385749623" lon="17.770466776733">
        <ele>0</ele>
        <time>2016-04-13T19:07:12Z</time>
      </trkpt>
      <trkpt lat="59.129465964406" lon="17.7705667728">
        <ele>0</ele>
        <time>2016-04-13T19:07:13Z</time>
      </trkpt>
      <trkpt lat="59.129548861397" lon="17.77066148827">
        <ele>0</ele>
        <time>2016-04-13T19:07:14Z</time>
      </trkpt>
      <trkpt lat="59.129628824723" lon="17.770756539016">
        <ele>0</ele>
        <time>2016-04-13T19:07:15Z</time>
      </trkpt>
      <trkpt lat="59.130120926072" lon="17.77117194598">
        <ele>0</ele>
        <time>2016-04-13T19:07:21Z</time>
      </trkpt>
      <trkpt lat="59.130431643105" lon="17.771361628377">
        <ele>0</ele>
        <time>2016-04-13T19:07:25Z</time>
      </trkpt>
      <trkpt lat="59.130511606431" lon="17.771407812646">
        <ele>0</ele>
        <time>2016-04-13T19:07:26Z</time>
      </trkpt>
      <trkpt lat="59.13059215649" lon="17.771467324136">
        <ele>0</ele>
        <time>2016-04-13T19:07:27Z</time>
      </trkpt>
      <trkpt lat="59.130671197807" lon="17.771535301345">
        <ele>0</ele>
        <time>2016-04-13T19:07:28Z</time>
      </trkpt>
      <trkpt lat="59.130751244952" lon="17.771612331006">
        <ele>0</ele>
        <time>2016-04-13T19:07:29Z</time>
      </trkpt>
      <trkpt lat="59.130995242061" lon="17.771846269835">
        <ele>0</ele>
        <time>2016-04-13T19:07:32Z</time>
      </trkpt>
      <trkpt lat="59.13108082126" lon="17.771927071351">
        <ele>0</ele>
        <time>2016-04-13T19:07:33Z</time>
      </trkpt>
      <trkpt lat="59.131174027988" lon="17.771994294189">
        <ele>0</ele>
        <time>2016-04-13T19:07:34Z</time>
      </trkpt>
      <trkpt lat="59.131253153124" lon="17.772064199235">
        <ele>0</ele>
        <time>2016-04-13T19:07:35Z</time>
      </trkpt>
      <trkpt lat="59.131336133934" lon="17.772101331052">
        <ele>0</ele>
        <time>2016-04-13T19:07:36Z</time>
      </trkpt>
      <trkpt lat="59.131520954829" lon="17.772119687413">
        <ele>0</ele>
        <time>2016-04-13T19:07:38Z</time>
      </trkpt>
      <trkpt lat="59.13178322448" lon="17.771981386063">
        <ele>0</ele>
        <time>2016-04-13T19:07:41Z</time>
      </trkpt>
      <trkpt lat="59.131871318249" lon="17.771925897885">
        <ele>0</ele>
        <time>2016-04-13T19:07:42Z</time>
      </trkpt>
      <trkpt lat="59.13238253033" lon="17.771565560004">
        <ele>0</ele>
        <time>2016-04-13T19:07:48Z</time>
      </trkpt>
      <trkpt lat="59.132469366814" lon="17.771486686325">
        <ele>0</ele>
        <time>2016-04-13T19:07:49Z</time>
      </trkpt>
      <trkpt lat="59.132953170082" lon="17.770985700162">
        <ele>0</ele>
        <time>2016-04-13T19:07:55Z</time>
      </trkpt>
      <trkpt lat="59.133207141652" lon="17.770794592842">
        <ele>0</ele>
        <time>2016-04-13T19:07:58Z</time>
      </trkpt>
      <trkpt lat="59.133297079439" lon="17.770760227052">
        <ele>0</ele>
        <time>2016-04-13T19:07:59Z</time>
      </trkpt>
      <trkpt lat="59.133570497017" lon="17.770822336931">
        <ele>0</ele>
        <time>2016-04-13T19:08:02Z</time>
      </trkpt>
      <trkpt lat="59.134008116016" lon="17.771073961569">
        <ele>0</ele>
        <time>2016-04-13T19:08:07Z</time>
      </trkpt>
      <trkpt lat="59.134228140891" lon="17.771339667799">
        <ele>0</ele>
        <time>2016-04-13T19:08:10Z</time>
      </trkpt>
      <trkpt lat="59.134303829448" lon="17.771444860644">
        <ele>0</ele>
        <time>2016-04-13T19:08:11Z</time>
      </trkpt>
      <trkpt lat="59.134366023146" lon="17.771564051262">
        <ele>0</ele>
        <time>2016-04-13T19:08:12Z</time>
      </trkpt>
      <trkpt lat="59.134424109713" lon="17.771684499165">
        <ele>0</ele>
        <time>2016-04-13T19:08:13Z</time>
      </trkpt>
      <trkpt lat="59.134479597891" lon="17.771813664244">
        <ele>0</ele>
        <time>2016-04-13T19:08:14Z</time>
      </trkpt>
      <trkpt lat="59.134532152404" lon="17.771946936454">
        <ele>0</ele>
        <time>2016-04-13T19:08:15Z</time>
      </trkpt>
      <trkpt lat="59.134583365813" lon="17.772081885044">
        <ele>0</ele>
        <time>2016-04-13T19:08:16Z</time>
      </trkpt>
      <trkpt lat="59.134798445367" lon="17.772817145312">
        <ele>0</ele>
        <time>2016-04-13T19:08:21Z</time>
      </trkpt>
      <trkpt lat="59.13495912639" lon="17.773345791745">
        <ele>0</ele>
        <time>2016-04-13T19:08:25Z</time>
      </trkpt>
      <trkpt lat="59.135008998695" lon="17.773475375919">
        <ele>0</ele>
        <time>2016-04-13T19:08:26Z</time>
      </trkpt>
      <trkpt lat="59.135058368086" lon="17.773590040311">
        <ele>0</ele>
        <time>2016-04-13T19:08:27Z</time>
      </trkpt>
      <trkpt lat="59.135110419685" lon="17.77370914711">
        <ele>0</ele>
        <time>2016-04-13T19:08:28Z</time>
      </trkpt>
      <trkpt lat="59.135152664461" lon="17.77383822837">
        <ele>0</ele>
        <time>2016-04-13T19:08:29Z</time>
      </trkpt>
      <trkpt lat="59.135249810682" lon="17.774080213823">
        <ele>0</ele>
        <time>2016-04-13T19:08:31Z</time>
      </trkpt>
      <trkpt lat="59.135515265455" lon="17.77464205258">
        <ele>0</ele>
        <time>2016-04-13T19:08:36Z</time>
      </trkpt>
      <trkpt lat="59.135568825796" lon="17.774758393352">
        <ele>0</ele>
        <time>2016-04-13T19:08:37Z</time>
      </trkpt>
      <trkpt lat="59.135621128852" lon="17.774877835427">
        <ele>0</ele>
        <time>2016-04-13T19:08:38Z</time>
      </trkpt>
      <trkpt lat="59.135677790496" lon="17.774994176199">
        <ele>0</ele>
        <time>2016-04-13T19:08:39Z</time>
      </trkpt>
      <trkpt lat="59.135996973248" lon="17.775708984631">
        <ele>0</ele>
        <time>2016-04-13T19:08:45Z</time>
      </trkpt>
      <trkpt lat="59.136355048016" lon="17.776570057218">
        <ele>0</ele>
        <time>2016-04-13T19:08:52Z</time>
      </trkpt>
      <trkpt lat="59.136451272228" lon="17.77683391943">
        <ele>0</ele>
        <time>2016-04-13T19:08:54Z</time>
      </trkpt>
      <trkpt lat="59.136603403713" lon="17.7772471471">
        <ele>0</ele>
        <time>2016-04-13T19:08:57Z</time>
      </trkpt>
      <trkpt lat="59.136652773104" lon="17.777387543925">
        <ele>0</ele>
        <time>2016-04-13T19:08:58Z</time>
      </trkpt>
      <trkpt lat="59.136701891038" lon="17.77753296989">
        <ele>0</ele>
        <time>2016-04-13T19:08:59Z</time>
      </trkpt>
      <trkpt lat="59.136752936809" lon="17.777671606516">
        <ele>0</ele>
        <time>2016-04-13T19:09:00Z</time>
      </trkpt>
      <trkpt lat="59.136805910417" lon="17.77781795449">
        <ele>0</ele>
        <time>2016-04-13T19:09:01Z</time>
      </trkpt>
      <trkpt lat="59.137159458959" lon="17.778774245461">
        <ele>0</ele>
        <time>2016-04-13T19:09:08Z</time>
      </trkpt>
      <trkpt lat="59.137567992765" lon="17.779640682464">
        <ele>0</ele>
        <time>2016-04-13T19:09:15Z</time>
      </trkpt>
      <trkpt lat="59.137836297384" lon="17.780109398312">
        <ele>0</ele>
        <time>2016-04-13T19:09:19Z</time>
      </trkpt>
      <trkpt lat="59.137903352584" lon="17.780218614469">
        <ele>0</ele>
        <time>2016-04-13T19:09:20Z</time>
      </trkpt>
      <trkpt lat="59.137972838535" lon="17.780316347423">
        <ele>0</ele>
        <time>2016-04-13T19:09:21Z</time>
      </trkpt>
      <trkpt lat="59.138040983382" lon="17.780417936051">
        <ele>0</ele>
        <time>2016-04-13T19:09:22Z</time>
      </trkpt>
      <trkpt lat="59.138108038582" lon="17.780523883267">
        <ele>0</ele>
        <time>2016-04-13T19:09:23Z</time>
      </trkpt>
      <trkpt lat="59.138538952061" lon="17.781094355381">
        <ele>0</ele>
        <time>2016-04-13T19:09:29Z</time>
      </trkpt>
      <trkpt lat="59.13887598826" lon="17.781585367083">
        <ele>0</ele>
        <time>2016-04-13T19:09:34Z</time>
      </trkpt>
      <trkpt lat="59.1389396907" lon="17.781691565756">
        <ele>0</ele>
        <time>2016-04-13T19:09:35Z</time>
      </trkpt>
      <trkpt lat="59.138998699276" lon="17.781805894872">
        <ele>0</ele>
        <time>2016-04-13T19:09:36Z</time>
      </trkpt>
      <trkpt lat="59.139060809155" lon="17.781922319463">
        <ele>0</ele>
        <time>2016-04-13T19:09:37Z</time>
      </trkpt>
      <trkpt lat="59.139122080844" lon="17.782041090986">
        <ele>0</ele>
        <time>2016-04-13T19:09:38Z</time>
      </trkpt>
      <trkpt lat="59.139427182004" lon="17.782629835642">
        <ele>0</ele>
        <time>2016-04-13T19:09:43Z</time>
      </trkpt>
      <trkpt lat="59.139892125997" lon="17.783367359023">
        <ele>0</ele>
        <time>2016-04-13T19:09:50Z</time>
      </trkpt>
      <trkpt lat="59.140178870796" lon="17.783705484869">
        <ele>0</ele>
        <time>2016-04-13T19:09:54Z</time>
      </trkpt>
      <trkpt lat="59.140248440566" lon="17.783786202566">
        <ele>0</ele>
        <time>2016-04-13T19:09:55Z</time>
      </trkpt>
      <trkpt lat="59.140317172146" lon="17.783868931919">
        <ele>0</ele>
        <time>2016-04-13T19:09:56Z</time>
      </trkpt>
      <trkpt lat="59.140383724432" lon="17.78395937262">
        <ele>0</ele>
        <time>2016-04-13T19:09:57Z</time>
      </trkpt>
      <trkpt lat="59.140452539831" lon="17.784047969303">
        <ele>0</ele>
        <time>2016-04-13T19:09:58Z</time>
      </trkpt>
      <trkpt lat="59.140944305904" lon="17.784742158261">
        <ele>0</ele>
        <time>2016-04-13T19:10:05Z</time>
      </trkpt>
      <trkpt lat="59.141427354801" lon="17.785472557027">
        <ele>0</ele>
        <time>2016-04-13T19:10:12Z</time>
      </trkpt>
      <trkpt lat="59.141493990906" lon="17.785578839519">
        <ele>0</ele>
        <time>2016-04-13T19:10:13Z</time>
      </trkpt>
      <trkpt lat="59.141669843168" lon="17.785936159916">
        <ele>0</ele>
        <time>2016-04-13T19:10:16Z</time>
      </trkpt>
      <trkpt lat="59.141769168683" lon="17.786203374888">
        <ele>0</ele>
        <time>2016-04-13T19:10:18Z</time>
      </trkpt>
      <trkpt lat="59.14180881507" lon="17.78636833068">
        <ele>0</ele>
        <time>2016-04-13T19:10:19Z</time>
      </trkpt>
      <trkpt lat="59.141844521964" lon="17.786526161857">
        <ele>0</ele>
        <time>2016-04-13T19:10:20Z</time>
      </trkpt>
      <trkpt lat="59.141877379012" lon="17.786686507604">
        <ele>0</ele>
        <time>2016-04-13T19:10:21Z</time>
      </trkpt>
      <trkpt lat="59.141909984603" lon="17.786844925514">
        <ele>0</ele>
        <time>2016-04-13T19:10:22Z</time>
      </trkpt>
      <trkpt lat="59.141942254918" lon="17.787000828854">
        <ele>0</ele>
        <time>2016-04-13T19:10:23Z</time>
      </trkpt>
      <trkpt lat="59.141974189957" lon="17.787151619235">
        <ele>0</ele>
        <time>2016-04-13T19:10:24Z</time>
      </trkpt>
      <trkpt lat="59.14204769922" lon="17.787443644631">
        <ele>0</ele>
        <time>2016-04-13T19:10:26Z</time>
      </trkpt>
      <trkpt lat="59.142129422745" lon="17.787702812979">
        <ele>0</ele>
        <time>2016-04-13T19:10:28Z</time>
      </trkpt>
      <trkpt lat="59.142230508459" lon="17.787933063772">
        <ele>0</ele>
        <time>2016-04-13T19:10:30Z</time>
      </trkpt>
      <trkpt lat="59.142281386592" lon="17.788038927169">
        <ele>0</ele>
        <time>2016-04-13T19:10:31Z</time>
      </trkpt>
      <trkpt lat="59.14234106572" lon="17.788119225771">
        <ele>0</ele>
        <time>2016-04-13T19:10:32Z</time>
      </trkpt>
      <trkpt lat="59.142407701825" lon="17.788204721151">
        <ele>0</ele>
        <time>2016-04-13T19:10:33Z</time>
      </trkpt>
      <trkpt lat="59.142476936319" lon="17.788259706415">
        <ele>0</ele>
        <time>2016-04-13T19:10:34Z</time>
      </trkpt>
      <trkpt lat="59.142542063682" lon="17.788308656711">
        <ele>0</ele>
        <time>2016-04-13T19:10:35Z</time>
      </trkpt>
      <trkpt lat="59.142602832457" lon="17.788351572039">
        <ele>0.6</ele>
        <time>2016-04-13T19:10:36Z</time>
      </trkpt>
      <trkpt lat="59.142663098318" lon="17.788388620037">
        <ele>1</ele>
        <time>2016-04-13T19:10:37Z</time>
      </trkpt>
      <trkpt lat="59.142721771618" lon="17.788417956687">
        <ele>1.4</ele>
        <time>2016-04-13T19:10:38Z</time>
      </trkpt>
      <trkpt lat="59.142779355271" lon="17.788439917265">
        <ele>1.8</ele>
        <time>2016-04-13T19:10:39Z</time>
      </trkpt>
      <trkpt lat="59.142941712674" lon="17.788503535886">
        <ele>2.8</ele>
        <time>2016-04-13T19:10:42Z</time>
      </trkpt>
      <trkpt lat="59.142988483676" lon="17.788517617478">
        <ele>3.2</ele>
        <time>2016-04-13T19:10:43Z</time>
      </trkpt>
      <trkpt lat="59.143028465339" lon="17.788531950527">
        <ele>3.6</ele>
        <time>2016-04-13T19:10:44Z</time>
      </trkpt>
      <trkpt lat="59.143066519165" lon="17.788552318544">
        <ele>4.2</ele>
        <time>2016-04-13T19:10:45Z</time>
      </trkpt>
      <trkpt lat="59.143157127504" lon="17.78861048893">
        <ele>4.6</ele>
        <time>2016-04-13T19:10:47Z</time>
      </trkpt>
      <trkpt lat="59.14320272504" lon="17.788638400657">
        <ele>5</ele>
        <time>2016-04-13T19:10:48Z</time>
      </trkpt>
      <trkpt lat="59.143252345888" lon="17.788674861922">
        <ele>5.4</ele>
        <time>2016-04-13T19:10:49Z</time>
      </trkpt>
      <trkpt lat="59.143304229849" lon="17.788729176634">
        <ele>5.8</ele>
        <time>2016-04-13T19:10:50Z</time>
      </trkpt>
      <trkpt lat="59.143353096326" lon="17.788781144414">
        <ele>6.4</ele>
        <time>2016-04-13T19:10:51Z</time>
      </trkpt>
      <trkpt lat="59.143406908124" lon="17.788830765262">
        <ele>6.8</ele>
        <time>2016-04-13T19:10:52Z</time>
      </trkpt>
      <trkpt lat="59.143460552284" lon="17.788875524608">
        <ele>7.2</ele>
        <time>2016-04-13T19:10:53Z</time>
      </trkpt>
      <trkpt lat="59.143514615539" lon="17.78891978104">
        <ele>7.6</ele>
        <time>2016-04-13T19:10:54Z</time>
      </trkpt>
      <trkpt lat="59.143562057093" lon="17.788967893146">
        <ele>8.2</ele>
        <time>2016-04-13T19:10:55Z</time>
      </trkpt>
      <trkpt lat="59.143628106465" lon="17.789021453487">
        <ele>8.6</ele>
        <time>2016-04-13T19:10:56Z</time>
      </trkpt>
      <trkpt lat="59.143818207957" lon="17.78916537071">
        <ele>8.6</ele>
        <time>2016-04-13T19:10:59Z</time>
      </trkpt>
      <trkpt lat="59.144311566591" lon="17.789605336641">
        <ele>8.6</ele>
        <time>2016-04-13T19:11:07Z</time>
      </trkpt>
      <trkpt lat="59.144692523946" lon="17.789904235195">
        <ele>9</ele>
        <time>2016-04-13T19:11:13Z</time>
      </trkpt>
      <trkpt lat="59.14475337654" lon="17.789938684804">
        <ele>9.4</ele>
        <time>2016-04-13T19:11:14Z</time>
      </trkpt>
      <trkpt lat="59.144819845007" lon="17.789972212404">
        <ele>10</ele>
        <time>2016-04-13T19:11:15Z</time>
      </trkpt>
      <trkpt lat="59.144889750053" lon="17.790003057796">
        <ele>10.4</ele>
        <time>2016-04-13T19:11:16Z</time>
      </trkpt>
      <trkpt lat="59.144963007859" lon="17.790029125505">
        <ele>10.8</ele>
        <time>2016-04-13T19:11:17Z</time>
      </trkpt>
      <trkpt lat="59.145111870403" lon="17.790060306173">
        <ele>10.8</ele>
        <time>2016-04-13T19:11:19Z</time>
      </trkpt>
      <trkpt lat="59.145424347635" lon="17.790048152418">
        <ele>10.4</ele>
        <time>2016-04-13T19:11:23Z</time>
      </trkpt>
      <trkpt lat="59.145499868554" lon="17.790041782174">
        <ele>9.8</ele>
        <time>2016-04-13T19:11:24Z</time>
      </trkpt>
      <trkpt lat="59.145577820224" lon="17.790030801885">
        <ele>9.4</ele>
        <time>2016-04-13T19:11:25Z</time>
      </trkpt>
      <trkpt lat="59.145656442446" lon="17.790013032257">
        <ele>9</ele>
        <time>2016-04-13T19:11:26Z</time>
      </trkpt>
      <trkpt lat="59.145735399944" lon="17.789998615389">
        <ele>8.6</ele>
        <time>2016-04-13T19:11:27Z</time>
      </trkpt>
      <trkpt lat="59.145975541379" lon="17.789993837706">
        <ele>8.6</ele>
        <time>2016-04-13T19:11:30Z</time>
      </trkpt>
      <trkpt lat="59.146131444719" lon="17.790030634247">
        <ele>8.6</ele>
        <time>2016-04-13T19:11:32Z</time>
      </trkpt>
      <trkpt lat="59.146274020838" lon="17.790137084377">
        <ele>8.6</ele>
        <time>2016-04-13T19:11:34Z</time>
      </trkpt>
      <trkpt lat="59.146522041259" lon="17.790492476937">
        <ele>8.6</ele>
        <time>2016-04-13T19:11:38Z</time>
      </trkpt>
      <trkpt lat="59.146823370564" lon="17.791050376201">
        <ele>8.6</ele>
        <time>2016-04-13T19:11:43Z</time>
      </trkpt>
      <trkpt lat="59.14724782998" lon="17.791860235379">
        <ele>8.6</ele>
        <time>2016-04-13T19:11:50Z</time>
      </trkpt>
      <trkpt lat="59.147590817328" lon="17.792513520665">
        <ele>9</ele>
        <time>2016-04-13T19:11:56Z</time>
      </trkpt>
      <trkpt lat="59.147651753741" lon="17.792622820641">
        <ele>9.8</ele>
        <time>2016-04-13T19:11:57Z</time>
      </trkpt>
      <trkpt lat="59.147716462009" lon="17.792725666554">
        <ele>10.2</ele>
        <time>2016-04-13T19:11:58Z</time>
      </trkpt>
      <trkpt lat="59.147779661535" lon="17.792819627653">
        <ele>10.6</ele>
        <time>2016-04-13T19:11:59Z</time>
      </trkpt>
      <trkpt lat="59.147898433058" lon="17.793003777996">
        <ele>10.6</ele>
        <time>2016-04-13T19:12:01Z</time>
      </trkpt>
      <trkpt lat="59.147962303136" lon="17.793096314172">
        <ele>10.6</ele>
        <time>2016-04-13T19:12:02Z</time>
      </trkpt>
      <trkpt lat="59.148099682477" lon="17.793270490054">
        <ele>10.6</ele>
        <time>2016-04-13T19:12:04Z</time>
      </trkpt>
      <trkpt lat="59.1484112377" lon="17.793573831015">
        <ele>10.6</ele>
        <time>2016-04-13T19:12:08Z</time>
      </trkpt>
      <trkpt lat="59.148856065133" lon="17.793916063992">
        <ele>10.6</ele>
        <time>2016-04-13T19:12:13Z</time>
      </trkpt>
      <trkpt lat="59.148945583825" lon="17.793995356766">
        <ele>10.2</ele>
        <time>2016-04-13T19:12:14Z</time>
      </trkpt>
      <trkpt lat="59.149036275983" lon="17.794076745015">
        <ele>9.6</ele>
        <time>2016-04-13T19:12:15Z</time>
      </trkpt>
      <trkpt lat="59.14912789015" lon="17.794159139092">
        <ele>9.2</ele>
        <time>2016-04-13T19:12:16Z</time>
      </trkpt>
      <trkpt lat="59.149222018887" lon="17.794243461006">
        <ele>8.8</ele>
        <time>2016-04-13T19:12:17Z</time>
      </trkpt>
      <trkpt lat="59.149307765724" lon="17.794343540892">
        <ele>8.2</ele>
        <time>2016-04-13T19:12:18Z</time>
      </trkpt>
      <trkpt lat="59.149386639403" lon="17.794460133121">
        <ele>8.2</ele>
        <time>2016-04-13T19:12:19Z</time>
      </trkpt>
      <trkpt lat="59.149459142838" lon="17.794595081711">
        <ele>7.8</ele>
        <time>2016-04-13T19:12:20Z</time>
      </trkpt>
      <trkpt lat="59.149515385387" lon="17.794737071097">
        <ele>7</ele>
        <time>2016-04-13T19:12:21Z</time>
      </trkpt>
      <trkpt lat="59.149556875792" lon="17.794891130419">
        <ele>6.4</ele>
        <time>2016-04-13T19:12:22Z</time>
      </trkpt>
      <trkpt lat="59.149601635138" lon="17.795037813669">
        <ele>6</ele>
        <time>2016-04-13T19:12:23Z</time>
      </trkpt>
      <trkpt lat="59.149636420023" lon="17.795184748376">
        <ele>6.4</ele>
        <time>2016-04-13T19:12:24Z</time>
      </trkpt>
      <trkpt lat="59.149670869632" lon="17.795333946196">
        <ele>7</ele>
        <time>2016-04-13T19:12:25Z</time>
      </trkpt>
      <trkpt lat="59.149703810499" lon="17.795483563111">
        <ele>7.4</ele>
        <time>2016-04-13T19:12:26Z</time>
      </trkpt>
      <trkpt lat="59.149737673375" lon="17.795641897202">
        <ele>7.8</ele>
        <time>2016-04-13T19:12:27Z</time>
      </trkpt>
      <trkpt lat="59.149770362785" lon="17.795792352307">
        <ele>8.2</ele>
        <time>2016-04-13T19:12:28Z</time>
      </trkpt>
      <trkpt lat="59.149946550323" lon="17.796361650955">
        <ele>8.2</ele>
        <time>2016-04-13T19:12:32Z</time>
      </trkpt>
      <trkpt lat="59.150218794435" lon="17.796790804235">
        <ele>8.2</ele>
        <time>2016-04-13T19:12:36Z</time>
      </trkpt>
      <trkpt lat="59.150574186995" lon="17.797289275828">
        <ele>8.2</ele>
        <time>2016-04-13T19:12:41Z</time>
      </trkpt>
      <trkpt lat="59.150857327577" lon="17.797930826454">
        <ele>8.2</ele>
        <time>2016-04-13T19:12:46Z</time>
      </trkpt>
      <trkpt lat="59.150963777707" lon="17.798357213707">
        <ele>8.6</ele>
        <time>2016-04-13T19:12:49Z</time>
      </trkpt>
      <trkpt lat="59.150987330846" lon="17.798505908613">
        <ele>9.2</ele>
        <time>2016-04-13T19:12:50Z</time>
      </trkpt>
      <trkpt lat="59.151008872329" lon="17.798645551067">
        <ele>9.6</ele>
        <time>2016-04-13T19:12:51Z</time>
      </trkpt>
      <trkpt lat="59.151032676925" lon="17.798779326191">
        <ele>10</ele>
        <time>2016-04-13T19:12:52Z</time>
      </trkpt>
      <trkpt lat="59.151056816797" lon="17.798907233985">
        <ele>10.6</ele>
        <time>2016-04-13T19:12:53Z</time>
      </trkpt>
      <trkpt lat="59.15107752009" lon="17.79902919063">
        <ele>11</ele>
        <time>2016-04-13T19:12:54Z</time>
      </trkpt>
      <trkpt lat="59.151095038261" lon="17.799158020433">
        <ele>11.6</ele>
        <time>2016-04-13T19:12:55Z</time>
      </trkpt>
      <trkpt lat="59.151121692703" lon="17.799298584896">
        <ele>12.2</ele>
        <time>2016-04-13T19:12:56Z</time>
      </trkpt>
      <trkpt lat="59.151157064321" lon="17.799454655874">
        <ele>12.8</ele>
        <time>2016-04-13T19:12:57Z</time>
      </trkpt>
      <trkpt lat="59.151332246031" lon="17.800084555659">
        <ele>12.8</ele>
        <time>2016-04-13T19:13:01Z</time>
      </trkpt>
      <trkpt lat="59.151384213811" lon="17.800233418203">
        <ele>12.4</ele>
        <time>2016-04-13T19:13:02Z</time>
      </trkpt>
      <trkpt lat="59.151435594858" lon="17.800376664874">
        <ele>12</ele>
        <time>2016-04-13T19:13:03Z</time>
      </trkpt>
      <trkpt lat="59.151488400828" lon="17.800515133862">
        <ele>11.6</ele>
        <time>2016-04-13T19:13:04Z</time>
      </trkpt>
      <trkpt lat="59.151550762164" lon="17.800650585366">
        <ele>11.2</ele>
        <time>2016-04-13T19:13:05Z</time>
      </trkpt>
      <trkpt lat="59.151613626414" lon="17.800783606119">
        <ele>10.8</ele>
        <time>2016-04-13T19:13:06Z</time>
      </trkpt>
      <trkpt lat="59.151938089763" lon="17.801460696001">
        <ele>10.2</ele>
        <time>2016-04-13T19:13:11Z</time>
      </trkpt>
      <trkpt lat="59.152009671189" lon="17.801604361767">
        <ele>9.8</ele>
        <time>2016-04-13T19:13:12Z</time>
      </trkpt>
      <trkpt lat="59.152076139656" lon="17.801744171859">
        <ele>9.4</ele>
        <time>2016-04-13T19:13:13Z</time>
      </trkpt>
      <trkpt lat="59.1521411832" lon="17.801881886476">
        <ele>8.8</ele>
        <time>2016-04-13T19:13:14Z</time>
      </trkpt>
      <trkpt lat="59.152206226744" lon="17.802011889745">
        <ele>8.4</ele>
        <time>2016-04-13T19:13:15Z</time>
      </trkpt>
      <trkpt lat="59.152580646217" lon="17.802768607677">
        <ele>8.4</ele>
        <time>2016-04-13T19:13:21Z</time>
      </trkpt>
      <trkpt lat="59.152728670571" lon="17.803145290263">
        <ele>8.8</ele>
        <time>2016-04-13T19:13:24Z</time>
      </trkpt>
      <trkpt lat="59.152773681374" lon="17.80328468126">
        <ele>9.2</ele>
        <time>2016-04-13T19:13:25Z</time>
      </trkpt>
      <trkpt lat="59.152812657209" lon="17.803423569343">
        <ele>9.6</ele>
        <time>2016-04-13T19:13:26Z</time>
      </trkpt>
      <trkpt lat="59.152851297768" lon="17.803563630892">
        <ele>10</ele>
        <time>2016-04-13T19:13:27Z</time>
      </trkpt>
      <trkpt lat="59.152889770689" lon="17.803698998577">
        <ele>10.4</ele>
        <time>2016-04-13T19:13:28Z</time>
      </trkpt>
      <trkpt lat="59.153096468343" lon="17.804375585545">
        <ele>10.4</ele>
        <time>2016-04-13T19:13:33Z</time>
      </trkpt>
      <trkpt lat="59.153366784618" lon="17.805256858511">
        <ele>10</ele>
        <time>2016-04-13T19:13:39Z</time>
      </trkpt>
      <trkpt lat="59.153412214516" lon="17.805403709399">
        <ele>9.6</ele>
        <time>2016-04-13T19:13:40Z</time>
      </trkpt>
      <trkpt lat="59.153459404613" lon="17.805558355454">
        <ele>9.2</ele>
        <time>2016-04-13T19:13:41Z</time>
      </trkpt>
      <trkpt lat="59.153505002149" lon="17.805706882722">
        <ele>8.8</ele>
        <time>2016-04-13T19:13:42Z</time>
      </trkpt>
      <trkpt lat="59.153550096771" lon="17.80585708637">
        <ele>8.4</ele>
        <time>2016-04-13T19:13:43Z</time>
      </trkpt>
      <trkpt lat="59.153595107574" lon="17.806008128208">
        <ele>8</ele>
        <time>2016-04-13T19:13:44Z</time>
      </trkpt>
      <trkpt lat="59.153640788929" lon="17.806154727639">
        <ele>7.6</ele>
        <time>2016-04-13T19:13:45Z</time>
      </trkpt>
      <trkpt lat="59.153688565759" lon="17.806301410889">
        <ele>7</ele>
        <time>2016-04-13T19:13:46Z</time>
      </trkpt>
      <trkpt lat="59.15373290601" lon="17.806448597053">
        <ele>6.6</ele>
        <time>2016-04-13T19:13:47Z</time>
      </trkpt>
      <trkpt lat="59.153780096107" lon="17.806606260592">
        <ele>6.2</ele>
        <time>2016-04-13T19:13:48Z</time>
      </trkpt>
      <trkpt lat="59.153923091321" lon="17.807067013635">
        <ele>6.2</ele>
        <time>2016-04-13T19:13:51Z</time>
      </trkpt>
      <trkpt lat="59.154207740645" lon="17.80800452915">
        <ele>6.2</ele>
        <time>2016-04-13T19:13:57Z</time>
      </trkpt>
      <trkpt lat="59.154503956991" lon="17.808977248645">
        <ele>6.2</ele>
        <time>2016-04-13T19:14:03Z</time>
      </trkpt>
      <trkpt lat="59.154712666301" lon="17.809833124454">
        <ele>6.2</ele>
        <time>2016-04-13T19:14:08Z</time>
      </trkpt>
      <trkpt lat="59.154862702311" lon="17.810917323219">
        <ele>5.8</ele>
        <time>2016-04-13T19:14:14Z</time>
      </trkpt>
      <trkpt lat="59.15487787355" lon="17.811098204621">
        <ele>5.4</ele>
        <time>2016-04-13T19:14:15Z</time>
      </trkpt>
      <trkpt lat="59.154889859667" lon="17.811278247833">
        <ele>5</ele>
        <time>2016-04-13T19:14:16Z</time>
      </trkpt>
      <trkpt lat="59.15490301925" lon="17.811450160602">
        <ele>4.6</ele>
        <time>2016-04-13T19:14:17Z</time>
      </trkpt>
      <trkpt lat="59.154917352299" lon="17.811622324828">
        <ele>4.2</ele>
        <time>2016-04-13T19:14:18Z</time>
      </trkpt>
      <trkpt lat="59.154934451375" lon="17.81197084423">
        <ele>4.2</ele>
        <time>2016-04-13T19:14:20Z</time>
      </trkpt>
      <trkpt lat="59.15497510359" lon="17.813028556191">
        <ele>4.2</ele>
        <time>2016-04-13T19:14:26Z</time>
      </trkpt>
      <trkpt lat="59.155032687243" lon="17.814215014136">
        <ele>4.2</ele>
        <time>2016-04-13T19:14:33Z</time>
      </trkpt>
      <trkpt lat="59.155040566229" lon="17.815401891176">
        <ele>4.2</ele>
        <time>2016-04-13T19:14:40Z</time>
      </trkpt>
      <trkpt lat="59.15507065725" lon="17.816395062507">
        <ele>4.2</ele>
        <time>2016-04-13T19:14:46Z</time>
      </trkpt>
      <trkpt lat="59.155151291128" lon="17.817376834454">
        <ele>4.2</ele>
        <time>2016-04-13T19:14:52Z</time>
      </trkpt>
      <trkpt lat="59.155279282741" lon="17.818264896759">
        <ele>4.2</ele>
        <time>2016-04-13T19:14:58Z</time>
      </trkpt>
      <trkpt lat="59.155474832468" lon="17.818905022462">
        <ele>4.2</ele>
        <time>2016-04-13T19:15:03Z</time>
      </trkpt>
      <trkpt lat="59.155671052747" lon="17.819468034685">
        <ele>4.2</ele>
        <time>2016-04-13T19:15:08Z</time>
      </trkpt>
      <trkpt lat="59.155742131259" lon="17.819715803649">
        <ele>4.2</ele>
        <time>2016-04-13T19:15:10Z</time>
      </trkpt>
      <trkpt lat="59.155749255874" lon="17.819851003696">
        <ele>4.2</ele>
        <time>2016-04-13T19:15:11Z</time>
      </trkpt>
      <trkpt lat="59.155678512638" lon="17.820229362662">
        <ele>4.2</ele>
        <time>2016-04-13T19:15:14Z</time>
      </trkpt>
      <trkpt lat="59.15563895007" lon="17.820362634872">
        <ele>4.2</ele>
        <time>2016-04-13T19:15:15Z</time>
      </trkpt>
      <trkpt lat="59.15551992709" lon="17.820816933852">
        <ele>4.2</ele>
        <time>2016-04-13T19:15:18Z</time>
      </trkpt>
      <trkpt lat="59.155274924153" lon="17.821747995304">
        <ele>4.2</ele>
        <time>2016-04-13T19:15:24Z</time>
      </trkpt>
      <trkpt lat="59.155229410436" lon="17.82191010125">
        <ele>3.6</ele>
        <time>2016-04-13T19:15:25Z</time>
      </trkpt>
      <trkpt lat="59.15518632747" lon="17.822057874147">
        <ele>3.2</ele>
        <time>2016-04-13T19:15:26Z</time>
      </trkpt>
      <trkpt lat="59.155143998875" lon="17.822207239605">
        <ele>2.8</ele>
        <time>2016-04-13T19:15:27Z</time>
      </trkpt>
      <trkpt lat="59.155103095203" lon="17.822354844864">
        <ele>2.4</ele>
        <time>2016-04-13T19:15:28Z</time>
      </trkpt>
      <trkpt lat="59.155059676961" lon="17.822502282485">
        <ele>2</ele>
        <time>2016-04-13T19:15:29Z</time>
      </trkpt>
      <trkpt lat="59.154979378359" lon="17.822790787483">
        <ele>2</ele>
        <time>2016-04-13T19:15:31Z</time>
      </trkpt>
      <trkpt lat="59.154901594327" lon="17.823087255286">
        <ele>2.4</ele>
        <time>2016-04-13T19:15:33Z</time>
      </trkpt>
      <trkpt lat="59.154863791958" lon="17.823231172509">
        <ele>2.8</ele>
        <time>2016-04-13T19:15:34Z</time>
      </trkpt>
      <trkpt lat="59.154824899942" lon="17.823376347017">
        <ele>3.2</ele>
        <time>2016-04-13T19:15:35Z</time>
      </trkpt>
      <trkpt lat="59.154788103401" lon="17.823520515697">
        <ele>3.6</ele>
        <time>2016-04-13T19:15:36Z</time>
      </trkpt>
      <trkpt lat="59.154750301032" lon="17.823667366585">
        <ele>4</ele>
        <time>2016-04-13T19:15:37Z</time>
      </trkpt>
      <trkpt lat="59.154630356043" lon="17.824113870398">
        <ele>4</ele>
        <time>2016-04-13T19:15:40Z</time>
      </trkpt>
      <trkpt lat="59.154380156328" lon="17.825029592973">
        <ele>4</ele>
        <time>2016-04-13T19:15:46Z</time>
      </trkpt>
      <trkpt lat="59.154088717665" lon="17.825692349806">
        <ele>4</ele>
        <time>2016-04-13T19:15:51Z</time>
      </trkpt>
      <trkpt lat="59.153744975946" lon="17.826238262953">
        <ele>4</ele>
        <time>2016-04-13T19:15:56Z</time>
      </trkpt>
      <trkpt lat="59.153243235412" lon="17.826914682283">
        <ele>4</ele>
        <time>2016-04-13T19:16:03Z</time>
      </trkpt>
      <trkpt lat="59.153172073081" lon="17.827007805192">
        <ele>4</ele>
        <time>2016-04-13T19:16:04Z</time>
      </trkpt>
      <trkpt lat="59.152662453561" lon="17.827703754349">
        <ele>4</ele>
        <time>2016-04-13T19:16:11Z</time>
      </trkpt>
      <trkpt lat="59.152260289999" lon="17.828263329993">
        <ele>4</ele>
        <time>2016-04-13T19:16:17Z</time>
      </trkpt>
      <trkpt lat="59.151780510043" lon="17.828921225324">
        <ele>4</ele>
        <time>2016-04-13T19:16:24Z</time>
      </trkpt>
      <trkpt lat="59.151386560743" lon="17.829466216462">
        <ele>4.4</ele>
        <time>2016-04-13T19:16:30Z</time>
      </trkpt>
      <trkpt lat="59.151320427552" lon="17.829557076258">
        <ele>4.8</ele>
        <time>2016-04-13T19:16:31Z</time>
      </trkpt>
      <trkpt lat="59.151253791447" lon="17.829647936054">
        <ele>5.2</ele>
        <time>2016-04-13T19:16:32Z</time>
      </trkpt>
      <trkpt lat="59.151191597749" lon="17.829732174149">
        <ele>5.6</ele>
        <time>2016-04-13T19:16:33Z</time>
      </trkpt>
      <trkpt lat="59.151131080431" lon="17.829817250434">
        <ele>6</ele>
        <time>2016-04-13T19:16:34Z</time>
      </trkpt>
      <trkpt lat="59.150890184625" lon="17.8301536999">
        <ele>6</ele>
        <time>2016-04-13T19:16:38Z</time>
      </trkpt>
      <trkpt lat="59.150829164393" lon="17.830242380402">
        <ele>6.6</ele>
        <time>2016-04-13T19:16:39Z</time>
      </trkpt>
      <trkpt lat="59.15077074255" lon="17.83032720523">
        <ele>7</ele>
        <time>2016-04-13T19:16:40Z</time>
      </trkpt>
      <trkpt lat="59.150712236888" lon="17.830410688954">
        <ele>7.4</ele>
        <time>2016-04-13T19:16:41Z</time>
      </trkpt>
      <trkpt lat="59.150652390122" lon="17.830497860714">
        <ele>7.8</ele>
        <time>2016-04-13T19:16:42Z</time>
      </trkpt>
      <trkpt lat="59.150594135917" lon="17.830584781017">
        <ele>8.4</ele>
        <time>2016-04-13T19:16:43Z</time>
      </trkpt>
      <trkpt lat="59.150478381878" lon="17.830755101225">
        <ele>8.4</ele>
        <time>2016-04-13T19:16:45Z</time>
      </trkpt>
      <trkpt lat="59.150047133123" lon="17.831356167274">
        <ele>8.4</ele>
        <time>2016-04-13T19:16:52Z</time>
      </trkpt>
      <trkpt lat="59.149602892423" lon="17.831852040478">
        <ele>8.4</ele>
        <time>2016-04-13T19:16:58Z</time>
      </trkpt>
      <trkpt lat="59.149526281857" lon="17.83191808985">
        <ele>7.8</ele>
        <time>2016-04-13T19:16:59Z</time>
      </trkpt>
      <trkpt lat="59.149449000739" lon="17.831981037919">
        <ele>7.4</ele>
        <time>2016-04-13T19:17:00Z</time>
      </trkpt>
      <trkpt lat="59.149370294698" lon="17.832040130314">
        <ele>7</ele>
        <time>2016-04-13T19:17:01Z</time>
      </trkpt>
      <trkpt lat="59.149284547861" lon="17.832100228537">
        <ele>6.4</ele>
        <time>2016-04-13T19:17:02Z</time>
      </trkpt>
      <trkpt lat="59.149204919811" lon="17.832147837729">
        <ele>6</ele>
        <time>2016-04-13T19:17:03Z</time>
      </trkpt>
      <trkpt lat="59.149124202114" lon="17.832196033654">
        <ele>6</ele>
        <time>2016-04-13T19:17:04Z</time>
      </trkpt>
      <trkpt lat="59.148548533222" lon="17.832516725148">
        <ele>6</ele>
        <time>2016-04-13T19:17:11Z</time>
      </trkpt>
      <trkpt lat="59.148464798041" lon="17.832561735951">
        <ele>6</ele>
        <time>2016-04-13T19:17:12Z</time>
      </trkpt>
      <trkpt lat="59.147951239028" lon="17.832846972008">
        <ele>6</ele>
        <time>2016-04-13T19:17:18Z</time>
      </trkpt>
      <trkpt lat="59.147787540521" lon="17.832941687478">
        <ele>5.6</ele>
        <time>2016-04-13T19:17:20Z</time>
      </trkpt>
      <trkpt lat="59.14770799629" lon="17.832987285014">
        <ele>5</ele>
        <time>2016-04-13T19:17:21Z</time>
      </trkpt>
      <trkpt lat="59.147628787335" lon="17.83303120617">
        <ele>4.6</ele>
        <time>2016-04-13T19:17:22Z</time>
      </trkpt>
      <trkpt lat="59.14754874019" lon="17.833074959688">
        <ele>4</ele>
        <time>2016-04-13T19:17:23Z</time>
      </trkpt>
      <trkpt lat="59.147468022493" lon="17.833119970491">
        <ele>3.6</ele>
        <time>2016-04-13T19:17:24Z</time>
      </trkpt>
      <trkpt lat="59.147385879873" lon="17.833168417873">
        <ele>3.6</ele>
        <time>2016-04-13T19:17:25Z</time>
      </trkpt>
      <trkpt lat="59.147234838035" lon="17.833255421995">
        <ele>4</ele>
        <time>2016-04-13T19:17:27Z</time>
      </trkpt>
      <trkpt lat="59.147160909677" lon="17.8332969124">
        <ele>4.4</ele>
        <time>2016-04-13T19:17:28Z</time>
      </trkpt>
      <trkpt lat="59.147088154785" lon="17.8333388219">
        <ele>4.8</ele>
        <time>2016-04-13T19:17:29Z</time>
      </trkpt>
      <trkpt lat="59.147015818988" lon="17.833378552106">
        <ele>5.2</ele>
        <time>2016-04-13T19:17:30Z</time>
      </trkpt>
      <trkpt lat="59.146941639173" lon="17.833417025027">
        <ele>5.6</ele>
        <time>2016-04-13T19:17:31Z</time>
      </trkpt>
      <trkpt lat="59.146867710815" lon="17.8334561685">
        <ele>5.6</ele>
        <time>2016-04-13T19:17:32Z</time>
      </trkpt>
      <trkpt lat="59.146790345878" lon="17.833493970869">
        <ele>6</ele>
        <time>2016-04-13T19:17:33Z</time>
      </trkpt>
      <trkpt lat="59.146717004253" lon="17.83352490008">
        <ele>6.6</ele>
        <time>2016-04-13T19:17:34Z</time>
      </trkpt>
      <trkpt lat="59.146644165542" lon="17.833554572006">
        <ele>7</ele>
        <time>2016-04-13T19:17:35Z</time>
      </trkpt>
      <trkpt lat="59.146572919392" lon="17.833582986647">
        <ele>7.4</ele>
        <time>2016-04-13T19:17:36Z</time>
      </trkpt>
      <trkpt lat="59.146502259975" lon="17.833613077668">
        <ele>7.8</ele>
        <time>2016-04-13T19:17:37Z</time>
      </trkpt>
      <trkpt lat="59.146354570897" lon="17.833642833413">
        <ele>7.8</ele>
        <time>2016-04-13T19:17:39Z</time>
      </trkpt>
      <trkpt lat="59.145900188098" lon="17.833652724055">
        <ele>8.2</ele>
        <time>2016-04-13T19:17:45Z</time>
      </trkpt>
      <trkpt lat="59.145829528681" lon="17.833652724055">
        <ele>8.6</ele>
        <time>2016-04-13T19:17:46Z</time>
      </trkpt>
      <trkpt lat="59.145756941427" lon="17.833654316616">
        <ele>9</ele>
        <time>2016-04-13T19:17:47Z</time>
      </trkpt>
      <trkpt lat="59.145685695277" lon="17.833653059331">
        <ele>9.4</ele>
        <time>2016-04-13T19:17:48Z</time>
      </trkpt>
      <trkpt lat="59.14561084491" lon="17.833647862553">
        <ele>9.8</ele>
        <time>2016-04-13T19:17:49Z</time>
      </trkpt>
      <trkpt lat="59.145372715131" lon="17.833623638862">
        <ele>9.8</ele>
        <time>2016-04-13T19:17:52Z</time>
      </trkpt>
      <trkpt lat="59.145289063769" lon="17.833611401288">
        <ele>9.4</ele>
        <time>2016-04-13T19:17:53Z</time>
      </trkpt>
      <trkpt lat="59.145202394923" lon="17.833597738791">
        <ele>8.8</ele>
        <time>2016-04-13T19:17:54Z</time>
      </trkpt>
      <trkpt lat="59.145119581751" lon="17.833584495389">
        <ele>8.4</ele>
        <time>2016-04-13T19:17:55Z</time>
      </trkpt>
      <trkpt lat="59.145035427475" lon="17.833565636114">
        <ele>8</ele>
        <time>2016-04-13T19:17:56Z</time>
      </trkpt>
      <trkpt lat="59.14495035119" lon="17.833541999156">
        <ele>7.4</ele>
        <time>2016-04-13T19:17:57Z</time>
      </trkpt>
      <trkpt lat="59.144864939629" lon="17.833516350542">
        <ele>7</ele>
        <time>2016-04-13T19:17:58Z</time>
      </trkpt>
      <trkpt lat="59.144781623543" lon="17.833478380535">
        <ele>6.6</ele>
        <time>2016-04-13T19:17:59Z</time>
      </trkpt>
      <trkpt lat="59.144694451783" lon="17.833428424411">
        <ele>6.2</ele>
        <time>2016-04-13T19:18:00Z</time>
      </trkpt>
      <trkpt lat="59.144604513996" lon="17.833379725572">
        <ele>5.8</ele>
        <time>2016-04-13T19:18:01Z</time>
      </trkpt>
      <trkpt lat="59.144515162942" lon="17.833328428344">
        <ele>5.4</ele>
        <time>2016-04-13T19:18:02Z</time>
      </trkpt>
      <trkpt lat="59.144094894476" lon="17.832994912543">
        <ele>5</ele>
        <time>2016-04-13T19:18:07Z</time>
      </trkpt>
      <trkpt lat="59.144006884526" lon="17.832920062176">
        <ele>4.6</ele>
        <time>2016-04-13T19:18:08Z</time>
      </trkpt>
      <trkpt lat="59.143917533472" lon="17.832846720551">
        <ele>4.2</ele>
        <time>2016-04-13T19:18:09Z</time>
      </trkpt>
      <trkpt lat="59.143829607341" lon="17.832775390582">
        <ele>3.8</ele>
        <time>2016-04-13T19:18:10Z</time>
      </trkpt>
      <trkpt lat="59.14374000483" lon="17.832700540215">
        <ele>3.4</ele>
        <time>2016-04-13T19:18:11Z</time>
      </trkpt>
      <trkpt lat="59.143478238093" lon="17.83251907208">
        <ele>3.4</ele>
        <time>2016-04-13T19:18:14Z</time>
      </trkpt>
      <trkpt lat="59.14295964994" lon="17.832251102737">
        <ele>3.4</ele>
        <time>2016-04-13T19:18:20Z</time>
      </trkpt>
      <trkpt lat="59.142524964606" lon="17.832133672318">
        <ele>3.4</ele>
        <time>2016-04-13T19:18:25Z</time>
      </trkpt>
      <trkpt lat="59.142015931819" lon="17.832084386746">
        <ele>3.8</ele>
        <time>2016-04-13T19:18:31Z</time>
      </trkpt>
      <trkpt lat="59.141939991805" lon="17.832081117805">
        <ele>4.2</ele>
        <time>2016-04-13T19:18:32Z</time>
      </trkpt>
      <trkpt lat="59.141863129782" lon="17.832084554384">
        <ele>4.6</ele>
        <time>2016-04-13T19:18:33Z</time>
      </trkpt>
      <trkpt lat="59.14178283118" lon="17.832081201624">
        <ele>5</ele>
        <time>2016-04-13T19:18:34Z</time>
      </trkpt>
      <trkpt lat="59.141705550062" lon="17.832075418113">
        <ele>5.6</ele>
        <time>2016-04-13T19:18:35Z</time>
      </trkpt>
      <trkpt lat="59.141546042505" lon="17.83206980224">
        <ele>5.6</ele>
        <time>2016-04-13T19:18:37Z</time>
      </trkpt>
      <trkpt lat="59.140984119929" lon="17.832025545808">
        <ele>5.6</ele>
        <time>2016-04-13T19:18:44Z</time>
      </trkpt>
      <trkpt lat="59.14090524625" lon="17.832020516668">
        <ele>5.6</ele>
        <time>2016-04-13T19:18:45Z</time>
      </trkpt>
      <trkpt lat="59.140351118841" lon="17.83197592496">
        <ele>5.6</ele>
        <time>2016-04-13T19:18:52Z</time>
      </trkpt>
      <trkpt lat="59.139853904533" lon="17.831963687386">
        <ele>5.6</ele>
        <time>2016-04-13T19:18:59Z</time>
      </trkpt>
      <trkpt lat="59.139726499653" lon="17.831978523349">
        <ele>5.6</ele>
        <time>2016-04-13T19:19:01Z</time>
      </trkpt>
      <trkpt lat="59.1396186246" lon="17.832076256303">
        <ele>5.6</ele>
        <time>2016-04-13T19:19:03Z</time>
      </trkpt>
      <trkpt lat="59.139536565799" lon="17.83239585815">
        <ele>5.6</ele>
        <time>2016-04-13T19:19:06Z</time>
      </trkpt>
      <trkpt lat="59.139388289988" lon="17.832582942158">
        <ele>5.6</ele>
        <time>2016-04-13T19:19:09Z</time>
      </trkpt>
      <trkpt lat="59.139320983331" lon="17.832589563859">
        <ele>5.6</ele>
        <time>2016-04-13T19:19:10Z</time>
      </trkpt>
      <trkpt lat="59.139256023606" lon="17.832625857486">
        <ele>5.6</ele>
        <time>2016-04-13T19:19:11Z</time>
      </trkpt>
      <trkpt lat="59.13919869141" lon="17.832704563527">
        <ele>5.6</ele>
        <time>2016-04-13T19:19:12Z</time>
      </trkpt>
      <trkpt lat="59.139132306762" lon="17.832958702735">
        <ele>5.6</ele>
        <time>2016-04-13T19:19:14Z</time>
      </trkpt>
      <trkpt lat="59.139110178546" lon="17.833265396456">
        <ele>5.6</ele>
        <time>2016-04-13T19:19:16Z</time>
      </trkpt>
      <trkpt lat="59.139087715054" lon="17.833580974991">
        <ele>5.6</ele>
        <time>2016-04-13T19:19:18Z</time>
      </trkpt>
      <trkpt lat="59.139073130548" lon="17.833744757317">
        <ele>5</ele>
        <time>2016-04-13T19:19:19Z</time>
      </trkpt>
      <trkpt lat="59.139058462223" lon="17.833901163571">
        <ele>4.2</ele>
        <time>2016-04-13T19:19:20Z</time>
      </trkpt>
      <trkpt lat="59.139045889373" lon="17.83405295978">
        <ele>3.8</ele>
        <time>2016-04-13T19:19:21Z</time>
      </trkpt>
      <trkpt lat="59.13903608255" lon="17.834197296098">
        <ele>3.4</ele>
        <time>2016-04-13T19:19:22Z</time>
      </trkpt>
      <trkpt lat="59.139021330406" lon="17.834339453122">
        <ele>3.4</ele>
        <time>2016-04-13T19:19:23Z</time>
      </trkpt>
      <trkpt lat="59.13900339314" lon="17.834480185223">
        <ele>3.4</ele>
        <time>2016-04-13T19:19:24Z</time>
      </trkpt>
      <trkpt lat="59.138952766464" lon="17.83476206852">
        <ele>3.4</ele>
        <time>2016-04-13T19:19:26Z</time>
      </trkpt>
      <trkpt lat="59.13885419532" lon="17.835006065629">
        <ele>3.4</ele>
        <time>2016-04-13T19:19:28Z</time>
      </trkpt>
      <trkpt lat="59.138666189303" lon="17.835269676384">
        <ele>3.4</ele>
        <time>2016-04-13T19:19:31Z</time>
      </trkpt>
      <trkpt lat="59.138523445546" lon="17.835388531726">
        <ele>3.4</ele>
        <time>2016-04-13T19:19:33Z</time>
      </trkpt>
      <trkpt lat="59.138374080088" lon="17.835505794507">
        <ele>3.4</ele>
        <time>2016-04-13T19:19:35Z</time>
      </trkpt>
      <trkpt lat="59.137935790537" lon="17.835830257856">
        <ele>3.4</ele>
        <time>2016-04-13T19:19:41Z</time>
      </trkpt>
      <trkpt lat="59.137446119939" lon="17.836274917651">
        <ele>3.4</ele>
        <time>2016-04-13T19:19:48Z</time>
      </trkpt>
      <trkpt lat="59.137126601911" lon="17.83675779891">
        <ele>3.4</ele>
        <time>2016-04-13T19:19:53Z</time>
      </trkpt>
      <trkpt lat="59.136860476586" lon="17.837366492488">
        <ele>3.4</ele>
        <time>2016-04-13T19:19:58Z</time>
      </trkpt>
      <trkpt lat="59.136625867205" lon="17.838163359721">
        <ele>3.4</ele>
        <time>2016-04-13T19:20:04Z</time>
      </trkpt>
      <trkpt lat="59.136366782676" lon="17.839020157539">
        <ele>3.4</ele>
        <time>2016-04-13T19:20:11Z</time>
      </trkpt>
      <trkpt lat="59.136164192153" lon="17.839612003498">
        <ele>3.8</ele>
        <time>2016-04-13T19:20:16Z</time>
      </trkpt>
      <trkpt lat="59.136118762255" lon="17.83972499151">
        <ele>4.2</ele>
        <time>2016-04-13T19:20:17Z</time>
      </trkpt>
      <trkpt lat="59.136072661805" lon="17.83983563259">
        <ele>4.6</ele>
        <time>2016-04-13T19:20:18Z</time>
      </trkpt>
      <trkpt lat="59.136027399545" lon="17.839942669453">
        <ele>5</ele>
        <time>2016-04-13T19:20:19Z</time>
      </trkpt>
      <trkpt lat="59.135978533068" lon="17.840049203402">
        <ele>5.6</ele>
        <time>2016-04-13T19:20:20Z</time>
      </trkpt>
      <trkpt lat="59.135791784336" lon="17.84043577663">
        <ele>6</ele>
        <time>2016-04-13T19:20:24Z</time>
      </trkpt>
      <trkpt lat="59.135743336954" lon="17.840528731901">
        <ele>6.4</ele>
        <time>2016-04-13T19:20:25Z</time>
      </trkpt>
      <trkpt lat="59.135693967563" lon="17.84061766386">
        <ele>6.8</ele>
        <time>2016-04-13T19:20:26Z</time>
      </trkpt>
      <trkpt lat="59.135643424706" lon="17.840703745973">
        <ele>7.2</ele>
        <time>2016-04-13T19:20:27Z</time>
      </trkpt>
      <trkpt lat="59.135595647876" lon="17.840788319344">
        <ele>7.6</ele>
        <time>2016-04-13T19:20:28Z</time>
      </trkpt>
      <trkpt lat="59.135349052378" lon="17.841186291956">
        <ele>7.6</ele>
        <time>2016-04-13T19:20:33Z</time>
      </trkpt>
      <trkpt lat="59.135300940272" lon="17.841269021309">
        <ele>8</ele>
        <time>2016-04-13T19:20:34Z</time>
      </trkpt>
      <trkpt lat="59.135250481234" lon="17.841356193069">
        <ele>8.8</ele>
        <time>2016-04-13T19:20:35Z</time>
      </trkpt>
      <trkpt lat="59.135200189834" lon="17.841435821119">
        <ele>9.2</ele>
        <time>2016-04-13T19:20:36Z</time>
      </trkpt>
      <trkpt lat="59.135150904262" lon="17.841515784445">
        <ele>9.6</ele>
        <time>2016-04-13T19:20:37Z</time>
      </trkpt>
      <trkpt lat="59.135009920704" lon="17.84175089674">
        <ele>9.6</ele>
        <time>2016-04-13T19:20:40Z</time>
      </trkpt>
      <trkpt lat="59.134966418643" lon="17.841820634148">
        <ele>10.2</ele>
        <time>2016-04-13T19:20:41Z</time>
      </trkpt>
      <trkpt lat="59.134924341505" lon="17.841891293565">
        <ele>10.6</ele>
        <time>2016-04-13T19:20:42Z</time>
      </trkpt>
      <trkpt lat="59.134883856928" lon="17.841958013489">
        <ele>11</ele>
        <time>2016-04-13T19:20:43Z</time>
      </trkpt>
      <trkpt lat="59.134847395663" lon="17.842025990698">
        <ele>11.4</ele>
        <time>2016-04-13T19:20:44Z</time>
      </trkpt>
      <trkpt lat="59.134811018217" lon="17.842091620975">
        <ele>11.8</ele>
        <time>2016-04-13T19:20:45Z</time>
      </trkpt>
      <trkpt lat="59.134768521984" lon="17.842160687831">
        <ele>11.8</ele>
        <time>2016-04-13T19:20:46Z</time>
      </trkpt>
      <trkpt lat="59.13472275681" lon="17.842231095791">
        <ele>12.2</ele>
        <time>2016-04-13T19:20:47Z</time>
      </trkpt>
      <trkpt lat="59.134679254749" lon="17.842297899534">
        <ele>12.6</ele>
        <time>2016-04-13T19:20:48Z</time>
      </trkpt>
      <trkpt lat="59.134635501231" lon="17.84236696639">
        <ele>13</ele>
        <time>2016-04-13T19:20:49Z</time>
      </trkpt>
      <trkpt lat="59.134590406609" lon="17.842437458169">
        <ele>13.6</ele>
        <time>2016-04-13T19:20:50Z</time>
      </trkpt>
      <trkpt lat="59.134547658919" lon="17.842505603016">
        <ele>14</ele>
        <time>2016-04-13T19:20:51Z</time>
      </trkpt>
      <trkpt lat="59.134469204335" lon="17.842636276837">
        <ele>14</ele>
        <time>2016-04-13T19:20:53Z</time>
      </trkpt>
      <trkpt lat="59.134396617081" lon="17.842754545446">
        <ele>14.4</ele>
        <time>2016-04-13T19:20:55Z</time>
      </trkpt>
      <trkpt lat="59.134359401445" lon="17.842813386384">
        <ele>14.8</ele>
        <time>2016-04-13T19:20:56Z</time>
      </trkpt>
      <trkpt lat="59.134321096162" lon="17.842876250634">
        <ele>15.4</ele>
        <time>2016-04-13T19:20:57Z</time>
      </trkpt>
      <trkpt lat="59.134282036508" lon="17.842932996097">
        <ele>15.8</ele>
        <time>2016-04-13T19:20:58Z</time>
      </trkpt>
      <trkpt lat="59.134242725397" lon="17.842986891714">
        <ele>16.2</ele>
        <time>2016-04-13T19:20:59Z</time>
      </trkpt>
      <trkpt lat="59.13416284589" lon="17.843097532794">
        <ele>16.8</ele>
        <time>2016-04-13T19:21:01Z</time>
      </trkpt>
      <trkpt lat="59.134121271666" lon="17.843150254945">
        <ele>17.2</ele>
        <time>2016-04-13T19:21:02Z</time>
      </trkpt>
      <trkpt lat="59.134080032718" lon="17.843196523033">
        <ele>17.6</ele>
        <time>2016-04-13T19:21:03Z</time>
      </trkpt>
      <trkpt lat="59.134035273372" lon="17.843236588515">
        <ele>18.2</ele>
        <time>2016-04-13T19:21:04Z</time>
      </trkpt>
      <trkpt lat="59.133991687492" lon="17.843273804151">
        <ele>18.6</ele>
        <time>2016-04-13T19:21:05Z</time>
      </trkpt>
      <trkpt lat="59.13390133061" lon="17.84333172308">
        <ele>18.6</ele>
        <time>2016-04-13T19:21:07Z</time>
      </trkpt>
      <trkpt lat="59.133808710615" lon="17.843370615096">
        <ele>19</ele>
        <time>2016-04-13T19:21:09Z</time>
      </trkpt>
      <trkpt lat="59.133763448355" lon="17.843385199602">
        <ele>19.4</ele>
        <time>2016-04-13T19:21:10Z</time>
      </trkpt>
      <trkpt lat="59.133718186095" lon="17.843399197375">
        <ele>20</ele>
        <time>2016-04-13T19:21:11Z</time>
      </trkpt>
      <trkpt lat="59.133672001826" lon="17.843406238171">
        <ele>20.4</ele>
        <time>2016-04-13T19:21:12Z</time>
      </trkpt>
      <trkpt lat="59.133630008507" lon="17.843415625899">
        <ele>20.8</ele>
        <time>2016-04-13T19:21:13Z</time>
      </trkpt>
      <trkpt lat="59.133587596093" lon="17.843425432722">
        <ele>20.8</ele>
        <time>2016-04-13T19:21:14Z</time>
      </trkpt>
      <trkpt lat="59.133438901187" lon="17.843462229263">
        <ele>21.2</ele>
        <time>2016-04-13T19:21:17Z</time>
      </trkpt>
      <trkpt lat="59.133388945063" lon="17.843478657787">
        <ele>21.6</ele>
        <time>2016-04-13T19:21:18Z</time>
      </trkpt>
      <trkpt lat="59.133339491853" lon="17.843495253949">
        <ele>22.2</ele>
        <time>2016-04-13T19:21:19Z</time>
      </trkpt>
      <trkpt lat="59.133289032815" lon="17.843513275034">
        <ele>22.6</ele>
        <time>2016-04-13T19:21:20Z</time>
      </trkpt>
      <trkpt lat="59.133239914881" lon="17.843529787377">
        <ele>23</ele>
        <time>2016-04-13T19:21:21Z</time>
      </trkpt>
      <trkpt lat="59.133102619359" lon="17.84359575293">
        <ele>23.4</ele>
        <time>2016-04-13T19:21:24Z</time>
      </trkpt>
      <trkpt lat="59.133056854185" lon="17.843621988277">
        <ele>24</ele>
        <time>2016-04-13T19:21:25Z</time>
      </trkpt>
      <trkpt lat="59.133008993536" lon="17.843655599696">
        <ele>24.4</ele>
        <time>2016-04-13T19:21:26Z</time>
      </trkpt>
      <trkpt lat="59.132966245846" lon="17.843690887495">
        <ele>24.8</ele>
        <time>2016-04-13T19:21:27Z</time>
      </trkpt>
      <trkpt lat="59.132923833432" lon="17.843724498914">
        <ele>25.4</ele>
        <time>2016-04-13T19:21:28Z</time>
      </trkpt>
      <trkpt lat="59.132681680341" lon="17.843964305073">
        <ele>25.8</ele>
        <time>2016-04-13T19:21:34Z</time>
      </trkpt>
      <trkpt lat="59.13264404561" lon="17.844001269252">
        <ele>26.2</ele>
        <time>2016-04-13T19:21:35Z</time>
      </trkpt>
      <trkpt lat="59.132607919621" lon="17.844041586191">
        <ele>26.6</ele>
        <time>2016-04-13T19:21:36Z</time>
      </trkpt>
      <trkpt lat="59.132575984582" lon="17.844078718008">
        <ele>27</ele>
        <time>2016-04-13T19:21:37Z</time>
      </trkpt>
      <trkpt lat="59.132543714267" lon="17.84412297444">
        <ele>27.4</ele>
        <time>2016-04-13T19:21:38Z</time>
      </trkpt>
      <trkpt lat="59.132432654092" lon="17.844254486451">
        <ele>28</ele>
        <time>2016-04-13T19:21:41Z</time>
      </trkpt>
      <trkpt lat="59.132392756248" lon="17.844290696259">
        <ele>28.4</ele>
        <time>2016-04-13T19:21:42Z</time>
      </trkpt>
      <trkpt lat="59.132349924739" lon="17.844326906067">
        <ele>28.8</ele>
        <time>2016-04-13T19:21:43Z</time>
      </trkpt>
      <trkpt lat="59.132310110714" lon="17.844355823622">
        <ele>29.2</ele>
        <time>2016-04-13T19:21:44Z</time>
      </trkpt>
      <trkpt lat="59.132265854282" lon="17.844377281286">
        <ele>29.6</ele>
        <time>2016-04-13T19:21:45Z</time>
      </trkpt>
      <trkpt lat="59.132175832676" lon="17.844397816941">
        <ele>29.6</ele>
        <time>2016-04-13T19:21:47Z</time>
      </trkpt>
      <trkpt lat="59.132131240968" lon="17.844396727294">
        <ele>29.6</ele>
        <time>2016-04-13T19:21:48Z</time>
      </trkpt>
      <trkpt lat="59.13204390157" lon="17.844385495548">
        <ele>30.2</ele>
        <time>2016-04-13T19:21:50Z</time>
      </trkpt>
      <trkpt lat="59.131999645138" lon="17.844379209123">
        <ele>30.6</ele>
        <time>2016-04-13T19:21:51Z</time>
      </trkpt>
      <trkpt lat="59.131955723982" lon="17.844364624617">
        <ele>31.2</ele>
        <time>2016-04-13T19:21:52Z</time>
      </trkpt>
      <trkpt lat="59.131907611876" lon="17.844353560509">
        <ele>31.6</ele>
        <time>2016-04-13T19:21:53Z</time>
      </trkpt>
      <trkpt lat="59.131867294937" lon="17.844323637126">
        <ele>32</ele>
        <time>2016-04-13T19:21:54Z</time>
      </trkpt>
      <trkpt lat="59.131785152317" lon="17.844271836984">
        <ele>32</ele>
        <time>2016-04-13T19:21:56Z</time>
      </trkpt>
      <trkpt lat="59.131746092663" lon="17.844240404859">
        <ele>32.4</ele>
        <time>2016-04-13T19:21:57Z</time>
      </trkpt>
      <trkpt lat="59.131704183163" lon="17.844215594435">
        <ele>32.8</ele>
        <time>2016-04-13T19:21:58Z</time>
      </trkpt>
      <trkpt lat="59.131665207328" lon="17.844197321893">
        <ele>33.2</ele>
        <time>2016-04-13T19:21:59Z</time>
      </trkpt>
      <trkpt lat="59.131629332796" lon="17.844170248356">
        <ele>33.8</ele>
        <time>2016-04-13T19:22:00Z</time>
      </trkpt>
      <trkpt lat="59.131593122988" lon="17.844142671905">
        <ele>34.2</ele>
        <time>2016-04-13T19:22:01Z</time>
      </trkpt>
      <trkpt lat="59.131475776388" lon="17.844068995004">
        <ele>34.2</ele>
        <time>2016-04-13T19:22:04Z</time>
      </trkpt>
      <trkpt lat="59.131434788897" lon="17.844040664182">
        <ele>34.2</ele>
        <time>2016-04-13T19:22:05Z</time>
      </trkpt>
      <trkpt lat="59.131340827798" lon="17.843983583443">
        <ele>34.6</ele>
        <time>2016-04-13T19:22:07Z</time>
      </trkpt>
      <trkpt lat="59.131296152271" lon="17.843951732223">
        <ele>35</ele>
        <time>2016-04-13T19:22:08Z</time>
      </trkpt>
      <trkpt lat="59.131250387097" lon="17.843921557383">
        <ele>35.4</ele>
        <time>2016-04-13T19:22:09Z</time>
      </trkpt>
      <trkpt lat="59.131207136493" lon="17.843893394199">
        <ele>35.8</ele>
        <time>2016-04-13T19:22:10Z</time>
      </trkpt>
      <trkpt lat="59.13115961112" lon="17.843867577947">
        <ele>36.2</ele>
        <time>2016-04-13T19:22:11Z</time>
      </trkpt>
      <trkpt lat="59.131109906453" lon="17.843850311233">
        <ele>36.2</ele>
        <time>2016-04-13T19:22:12Z</time>
      </trkpt>
      <trkpt lat="59.130887869922" lon="17.843854083088">
        <ele>36.8</ele>
        <time>2016-04-13T19:22:16Z</time>
      </trkpt>
      <trkpt lat="59.130834980133" lon="17.84386565011">
        <ele>37.2</ele>
        <time>2016-04-13T19:22:17Z</time>
      </trkpt>
      <trkpt lat="59.13078074924" lon="17.8438832521">
        <ele>37.6</ele>
        <time>2016-04-13T19:22:18Z</time>
      </trkpt>
      <trkpt lat="59.130727188899" lon="17.843909990361">
        <ele>38</ele>
        <time>2016-04-13T19:22:19Z</time>
      </trkpt>
      <trkpt lat="59.130675388757" lon="17.843942847409">
        <ele>38.4</ele>
        <time>2016-04-13T19:22:20Z</time>
      </trkpt>
      <trkpt lat="59.130623504796" lon="17.843984337814">
        <ele>38.4</ele>
        <time>2016-04-13T19:22:21Z</time>
      </trkpt>
      <trkpt lat="59.130568100437" lon="17.844030354445">
        <ele>38.4</ele>
        <time>2016-04-13T19:22:22Z</time>
      </trkpt>
      <trkpt lat="59.130473552605" lon="17.844109060486">
        <ele>38.8</ele>
        <time>2016-04-13T19:22:24Z</time>
      </trkpt>
      <trkpt lat="59.130431475467" lon="17.844154909479">
        <ele>39.2</ele>
        <time>2016-04-13T19:22:25Z</time>
      </trkpt>
      <trkpt lat="59.130396606763" lon="17.844192125115">
        <ele>39.6</ele>
        <time>2016-04-13T19:22:26Z</time>
      </trkpt>
      <trkpt lat="59.130362240973" lon="17.844225736534">
        <ele>40</ele>
        <time>2016-04-13T19:22:27Z</time>
      </trkpt>
      <trkpt lat="59.130328545735" lon="17.844258509763">
        <ele>40.4</ele>
        <time>2016-04-13T19:22:28Z</time>
      </trkpt>
      <trkpt lat="59.130295604868" lon="17.844296563589">
        <ele>40.8</ele>
        <time>2016-04-13T19:22:29Z</time>
      </trkpt>
      <trkpt lat="59.130264927114" lon="17.844342077306">
        <ele>41.4</ele>
        <time>2016-04-13T19:22:30Z</time>
      </trkpt>
      <trkpt lat="59.130236261016" lon="17.844387423385">
        <ele>41.8</ele>
        <time>2016-04-13T19:22:31Z</time>
      </trkpt>
      <trkpt lat="59.13020994185" lon="17.844426902134">
        <ele>42.2</ele>
        <time>2016-04-13T19:22:32Z</time>
      </trkpt>
      <trkpt lat="59.130183371227" lon="17.844471912937">
        <ele>42.6</ele>
        <time>2016-04-13T19:22:33Z</time>
      </trkpt>
      <trkpt lat="59.13010935905" lon="17.844552882091">
        <ele>42.6</ele>
        <time>2016-04-13T19:22:35Z</time>
      </trkpt>
      <trkpt lat="59.130020594729" lon="17.844628319191">
        <ele>42.6</ele>
        <time>2016-04-13T19:22:37Z</time>
      </trkpt>
      <trkpt lat="59.12997524865" lon="17.844664528999">
        <ele>43</ele>
        <time>2016-04-13T19:22:38Z</time>
      </trkpt>
      <trkpt lat="59.129931578951" lon="17.844696631676">
        <ele>43.4</ele>
        <time>2016-04-13T19:22:39Z</time>
      </trkpt>
      <trkpt lat="59.129888412166" lon="17.844728315258">
        <ele>43.8</ele>
        <time>2016-04-13T19:22:40Z</time>
      </trkpt>
      <trkpt lat="59.129845413019" lon="17.844767794007">
        <ele>44.4</ele>
        <time>2016-04-13T19:22:41Z</time>
      </trkpt>
      <trkpt lat="59.129797887646" lon="17.844790257499">
        <ele>44.8</ele>
        <time>2016-04-13T19:22:42Z</time>
      </trkpt>
      <trkpt lat="59.129751787196" lon="17.844809619688">
        <ele>44.8</ele>
        <time>2016-04-13T19:22:43Z</time>
      </trkpt>
      <trkpt lat="59.129656317355" lon="17.844848679342">
        <ele>45.2</ele>
        <time>2016-04-13T19:22:45Z</time>
      </trkpt>
      <trkpt lat="59.129609965448" lon="17.844865778418">
        <ele>45.6</ele>
        <time>2016-04-13T19:22:46Z</time>
      </trkpt>
      <trkpt lat="59.129573336545" lon="17.84487902182">
        <ele>46.2</ele>
        <time>2016-04-13T19:22:47Z</time>
      </trkpt>
      <trkpt lat="59.129528158104" lon="17.844882877494">
        <ele>46.6</ele>
        <time>2016-04-13T19:22:48Z</time>
      </trkpt>
      <trkpt lat="59.129470909727" lon="17.844880027648">
        <ele>47</ele>
        <time>2016-04-13T19:22:49Z</time>
      </trkpt>
      <trkpt lat="59.129318694423" lon="17.844891259394">
        <ele>47.4</ele>
        <time>2016-04-13T19:22:52Z</time>
      </trkpt>
      <trkpt lat="59.129266810462" lon="17.844887822815">
        <ele>48</ele>
        <time>2016-04-13T19:22:53Z</time>
      </trkpt>
      <trkpt lat="59.129217357252" lon="17.844883967141">
        <ele>48.4</ele>
        <time>2016-04-13T19:22:54Z</time>
      </trkpt>
      <trkpt lat="59.129171508259" lon="17.844883631865">
        <ele>48.8</ele>
        <time>2016-04-13T19:22:55Z</time>
      </trkpt>
      <trkpt lat="59.129120462488" lon="17.844884470055">
        <ele>49.2</ele>
        <time>2016-04-13T19:22:56Z</time>
      </trkpt>
      <trkpt lat="59.12894427495" lon="17.844898467828">
        <ele>49.2</ele>
        <time>2016-04-13T19:22:59Z</time>
      </trkpt>
      <trkpt lat="59.128731458509" lon="17.844912717058">
        <ele>50</ele>
        <time>2016-04-13T19:23:03Z</time>
      </trkpt>
      <trkpt lat="59.128674126313" lon="17.844905927719">
        <ele>50.6</ele>
        <time>2016-04-13T19:23:04Z</time>
      </trkpt>
      <trkpt lat="59.128617799945" lon="17.844896791448">
        <ele>51</ele>
        <time>2016-04-13T19:23:05Z</time>
      </trkpt>
      <trkpt lat="59.128558539912" lon="17.844892349041">
        <ele>51.4</ele>
        <time>2016-04-13T19:23:06Z</time>
      </trkpt>
      <trkpt lat="59.12845980113" lon="17.844877513078">
        <ele>51.4</ele>
        <time>2016-04-13T19:23:08Z</time>
      </trkpt>
      <trkpt lat="59.128407917169" lon="17.844866029875">
        <ele>51.8</ele>
        <time>2016-04-13T19:23:09Z</time>
      </trkpt>
      <trkpt lat="59.128366678221" lon="17.844839040157">
        <ele>52.2</ele>
        <time>2016-04-13T19:23:10Z</time>
      </trkpt>
      <trkpt lat="59.128328959671" lon="17.844799477589">
        <ele>52.6</ele>
        <time>2016-04-13T19:23:11Z</time>
      </trkpt>
      <trkpt lat="59.128281099022" lon="17.844740636651">
        <ele>53</ele>
        <time>2016-04-13T19:23:12Z</time>
      </trkpt>
      <trkpt lat="59.128244051024" lon="17.844670396329">
        <ele>53.4</ele>
        <time>2016-04-13T19:23:13Z</time>
      </trkpt>
      <trkpt lat="59.128138606722" lon="17.844378873847">
        <ele>53.4</ele>
        <time>2016-04-13T19:23:16Z</time>
      </trkpt>
      <trkpt lat="59.128031988954" lon="17.843899596805">
        <ele>53.4</ele>
        <time>2016-04-13T19:23:20Z</time>
      </trkpt>
      <trkpt lat="59.127907853015" lon="17.843245221872">
        <ele>53.4</ele>
        <time>2016-04-13T19:23:24Z</time>
      </trkpt>
      <trkpt lat="59.127865692058" lon="17.8430869716">
        <ele>53.4</ele>
        <time>2016-04-13T19:23:25Z</time>
      </trkpt>
      <trkpt lat="59.127759744842" lon="17.842796287308">
        <ele>53</ele>
        <time>2016-04-13T19:23:27Z</time>
      </trkpt>
      <trkpt lat="59.127689085425" lon="17.842658321234">
        <ele>52</ele>
        <time>2016-04-13T19:23:28Z</time>
      </trkpt>
      <trkpt lat="59.127612642497" lon="17.842534520571">
        <ele>51.6</ele>
        <time>2016-04-13T19:23:29Z</time>
      </trkpt>
      <trkpt lat="59.127531170429" lon="17.842436284703">
        <ele>51.2</ele>
        <time>2016-04-13T19:23:30Z</time>
      </trkpt>
      <trkpt lat="59.12745062037" lon="17.842367385485">
        <ele>51.2</ele>
        <time>2016-04-13T19:23:31Z</time>
      </trkpt>
      <trkpt lat="59.127092294145" lon="17.842280297544">
        <ele>51.2</ele>
        <time>2016-04-13T19:23:35Z</time>
      </trkpt>
      <trkpt lat="59.126841088602" lon="17.842499819505">
        <ele>51.2</ele>
        <time>2016-04-13T19:23:38Z</time>
      </trkpt>
      <trkpt lat="59.126712845532" lon="17.842676929052">
        <ele>51.2</ele>
        <time>2016-04-13T19:23:40Z</time>
      </trkpt>
      <trkpt lat="59.126599689882" lon="17.842853284228">
        <ele>51.2</ele>
        <time>2016-04-13T19:23:42Z</time>
      </trkpt>
      <trkpt lat="59.126439595592" lon="17.843130892756">
        <ele>51.2</ele>
        <time>2016-04-13T19:23:45Z</time>
      </trkpt>
      <trkpt lat="59.126395422979" lon="17.843231391737">
        <ele>51.6</ele>
        <time>2016-04-13T19:23:46Z</time>
      </trkpt>
      <trkpt lat="59.126353094384" lon="17.843338177143">
        <ele>52</ele>
        <time>2016-04-13T19:23:47Z</time>
      </trkpt>
      <trkpt lat="59.126321746078" lon="17.843445046368">
        <ele>52.4</ele>
        <time>2016-04-13T19:23:48Z</time>
      </trkpt>
      <trkpt lat="59.126291738876" lon="17.843567841203">
        <ele>52.8</ele>
        <time>2016-04-13T19:23:49Z</time>
      </trkpt>
      <trkpt lat="59.126259384742" lon="17.843691055133">
        <ele>53.4</ele>
        <time>2016-04-13T19:23:50Z</time>
      </trkpt>
      <trkpt lat="59.126224683676" lon="17.843823237696">
        <ele>53.4</ele>
        <time>2016-04-13T19:23:51Z</time>
      </trkpt>
      <trkpt lat="59.126041874437" lon="17.844471912937">
        <ele>53.4</ele>
        <time>2016-04-13T19:23:56Z</time>
      </trkpt>
      <trkpt lat="59.125903908363" lon="17.844922188605">
        <ele>53.4</ele>
        <time>2016-04-13T19:24:00Z</time>
      </trkpt>
      <trkpt lat="59.125788070505" lon="17.845114888486">
        <ele>53.4</ele>
        <time>2016-04-13T19:24:02Z</time>
      </trkpt>
      <trkpt lat="59.125666868231" lon="17.845307169272">
        <ele>53.4</ele>
        <time>2016-04-13T19:24:04Z</time>
      </trkpt>
      <trkpt lat="59.125354139542" lon="17.845876132644">
        <ele>53.4</ele>
        <time>2016-04-13T19:24:09Z</time>
      </trkpt>
      <trkpt lat="59.125013415307" lon="17.84671549611">
        <ele>53.4</ele>
        <time>2016-04-13T19:24:15Z</time>
      </trkpt>
      <trkpt lat="59.124948371763" lon="17.84685379746">
        <ele>53</ele>
        <time>2016-04-13T19:24:16Z</time>
      </trkpt>
      <trkpt lat="59.12488240621" lon="17.846997882321">
        <ele>52.4</ele>
        <time>2016-04-13T19:24:17Z</time>
      </trkpt>
      <trkpt lat="59.12482289472" lon="17.847140877535">
        <ele>52</ele>
        <time>2016-04-13T19:24:18Z</time>
      </trkpt>
      <trkpt lat="59.124757851176" lon="17.847286052043">
        <ele>51.2</ele>
        <time>2016-04-13T19:24:19Z</time>
      </trkpt>
      <trkpt lat="59.124622734948" lon="17.847576233421">
        <ele>50.8</ele>
        <time>2016-04-13T19:24:21Z</time>
      </trkpt>
      <trkpt lat="59.124554171006" lon="17.847711349649">
        <ele>50.2</ele>
        <time>2016-04-13T19:24:22Z</time>
      </trkpt>
      <trkpt lat="59.124480745562" lon="17.84785040537">
        <ele>49.8</ele>
        <time>2016-04-13T19:24:23Z</time>
      </trkpt>
      <trkpt lat="59.124410002326" lon="17.847968422522">
        <ele>49.4</ele>
        <time>2016-04-13T19:24:24Z</time>
      </trkpt>
      <trkpt lat="59.124333307941" lon="17.848089457158">
        <ele>48.8</ele>
        <time>2016-04-13T19:24:25Z</time>
      </trkpt>
      <trkpt lat="59.124170950538" lon="17.848296154812">
        <ele>48.8</ele>
        <time>2016-04-13T19:24:27Z</time>
      </trkpt>
      <trkpt lat="59.123831064493" lon="17.848657163245">
        <ele>48.4</ele>
        <time>2016-04-13T19:24:31Z</time>
      </trkpt>
      <trkpt lat="59.123745401475" lon="17.848749364145">
        <ele>47.8</ele>
        <time>2016-04-13T19:24:32Z</time>
      </trkpt>
      <trkpt lat="59.123660241371" lon="17.848842738511">
        <ele>47.4</ele>
        <time>2016-04-13T19:24:33Z</time>
      </trkpt>
      <trkpt lat="59.123574578353" lon="17.848928150072">
        <ele>47</ele>
        <time>2016-04-13T19:24:34Z</time>
      </trkpt>
      <trkpt lat="59.123480281978" lon="17.849011633796">
        <ele>46.4</ele>
        <time>2016-04-13T19:24:35Z</time>
      </trkpt>
      <trkpt lat="59.123303340069" lon="17.849183714203">
        <ele>46</ele>
        <time>2016-04-13T19:24:37Z</time>
      </trkpt>
      <trkpt lat="59.123216000671" lon="17.849274154904">
        <ele>45.6</ele>
        <time>2016-04-13T19:24:38Z</time>
      </trkpt>
      <trkpt lat="59.123126230522" lon="17.849363589777">
        <ele>45</ele>
        <time>2016-04-13T19:24:39Z</time>
      </trkpt>
      <trkpt lat="59.123040567504" lon="17.849459897808">
        <ele>44.6</ele>
        <time>2016-04-13T19:24:40Z</time>
      </trkpt>
      <trkpt lat="59.122959011617" lon="17.849560732065">
        <ele>44.2</ele>
        <time>2016-04-13T19:24:41Z</time>
      </trkpt>
      <trkpt lat="59.122714343956" lon="17.849872622564">
        <ele>44.2</ele>
        <time>2016-04-13T19:24:44Z</time>
      </trkpt>
      <trkpt lat="59.122636979019" lon="17.849975049382">
        <ele>43.8</ele>
        <time>2016-04-13T19:24:45Z</time>
      </trkpt>
      <trkpt lat="59.122565481412" lon="17.850087702118">
        <ele>43.4</ele>
        <time>2016-04-13T19:24:46Z</time>
      </trkpt>
      <trkpt lat="59.122504042085" lon="17.850222399251">
        <ele>42.8</ele>
        <time>2016-04-13T19:24:47Z</time>
      </trkpt>
      <trkpt lat="59.122453583047" lon="17.850376961487">
        <ele>42.4</ele>
        <time>2016-04-13T19:24:48Z</time>
      </trkpt>
      <trkpt lat="59.122407063502" lon="17.850540911451">
        <ele>42</ele>
        <time>2016-04-13T19:24:49Z</time>
      </trkpt>
      <trkpt lat="59.122377978309" lon="17.850718104817">
        <ele>42</ele>
        <time>2016-04-13T19:24:50Z</time>
      </trkpt>
      <trkpt lat="59.122381582526" lon="17.850897393658">
        <ele>42</ele>
        <time>2016-04-13T19:24:51Z</time>
      </trkpt>
      <trkpt lat="59.122423743483" lon="17.852009001236">
        <ele>42</ele>
        <time>2016-04-13T19:24:57Z</time>
      </trkpt>
      <trkpt lat="59.122495073452" lon="17.853139300451">
        <ele>42</ele>
        <time>2016-04-13T19:25:03Z</time>
      </trkpt>
      <trkpt lat="59.122515944383" lon="17.853324540441">
        <ele>42</ele>
        <time>2016-04-13T19:25:04Z</time>
      </trkpt>
      <trkpt lat="59.122653072267" lon="17.854407230464">
        <ele>41.6</ele>
        <time>2016-04-13T19:25:10Z</time>
      </trkpt>
      <trkpt lat="59.122665058384" lon="17.85459699668">
        <ele>41</ele>
        <time>2016-04-13T19:25:11Z</time>
      </trkpt>
      <trkpt lat="59.122665645117" lon="17.854791289122">
        <ele>40.6</ele>
        <time>2016-04-13T19:25:12Z</time>
      </trkpt>
      <trkpt lat="59.122657430855" lon="17.854997735319">
        <ele>40.2</ele>
        <time>2016-04-13T19:25:13Z</time>
      </trkpt>
      <trkpt lat="59.122637901028" lon="17.855190351381">
        <ele>39.8</ele>
        <time>2016-04-13T19:25:14Z</time>
      </trkpt>
      <trkpt lat="59.122611498043" lon="17.855376178104">
        <ele>39.2</ele>
        <time>2016-04-13T19:25:15Z</time>
      </trkpt>
      <trkpt lat="59.122574952959" lon="17.85556007699">
        <ele>38.8</ele>
        <time>2016-04-13T19:25:16Z</time>
      </trkpt>
      <trkpt lat="59.122537821142" lon="17.855743053867">
        <ele>38.4</ele>
        <time>2016-04-13T19:25:17Z</time>
      </trkpt>
      <trkpt lat="59.122501276058" lon="17.855926198382">
        <ele>38</ele>
        <time>2016-04-13T19:25:18Z</time>
      </trkpt>
      <trkpt lat="59.122467497001" lon="17.856109426716">
        <ele>37.4</ele>
        <time>2016-04-13T19:25:19Z</time>
      </trkpt>
      <trkpt lat="59.122436232514" lon="17.856296510724">
        <ele>37</ele>
        <time>2016-04-13T19:25:20Z</time>
      </trkpt>
      <trkpt lat="59.122407482597" lon="17.856492647184">
        <ele>36.6</ele>
        <time>2016-04-13T19:25:21Z</time>
      </trkpt>
      <trkpt lat="59.12238292363" lon="17.856678306269">
        <ele>36.2</ele>
        <time>2016-04-13T19:25:22Z</time>
      </trkpt>
      <trkpt lat="59.122366411287" lon="17.856861869879">
        <ele>35.6</ele>
        <time>2016-04-13T19:25:23Z</time>
      </trkpt>
      <trkpt lat="59.122350737134" lon="17.857046439317">
        <ele>35.2</ele>
        <time>2016-04-13T19:25:24Z</time>
      </trkpt>
      <trkpt lat="59.122269013609" lon="17.858003149383">
        <ele>34.8</ele>
        <time>2016-04-13T19:25:29Z</time>
      </trkpt>
      <trkpt lat="59.122242610624" lon="17.858204147345">
        <ele>34.4</ele>
        <time>2016-04-13T19:25:30Z</time>
      </trkpt>
      <trkpt lat="59.122212016689" lon="17.85840489385">
        <ele>34</ele>
        <time>2016-04-13T19:25:31Z</time>
      </trkpt>
      <trkpt lat="59.122176309795" lon="17.858604550708">
        <ele>33.4</ele>
        <time>2016-04-13T19:25:32Z</time>
      </trkpt>
      <trkpt lat="59.122137836874" lon="17.858800770987">
        <ele>32.8</ele>
        <time>2016-04-13T19:25:33Z</time>
      </trkpt>
      <trkpt lat="59.122096430288" lon="17.858991459212">
        <ele>31.6</ele>
        <time>2016-04-13T19:25:34Z</time>
      </trkpt>
      <trkpt lat="59.122045887431" lon="17.859189188233">
        <ele>30.8</ele>
        <time>2016-04-13T19:25:35Z</time>
      </trkpt>
      <trkpt lat="59.121935916903" lon="17.85953896492">
        <ele>30.8</ele>
        <time>2016-04-13T19:25:37Z</time>
      </trkpt>
      <trkpt lat="59.121660068574" lon="17.860572788466">
        <ele>30.8</ele>
        <time>2016-04-13T19:25:43Z</time>
      </trkpt>
      <trkpt lat="59.121636766892" lon="17.860751155298">
        <ele>30.8</ele>
        <time>2016-04-13T19:25:44Z</time>
      </trkpt>
      <trkpt lat="59.121592761917" lon="17.861274353496">
        <ele>30.8</ele>
        <time>2016-04-13T19:25:47Z</time>
      </trkpt>
      <trkpt lat="59.121452197454" lon="17.862437006845">
        <ele>30.8</ele>
        <time>2016-04-13T19:25:54Z</time>
      </trkpt>
      <trkpt lat="59.12140643228" lon="17.862774713596">
        <ele>31.4</ele>
        <time>2016-04-13T19:25:56Z</time>
      </trkpt>
      <trkpt lat="59.121384052607" lon="17.862938328284">
        <ele>31.8</ele>
        <time>2016-04-13T19:25:57Z</time>
      </trkpt>
      <trkpt lat="59.121362594943" lon="17.863100015135">
        <ele>32.6</ele>
        <time>2016-04-13T19:25:58Z</time>
      </trkpt>
      <trkpt lat="59.121339628537" lon="17.86326471947">
        <ele>33</ele>
        <time>2016-04-13T19:25:59Z</time>
      </trkpt>
      <trkpt lat="59.121321523633" lon="17.863416599498">
        <ele>33.4</ele>
        <time>2016-04-13T19:26:00Z</time>
      </trkpt>
      <trkpt lat="59.121304508376" lon="17.863568395707">
        <ele>33.8</ele>
        <time>2016-04-13T19:26:01Z</time>
      </trkpt>
      <trkpt lat="59.121291851707" lon="17.863718012622">
        <ele>34.4</ele>
        <time>2016-04-13T19:26:02Z</time>
      </trkpt>
      <trkpt lat="59.121284391816" lon="17.863865617881">
        <ele>34.8</ele>
        <time>2016-04-13T19:26:03Z</time>
      </trkpt>
      <trkpt lat="59.121278692124" lon="17.864014228968">
        <ele>35.2</ele>
        <time>2016-04-13T19:26:04Z</time>
      </trkpt>
      <trkpt lat="59.121269304396" lon="17.864436676728">
        <ele>35.2</ele>
        <time>2016-04-13T19:26:07Z</time>
      </trkpt>
      <trkpt lat="59.121269388215" lon="17.864554358604">
        <ele>35.8</ele>
        <time>2016-04-13T19:26:08Z</time>
      </trkpt>
      <trkpt lat="59.1212706455" lon="17.864675141783">
        <ele>36.2</ele>
        <time>2016-04-13T19:26:09Z</time>
      </trkpt>
      <trkpt lat="59.12127567464" lon="17.864786956329">
        <ele>36.6</ele>
        <time>2016-04-13T19:26:10Z</time>
      </trkpt>
      <trkpt lat="59.121278775943" lon="17.864900363436">
        <ele>37.2</ele>
        <time>2016-04-13T19:26:11Z</time>
      </trkpt>
      <trkpt lat="59.121286738748" lon="17.86501821295">
        <ele>37.8</ele>
        <time>2016-04-13T19:26:12Z</time>
      </trkpt>
      <trkpt lat="59.121290510603" lon="17.865123573433">
        <ele>38.4</ele>
        <time>2016-04-13T19:26:13Z</time>
      </trkpt>
      <trkpt lat="59.121289337137" lon="17.865235639436">
        <ele>39</ele>
        <time>2016-04-13T19:26:14Z</time>
      </trkpt>
      <trkpt lat="59.121300233607" lon="17.86533001963">
        <ele>39.6</ele>
        <time>2016-04-13T19:26:15Z</time>
      </trkpt>
      <trkpt lat="59.121312974095" lon="17.865432781724">
        <ele>40.2</ele>
        <time>2016-04-13T19:26:16Z</time>
      </trkpt>
      <trkpt lat="59.121316662131" lon="17.865531436687">
        <ele>40.6</ele>
        <time>2016-04-13T19:26:17Z</time>
      </trkpt>
      <trkpt lat="59.121319428158" lon="17.865628918184">
        <ele>41.2</ele>
        <time>2016-04-13T19:26:18Z</time>
      </trkpt>
      <trkpt lat="59.121324960212" lon="17.865735368314">
        <ele>41.8</ele>
        <time>2016-04-13T19:26:19Z</time>
      </trkpt>
      <trkpt lat="59.121336443415" lon="17.865835783476">
        <ele>42.2</ele>
        <time>2016-04-13T19:26:20Z</time>
      </trkpt>
      <trkpt lat="59.12135111174" lon="17.865945837823">
        <ele>42.6</ele>
        <time>2016-04-13T19:26:21Z</time>
      </trkpt>
      <trkpt lat="59.121365444789" lon="17.866050360116">
        <ele>43.2</ele>
        <time>2016-04-13T19:26:22Z</time>
      </trkpt>
      <trkpt lat="59.121378185277" lon="17.866146751966">
        <ele>44</ele>
        <time>2016-04-13T19:26:23Z</time>
      </trkpt>
      <trkpt lat="59.121403414796" lon="17.866339787123">
        <ele>44.6</ele>
        <time>2016-04-13T19:26:25Z</time>
      </trkpt>
      <trkpt lat="59.121416742017" lon="17.866438442086">
        <ele>45</ele>
        <time>2016-04-13T19:26:26Z</time>
      </trkpt>
      <trkpt lat="59.121427806125" lon="17.866536594135">
        <ele>45.6</ele>
        <time>2016-04-13T19:26:27Z</time>
      </trkpt>
      <trkpt lat="59.121436188025" lon="17.866631141967">
        <ele>46</ele>
        <time>2016-04-13T19:26:28Z</time>
      </trkpt>
      <trkpt lat="59.121446749219" lon="17.866722672315">
        <ele>46.4</ele>
        <time>2016-04-13T19:26:29Z</time>
      </trkpt>
      <trkpt lat="59.121471559643" lon="17.866934566747">
        <ele>46.4</ele>
        <time>2016-04-13T19:26:31Z</time>
      </trkpt>
      <trkpt lat="59.121490838013" lon="17.867059289419">
        <ele>46.4</ele>
        <time>2016-04-13T19:26:32Z</time>
      </trkpt>
      <trkpt lat="59.1215891577" lon="17.867666222798">
        <ele>46.4</ele>
        <time>2016-04-13T19:26:37Z</time>
      </trkpt>
      <trkpt lat="59.121690830147" lon="17.868307186691">
        <ele>46.4</ele>
        <time>2016-04-13T19:26:42Z</time>
      </trkpt>
      <trkpt lat="59.121726537041" lon="17.868882185031">
        <ele>46.4</ele>
        <time>2016-04-13T19:26:46Z</time>
      </trkpt>
      <trkpt lat="59.121722597548" lon="17.869025012607">
        <ele>46.4</ele>
        <time>2016-04-13T19:26:47Z</time>
      </trkpt>
      <trkpt lat="59.121649004466" lon="17.869571093392">
        <ele>46.4</ele>
        <time>2016-04-13T19:26:51Z</time>
      </trkpt>
      <trkpt lat="59.12162603806" lon="17.86970118048">
        <ele>46.4</ele>
        <time>2016-04-13T19:26:52Z</time>
      </trkpt>
      <trkpt lat="59.12158161399" lon="17.869977112628">
        <ele>47</ele>
        <time>2016-04-13T19:26:54Z</time>
      </trkpt>
      <trkpt lat="59.121562000344" lon="17.870114911064">
        <ele>47.4</ele>
        <time>2016-04-13T19:26:55Z</time>
      </trkpt>
      <trkpt lat="59.121545320363" lon="17.870256313717">
        <ele>47.8</ele>
        <time>2016-04-13T19:26:56Z</time>
      </trkpt>
      <trkpt lat="59.121534591531" lon="17.870393106325">
        <ele>48.2</ele>
        <time>2016-04-13T19:26:57Z</time>
      </trkpt>
      <trkpt lat="59.121530400581" lon="17.870528725467">
        <ele>48.6</ele>
        <time>2016-04-13T19:26:58Z</time>
      </trkpt>
      <trkpt lat="59.121545068906" lon="17.871111518974">
        <ele>48.6</ele>
        <time>2016-04-13T19:27:02Z</time>
      </trkpt>
      <trkpt lat="59.121664678619" lon="17.87176061331">
        <ele>48.6</ele>
        <time>2016-04-13T19:27:06Z</time>
      </trkpt>
      <trkpt lat="59.121751263646" lon="17.872068564316">
        <ele>48.2</ele>
        <time>2016-04-13T19:27:08Z</time>
      </trkpt>
      <trkpt lat="59.121797280277" lon="17.872222875095">
        <ele>47.6</ele>
        <time>2016-04-13T19:27:09Z</time>
      </trkpt>
      <trkpt lat="59.121840698519" lon="17.872378191702">
        <ele>47.2</ele>
        <time>2016-04-13T19:27:10Z</time>
      </trkpt>
      <trkpt lat="59.121886044598" lon="17.87253090992">
        <ele>46.6</ele>
        <time>2016-04-13T19:27:11Z</time>
      </trkpt>
      <trkpt lat="59.121930552487" lon="17.8726834605">
        <ele>46.2</ele>
        <time>2016-04-13T19:27:12Z</time>
      </trkpt>
      <trkpt lat="59.122208831567" lon="17.87362139511">
        <ele>46.2</ele>
        <time>2016-04-13T19:27:18Z</time>
      </trkpt>
      <trkpt lat="59.122248645592" lon="17.873782998142">
        <ele>46.2</ele>
        <time>2016-04-13T19:27:19Z</time>
      </trkpt>
      <trkpt lat="59.122454505056" lon="17.874790251065">
        <ele>46.2</ele>
        <time>2016-04-13T19:27:25Z</time>
      </trkpt>
      <trkpt lat="59.122495408728" lon="17.874952859925">
        <ele>45.8</ele>
        <time>2016-04-13T19:27:26Z</time>
      </trkpt>
      <trkpt lat="59.122541592997" lon="17.875111026378">
        <ele>45.4</ele>
        <time>2016-04-13T19:27:27Z</time>
      </trkpt>
      <trkpt lat="59.122599344288" lon="17.875269192831">
        <ele>45</ele>
        <time>2016-04-13T19:27:28Z</time>
      </trkpt>
      <trkpt lat="59.122663801099" lon="17.875403638507">
        <ele>44.6</ele>
        <time>2016-04-13T19:27:29Z</time>
      </trkpt>
      <trkpt lat="59.122736304534" lon="17.875525427514">
        <ele>44.2</ele>
        <time>2016-04-13T19:27:30Z</time>
      </trkpt>
      <trkpt lat="59.122893716616" lon="17.875721144879">
        <ele>44.2</ele>
        <time>2016-04-13T19:27:32Z</time>
      </trkpt>
      <trkpt lat="59.1229721712" lon="17.875804712422">
        <ele>44.2</ele>
        <time>2016-04-13T19:27:33Z</time>
      </trkpt>
      <trkpt lat="59.12340551543" lon="17.876213497685">
        <ele>43.8</ele>
        <time>2016-04-13T19:27:38Z</time>
      </trkpt>
      <trkpt lat="59.123491849" lon="17.876300837083">
        <ele>43.2</ele>
        <time>2016-04-13T19:27:39Z</time>
      </trkpt>
      <trkpt lat="59.123574159258" lon="17.876408209222">
        <ele>42.8</ele>
        <time>2016-04-13T19:27:40Z</time>
      </trkpt>
      <trkpt lat="59.123651775652" lon="17.8765307526">
        <ele>42.4</ele>
        <time>2016-04-13T19:27:41Z</time>
      </trkpt>
      <trkpt lat="59.123722015974" lon="17.876670981787">
        <ele>42</ele>
        <time>2016-04-13T19:27:42Z</time>
      </trkpt>
      <trkpt lat="59.123841122773" lon="17.876989577806">
        <ele>41.4</ele>
        <time>2016-04-13T19:27:44Z</time>
      </trkpt>
      <trkpt lat="59.123884876291" lon="17.877157551082">
        <ele>41</ele>
        <time>2016-04-13T19:27:45Z</time>
      </trkpt>
      <trkpt lat="59.123913542389" lon="17.87733792957">
        <ele>40.6</ele>
        <time>2016-04-13T19:27:46Z</time>
      </trkpt>
      <trkpt lat="59.123935000053" lon="17.877517218411">
        <ele>40.2</ele>
        <time>2016-04-13T19:27:47Z</time>
      </trkpt>
      <trkpt lat="59.123940196831" lon="17.877698938003">
        <ele>39.8</ele>
        <time>2016-04-13T19:27:48Z</time>
      </trkpt>
      <trkpt lat="59.123939610098" lon="17.877874035894">
        <ele>39.8</ele>
        <time>2016-04-13T19:27:49Z</time>
      </trkpt>
      <trkpt lat="59.123926785791" lon="17.878222806753">
        <ele>39.8</ele>
        <time>2016-04-13T19:27:51Z</time>
      </trkpt>
      <trkpt lat="59.123910441086" lon="17.878697557569">
        <ele>39.8</ele>
        <time>2016-04-13T19:27:54Z</time>
      </trkpt>
      <trkpt lat="59.123904741394" lon="17.878845162828">
        <ele>40.2</ele>
        <time>2016-04-13T19:27:55Z</time>
      </trkpt>
      <trkpt lat="59.12389753296" lon="17.878981033427">
        <ele>40.8</ele>
        <time>2016-04-13T19:27:56Z</time>
      </trkpt>
      <trkpt lat="59.12389501839" lon="17.879112293981">
        <ele>41.2</ele>
        <time>2016-04-13T19:27:57Z</time>
      </trkpt>
      <trkpt lat="59.123886049757" lon="17.879241123784">
        <ele>41.8</ele>
        <time>2016-04-13T19:27:58Z</time>
      </trkpt>
      <trkpt lat="59.123880433884" lon="17.879374898908">
        <ele>42.4</ele>
        <time>2016-04-13T19:27:59Z</time>
      </trkpt>
      <trkpt lat="59.123874398916" lon="17.879496352639">
        <ele>43</ele>
        <time>2016-04-13T19:28:00Z</time>
      </trkpt>
      <trkpt lat="59.123869202138" lon="17.879625266261">
        <ele>43.6</ele>
        <time>2016-04-13T19:28:01Z</time>
      </trkpt>
      <trkpt lat="59.123856294012" lon="17.879749150743">
        <ele>44.6</ele>
        <time>2016-04-13T19:28:02Z</time>
      </trkpt>
      <trkpt lat="59.123839362574" lon="17.879871442664">
        <ele>45</ele>
        <time>2016-04-13T19:28:03Z</time>
      </trkpt>
      <trkpt lat="59.123818491643" lon="17.879986945246">
        <ele>45.4</ele>
        <time>2016-04-13T19:28:04Z</time>
      </trkpt>
      <trkpt lat="59.123792675391" lon="17.880107728425">
        <ele>46</ele>
        <time>2016-04-13T19:28:05Z</time>
      </trkpt>
      <trkpt lat="59.123769625166" lon="17.88022884688">
        <ele>46.4</ele>
        <time>2016-04-13T19:28:06Z</time>
      </trkpt>
      <trkpt lat="59.123747413131" lon="17.880346528756">
        <ele>46.8</ele>
        <time>2016-04-13T19:28:07Z</time>
      </trkpt>
      <trkpt lat="59.123722854164" lon="17.88046856922">
        <ele>47.4</ele>
        <time>2016-04-13T19:28:08Z</time>
      </trkpt>
      <trkpt lat="59.123695445351" lon="17.880585748182">
        <ele>47.8</ele>
        <time>2016-04-13T19:28:09Z</time>
      </trkpt>
      <trkpt lat="59.123664851416" lon="17.88069990966">
        <ele>48.4</ele>
        <time>2016-04-13T19:28:10Z</time>
      </trkpt>
      <trkpt lat="59.123642136467" lon="17.880828907101">
        <ele>48.4</ele>
        <time>2016-04-13T19:28:11Z</time>
      </trkpt>
      <trkpt lat="59.123597712397" lon="17.881116154814">
        <ele>48.8</ele>
        <time>2016-04-13T19:28:13Z</time>
      </trkpt>
      <trkpt lat="59.123573572525" lon="17.881246241902">
        <ele>49.2</ele>
        <time>2016-04-13T19:28:14Z</time>
      </trkpt>
      <trkpt lat="59.12354884592" lon="17.881380939035">
        <ele>49.6</ele>
        <time>2016-04-13T19:28:15Z</time>
      </trkpt>
      <trkpt lat="59.12352621479" lon="17.881520330032">
        <ele>50</ele>
        <time>2016-04-13T19:28:16Z</time>
      </trkpt>
      <trkpt lat="59.123505092402" lon="17.881657290278">
        <ele>50.6</ele>
        <time>2016-04-13T19:28:17Z</time>
      </trkpt>
      <trkpt lat="59.123480617254" lon="17.881787377366">
        <ele>50.6</ele>
        <time>2016-04-13T19:28:18Z</time>
      </trkpt>
      <trkpt lat="59.123290348124" lon="17.882872246683">
        <ele>51.4</ele>
        <time>2016-04-13T19:28:26Z</time>
      </trkpt>
      <trkpt lat="59.123272075582" lon="17.883007195273">
        <ele>51.8</ele>
        <time>2016-04-13T19:28:27Z</time>
      </trkpt>
      <trkpt lat="59.123255060325" lon="17.883142730596">
        <ele>52.4</ele>
        <time>2016-04-13T19:28:28Z</time>
      </trkpt>
      <trkpt lat="59.12323955381" lon="17.883283462697">
        <ele>52.8</ele>
        <time>2016-04-13T19:28:29Z</time>
      </trkpt>
      <trkpt lat="59.123201919079" lon="17.883825101075">
        <ele>52.8</ele>
        <time>2016-04-13T19:28:33Z</time>
      </trkpt>
      <trkpt lat="59.123205690934" lon="17.884750546654">
        <ele>52.8</ele>
        <time>2016-04-13T19:28:40Z</time>
      </trkpt>
      <trkpt lat="59.12320602621" lon="17.884872670937">
        <ele>53.2</ele>
        <time>2016-04-13T19:28:41Z</time>
      </trkpt>
      <trkpt lat="59.123210887712" lon="17.884990268994">
        <ele>53.6</ele>
        <time>2016-04-13T19:28:42Z</time>
      </trkpt>
      <trkpt lat="59.12322111363" lon="17.885109040517">
        <ele>54</ele>
        <time>2016-04-13T19:28:43Z</time>
      </trkpt>
      <trkpt lat="59.123233518842" lon="17.885239127605">
        <ele>54.4</ele>
        <time>2016-04-13T19:28:44Z</time>
      </trkpt>
      <trkpt lat="59.123245672597" lon="17.885362676811">
        <ele>55</ele>
        <time>2016-04-13T19:28:45Z</time>
      </trkpt>
      <trkpt lat="59.123255898515" lon="17.885491925709">
        <ele>55</ele>
        <time>2016-04-13T19:28:46Z</time>
      </trkpt>
      <trkpt lat="59.123374586219" lon="17.88639960166">
        <ele>55</ele>
        <time>2016-04-13T19:28:53Z</time>
      </trkpt>
      <trkpt lat="59.1233912662" lon="17.8866560878">
        <ele>55</ele>
        <time>2016-04-13T19:28:55Z</time>
      </trkpt>
      <trkpt lat="59.123382297567" lon="17.887048276901">
        <ele>55</ele>
        <time>2016-04-13T19:28:58Z</time>
      </trkpt>
      <trkpt lat="59.123358325333" lon="17.887313312579">
        <ele>55.4</ele>
        <time>2016-04-13T19:29:00Z</time>
      </trkpt>
      <trkpt lat="59.123345668664" lon="17.887434431034">
        <ele>55.8</ele>
        <time>2016-04-13T19:29:01Z</time>
      </trkpt>
      <trkpt lat="59.123331167977" lon="17.887563428475">
        <ele>56.2</ele>
        <time>2016-04-13T19:29:02Z</time>
      </trkpt>
      <trkpt lat="59.123314739453" lon="17.887698544703">
        <ele>56.6</ele>
        <time>2016-04-13T19:29:03Z</time>
      </trkpt>
      <trkpt lat="59.123292611237" lon="17.887836007863">
        <ele>57</ele>
        <time>2016-04-13T19:29:04Z</time>
      </trkpt>
      <trkpt lat="59.123261262931" lon="17.887958215965">
        <ele>57</ele>
        <time>2016-04-13T19:29:05Z</time>
      </trkpt>
      <trkpt lat="59.123197057577" lon="17.888204140911">
        <ele>57</ele>
        <time>2016-04-13T19:29:07Z</time>
      </trkpt>
      <trkpt lat="59.123100246632" lon="17.88850597313">
        <ele>57</ele>
        <time>2016-04-13T19:29:10Z</time>
      </trkpt>
      <trkpt lat="59.123059426779" lon="17.888598090211">
        <ele>57.4</ele>
        <time>2016-04-13T19:29:11Z</time>
      </trkpt>
      <trkpt lat="59.123013158691" lon="17.888700181753">
        <ele>58</ele>
        <time>2016-04-13T19:29:12Z</time>
      </trkpt>
      <trkpt lat="59.122958173427" lon="17.888795567775">
        <ele>58.4</ele>
        <time>2016-04-13T19:29:13Z</time>
      </trkpt>
      <trkpt lat="59.12290846876" lon="17.888898581326">
        <ele>58.8</ele>
        <time>2016-04-13T19:29:14Z</time>
      </trkpt>
      <trkpt lat="59.122857758265" lon="17.888999415583">
        <ele>59.2</ele>
        <time>2016-04-13T19:29:15Z</time>
      </trkpt>
      <trkpt lat="59.122810484349" lon="17.889112319776">
        <ele>59.2</ele>
        <time>2016-04-13T19:29:16Z</time>
      </trkpt>
      <trkpt lat="59.12264779167" lon="17.889624789142">
        <ele>59.2</ele>
        <time>2016-04-13T19:29:20Z</time>
      </trkpt>
      <trkpt lat="59.122627004558" lon="17.889773819324">
        <ele>59.2</ele>
        <time>2016-04-13T19:29:21Z</time>
      </trkpt>
      <trkpt lat="59.122545616309" lon="17.89050421809">
        <ele>59.2</ele>
        <time>2016-04-13T19:29:26Z</time>
      </trkpt>
      <trkpt lat="59.122476465634" lon="17.891090448176">
        <ele>59.2</ele>
        <time>2016-04-13T19:29:30Z</time>
      </trkpt>
      <trkpt lat="59.122444530595" lon="17.891528737727">
        <ele>59.2</ele>
        <time>2016-04-13T19:29:33Z</time>
      </trkpt>
      <trkpt lat="59.122410248624" lon="17.892466085604">
        <ele>59.2</ele>
        <time>2016-04-13T19:29:39Z</time>
      </trkpt>
      <trkpt lat="59.122479986032" lon="17.893418437082">
        <ele>59.2</ele>
        <time>2016-04-13T19:29:45Z</time>
      </trkpt>
      <trkpt lat="59.122669500791" lon="17.894319323694">
        <ele>59.2</ele>
        <time>2016-04-13T19:29:51Z</time>
      </trkpt>
      <trkpt lat="59.122883490698" lon="17.895187017982">
        <ele>59.2</ele>
        <time>2016-04-13T19:29:57Z</time>
      </trkpt>
      <trkpt lat="59.122947360776" lon="17.895839213621">
        <ele>59.2</ele>
        <time>2016-04-13T19:30:01Z</time>
      </trkpt>
      <trkpt lat="59.12294870188" lon="17.896937493978">
        <ele>59.2</ele>
        <time>2016-04-13T19:30:07Z</time>
      </trkpt>
      <trkpt lat="59.122887933105" lon="17.897670994047">
        <ele>58.8</ele>
        <time>2016-04-13T19:30:11Z</time>
      </trkpt>
      <trkpt lat="59.122868068002" lon="17.897851456354">
        <ele>58.4</ele>
        <time>2016-04-13T19:30:12Z</time>
      </trkpt>
      <trkpt lat="59.122843341397" lon="17.898030745195">
        <ele>58</ele>
        <time>2016-04-13T19:30:13Z</time>
      </trkpt>
      <trkpt lat="59.122822386647" lon="17.898219002669">
        <ele>57.6</ele>
        <time>2016-04-13T19:30:14Z</time>
      </trkpt>
      <trkpt lat="59.12279866587" lon="17.898398040053">
        <ele>57.2</ele>
        <time>2016-04-13T19:30:15Z</time>
      </trkpt>
      <trkpt lat="59.122703698943" lon="17.899112513209">
        <ele>57.2</ele>
        <time>2016-04-13T19:30:19Z</time>
      </trkpt>
      <trkpt lat="59.122579646823" lon="17.9002012382">
        <ele>57.2</ele>
        <time>2016-04-13T19:30:25Z</time>
      </trkpt>
      <trkpt lat="59.122617113916" lon="17.90075360541">
        <ele>57.2</ele>
        <time>2016-04-13T19:30:28Z</time>
      </trkpt>
      <trkpt lat="59.122713086671" lon="17.901297255444">
        <ele>57.2</ele>
        <time>2016-04-13T19:30:31Z</time>
      </trkpt>
      <trkpt lat="59.122759857673" lon="17.90146858148">
        <ele>57.2</ele>
        <time>2016-04-13T19:30:32Z</time>
      </trkpt>
      <trkpt lat="59.123078286054" lon="17.902441803889">
        <ele>57.2</ele>
        <time>2016-04-13T19:30:38Z</time>
      </trkpt>
      <trkpt lat="59.123201416165" lon="17.902759142623">
        <ele>56.8</ele>
        <time>2016-04-13T19:30:40Z</time>
      </trkpt>
      <trkpt lat="59.12326721408" lon="17.902908088986">
        <ele>56.2</ele>
        <time>2016-04-13T19:30:41Z</time>
      </trkpt>
      <trkpt lat="59.123333011995" lon="17.903054688417">
        <ele>55.8</ele>
        <time>2016-04-13T19:30:42Z</time>
      </trkpt>
      <trkpt lat="59.123399480462" lon="17.903198438002">
        <ele>55.4</ele>
        <time>2016-04-13T19:30:43Z</time>
      </trkpt>
      <trkpt lat="59.123472905906" lon="17.903339086284">
        <ele>55</ele>
        <time>2016-04-13T19:30:44Z</time>
      </trkpt>
      <trkpt lat="59.123830896855" lon="17.904048362662">
        <ele>54.4</ele>
        <time>2016-04-13T19:30:49Z</time>
      </trkpt>
      <trkpt lat="59.123907926516" lon="17.904199991233">
        <ele>54</ele>
        <time>2016-04-13T19:30:50Z</time>
      </trkpt>
      <trkpt lat="59.123986464919" lon="17.904361678084">
        <ele>53.4</ele>
        <time>2016-04-13T19:30:51Z</time>
      </trkpt>
      <trkpt lat="59.124068020806" lon="17.90452546041">
        <ele>52.6</ele>
        <time>2016-04-13T19:30:52Z</time>
      </trkpt>
      <trkpt lat="59.124151420711" lon="17.904690919116">
        <ele>51.8</ele>
        <time>2016-04-13T19:30:53Z</time>
      </trkpt>
      <trkpt lat="59.124238843928" lon="17.904867944844">
        <ele>49.8</ele>
        <time>2016-04-13T19:30:54Z</time>
      </trkpt>
      <trkpt lat="59.124316292684" lon="17.905041450174">
        <ele>49</ele>
        <time>2016-04-13T19:30:55Z</time>
      </trkpt>
      <trkpt lat="59.124394328173" lon="17.90520774707">
        <ele>48</ele>
        <time>2016-04-13T19:30:56Z</time>
      </trkpt>
      <trkpt lat="59.12447001673" lon="17.905374798337">
        <ele>47.2</ele>
        <time>2016-04-13T19:30:57Z</time>
      </trkpt>
      <trkpt lat="59.124543358355" lon="17.905527181279">
        <ele>46.4</ele>
        <time>2016-04-13T19:30:58Z</time>
      </trkpt>
      <trkpt lat="59.124614269229" lon="17.905671349959">
        <ele>45.6</ele>
        <time>2016-04-13T19:30:59Z</time>
      </trkpt>
      <trkpt lat="59.124685934474" lon="17.905808813119">
        <ele>44.8</ele>
        <time>2016-04-13T19:31:00Z</time>
      </trkpt>
      <trkpt lat="59.124753744045" lon="17.905952981799">
        <ele>45.2</ele>
        <time>2016-04-13T19:31:01Z</time>
      </trkpt>
      <trkpt lat="59.124819290503" lon="17.906090696416">
        <ele>45.8</ele>
        <time>2016-04-13T19:31:02Z</time>
      </trkpt>
      <trkpt lat="59.124881903296" lon="17.906236038562">
        <ele>46.2</ele>
        <time>2016-04-13T19:31:03Z</time>
      </trkpt>
      <trkpt lat="59.124937559112" lon="17.906384649649">
        <ele>46.6</ele>
        <time>2016-04-13T19:31:04Z</time>
      </trkpt>
      <trkpt lat="59.124994639851" lon="17.906537367867">
        <ele>47</ele>
        <time>2016-04-13T19:31:05Z</time>
      </trkpt>
      <trkpt lat="59.125088852407" lon="17.906863088501">
        <ele>47</ele>
        <time>2016-04-13T19:31:07Z</time>
      </trkpt>
      <trkpt lat="59.125336872828" lon="17.907907473241">
        <ele>47</ele>
        <time>2016-04-13T19:31:13Z</time>
      </trkpt>
      <trkpt lat="59.125530913813" lon="17.908560423251">
        <ele>47</ele>
        <time>2016-04-13T19:31:17Z</time>
      </trkpt>
      <trkpt lat="59.125669047525" lon="17.908835181933">
        <ele>47</ele>
        <time>2016-04-13T19:31:19Z</time>
      </trkpt>
      <trkpt lat="59.125808689979" lon="17.90908940496">
        <ele>47</ele>
        <time>2016-04-13T19:31:21Z</time>
      </trkpt>
      <trkpt lat="59.126048496138" lon="17.909397775061">
        <ele>47</ele>
        <time>2016-04-13T19:31:24Z</time>
      </trkpt>
      <trkpt lat="59.126236585974" lon="17.909517552412">
        <ele>46.6</ele>
        <time>2016-04-13T19:31:26Z</time>
      </trkpt>
      <trkpt lat="59.126335073299" lon="17.909554851867">
        <ele>46.2</ele>
        <time>2016-04-13T19:31:27Z</time>
      </trkpt>
      <trkpt lat="59.126432303339" lon="17.909591983684">
        <ele>45.8</ele>
        <time>2016-04-13T19:31:28Z</time>
      </trkpt>
      <trkpt lat="59.12652777318" lon="17.90962081742">
        <ele>45.2</ele>
        <time>2016-04-13T19:31:29Z</time>
      </trkpt>
      <trkpt lat="59.126621566641" lon="17.909644538197">
        <ele>44.8</ele>
        <time>2016-04-13T19:31:30Z</time>
      </trkpt>
      <trkpt lat="59.126895654771" lon="17.909780157339">
        <ele>44.8</ele>
        <time>2016-04-13T19:31:33Z</time>
      </trkpt>
      <trkpt lat="59.12715976844" lon="17.909965816424">
        <ele>44.8</ele>
        <time>2016-04-13T19:31:36Z</time>
      </trkpt>
      <trkpt lat="59.127304859129" lon="17.910180979797">
        <ele>44.8</ele>
        <time>2016-04-13T19:31:38Z</time>
      </trkpt>
      <trkpt lat="59.127589592272" lon="17.910823787708">
        <ele>44.8</ele>
        <time>2016-04-13T19:31:43Z</time>
      </trkpt>
      <trkpt lat="59.127622114044" lon="17.910970470958">
        <ele>44.8</ele>
        <time>2016-04-13T19:31:44Z</time>
      </trkpt>
      <trkpt lat="59.127695036574" lon="17.91125528792">
        <ele>44.8</ele>
        <time>2016-04-13T19:31:46Z</time>
      </trkpt>
      <trkpt lat="59.127800899971" lon="17.911792400072">
        <ele>44.8</ele>
        <time>2016-04-13T19:31:50Z</time>
      </trkpt>
      <trkpt lat="59.127813724278" lon="17.911930785241">
        <ele>45.2</ele>
        <time>2016-04-13T19:31:51Z</time>
      </trkpt>
      <trkpt lat="59.12782445311" lon="17.912063722175">
        <ele>45.6</ele>
        <time>2016-04-13T19:31:52Z</time>
      </trkpt>
      <trkpt lat="59.127833254105" lon="17.91219406072">
        <ele>46.2</ele>
        <time>2016-04-13T19:31:53Z</time>
      </trkpt>
      <trkpt lat="59.127838450883" lon="17.91232649474">
        <ele>46.6</ele>
        <time>2016-04-13T19:31:54Z</time>
      </trkpt>
      <trkpt lat="59.127836774503" lon="17.91245306143">
        <ele>47</ele>
        <time>2016-04-13T19:31:55Z</time>
      </trkpt>
      <trkpt lat="59.127829901345" lon="17.912571330039">
        <ele>47.6</ele>
        <time>2016-04-13T19:31:56Z</time>
      </trkpt>
      <trkpt lat="59.127823782558" lon="17.912687586992">
        <ele>48</ele>
        <time>2016-04-13T19:31:57Z</time>
      </trkpt>
      <trkpt lat="59.127820597436" lon="17.912814656596">
        <ele>48.6</ele>
        <time>2016-04-13T19:31:58Z</time>
      </trkpt>
      <trkpt lat="59.127820010703" lon="17.912931500282">
        <ele>49.2</ele>
        <time>2016-04-13T19:31:59Z</time>
      </trkpt>
      <trkpt lat="59.12781774759" lon="17.913057480239">
        <ele>49.8</ele>
        <time>2016-04-13T19:32:00Z</time>
      </trkpt>
      <trkpt lat="59.127814311011" lon="17.913187064413">
        <ele>50.6</ele>
        <time>2016-04-13T19:32:01Z</time>
      </trkpt>
      <trkpt lat="59.127813724278" lon="17.913324862849">
        <ele>51.2</ele>
        <time>2016-04-13T19:32:02Z</time>
      </trkpt>
      <trkpt lat="59.127797128116" lon="17.913889802909">
        <ele>51.2</ele>
        <time>2016-04-13T19:32:06Z</time>
      </trkpt>
      <trkpt lat="59.127800899971" lon="17.914026427879">
        <ele>51.2</ele>
        <time>2016-04-13T19:32:07Z</time>
      </trkpt>
      <trkpt lat="59.127809868604" lon="17.914781469431">
        <ele>51.6</ele>
        <time>2016-04-13T19:32:12Z</time>
      </trkpt>
      <trkpt lat="59.127813472821" lon="17.914937205133">
        <ele>52</ele>
        <time>2016-04-13T19:32:13Z</time>
      </trkpt>
      <trkpt lat="59.127813221364" lon="17.915087324962">
        <ele>52.4</ele>
        <time>2016-04-13T19:32:14Z</time>
      </trkpt>
      <trkpt lat="59.127819004875" lon="17.91524004318">
        <ele>52.8</ele>
        <time>2016-04-13T19:32:15Z</time>
      </trkpt>
      <trkpt lat="59.127824369291" lon="17.9153976229">
        <ele>53.2</ele>
        <time>2016-04-13T19:32:16Z</time>
      </trkpt>
      <trkpt lat="59.127861165832" lon="17.916137493213">
        <ele>53.2</ele>
        <time>2016-04-13T19:32:21Z</time>
      </trkpt>
      <trkpt lat="59.127922353702" lon="17.917266702781">
        <ele>53.2</ele>
        <time>2016-04-13T19:32:29Z</time>
      </trkpt>
      <trkpt lat="59.127927382842" lon="17.917403327751">
        <ele>53.2</ele>
        <time>2016-04-13T19:32:30Z</time>
      </trkpt>
      <trkpt lat="59.127964933754" lon="17.918181670985">
        <ele>53.2</ele>
        <time>2016-04-13T19:32:36Z</time>
      </trkpt>
      <trkpt lat="59.127971555455" lon="17.918434469089">
        <ele>53.6</ele>
        <time>2016-04-13T19:32:38Z</time>
      </trkpt>
      <trkpt lat="59.12797365093" lon="17.918566316376">
        <ele>54</ele>
        <time>2016-04-13T19:32:39Z</time>
      </trkpt>
      <trkpt lat="59.127980691726" lon="17.918685506994">
        <ele>54.4</ele>
        <time>2016-04-13T19:32:40Z</time>
      </trkpt>
      <trkpt lat="59.127983960667" lon="17.918819365937">
        <ele>55</ele>
        <time>2016-04-13T19:32:41Z</time>
      </trkpt>
      <trkpt lat="59.127986978151" lon="17.918947609007">
        <ele>55.4</ele>
        <time>2016-04-13T19:32:42Z</time>
      </trkpt>
      <trkpt lat="59.127985637047" lon="17.919074427154">
        <ele>55.4</ele>
        <time>2016-04-13T19:32:43Z</time>
      </trkpt>
      <trkpt lat="59.127990917644" lon="17.919445829143">
        <ele>55.4</ele>
        <time>2016-04-13T19:32:46Z</time>
      </trkpt>
      <trkpt lat="59.128005334512" lon="17.91968999389">
        <ele>55.4</ele>
        <time>2016-04-13T19:32:48Z</time>
      </trkpt>
      <trkpt lat="59.128012375308" lon="17.919807424309">
        <ele>55.8</ele>
        <time>2016-04-13T19:32:49Z</time>
      </trkpt>
      <trkpt lat="59.128011956213" lon="17.919919155036">
        <ele>56.2</ele>
        <time>2016-04-13T19:32:50Z</time>
      </trkpt>
      <trkpt lat="59.128012626765" lon="17.92003868093">
        <ele>56.6</ele>
        <time>2016-04-13T19:32:51Z</time>
      </trkpt>
      <trkpt lat="59.128009022548" lon="17.920166588724">
        <ele>57</ele>
        <time>2016-04-13T19:32:52Z</time>
      </trkpt>
      <trkpt lat="59.128005334512" lon="17.920296424355">
        <ele>57.4</ele>
        <time>2016-04-13T19:32:53Z</time>
      </trkpt>
      <trkpt lat="59.12797532731" lon="17.920807552617">
        <ele>58.2</ele>
        <time>2016-04-13T19:32:57Z</time>
      </trkpt>
      <trkpt lat="59.12796862179" lon="17.920927749063">
        <ele>58.8</ele>
        <time>2016-04-13T19:32:58Z</time>
      </trkpt>
      <trkpt lat="59.127957892958" lon="17.921044592749">
        <ele>59.2</ele>
        <time>2016-04-13T19:32:59Z</time>
      </trkpt>
      <trkpt lat="59.127945655384" lon="17.921159927693">
        <ele>59.6</ele>
        <time>2016-04-13T19:33:00Z</time>
      </trkpt>
      <trkpt lat="59.127888323188" lon="17.921763173036">
        <ele>59.6</ele>
        <time>2016-04-13T19:33:05Z</time>
      </trkpt>
      <trkpt lat="59.127889077559" lon="17.921896529065">
        <ele>59.6</ele>
        <time>2016-04-13T19:33:06Z</time>
      </trkpt>
      <trkpt lat="59.127941464434" lon="17.922153518119">
        <ele>59.6</ele>
        <time>2016-04-13T19:33:08Z</time>
      </trkpt>
      <trkpt lat="59.128040203216" lon="17.922258794783">
        <ele>59.6</ele>
        <time>2016-04-13T19:33:10Z</time>
      </trkpt>
      <trkpt lat="59.128163165689" lon="17.922151925558">
        <ele>59.6</ele>
        <time>2016-04-13T19:33:13Z</time>
      </trkpt>
      <trkpt lat="59.128209685234" lon="17.922073890069">
        <ele>60</ele>
        <time>2016-04-13T19:33:14Z</time>
      </trkpt>
      <trkpt lat="59.128248409612" lon="17.922010187629">
        <ele>60.4</ele>
        <time>2016-04-13T19:33:15Z</time>
      </trkpt>
      <trkpt lat="59.128288978008" lon="17.921942378058">
        <ele>60.8</ele>
        <time>2016-04-13T19:33:16Z</time>
      </trkpt>
      <trkpt lat="59.128326612739" lon="17.921879765265">
        <ele>61.2</ele>
        <time>2016-04-13T19:33:17Z</time>
      </trkpt>
      <trkpt lat="59.128360140339" lon="17.921825450553">
        <ele>61.6</ele>
        <time>2016-04-13T19:33:18Z</time>
      </trkpt>
      <trkpt lat="59.128389141713" lon="17.921769459461">
        <ele>62.2</ele>
        <time>2016-04-13T19:33:19Z</time>
      </trkpt>
      <trkpt lat="59.128419148915" lon="17.921722939916">
        <ele>62.6</ele>
        <time>2016-04-13T19:33:20Z</time>
      </trkpt>
      <trkpt lat="59.128445970995" lon="17.921673319068">
        <ele>63</ele>
        <time>2016-04-13T19:33:21Z</time>
      </trkpt>
      <trkpt lat="59.12847824131" lon="17.921617411795">
        <ele>64</ele>
        <time>2016-04-13T19:33:22Z</time>
      </trkpt>
      <trkpt lat="59.128502213544" lon="17.921581369625">
        <ele>64.6</ele>
        <time>2016-04-13T19:33:23Z</time>
      </trkpt>
      <trkpt lat="59.128532556022" lon="17.921535604451">
        <ele>65</ele>
        <time>2016-04-13T19:33:24Z</time>
      </trkpt>
      <trkpt lat="59.128559042826" lon="17.921483385214">
        <ele>65.6</ele>
        <time>2016-04-13T19:33:25Z</time>
      </trkpt>
      <trkpt lat="59.128593827711" lon="17.921432674719">
        <ele>66.2</ele>
        <time>2016-04-13T19:33:26Z</time>
      </trkpt>
      <trkpt lat="59.128633641736" lon="17.921376599808">
        <ele>66.6</ele>
        <time>2016-04-13T19:33:27Z</time>
      </trkpt>
      <trkpt lat="59.12867856872" lon="17.921313903196">
        <ele>67</ele>
        <time>2016-04-13T19:33:28Z</time>
      </trkpt>
      <trkpt lat="59.128728692482" lon="17.921245171616">
        <ele>67.4</ele>
        <time>2016-04-13T19:33:29Z</time>
      </trkpt>
      <trkpt lat="59.128767668317" lon="17.921182475004">
        <ele>67.8</ele>
        <time>2016-04-13T19:33:30Z</time>
      </trkpt>
      <trkpt lat="59.128813768767" lon="17.921111145035">
        <ele>68.2</ele>
        <time>2016-04-13T19:33:31Z</time>
      </trkpt>
      <trkpt lat="59.128862383787" lon="17.921039144514">
        <ele>68.2</ele>
        <time>2016-04-13T19:33:32Z</time>
      </trkpt>
      <trkpt lat="59.129191205724" lon="17.920553748685">
        <ele>68.2</ele>
        <time>2016-04-13T19:33:38Z</time>
      </trkpt>
      <trkpt lat="59.129632848035" lon="17.920021749492">
        <ele>68.6</ele>
        <time>2016-04-13T19:33:45Z</time>
      </trkpt>
      <trkpt lat="59.129694538819" lon="17.919954610473">
        <ele>69</ele>
        <time>2016-04-13T19:33:46Z</time>
      </trkpt>
      <trkpt lat="59.129749943178" lon="17.919887136178">
        <ele>69.8</ele>
        <time>2016-04-13T19:33:47Z</time>
      </trkpt>
      <trkpt lat="59.129806521003" lon="17.919822847005">
        <ele>70.2</ele>
        <time>2016-04-13T19:33:48Z</time>
      </trkpt>
      <trkpt lat="59.129917916454" lon="17.919665937837">
        <ele>70.2</ele>
        <time>2016-04-13T19:33:50Z</time>
      </trkpt>
      <trkpt lat="59.130275991222" lon="17.919035535138">
        <ele>70.2</ele>
        <time>2016-04-13T19:33:57Z</time>
      </trkpt>
      <trkpt lat="59.130446143792" lon="17.918755831135">
        <ele>70.2</ele>
        <time>2016-04-13T19:34:00Z</time>
      </trkpt>
      <trkpt lat="59.130567094609" lon="17.91855089368">
        <ele>70.2</ele>
        <time>2016-04-13T19:34:02Z</time>
      </trkpt>
      <trkpt lat="59.130689637987" lon="17.918368754993">
        <ele>70.2</ele>
        <time>2016-04-13T19:34:04Z</time>
      </trkpt>
      <trkpt lat="59.1308260115" lon="17.91821142673">
        <ele>70.2</ele>
        <time>2016-04-13T19:34:06Z</time>
      </trkpt>
      <trkpt lat="59.130899101668" lon="17.918154094534">
        <ele>70.2</ele>
        <time>2016-04-13T19:34:07Z</time>
      </trkpt>
      <trkpt lat="59.131227253053" lon="17.918086955515">
        <ele>70.2</ele>
        <time>2016-04-13T19:34:11Z</time>
      </trkpt>
      <trkpt lat="59.131383324031" lon="17.918106317704">
        <ele>70.2</ele>
        <time>2016-04-13T19:34:13Z</time>
      </trkpt>
      <trkpt lat="59.131627572597" lon="17.918120315477">
        <ele>70.2</ele>
        <time>2016-04-13T19:34:16Z</time>
      </trkpt>
      <trkpt lat="59.131712900339" lon="17.918101791478">
        <ele>70.2</ele>
        <time>2016-04-13T19:34:17Z</time>
      </trkpt>
      <trkpt lat="59.132242804057" lon="17.917996179538">
        <ele>70.2</ele>
        <time>2016-04-13T19:34:23Z</time>
      </trkpt>
      <trkpt lat="59.132679668685" lon="17.918041190341">
        <ele>70.2</ele>
        <time>2016-04-13T19:34:28Z</time>
      </trkpt>
      <trkpt lat="59.133282830209" lon="17.918026773473">
        <ele>70.2</ele>
        <time>2016-04-13T19:34:35Z</time>
      </trkpt>
      <trkpt lat="59.133687424522" lon="17.917987294724">
        <ele>70.2</ele>
        <time>2016-04-13T19:34:40Z</time>
      </trkpt>
      <trkpt lat="59.134019934495" lon="17.918131463404">
        <ele>70.2</ele>
        <time>2016-04-13T19:34:44Z</time>
      </trkpt>
      <trkpt lat="59.134341631817" lon="17.918498003891">
        <ele>70.2</ele>
        <time>2016-04-13T19:34:48Z</time>
      </trkpt>
      <trkpt lat="59.134408770836" lon="17.918622307468">
        <ele>70.2</ele>
        <time>2016-04-13T19:34:49Z</time>
      </trkpt>
      <trkpt lat="59.134579593958" lon="17.919037211518">
        <ele>70.2</ele>
        <time>2016-04-13T19:34:52Z</time>
      </trkpt>
      <trkpt lat="59.134635165955" lon="17.919187750442">
        <ele>70.2</ele>
        <time>2016-04-13T19:34:53Z</time>
      </trkpt>
      <trkpt lat="59.134965748091" lon="17.919952682636">
        <ele>70.2</ele>
        <time>2016-04-13T19:34:59Z</time>
      </trkpt>
      <trkpt lat="59.135265736292" lon="17.920513850841">
        <ele>70.2</ele>
        <time>2016-04-13T19:35:04Z</time>
      </trkpt>
      <trkpt lat="59.135550972349" lon="17.921151461974">
        <ele>70.2</ele>
        <time>2016-04-13T19:35:09Z</time>
      </trkpt>
      <trkpt lat="59.135950369884" lon="17.922105573651">
        <ele>70.2</ele>
        <time>2016-04-13T19:35:16Z</time>
      </trkpt>
      <trkpt lat="59.136017005989" lon="17.92224982615">
        <ele>69.8</ele>
        <time>2016-04-13T19:35:17Z</time>
      </trkpt>
      <trkpt lat="59.136085905207" lon="17.922398856332">
        <ele>69.2</ele>
        <time>2016-04-13T19:35:18Z</time>
      </trkpt>
      <trkpt lat="59.136153882416" lon="17.922554424396">
        <ele>68.8</ele>
        <time>2016-04-13T19:35:19Z</time>
      </trkpt>
      <trkpt lat="59.136222362539" lon="17.922711836478">
        <ele>68</ele>
        <time>2016-04-13T19:35:20Z</time>
      </trkpt>
      <trkpt lat="59.136283885685" lon="17.922872014587">
        <ele>67.2</ele>
        <time>2016-04-13T19:35:21Z</time>
      </trkpt>
      <trkpt lat="59.136356137663" lon="17.923024397529">
        <ele>66.4</ele>
        <time>2016-04-13T19:35:22Z</time>
      </trkpt>
      <trkpt lat="59.136428138184" lon="17.923183905086">
        <ele>65.6</ele>
        <time>2016-04-13T19:35:23Z</time>
      </trkpt>
      <trkpt lat="59.136499132877" lon="17.923335952752">
        <ele>65</ele>
        <time>2016-04-13T19:35:24Z</time>
      </trkpt>
      <trkpt lat="59.136637518046" lon="17.923642730292">
        <ele>64</ele>
        <time>2016-04-13T19:35:26Z</time>
      </trkpt>
      <trkpt lat="59.136708177463" lon="17.923797208709">
        <ele>63.6</ele>
        <time>2016-04-13T19:35:27Z</time>
      </trkpt>
      <trkpt lat="59.136777914871" lon="17.923952944411">
        <ele>63.2</ele>
        <time>2016-04-13T19:35:28Z</time>
      </trkpt>
      <trkpt lat="59.136847484641" lon="17.924118067841">
        <ele>62.8</ele>
        <time>2016-04-13T19:35:29Z</time>
      </trkpt>
      <trkpt lat="59.136921580637" lon="17.924294339198">
        <ele>62.4</ele>
        <time>2016-04-13T19:35:30Z</time>
      </trkpt>
      <trkpt lat="59.136992072416" lon="17.924474130953">
        <ele>62</ele>
        <time>2016-04-13T19:35:31Z</time>
      </trkpt>
      <trkpt lat="59.137063150928" lon="17.92466046059">
        <ele>61.6</ele>
        <time>2016-04-13T19:35:32Z</time>
      </trkpt>
      <trkpt lat="59.137138839485" lon="17.924852238462">
        <ele>61</ele>
        <time>2016-04-13T19:35:33Z</time>
      </trkpt>
      <trkpt lat="59.13721469568" lon="17.925043597239">
        <ele>60.2</ele>
        <time>2016-04-13T19:35:34Z</time>
      </trkpt>
      <trkpt lat="59.137297005938" lon="17.925250294893">
        <ele>59.2</ele>
        <time>2016-04-13T19:35:35Z</time>
      </trkpt>
      <trkpt lat="59.137376885445" lon="17.925461351135">
        <ele>58.4</ele>
        <time>2016-04-13T19:35:36Z</time>
      </trkpt>
      <trkpt lat="59.137455842943" lon="17.925676011594">
        <ele>57.2</ele>
        <time>2016-04-13T19:35:37Z</time>
      </trkpt>
      <trkpt lat="59.13753823702" lon="17.925900478876">
        <ele>56.2</ele>
        <time>2016-04-13T19:35:38Z</time>
      </trkpt>
      <trkpt lat="59.137619625269" lon="17.926122599226">
        <ele>55</ele>
        <time>2016-04-13T19:35:39Z</time>
      </trkpt>
      <trkpt lat="59.137700929699" lon="17.926343462291">
        <ele>54</ele>
        <time>2016-04-13T19:35:40Z</time>
      </trkpt>
      <trkpt lat="59.137786173622" lon="17.926564325356">
        <ele>52.8</ele>
        <time>2016-04-13T19:35:41Z</time>
      </trkpt>
      <trkpt lat="59.137876279047" lon="17.926775465417">
        <ele>51.6</ele>
        <time>2016-04-13T19:35:42Z</time>
      </trkpt>
      <trkpt lat="59.137971916526" lon="17.926970847506">
        <ele>50.4</ele>
        <time>2016-04-13T19:35:43Z</time>
      </trkpt>
      <trkpt lat="59.138067889281" lon="17.927167151604">
        <ele>49.2</ele>
        <time>2016-04-13T19:35:44Z</time>
      </trkpt>
      <trkpt lat="59.138175345239" lon="17.927360019123">
        <ele>48</ele>
        <time>2016-04-13T19:35:45Z</time>
      </trkpt>
      <trkpt lat="59.138279783713" lon="17.927536039023">
        <ele>46.8</ele>
        <time>2016-04-13T19:35:46Z</time>
      </trkpt>
      <trkpt lat="59.138379612142" lon="17.927717255701">
        <ele>46</ele>
        <time>2016-04-13T19:35:47Z</time>
      </trkpt>
      <trkpt lat="59.138484302073" lon="17.927884726063">
        <ele>45.4</ele>
        <time>2016-04-13T19:35:48Z</time>
      </trkpt>
      <trkpt lat="59.138582454122" lon="17.928062254705">
        <ele>44.8</ele>
        <time>2016-04-13T19:35:49Z</time>
      </trkpt>
      <trkpt lat="59.13868655732" lon="17.928234251293">
        <ele>44</ele>
        <time>2016-04-13T19:35:50Z</time>
      </trkpt>
      <trkpt lat="59.138786637206" lon="17.928407337528">
        <ele>42.6</ele>
        <time>2016-04-13T19:35:51Z</time>
      </trkpt>
      <trkpt lat="59.138886297997" lon="17.92858318979">
        <ele>41.8</ele>
        <time>2016-04-13T19:35:52Z</time>
      </trkpt>
      <trkpt lat="59.138994759783" lon="17.928757784767">
        <ele>41.2</ele>
        <time>2016-04-13T19:35:53Z</time>
      </trkpt>
      <trkpt lat="59.139090900176" lon="17.928930619545">
        <ele>40.6</ele>
        <time>2016-04-13T19:35:54Z</time>
      </trkpt>
      <trkpt lat="59.139195925383" lon="17.929090797654">
        <ele>40</ele>
        <time>2016-04-13T19:35:55Z</time>
      </trkpt>
      <trkpt lat="59.139298016925" lon="17.929254831437">
        <ele>39.4</ele>
        <time>2016-04-13T19:35:56Z</time>
      </trkpt>
      <trkpt lat="59.139396252793" lon="17.929418110849">
        <ele>38.8</ele>
        <time>2016-04-13T19:35:57Z</time>
      </trkpt>
      <trkpt lat="59.139902435734" lon="17.930138451335">
        <ele>38.8</ele>
        <time>2016-04-13T19:36:02Z</time>
      </trkpt>
      <trkpt lat="59.140354052506" lon="17.930534831386">
        <ele>38.8</ele>
        <time>2016-04-13T19:36:06Z</time>
      </trkpt>
      <trkpt lat="59.140895271789" lon="17.931009833659">
        <ele>38.8</ele>
        <time>2016-04-13T19:36:11Z</time>
      </trkpt>
      <trkpt lat="59.1409932562" lon="17.931126425888">
        <ele>38.8</ele>
        <time>2016-04-13T19:36:12Z</time>
      </trkpt>
      <trkpt lat="59.141321323766" lon="17.931669070094">
        <ele>38.8</ele>
        <time>2016-04-13T19:36:16Z</time>
      </trkpt>
      <trkpt lat="59.141658695241" lon="17.932406928751">
        <ele>38.8</ele>
        <time>2016-04-13T19:36:21Z</time>
      </trkpt>
      <trkpt lat="59.141867153094" lon="17.93281353472">
        <ele>38.8</ele>
        <time>2016-04-13T19:36:24Z</time>
      </trkpt>
      <trkpt lat="59.142033114714" lon="17.933036157984">
        <ele>38.8</ele>
        <time>2016-04-13T19:36:26Z</time>
      </trkpt>
      <trkpt lat="59.142194047194" lon="17.933235563385">
        <ele>39.2</ele>
        <time>2016-04-13T19:36:28Z</time>
      </trkpt>
      <trkpt lat="59.142274597253" lon="17.933322567507">
        <ele>39.6</ele>
        <time>2016-04-13T19:36:29Z</time>
      </trkpt>
      <trkpt lat="59.142348777068" lon="17.933399764806">
        <ele>40</ele>
        <time>2016-04-13T19:36:30Z</time>
      </trkpt>
      <trkpt lat="59.142421280503" lon="17.933475788639">
        <ele>40.6</ele>
        <time>2016-04-13T19:36:31Z</time>
      </trkpt>
      <trkpt lat="59.142493197205" lon="17.933555249051">
        <ele>41</ele>
        <time>2016-04-13T19:36:32Z</time>
      </trkpt>
      <trkpt lat="59.142560839138" lon="17.93362993178">
        <ele>41.4</ele>
        <time>2016-04-13T19:36:33Z</time>
      </trkpt>
      <trkpt lat="59.142629319261" lon="17.933700088283">
        <ele>41.8</ele>
        <time>2016-04-13T19:36:34Z</time>
      </trkpt>
      <trkpt lat="59.142697799384" lon="17.9337707477">
        <ele>42.2</ele>
        <time>2016-04-13T19:36:35Z</time>
      </trkpt>
      <trkpt lat="59.142766950059" lon="17.933845178972">
        <ele>42.6</ele>
        <time>2016-04-13T19:36:36Z</time>
      </trkpt>
      <trkpt lat="59.142840124046" lon="17.933911228344">
        <ele>43.2</ele>
        <time>2016-04-13T19:36:37Z</time>
      </trkpt>
      <trkpt lat="59.142915561146" lon="17.933979540829">
        <ele>43.6</ele>
        <time>2016-04-13T19:36:38Z</time>
      </trkpt>
      <trkpt lat="59.142993261359" lon="17.934048020952">
        <ele>44.2</ele>
        <time>2016-04-13T19:36:39Z</time>
      </trkpt>
      <trkpt lat="59.143069788106" lon="17.934113902686">
        <ele>45.2</ele>
        <time>2016-04-13T19:36:40Z</time>
      </trkpt>
      <trkpt lat="59.143295345035" lon="17.934266788542">
        <ele>45.6</ele>
        <time>2016-04-13T19:36:43Z</time>
      </trkpt>
      <trkpt lat="59.143370698316" lon="17.934302243979">
        <ele>46</ele>
        <time>2016-04-13T19:36:44Z</time>
      </trkpt>
      <trkpt lat="59.143447811796" lon="17.934339962529">
        <ele>46.4</ele>
        <time>2016-04-13T19:36:45Z</time>
      </trkpt>
      <trkpt lat="59.143529702959" lon="17.934368209532">
        <ele>46.8</ele>
        <time>2016-04-13T19:36:46Z</time>
      </trkpt>
      <trkpt lat="59.143616539443" lon="17.934390673024">
        <ele>47.2</ele>
        <time>2016-04-13T19:36:47Z</time>
      </trkpt>
      <trkpt lat="59.143872606488" lon="17.934425541728">
        <ele>47.2</ele>
        <time>2016-04-13T19:36:50Z</time>
      </trkpt>
      <trkpt lat="59.144310393125" lon="17.934352703017">
        <ele>46.8</ele>
        <time>2016-04-13T19:36:55Z</time>
      </trkpt>
      <trkpt lat="59.144399408903" lon="17.934322360539">
        <ele>46.2</ele>
        <time>2016-04-13T19:36:56Z</time>
      </trkpt>
      <trkpt lat="59.144488424681" lon="17.934289252034">
        <ele>45.8</ele>
        <time>2016-04-13T19:36:57Z</time>
      </trkpt>
      <trkpt lat="59.14457735664" lon="17.934246169068">
        <ele>45.4</ele>
        <time>2016-04-13T19:36:58Z</time>
      </trkpt>
      <trkpt lat="59.144667294427" lon="17.934203505197">
        <ele>45</ele>
        <time>2016-04-13T19:36:59Z</time>
      </trkpt>
      <trkpt lat="59.144848594924" lon="17.934109460279">
        <ele>44.6</ele>
        <time>2016-04-13T19:37:01Z</time>
      </trkpt>
      <trkpt lat="59.144942388385" lon="17.934062354001">
        <ele>44</ele>
        <time>2016-04-13T19:37:02Z</time>
      </trkpt>
      <trkpt lat="59.145032912905" lon="17.934004686529">
        <ele>43.6</ele>
        <time>2016-04-13T19:37:03Z</time>
      </trkpt>
      <trkpt lat="59.145124946167" lon="17.933955736233">
        <ele>42.6</ele>
        <time>2016-04-13T19:37:04Z</time>
      </trkpt>
      <trkpt lat="59.145374726787" lon="17.933777369401">
        <ele>42.6</ele>
        <time>2016-04-13T19:37:07Z</time>
      </trkpt>
      <trkpt lat="59.145833971088" lon="17.933249058244">
        <ele>42.6</ele>
        <time>2016-04-13T19:37:13Z</time>
      </trkpt>
      <trkpt lat="59.146255161563" lon="17.932552941449">
        <ele>42.6</ele>
        <time>2016-04-13T19:37:19Z</time>
      </trkpt>
      <trkpt lat="59.146326072437" lon="17.932439199066">
        <ele>42.6</ele>
        <time>2016-04-13T19:37:20Z</time>
      </trkpt>
      <trkpt lat="59.146717926262" lon="17.931738220769">
        <ele>42.6</ele>
        <time>2016-04-13T19:37:26Z</time>
      </trkpt>
      <trkpt lat="59.147122772032" lon="17.931089629347">
        <ele>42.6</ele>
        <time>2016-04-13T19:37:32Z</time>
      </trkpt>
      <trkpt lat="59.1476065753" lon="17.930567604615">
        <ele>42.6</ele>
        <time>2016-04-13T19:37:38Z</time>
      </trkpt>
      <trkpt lat="59.147963141326" lon="17.930276752685">
        <ele>42.2</ele>
        <time>2016-04-13T19:37:42Z</time>
      </trkpt>
      <trkpt lat="59.148049223439" lon="17.930213804616">
        <ele>41.8</ele>
        <time>2016-04-13T19:37:43Z</time>
      </trkpt>
      <trkpt lat="59.148133712991" lon="17.930146246502">
        <ele>41.4</ele>
        <time>2016-04-13T19:37:44Z</time>
      </trkpt>
      <trkpt lat="59.148222225855" lon="17.930093272894">
        <ele>40.8</ele>
        <time>2016-04-13T19:37:45Z</time>
      </trkpt>
      <trkpt lat="59.14830394938" lon="17.930032085024">
        <ele>40.4</ele>
        <time>2016-04-13T19:37:46Z</time>
      </trkpt>
      <trkpt lat="59.14864844547" lon="17.92978599244">
        <ele>40.4</ele>
        <time>2016-04-13T19:37:50Z</time>
      </trkpt>
      <trkpt lat="59.149080616234" lon="17.929547778842">
        <ele>40.8</ele>
        <time>2016-04-13T19:37:55Z</time>
      </trkpt>
      <trkpt lat="59.149170889297" lon="17.929502265125">
        <ele>41.2</ele>
        <time>2016-04-13T19:37:56Z</time>
      </trkpt>
      <trkpt lat="59.149258480152" lon="17.929451973725">
        <ele>41.6</ele>
        <time>2016-04-13T19:37:57Z</time>
      </trkpt>
      <trkpt lat="59.149348501758" lon="17.929409561311">
        <ele>42</ele>
        <time>2016-04-13T19:37:58Z</time>
      </trkpt>
      <trkpt lat="59.149436008794" lon="17.929367148897">
        <ele>42.4</ele>
        <time>2016-04-13T19:37:59Z</time>
      </trkpt>
      <trkpt lat="59.14998116757" lon="17.929157266121">
        <ele>42.4</ele>
        <time>2016-04-13T19:38:05Z</time>
      </trkpt>
      <trkpt lat="59.15007336847" lon="17.929125917815">
        <ele>42.4</ele>
        <time>2016-04-13T19:38:06Z</time>
      </trkpt>
      <trkpt lat="59.150250394198" lon="17.929057353873">
        <ele>42</ele>
        <time>2016-04-13T19:38:08Z</time>
      </trkpt>
      <trkpt lat="59.150340667261" lon="17.929021060246">
        <ele>41.6</ele>
        <time>2016-04-13T19:38:09Z</time>
      </trkpt>
      <trkpt lat="59.150425659727" lon="17.92899222651">
        <ele>41.2</ele>
        <time>2016-04-13T19:38:10Z</time>
      </trkpt>
      <trkpt lat="59.15051677098" lon="17.928958195996">
        <ele>40.8</ele>
        <time>2016-04-13T19:38:11Z</time>
      </trkpt>
      <trkpt lat="59.150601260532" lon="17.928929781355">
        <ele>40.4</ele>
        <time>2016-04-13T19:38:12Z</time>
      </trkpt>
      <trkpt lat="59.150868726961" lon="17.928828360365">
        <ele>40.4</ele>
        <time>2016-04-13T19:38:15Z</time>
      </trkpt>
      <trkpt lat="59.151367366192" lon="17.928632475362">
        <ele>40.4</ele>
        <time>2016-04-13T19:38:21Z</time>
      </trkpt>
      <trkpt lat="59.151657631389" lon="17.928559804289">
        <ele>40.4</ele>
        <time>2016-04-13T19:38:25Z</time>
      </trkpt>
      <trkpt lat="59.151731392109" lon="17.928531808743">
        <ele>40.4</ele>
        <time>2016-04-13T19:38:26Z</time>
      </trkpt>
      <trkpt lat="59.151927780026" lon="17.928478499859">
        <ele>40.4</ele>
        <time>2016-04-13T19:38:29Z</time>
      </trkpt>
      <trkpt lat="59.151996930701" lon="17.928461233145">
        <ele>40.8</ele>
        <time>2016-04-13T19:38:30Z</time>
      </trkpt>
      <trkpt lat="59.15206155515" lon="17.928441870956">
        <ele>41.2</ele>
        <time>2016-04-13T19:38:31Z</time>
      </trkpt>
      <trkpt lat="59.15212693397" lon="17.928421251482">
        <ele>41.6</ele>
        <time>2016-04-13T19:38:32Z</time>
      </trkpt>
      <trkpt lat="59.15219566555" lon="17.92839962618">
        <ele>42</ele>
        <time>2016-04-13T19:38:33Z</time>
      </trkpt>
      <trkpt lat="59.152257523972" lon="17.928393926488">
        <ele>42.4</ele>
        <time>2016-04-13T19:38:34Z</time>
      </trkpt>
      <trkpt lat="59.152326255552" lon="17.928399877637">
        <ele>42.8</ele>
        <time>2016-04-13T19:38:35Z</time>
      </trkpt>
      <trkpt lat="59.152396914969" lon="17.928405744967">
        <ele>43.2</ele>
        <time>2016-04-13T19:38:36Z</time>
      </trkpt>
      <trkpt lat="59.152466233282" lon="17.928405744967">
        <ele>43.6</ele>
        <time>2016-04-13T19:38:37Z</time>
      </trkpt>
      <trkpt lat="59.152538652898" lon="17.928426699717">
        <ele>44</ele>
        <time>2016-04-13T19:38:38Z</time>
      </trkpt>
      <trkpt lat="59.152614089998" lon="17.928459472946">
        <ele>44.4</ele>
        <time>2016-04-13T19:38:39Z</time>
      </trkpt>
      <trkpt lat="59.152762365809" lon="17.928560223384">
        <ele>44.4</ele>
        <time>2016-04-13T19:38:41Z</time>
      </trkpt>
      <trkpt lat="59.152832187036" lon="17.928623255272">
        <ele>44.4</ele>
        <time>2016-04-13T19:38:42Z</time>
      </trkpt>
      <trkpt lat="59.152894632191" lon="17.928678827269">
        <ele>44.8</ele>
        <time>2016-04-13T19:38:43Z</time>
      </trkpt>
      <trkpt lat="59.152954478957" lon="17.928745882469">
        <ele>45.8</ele>
        <time>2016-04-13T19:38:44Z</time>
      </trkpt>
      <trkpt lat="59.153019187225" lon="17.928815116963">
        <ele>46.2</ele>
        <time>2016-04-13T19:38:45Z</time>
      </trkpt>
      <trkpt lat="59.15308330876" lon="17.928895331746">
        <ele>46.6</ele>
        <time>2016-04-13T19:38:46Z</time>
      </trkpt>
      <trkpt lat="59.153377681088" lon="17.929233289954">
        <ele>46.6</ele>
        <time>2016-04-13T19:38:51Z</time>
      </trkpt>
      <trkpt lat="59.153554120083" lon="17.929416266831">
        <ele>47</ele>
        <time>2016-04-13T19:38:54Z</time>
      </trkpt>
      <trkpt lat="59.153605417311" lon="17.929472257923">
        <ele>47.4</ele>
        <time>2016-04-13T19:38:55Z</time>
      </trkpt>
      <trkpt lat="59.153660737851" lon="17.929541660055">
        <ele>47.8</ele>
        <time>2016-04-13T19:38:56Z</time>
      </trkpt>
      <trkpt lat="59.153714968744" lon="17.929603686115">
        <ele>48.2</ele>
        <time>2016-04-13T19:38:57Z</time>
      </trkpt>
      <trkpt lat="59.153767774714" lon="17.929659844845">
        <ele>48.6</ele>
        <time>2016-04-13T19:38:58Z</time>
      </trkpt>
      <trkpt lat="59.15382175415" lon="17.929707454037">
        <ele>48.6</ele>
        <time>2016-04-13T19:38:59Z</time>
      </trkpt>
      <trkpt lat="59.153948488478" lon="17.929811892511">
        <ele>48.6</ele>
        <time>2016-04-13T19:39:01Z</time>
      </trkpt>
      <trkpt lat="59.154011688004" lon="17.92984047479">
        <ele>48.6</ele>
        <time>2016-04-13T19:39:02Z</time>
      </trkpt>
      <trkpt lat="59.154260630434" lon="17.929996294311">
        <ele>48.6</ele>
        <time>2016-04-13T19:39:06Z</time>
      </trkpt>
      <trkpt lat="59.15431377168" lon="17.930022529658">
        <ele>48.6</ele>
        <time>2016-04-13T19:39:07Z</time>
      </trkpt>
      <trkpt lat="59.154372528799" lon="17.930056643991">
        <ele>49</ele>
        <time>2016-04-13T19:39:08Z</time>
      </trkpt>
      <trkpt lat="59.154430950642" lon="17.930095536007">
        <ele>49.8</ele>
        <time>2016-04-13T19:39:09Z</time>
      </trkpt>
      <trkpt lat="59.154486103544" lon="17.930133422195">
        <ele>50.2</ele>
        <time>2016-04-13T19:39:10Z</time>
      </trkpt>
      <trkpt lat="59.154542429912" lon="17.930172733306">
        <ele>50.6</ele>
        <time>2016-04-13T19:39:11Z</time>
      </trkpt>
      <trkpt lat="59.154829761444" lon="17.930245572017">
        <ele>50.6</ele>
        <time>2016-04-13T19:39:15Z</time>
      </trkpt>
      <trkpt lat="59.15491726848" lon="17.930228389122">
        <ele>50.6</ele>
        <time>2016-04-13T19:39:16Z</time>
      </trkpt>
      <trkpt lat="59.155071411621" lon="17.930170470193">
        <ele>50.6</ele>
        <time>2016-04-13T19:39:18Z</time>
      </trkpt>
      <trkpt lat="59.155211389351" lon="17.930051614851">
        <ele>50.6</ele>
        <time>2016-04-13T19:39:20Z</time>
      </trkpt>
      <trkpt lat="59.155281378216" lon="17.929961257969">
        <ele>50.2</ele>
        <time>2016-04-13T19:39:21Z</time>
      </trkpt>
      <trkpt lat="59.155348852511" lon="17.92987148782">
        <ele>49.6</ele>
        <time>2016-04-13T19:39:22Z</time>
      </trkpt>
      <trkpt lat="59.155418589919" lon="17.929778951644">
        <ele>49.2</ele>
        <time>2016-04-13T19:39:23Z</time>
      </trkpt>
      <trkpt lat="59.155485226024" lon="17.929676273369">
        <ele>48.8</ele>
        <time>2016-04-13T19:39:24Z</time>
      </trkpt>
      <trkpt lat="59.155560746943" lon="17.929566638117">
        <ele>48.2</ele>
        <time>2016-04-13T19:39:25Z</time>
      </trkpt>
      <trkpt lat="59.155716482645" lon="17.929312582728">
        <ele>47.6</ele>
        <time>2016-04-13T19:39:27Z</time>
      </trkpt>
      <trkpt lat="59.155790997736" lon="17.929181992726">
        <ele>47</ele>
        <time>2016-04-13T19:39:28Z</time>
      </trkpt>
      <trkpt lat="59.155861405696" lon="17.929056096588">
        <ele>46.4</ele>
        <time>2016-04-13T19:39:29Z</time>
      </trkpt>
      <trkpt lat="59.155931394561" lon="17.928934642857">
        <ele>46</ele>
        <time>2016-04-13T19:39:30Z</time>
      </trkpt>
      <trkpt lat="59.156002473073" lon="17.928802963208">
        <ele>45.4</ele>
        <time>2016-04-13T19:39:31Z</time>
      </trkpt>
      <trkpt lat="59.156155861843" lon="17.928554188416">
        <ele>44.6</ele>
        <time>2016-04-13T19:39:33Z</time>
      </trkpt>
      <trkpt lat="59.156240435214" lon="17.928426699717">
        <ele>44</ele>
        <time>2016-04-13T19:39:34Z</time>
      </trkpt>
      <trkpt lat="59.156336072693" lon="17.928324859632">
        <ele>43.6</ele>
        <time>2016-04-13T19:39:35Z</time>
      </trkpt>
      <trkpt lat="59.156430788163" lon="17.928239196614">
        <ele>43.2</ele>
        <time>2016-04-13T19:39:36Z</time>
      </trkpt>
      <trkpt lat="59.156529862221" lon="17.928176248545">
        <ele>43.2</ele>
        <time>2016-04-13T19:39:37Z</time>
      </trkpt>
      <trkpt lat="59.156826330024" lon="17.928146660438">
        <ele>43.2</ele>
        <time>2016-04-13T19:39:40Z</time>
      </trkpt>
      <trkpt lat="59.157122462551" lon="17.928262079201">
        <ele>42.8</ele>
        <time>2016-04-13T19:39:43Z</time>
      </trkpt>
      <trkpt lat="59.15722145279" lon="17.928289404195">
        <ele>42.4</ele>
        <time>2016-04-13T19:39:44Z</time>
      </trkpt>
      <trkpt lat="59.157321700314" lon="17.928322428881">
        <ele>42</ele>
        <time>2016-04-13T19:39:45Z</time>
      </trkpt>
      <trkpt lat="59.157412979205" lon="17.928351430255">
        <ele>41.6</ele>
        <time>2016-04-13T19:39:46Z</time>
      </trkpt>
      <trkpt lat="59.157508029951" lon="17.928380766905">
        <ele>41.2</ele>
        <time>2016-04-13T19:39:47Z</time>
      </trkpt>
      <trkpt lat="59.157805419763" lon="17.928448157381">
        <ele>41.2</ele>
        <time>2016-04-13T19:39:50Z</time>
      </trkpt>
      <trkpt lat="59.158242535848" lon="17.928526276689">
        <ele>41.2</ele>
        <time>2016-04-13T19:39:55Z</time>
      </trkpt>
      <trkpt lat="59.15849047245" lon="17.928528539802">
        <ele>41.6</ele>
        <time>2016-04-13T19:39:58Z</time>
      </trkpt>
      <trkpt lat="59.158571944518" lon="17.928525773775">
        <ele>42</ele>
        <time>2016-04-13T19:39:59Z</time>
      </trkpt>
      <trkpt lat="59.158651237292" lon="17.928516805142">
        <ele>42.4</ele>
        <time>2016-04-13T19:40:00Z</time>
      </trkpt>
      <trkpt lat="59.15872600384" lon="17.928506663043">
        <ele>42.8</ele>
        <time>2016-04-13T19:40:01Z</time>
      </trkpt>
      <trkpt lat="59.158806386261" lon="17.928474476547">
        <ele>43.4</ele>
        <time>2016-04-13T19:40:02Z</time>
      </trkpt>
      <trkpt lat="59.15888609813" lon="17.928469112131">
        <ele>44</ele>
        <time>2016-04-13T19:40:03Z</time>
      </trkpt>
      <trkpt lat="59.158965307085" lon="17.928437177092">
        <ele>44.6</ele>
        <time>2016-04-13T19:40:04Z</time>
      </trkpt>
      <trkpt lat="59.159050634827" lon="17.928421167663">
        <ele>45.2</ele>
        <time>2016-04-13T19:40:05Z</time>
      </trkpt>
      <trkpt lat="59.159125904289" lon="17.928382610923">
        <ele>45.6</ele>
        <time>2016-04-13T19:40:06Z</time>
      </trkpt>
      <trkpt lat="59.159201006113" lon="17.928359476879">
        <ele>46.2</ele>
        <time>2016-04-13T19:40:07Z</time>
      </trkpt>
      <trkpt lat="59.159269653874" lon="17.928320501044">
        <ele>46.8</ele>
        <time>2016-04-13T19:40:08Z</time>
      </trkpt>
      <trkpt lat="59.159344504241" lon="17.928291415851">
        <ele>47.2</ele>
        <time>2016-04-13T19:40:09Z</time>
      </trkpt>
      <trkpt lat="59.159401417342" lon="17.928264426133">
        <ele>47.8</ele>
        <time>2016-04-13T19:40:10Z</time>
      </trkpt>
      <trkpt lat="59.159461264108" lon="17.928232407275">
        <ele>48.4</ele>
        <time>2016-04-13T19:40:11Z</time>
      </trkpt>
      <trkpt lat="59.159527648756" lon="17.928218325683">
        <ele>49.2</ele>
        <time>2016-04-13T19:40:12Z</time>
      </trkpt>
      <trkpt lat="59.159586908789" lon="17.928176583821">
        <ele>49.8</ele>
        <time>2016-04-13T19:40:13Z</time>
      </trkpt>
      <trkpt lat="59.159650192134" lon="17.928163424238">
        <ele>50.4</ele>
        <time>2016-04-13T19:40:14Z</time>
      </trkpt>
      <trkpt lat="59.159702830466" lon="17.928127968801">
        <ele>51.2</ele>
        <time>2016-04-13T19:40:15Z</time>
      </trkpt>
      <trkpt lat="59.159764605069" lon="17.928073318813">
        <ele>51.8</ele>
        <time>2016-04-13T19:40:16Z</time>
      </trkpt>
      <trkpt lat="59.159828307509" lon="17.928030990218">
        <ele>52.4</ele>
        <time>2016-04-13T19:40:17Z</time>
      </trkpt>
      <trkpt lat="59.159896871451" lon="17.92796292919">
        <ele>53</ele>
        <time>2016-04-13T19:40:18Z</time>
      </trkpt>
      <trkpt lat="59.159961747357" lon="17.927894784343">
        <ele>53.4</ele>
        <time>2016-04-13T19:40:19Z</time>
      </trkpt>
      <trkpt lat="59.160032322955" lon="17.927816916492">
        <ele>53.8</ele>
        <time>2016-04-13T19:40:20Z</time>
      </trkpt>
      <trkpt lat="59.160094851929" lon="17.927737120804">
        <ele>54.2</ele>
        <time>2016-04-13T19:40:21Z</time>
      </trkpt>
      <trkpt lat="59.160145562424" lon="17.927667467215">
        <ele>54.6</ele>
        <time>2016-04-13T19:40:22Z</time>
      </trkpt>
      <trkpt lat="59.160343039988" lon="17.92744744234">
        <ele>54.6</ele>
        <time>2016-04-13T19:40:25Z</time>
      </trkpt>
      <trkpt lat="59.160745790283" lon="17.927104203535">
        <ele>54.6</ele>
        <time>2016-04-13T19:40:30Z</time>
      </trkpt>
      <trkpt lat="59.161215679597" lon="17.926719390506">
        <ele>54.2</ele>
        <time>2016-04-13T19:40:35Z</time>
      </trkpt>
      <trkpt lat="59.161312825818" lon="17.926626267597">
        <ele>53.6</ele>
        <time>2016-04-13T19:40:36Z</time>
      </trkpt>
      <trkpt lat="59.161413911532" lon="17.926539598751">
        <ele>53.2</ele>
        <time>2016-04-13T19:40:37Z</time>
      </trkpt>
      <trkpt lat="59.161508627002" lon="17.926437758666">
        <ele>52.6</ele>
        <time>2016-04-13T19:40:38Z</time>
      </trkpt>
      <trkpt lat="59.16160183373" lon="17.926327452862">
        <ele>52.2</ele>
        <time>2016-04-13T19:40:39Z</time>
      </trkpt>
      <trkpt lat="59.161700237236" lon="17.926227708252">
        <ele>51.8</ele>
        <time>2016-04-13T19:40:40Z</time>
      </trkpt>
      <trkpt lat="59.161805010986" lon="17.926120084656">
        <ele>51.2</ele>
        <time>2016-04-13T19:40:41Z</time>
      </trkpt>
      <trkpt lat="59.161918166636" lon="17.92602419572">
        <ele>50.8</ele>
        <time>2016-04-13T19:40:42Z</time>
      </trkpt>
      <trkpt lat="59.162031657562" lon="17.925938867978">
        <ele>50.2</ele>
        <time>2016-04-13T19:40:43Z</time>
      </trkpt>
      <trkpt lat="59.162151770189" lon="17.925876255185">
        <ele>49.4</ele>
        <time>2016-04-13T19:40:44Z</time>
      </trkpt>
      <trkpt lat="59.16227741487" lon="17.925837530807">
        <ele>48.4</ele>
        <time>2016-04-13T19:40:45Z</time>
      </trkpt>
      <trkpt lat="59.16241152527" lon="17.925819006808">
        <ele>47.4</ele>
        <time>2016-04-13T19:40:46Z</time>
      </trkpt>
      <trkpt lat="59.16254563567" lon="17.925808948528">
        <ele>46</ele>
        <time>2016-04-13T19:40:47Z</time>
      </trkpt>
      <trkpt lat="59.16268645159" lon="17.925817665704">
        <ele>43.2</ele>
        <time>2016-04-13T19:40:48Z</time>
      </trkpt>
      <trkpt lat="59.162838750713" lon="17.925825963785">
        <ele>41.8</ele>
        <time>2016-04-13T19:40:49Z</time>
      </trkpt>
      <trkpt lat="59.162985853058" lon="17.925805511949">
        <ele>40.2</ele>
        <time>2016-04-13T19:40:50Z</time>
      </trkpt>
      <trkpt lat="59.163122142752" lon="17.925785060113">
        <ele>38.6</ele>
        <time>2016-04-13T19:40:51Z</time>
      </trkpt>
      <trkpt lat="59.163295145168" lon="17.925723117872">
        <ele>36.8</ele>
        <time>2016-04-13T19:40:52Z</time>
      </trkpt>
      <trkpt lat="59.16346093915" lon="17.925662432916">
        <ele>35</ele>
        <time>2016-04-13T19:40:53Z</time>
      </trkpt>
      <trkpt lat="59.163623380372" lon="17.925604765444">
        <ele>33</ele>
        <time>2016-04-13T19:40:54Z</time>
      </trkpt>
      <trkpt lat="59.163773081106" lon="17.925555396053">
        <ele>31.4</ele>
        <time>2016-04-13T19:40:55Z</time>
      </trkpt>
      <trkpt lat="59.163932169568" lon="17.925509295603">
        <ele>29.6</ele>
        <time>2016-04-13T19:40:56Z</time>
      </trkpt>
      <trkpt lat="59.164086312709" lon="17.925510133793">
        <ele>27.8</ele>
        <time>2016-04-13T19:40:57Z</time>
      </trkpt>
      <trkpt lat="59.164369034196" lon="17.925628653859">
        <ele>24.4</ele>
        <time>2016-04-13T19:40:59Z</time>
      </trkpt>
      <trkpt lat="59.164576486221" lon="17.925893186623">
        <ele>24.4</ele>
        <time>2016-04-13T19:41:01Z</time>
      </trkpt>
      <trkpt lat="59.164666424008" lon="17.926038612588">
        <ele>25</ele>
        <time>2016-04-13T19:41:02Z</time>
      </trkpt>
      <trkpt lat="59.164757032347" lon="17.926169034952">
        <ele>25.4</ele>
        <time>2016-04-13T19:41:03Z</time>
      </trkpt>
      <trkpt lat="59.164850155256" lon="17.92629996023">
        <ele>26.2</ele>
        <time>2016-04-13T19:41:04Z</time>
      </trkpt>
      <trkpt lat="59.16493950631" lon="17.926416217183">
        <ele>26.8</ele>
        <time>2016-04-13T19:41:05Z</time>
      </trkpt>
      <trkpt lat="59.165027348622" lon="17.926527025901">
        <ele>27.6</ele>
        <time>2016-04-13T19:41:06Z</time>
      </trkpt>
      <trkpt lat="59.165119633341" lon="17.926619897353">
        <ele>28.4</ele>
        <time>2016-04-13T19:41:07Z</time>
      </trkpt>
      <trkpt lat="59.165214935544" lon="17.926695166815">
        <ele>29</ele>
        <time>2016-04-13T19:41:08Z</time>
      </trkpt>
      <trkpt lat="59.165308393729" lon="17.92676012654">
        <ele>29</ele>
        <time>2016-04-13T19:41:09Z</time>
      </trkpt>
      <trkpt lat="59.165732769326" lon="17.926927680721">
        <ele>29</ele>
        <time>2016-04-13T19:41:13Z</time>
      </trkpt>
      <trkpt lat="59.166074247932" lon="17.926958358475">
        <ele>28.6</ele>
        <time>2016-04-13T19:41:16Z</time>
      </trkpt>
      <trkpt lat="59.166188241772" lon="17.926955592448">
        <ele>28.2</ele>
        <time>2016-04-13T19:41:17Z</time>
      </trkpt>
      <trkpt lat="59.166296200644" lon="17.926937319906">
        <ele>27.8</ele>
        <time>2016-04-13T19:41:18Z</time>
      </trkpt>
      <trkpt lat="59.166417989651" lon="17.926938744829">
        <ele>27.4</ele>
        <time>2016-04-13T19:41:19Z</time>
      </trkpt>
      <trkpt lat="59.166533827509" lon="17.926933715689">
        <ele>27</ele>
        <time>2016-04-13T19:41:20Z</time>
      </trkpt>
      <trkpt lat="59.166649078634" lon="17.926926339617">
        <ele>26.4</ele>
        <time>2016-04-13T19:41:21Z</time>
      </trkpt>
      <trkpt lat="59.166759971171" lon="17.92691183893">
        <ele>25.8</ele>
        <time>2016-04-13T19:41:22Z</time>
      </trkpt>
      <trkpt lat="59.16686901969" lon="17.926899852813">
        <ele>25.4</ele>
        <time>2016-04-13T19:41:23Z</time>
      </trkpt>
      <trkpt lat="59.166975218363" lon="17.926887112325">
        <ele>24.8</ele>
        <time>2016-04-13T19:41:24Z</time>
      </trkpt>
      <trkpt lat="59.167082925778" lon="17.926866073756">
        <ele>24.4</ele>
        <time>2016-04-13T19:41:25Z</time>
      </trkpt>
      <trkpt lat="59.167192812487" lon="17.926841095694">
        <ele>23.8</ele>
        <time>2016-04-13T19:41:26Z</time>
      </trkpt>
      <trkpt lat="59.167292976192" lon="17.926789966104">
        <ele>23.4</ele>
        <time>2016-04-13T19:41:27Z</time>
      </trkpt>
      <trkpt lat="59.167392385526" lon="17.926713439357">
        <ele>22.8</ele>
        <time>2016-04-13T19:41:28Z</time>
      </trkpt>
      <trkpt lat="59.167861855745" lon="17.926356035141">
        <ele>22.8</ele>
        <time>2016-04-13T19:41:33Z</time>
      </trkpt>
      <trkpt lat="59.168119263894" lon="17.926320663523">
        <ele>23.2</ele>
        <time>2016-04-13T19:41:36Z</time>
      </trkpt>
      <trkpt lat="59.168207190025" lon="17.926321250256">
        <ele>24.2</ele>
        <time>2016-04-13T19:41:37Z</time>
      </trkpt>
      <trkpt lat="59.168294277966" lon="17.926325692663">
        <ele>24.8</ele>
        <time>2016-04-13T19:41:38Z</time>
      </trkpt>
      <trkpt lat="59.16838446721" lon="17.926328961604">
        <ele>25.2</ele>
        <time>2016-04-13T19:41:39Z</time>
      </trkpt>
      <trkpt lat="59.168478763585" lon="17.926324854473">
        <ele>25.8</ele>
        <time>2016-04-13T19:41:40Z</time>
      </trkpt>
      <trkpt lat="59.16856551625" lon="17.926328374871">
        <ele>26.2</ele>
        <time>2016-04-13T19:41:41Z</time>
      </trkpt>
      <trkpt lat="59.168657968607" lon="17.926313706546">
        <ele>26.8</ele>
        <time>2016-04-13T19:41:42Z</time>
      </trkpt>
      <trkpt lat="59.168748996041" lon="17.926297697117">
        <ele>27.4</ele>
        <time>2016-04-13T19:41:43Z</time>
      </trkpt>
      <trkpt lat="59.16929977069" lon="17.926258469825">
        <ele>27.4</ele>
        <time>2016-04-13T19:41:49Z</time>
      </trkpt>
      <trkpt lat="59.16981609573" lon="17.926075492948">
        <ele>27.4</ele>
        <time>2016-04-13T19:41:55Z</time>
      </trkpt>
      <trkpt lat="59.170263018638" lon="17.925761171698">
        <ele>27.8</ele>
        <time>2016-04-13T19:42:01Z</time>
      </trkpt>
      <trkpt lat="59.170334851521" lon="17.925692691575">
        <ele>28.8</ele>
        <time>2016-04-13T19:42:02Z</time>
      </trkpt>
      <trkpt lat="59.170408947517" lon="17.925629324411">
        <ele>29.4</ele>
        <time>2016-04-13T19:42:03Z</time>
      </trkpt>
      <trkpt lat="59.17048329497" lon="17.925560760469">
        <ele>30</ele>
        <time>2016-04-13T19:42:04Z</time>
      </trkpt>
      <trkpt lat="59.170771548511" lon="17.925269237987">
        <ele>30</ele>
        <time>2016-04-13T19:42:08Z</time>
      </trkpt>
      <trkpt lat="59.170919740503" lon="17.925160440925">
        <ele>30</ele>
        <time>2016-04-13T19:42:10Z</time>
      </trkpt>
      <trkpt lat="59.17107924806" lon="17.925235542749">
        <ele>30</ele>
        <time>2016-04-13T19:42:12Z</time>
      </trkpt>
      <trkpt lat="59.171160803947" lon="17.925492028889">
        <ele>30</ele>
        <time>2016-04-13T19:42:14Z</time>
      </trkpt>
      <trkpt lat="59.171179244127" lon="17.925626809841">
        <ele>30</ele>
        <time>2016-04-13T19:42:15Z</time>
      </trkpt>
      <trkpt lat="59.171205647112" lon="17.925747425382">
        <ele>30.4</ele>
        <time>2016-04-13T19:42:16Z</time>
      </trkpt>
      <trkpt lat="59.171230876631" lon="17.925888911854">
        <ele>30.8</ele>
        <time>2016-04-13T19:42:17Z</time>
      </trkpt>
      <trkpt lat="59.171245544956" lon="17.926011119956">
        <ele>31.4</ele>
        <time>2016-04-13T19:42:18Z</time>
      </trkpt>
      <trkpt lat="59.171275552158" lon="17.926138692474">
        <ele>31.8</ele>
        <time>2016-04-13T19:42:19Z</time>
      </trkpt>
      <trkpt lat="59.171313019251" lon="17.926234497591">
        <ele>32.2</ele>
        <time>2016-04-13T19:42:20Z</time>
      </trkpt>
      <trkpt lat="59.171366328135" lon="17.926311024338">
        <ele>32.8</ele>
        <time>2016-04-13T19:42:21Z</time>
      </trkpt>
      <trkpt lat="59.171423576512" lon="17.926364333222">
        <ele>33.2</ele>
        <time>2016-04-13T19:42:22Z</time>
      </trkpt>
      <trkpt lat="59.171486273124" lon="17.926418312658">
        <ele>33.6</ele>
        <time>2016-04-13T19:42:23Z</time>
      </trkpt>
      <trkpt lat="59.17154444351" lon="17.926456869398">
        <ele>34.2</ele>
        <time>2016-04-13T19:42:24Z</time>
      </trkpt>
      <trkpt lat="59.171604038819" lon="17.92649609669">
        <ele>34.6</ele>
        <time>2016-04-13T19:42:25Z</time>
      </trkpt>
      <trkpt lat="59.171933698946" lon="17.926709416045">
        <ele>34.6</ele>
        <time>2016-04-13T19:42:30Z</time>
      </trkpt>
      <trkpt lat="59.172340304915" lon="17.926999178328">
        <ele>34.6</ele>
        <time>2016-04-13T19:42:36Z</time>
      </trkpt>
      <trkpt lat="59.172783036873" lon="17.927305033859">
        <ele>34.6</ele>
        <time>2016-04-13T19:42:42Z</time>
      </trkpt>
      <trkpt lat="59.173318388826" lon="17.927689427793">
        <ele>34.6</ele>
        <time>2016-04-13T19:42:49Z</time>
      </trkpt>
      <trkpt lat="59.17384527506" lon="17.928062170886">
        <ele>34.6</ele>
        <time>2016-04-13T19:42:56Z</time>
      </trkpt>
      <trkpt lat="59.173915766839" lon="17.928114809218">
        <ele>34.6</ele>
        <time>2016-04-13T19:42:57Z</time>
      </trkpt>
      <trkpt lat="59.174384901782" lon="17.928448744114">
        <ele>35</ele>
        <time>2016-04-13T19:43:04Z</time>
      </trkpt>
      <trkpt lat="59.174447346937" lon="17.928498197324">
        <ele>35.4</ele>
        <time>2016-04-13T19:43:05Z</time>
      </trkpt>
      <trkpt lat="59.174508115712" lon="17.928549494552">
        <ele>35.8</ele>
        <time>2016-04-13T19:43:06Z</time>
      </trkpt>
      <trkpt lat="59.174568213935" lon="17.928587632197">
        <ele>36.2</ele>
        <time>2016-04-13T19:43:07Z</time>
      </trkpt>
      <trkpt lat="59.174629737081" lon="17.928629876973">
        <ele>36.6</ele>
        <time>2016-04-13T19:43:08Z</time>
      </trkpt>
      <trkpt lat="59.17469017058" lon="17.928670529188">
        <ele>37.2</ele>
        <time>2016-04-13T19:43:09Z</time>
      </trkpt>
      <trkpt lat="59.174752029002" lon="17.92871227105">
        <ele>37.6</ele>
        <time>2016-04-13T19:43:10Z</time>
      </trkpt>
      <trkpt lat="59.174813468329" lon="17.928756611301">
        <ele>38</ele>
        <time>2016-04-13T19:43:11Z</time>
      </trkpt>
      <trkpt lat="59.174869459421" lon="17.928799023715">
        <ele>38.4</ele>
        <time>2016-04-13T19:43:12Z</time>
      </trkpt>
      <trkpt lat="59.17492654016" lon="17.928838502464">
        <ele>38.8</ele>
        <time>2016-04-13T19:43:13Z</time>
      </trkpt>
      <trkpt lat="59.175038187068" lon="17.928899857972">
        <ele>39.2</ele>
        <time>2016-04-13T19:43:15Z</time>
      </trkpt>
      <trkpt lat="59.175094345798" lon="17.92893774416">
        <ele>40.2</ele>
        <time>2016-04-13T19:43:16Z</time>
      </trkpt>
      <trkpt lat="59.175151929451" lon="17.928975127434">
        <ele>40.6</ele>
        <time>2016-04-13T19:43:17Z</time>
      </trkpt>
      <trkpt lat="59.175208507276" lon="17.928999099668">
        <ele>41</ele>
        <time>2016-04-13T19:43:18Z</time>
      </trkpt>
      <trkpt lat="59.17562642881" lon="17.929179729613">
        <ele>41</ele>
        <time>2016-04-13T19:43:25Z</time>
      </trkpt>
      <trkpt lat="59.175689376879" lon="17.929203198933">
        <ele>41.6</ele>
        <time>2016-04-13T19:43:26Z</time>
      </trkpt>
      <trkpt lat="59.175753917509" lon="17.929213257213">
        <ele>42</ele>
        <time>2016-04-13T19:43:27Z</time>
      </trkpt>
      <trkpt lat="59.175818206682" lon="17.92922440514">
        <ele>42.4</ele>
        <time>2016-04-13T19:43:28Z</time>
      </trkpt>
      <trkpt lat="59.175879310733" lon="17.929234295782">
        <ele>42.8</ele>
        <time>2016-04-13T19:43:29Z</time>
      </trkpt>
      <trkpt lat="59.175943180811" lon="17.929243767329">
        <ele>43.2</ele>
        <time>2016-04-13T19:43:30Z</time>
      </trkpt>
      <trkpt lat="59.176070082777" lon="17.929263380975">
        <ele>43.2</ele>
        <time>2016-04-13T19:43:32Z</time>
      </trkpt>
      <trkpt lat="59.176438970196" lon="17.929254328523">
        <ele>43.2</ele>
        <time>2016-04-13T19:43:38Z</time>
      </trkpt>
      <trkpt lat="59.176626221842" lon="17.929222561122">
        <ele>43.6</ele>
        <time>2016-04-13T19:43:41Z</time>
      </trkpt>
      <trkpt lat="59.176685146599" lon="17.929206300236">
        <ele>44</ele>
        <time>2016-04-13T19:43:42Z</time>
      </trkpt>
      <trkpt lat="59.176748178487" lon="17.929182663278">
        <ele>44.4</ele>
        <time>2016-04-13T19:43:43Z</time>
      </trkpt>
      <trkpt lat="59.176807606158" lon="17.929193727386">
        <ele>44.8</ele>
        <time>2016-04-13T19:43:44Z</time>
      </trkpt>
      <trkpt lat="59.176863681069" lon="17.929183836744">
        <ele>45.2</ele>
        <time>2016-04-13T19:43:45Z</time>
      </trkpt>
      <trkpt lat="59.177100134468" lon="17.929113596422">
        <ele>45.8</ele>
        <time>2016-04-13T19:43:49Z</time>
      </trkpt>
      <trkpt lat="59.177153694809" lon="17.929101526486">
        <ele>46.2</ele>
        <time>2016-04-13T19:43:50Z</time>
      </trkpt>
      <trkpt lat="59.177209350625" lon="17.92906347266">
        <ele>46.6</ele>
        <time>2016-04-13T19:43:51Z</time>
      </trkpt>
      <trkpt lat="59.177264168251" lon="17.92903245963">
        <ele>47</ele>
        <time>2016-04-13T19:43:52Z</time>
      </trkpt>
      <trkpt lat="59.177312615633" lon="17.928997339469">
        <ele>47.4</ele>
        <time>2016-04-13T19:43:53Z</time>
      </trkpt>
      <trkpt lat="59.177421077419" lon="17.928935816323">
        <ele>47.8</ele>
        <time>2016-04-13T19:43:55Z</time>
      </trkpt>
      <trkpt lat="59.177478241977" lon="17.928907736958">
        <ele>48.4</ele>
        <time>2016-04-13T19:43:56Z</time>
      </trkpt>
      <trkpt lat="59.177530125938" lon="17.928867420019">
        <ele>48.8</ele>
        <time>2016-04-13T19:43:57Z</time>
      </trkpt>
      <trkpt lat="59.177580752614" lon="17.928833054229">
        <ele>49.2</ele>
        <time>2016-04-13T19:43:58Z</time>
      </trkpt>
      <trkpt lat="59.177642611036" lon="17.9287835172">
        <ele>49.8</ele>
        <time>2016-04-13T19:43:59Z</time>
      </trkpt>
      <trkpt lat="59.177756856333" lon="17.928687544445">
        <ele>49.8</ele>
        <time>2016-04-13T19:44:01Z</time>
      </trkpt>
      <trkpt lat="59.178010073532" lon="17.928550919475">
        <ele>49.8</ele>
        <time>2016-04-13T19:44:05Z</time>
      </trkpt>
      <trkpt lat="59.178415003121" lon="17.92836609858">
        <ele>49.8</ele>
        <time>2016-04-13T19:44:11Z</time>
      </trkpt>
      <trkpt lat="59.178561099638" lon="17.928331816609">
        <ele>49.8</ele>
        <time>2016-04-13T19:44:13Z</time>
      </trkpt>
      <trkpt lat="59.178771569147" lon="17.928287057263">
        <ele>49.8</ele>
        <time>2016-04-13T19:44:16Z</time>
      </trkpt>
      <trkpt lat="59.179188065758" lon="17.928270377282">
        <ele>49.8</ele>
        <time>2016-04-13T19:44:21Z</time>
      </trkpt>
      <trkpt lat="59.179454945454" lon="17.928302563778">
        <ele>49.2</ele>
        <time>2016-04-13T19:44:24Z</time>
      </trkpt>
      <trkpt lat="59.179543123042" lon="17.928321255415">
        <ele>48.8</ele>
        <time>2016-04-13T19:44:25Z</time>
      </trkpt>
      <trkpt lat="59.179634988666" lon="17.928344557097">
        <ele>48.4</ele>
        <time>2016-04-13T19:44:26Z</time>
      </trkpt>
      <trkpt lat="59.179735487647" lon="17.928367188227">
        <ele>47.8</ele>
        <time>2016-04-13T19:44:27Z</time>
      </trkpt>
      <trkpt lat="59.179833891153" lon="17.928397279248">
        <ele>47.4</ele>
        <time>2016-04-13T19:44:28Z</time>
      </trkpt>
      <trkpt lat="59.179930366822" lon="17.928430136296">
        <ele>47</ele>
        <time>2016-04-13T19:44:29Z</time>
      </trkpt>
      <trkpt lat="59.180032206907" lon="17.928456036367">
        <ele>46.6</ele>
        <time>2016-04-13T19:44:30Z</time>
      </trkpt>
      <trkpt lat="59.180133795535" lon="17.928488055225">
        <ele>45.8</ele>
        <time>2016-04-13T19:44:31Z</time>
      </trkpt>
      <trkpt lat="59.180236976724" lon="17.928516218409">
        <ele>45.2</ele>
        <time>2016-04-13T19:44:32Z</time>
      </trkpt>
      <trkpt lat="59.180337978619" lon="17.928544130136">
        <ele>44.6</ele>
        <time>2016-04-13T19:44:33Z</time>
      </trkpt>
      <trkpt lat="59.180440824532" lon="17.928575478442">
        <ele>43.8</ele>
        <time>2016-04-13T19:44:34Z</time>
      </trkpt>
      <trkpt lat="59.180542832255" lon="17.928609257499">
        <ele>43.2</ele>
        <time>2016-04-13T19:44:35Z</time>
      </trkpt>
      <trkpt lat="59.180648528014" lon="17.928639767615">
        <ele>42.6</ele>
        <time>2016-04-13T19:44:36Z</time>
      </trkpt>
      <trkpt lat="59.180742572932" lon="17.928674803957">
        <ele>42.2</ele>
        <time>2016-04-13T19:44:37Z</time>
      </trkpt>
      <trkpt lat="59.180839886791" lon="17.928698776191">
        <ele>41.6</ele>
        <time>2016-04-13T19:44:38Z</time>
      </trkpt>
      <trkpt lat="59.180938122659" lon="17.928728448117">
        <ele>41.2</ele>
        <time>2016-04-13T19:44:39Z</time>
      </trkpt>
      <trkpt lat="59.18103778345" lon="17.928763903554">
        <ele>40.8</ele>
        <time>2016-04-13T19:44:40Z</time>
      </trkpt>
      <trkpt lat="59.181138701526" lon="17.92879106091">
        <ele>40.2</ele>
        <time>2016-04-13T19:44:41Z</time>
      </trkpt>
      <trkpt lat="59.181734486978" lon="17.92887739448">
        <ele>40.2</ele>
        <time>2016-04-13T19:44:47Z</time>
      </trkpt>
      <trkpt lat="59.182241675747" lon="17.928766669581">
        <ele>40.2</ele>
        <time>2016-04-13T19:44:52Z</time>
      </trkpt>
      <trkpt lat="59.182733944734" lon="17.928517308056">
        <ele>40.2</ele>
        <time>2016-04-13T19:44:57Z</time>
      </trkpt>
      <trkpt lat="59.18331514568" lon="17.92819594601">
        <ele>40.2</ele>
        <time>2016-04-13T19:45:03Z</time>
      </trkpt>
      <trkpt lat="59.183886372165" lon="17.927907524831">
        <ele>40.2</ele>
        <time>2016-04-13T19:45:09Z</time>
      </trkpt>
      <trkpt lat="59.183981087635" lon="17.92787324286">
        <ele>40.2</ele>
        <time>2016-04-13T19:45:10Z</time>
      </trkpt>
      <trkpt lat="59.184546782066" lon="17.927692948191">
        <ele>40.2</ele>
        <time>2016-04-13T19:45:16Z</time>
      </trkpt>
      <trkpt lat="59.184639821156" lon="17.927682051721">
        <ele>40.2</ele>
        <time>2016-04-13T19:45:17Z</time>
      </trkpt>
      <trkpt lat="59.185129743211" lon="17.927742904315">
        <ele>40.2</ele>
        <time>2016-04-13T19:45:22Z</time>
      </trkpt>
      <trkpt lat="59.185606002769" lon="17.927921522604">
        <ele>40.2</ele>
        <time>2016-04-13T19:45:27Z</time>
      </trkpt>
      <trkpt lat="59.186151161545" lon="17.928162502229">
        <ele>40.2</ele>
        <time>2016-04-13T19:45:33Z</time>
      </trkpt>
      <trkpt lat="59.186333048775" lon="17.928250260722">
        <ele>40.2</ele>
        <time>2016-04-13T19:45:35Z</time>
      </trkpt>
      <trkpt lat="59.186869322737" lon="17.928474728004">
        <ele>40.2</ele>
        <time>2016-04-13T19:45:41Z</time>
      </trkpt>
      <trkpt lat="59.187132179121" lon="17.928586961645">
        <ele>40.2</ele>
        <time>2016-04-13T19:45:44Z</time>
      </trkpt>
      <trkpt lat="59.18746837713" lon="17.928729202488">
        <ele>40.2</ele>
        <time>2016-04-13T19:45:48Z</time>
      </trkpt>
      <trkpt lat="59.187648755618" lon="17.92877597349">
        <ele>40.2</ele>
        <time>2016-04-13T19:45:50Z</time>
      </trkpt>
      <trkpt lat="59.188154100369" lon="17.928940929282">
        <ele>40.2</ele>
        <time>2016-04-13T19:45:56Z</time>
      </trkpt>
      <trkpt lat="59.188666569735" lon="17.929108399644">
        <ele>40.2</ele>
        <time>2016-04-13T19:46:02Z</time>
      </trkpt>
      <trkpt lat="59.189273754571" lon="17.929221974389">
        <ele>40.2</ele>
        <time>2016-04-13T19:46:09Z</time>
      </trkpt>
      <trkpt lat="59.189358914675" lon="17.92922524333">
        <ele>40.2</ele>
        <time>2016-04-13T19:46:10Z</time>
      </trkpt>
      <trkpt lat="59.189615736091" lon="17.929287185571">
        <ele>40.2</ele>
        <time>2016-04-13T19:46:13Z</time>
      </trkpt>
      <trkpt lat="59.189691340829" lon="17.929370417838">
        <ele>40.2</ele>
        <time>2016-04-13T19:46:14Z</time>
      </trkpt>
      <trkpt lat="59.189842298848" lon="17.929768893364">
        <ele>40.2</ele>
        <time>2016-04-13T19:46:17Z</time>
      </trkpt>
      <trkpt lat="59.189869288566" lon="17.929927981826">
        <ele>40.2</ele>
        <time>2016-04-13T19:46:18Z</time>
      </trkpt>
      <trkpt lat="59.189977415076" lon="17.930378425132">
        <ele>40.2</ele>
        <time>2016-04-13T19:46:21Z</time>
      </trkpt>
      <trkpt lat="59.19014974694" lon="17.930971109281">
        <ele>40.2</ele>
        <time>2016-04-13T19:46:25Z</time>
      </trkpt>
      <trkpt lat="59.190279917847" lon="17.931199516056">
        <ele>40.2</ele>
        <time>2016-04-13T19:46:27Z</time>
      </trkpt>
      <trkpt lat="59.190455853928" lon="17.931232876018">
        <ele>40.2</ele>
        <time>2016-04-13T19:46:29Z</time>
      </trkpt>
      <trkpt lat="59.190618965702" lon="17.931124246594">
        <ele>39.8</ele>
        <time>2016-04-13T19:46:31Z</time>
      </trkpt>
      <trkpt lat="59.190694905716" lon="17.931040343775">
        <ele>39.4</ele>
        <time>2016-04-13T19:46:32Z</time>
      </trkpt>
      <trkpt lat="59.190769672264" lon="17.930957949698">
        <ele>38.4</ele>
        <time>2016-04-13T19:46:33Z</time>
      </trkpt>
      <trkpt lat="59.190848881219" lon="17.930862731314">
        <ele>38</ele>
        <time>2016-04-13T19:46:34Z</time>
      </trkpt>
      <trkpt lat="59.191229251841" lon="17.930374988553">
        <ele>38</ele>
        <time>2016-04-13T19:46:39Z</time>
      </trkpt>
      <trkpt lat="59.191712384557" lon="17.929809545579">
        <ele>38</ele>
        <time>2016-04-13T19:46:45Z</time>
      </trkpt>
      <trkpt lat="59.191793772806" lon="17.929728827882">
        <ele>38</ele>
        <time>2016-04-13T19:46:46Z</time>
      </trkpt>
      <trkpt lat="59.192298698462" lon="17.929305961027">
        <ele>38</ele>
        <time>2016-04-13T19:46:52Z</time>
      </trkpt>
      <trkpt lat="59.192383439471" lon="17.929249047926">
        <ele>38</ele>
        <time>2016-04-13T19:46:53Z</time>
      </trkpt>
      <trkpt lat="59.19279842734" lon="17.929006224283">
        <ele>38</ele>
        <time>2016-04-13T19:46:58Z</time>
      </trkpt>
      <trkpt lat="59.193292288888" lon="17.928859289576">
        <ele>38</ele>
        <time>2016-04-13T19:47:04Z</time>
      </trkpt>
      <trkpt lat="59.193703840178" lon="17.928849231296">
        <ele>38</ele>
        <time>2016-04-13T19:47:09Z</time>
      </trkpt>
      <trkpt lat="59.194164928497" lon="17.928902456361">
        <ele>38.4</ele>
        <time>2016-04-13T19:47:15Z</time>
      </trkpt>
      <trkpt lat="59.194238773036" lon="17.928920309808">
        <ele>38.8</ele>
        <time>2016-04-13T19:47:16Z</time>
      </trkpt>
      <trkpt lat="59.194310438281" lon="17.928937073608">
        <ele>39.2</ele>
        <time>2016-04-13T19:47:17Z</time>
      </trkpt>
      <trkpt lat="59.194382690259" lon="17.928957776901">
        <ele>39.6</ele>
        <time>2016-04-13T19:47:18Z</time>
      </trkpt>
      <trkpt lat="59.194454523142" lon="17.928979486022">
        <ele>40</ele>
        <time>2016-04-13T19:47:19Z</time>
      </trkpt>
      <trkpt lat="59.194522751808" lon="17.928992561786">
        <ele>40</ele>
        <time>2016-04-13T19:47:20Z</time>
      </trkpt>
      <trkpt lat="59.194657868036" lon="17.92900312298">
        <ele>40.4</ele>
        <time>2016-04-13T19:47:22Z</time>
      </trkpt>
      <trkpt lat="59.194724336503" lon="17.929022652807">
        <ele>41</ele>
        <time>2016-04-13T19:47:23Z</time>
      </trkpt>
      <trkpt lat="59.194789882961" lon="17.929040254797">
        <ele>41.4</ele>
        <time>2016-04-13T19:47:24Z</time>
      </trkpt>
      <trkpt lat="59.194856267609" lon="17.929051486543">
        <ele>41.8</ele>
        <time>2016-04-13T19:47:25Z</time>
      </trkpt>
      <trkpt lat="59.194922987533" lon="17.929065651954">
        <ele>42.2</ele>
        <time>2016-04-13T19:47:26Z</time>
      </trkpt>
      <trkpt lat="59.195117279975" lon="17.929102616133">
        <ele>42.6</ele>
        <time>2016-04-13T19:47:29Z</time>
      </trkpt>
      <trkpt lat="59.195180814777" lon="17.929113512603">
        <ele>43.2</ele>
        <time>2016-04-13T19:47:30Z</time>
      </trkpt>
      <trkpt lat="59.195244601036" lon="17.929126420729">
        <ele>43.6</ele>
        <time>2016-04-13T19:47:31Z</time>
      </trkpt>
      <trkpt lat="59.195307297648" lon="17.92914058614">
        <ele>44</ele>
        <time>2016-04-13T19:47:32Z</time>
      </trkpt>
      <trkpt lat="59.195370413355" lon="17.929156092655">
        <ele>44.4</ele>
        <time>2016-04-13T19:47:33Z</time>
      </trkpt>
      <trkpt lat="59.19549572276" lon="17.929191296635">
        <ele>45</ele>
        <time>2016-04-13T19:47:35Z</time>
      </trkpt>
      <trkpt lat="59.195556491535" lon="17.929203785666">
        <ele>45.4</ele>
        <time>2016-04-13T19:47:36Z</time>
      </trkpt>
      <trkpt lat="59.195616505939" lon="17.929218453991">
        <ele>45.8</ele>
        <time>2016-04-13T19:47:37Z</time>
      </trkpt>
      <trkpt lat="59.195676436524" lon="17.92923362523">
        <ele>46.2</ele>
        <time>2016-04-13T19:47:38Z</time>
      </trkpt>
      <trkpt lat="59.195737540575" lon="17.929245443709">
        <ele>46.6</ele>
        <time>2016-04-13T19:47:39Z</time>
      </trkpt>
      <trkpt lat="59.196056890965" lon="17.929295986566">
        <ele>46.6</ele>
        <time>2016-04-13T19:47:44Z</time>
      </trkpt>
      <trkpt lat="59.196261409325" lon="17.929320126438">
        <ele>47.4</ele>
        <time>2016-04-13T19:47:47Z</time>
      </trkpt>
      <trkpt lat="59.196328380706" lon="17.929325323216">
        <ele>47.8</ele>
        <time>2016-04-13T19:47:48Z</time>
      </trkpt>
      <trkpt lat="59.196400381227" lon="17.929324820302">
        <ele>48.2</ele>
        <time>2016-04-13T19:47:49Z</time>
      </trkpt>
      <trkpt lat="59.196473136119" lon="17.929322892465">
        <ele>48.8</ele>
        <time>2016-04-13T19:47:50Z</time>
      </trkpt>
      <trkpt lat="59.196549076133" lon="17.929321970456">
        <ele>48.8</ele>
        <time>2016-04-13T19:47:51Z</time>
      </trkpt>
      <trkpt lat="59.197004716217" lon="17.929298752593">
        <ele>48.8</ele>
        <time>2016-04-13T19:47:57Z</time>
      </trkpt>
      <trkpt lat="59.19748139487" lon="17.929215436507">
        <ele>48.8</ele>
        <time>2016-04-13T19:48:03Z</time>
      </trkpt>
      <trkpt lat="59.198034348813" lon="17.929059616986">
        <ele>48.8</ele>
        <time>2016-04-13T19:48:10Z</time>
      </trkpt>
      <trkpt lat="59.198194443103" lon="17.929013097441">
        <ele>48.8</ele>
        <time>2016-04-13T19:48:12Z</time>
      </trkpt>
      <trkpt lat="59.198756030403" lon="17.928758203862">
        <ele>48.8</ele>
        <time>2016-04-13T19:48:19Z</time>
      </trkpt>
      <trkpt lat="59.198837418652" lon="17.928708750652">
        <ele>48.8</ele>
        <time>2016-04-13T19:48:20Z</time>
      </trkpt>
      <trkpt lat="59.199370172216" lon="17.928293846602">
        <ele>48.8</ele>
        <time>2016-04-13T19:48:27Z</time>
      </trkpt>
      <trkpt lat="59.199443346203" lon="17.928218493321">
        <ele>48.8</ele>
        <time>2016-04-13T19:48:28Z</time>
      </trkpt>
      <trkpt lat="59.199933687353" lon="17.927662270437">
        <ele>48.8</ele>
        <time>2016-04-13T19:48:35Z</time>
      </trkpt>
      <trkpt lat="59.200001916019" lon="17.9275681417">
        <ele>48.8</ele>
        <time>2016-04-13T19:48:36Z</time>
      </trkpt>
      <trkpt lat="59.200480271052" lon="17.926913766767">
        <ele>48.8</ele>
        <time>2016-04-13T19:48:43Z</time>
      </trkpt>
      <trkpt lat="59.200916465128" lon="17.92634606068">
        <ele>48.8</ele>
        <time>2016-04-13T19:48:49Z</time>
      </trkpt>
      <trkpt lat="59.201161635703" lon="17.926077923699">
        <ele>48.2</ele>
        <time>2016-04-13T19:48:52Z</time>
      </trkpt>
      <trkpt lat="59.201241347572" lon="17.9259923445">
        <ele>47.8</ele>
        <time>2016-04-13T19:48:53Z</time>
      </trkpt>
      <trkpt lat="59.201321394717" lon="17.925907771129">
        <ele>47.4</ele>
        <time>2016-04-13T19:48:54Z</time>
      </trkpt>
      <trkpt lat="59.201402950604" lon="17.925830992925">
        <ele>47</ele>
        <time>2016-04-13T19:48:55Z</time>
      </trkpt>
      <trkpt lat="59.201486518147" lon="17.925759830594">
        <ele>46.6</ele>
        <time>2016-04-13T19:48:56Z</time>
      </trkpt>
      <trkpt lat="59.201659269106" lon="17.925625049642">
        <ele>46.6</ele>
        <time>2016-04-13T19:48:58Z</time>
      </trkpt>
      <trkpt lat="59.202185400969" lon="17.925298071723">
        <ele>46.2</ele>
        <time>2016-04-13T19:49:04Z</time>
      </trkpt>
      <trkpt lat="59.202279362068" lon="17.925251971273">
        <ele>45.6</ele>
        <time>2016-04-13T19:49:05Z</time>
      </trkpt>
      <trkpt lat="59.202370138045" lon="17.925210732325">
        <ele>45.2</ele>
        <time>2016-04-13T19:49:06Z</time>
      </trkpt>
      <trkpt lat="59.202461165479" lon="17.925176366535">
        <ele>44.8</ele>
        <time>2016-04-13T19:49:07Z</time>
      </trkpt>
      <trkpt lat="59.202553114922" lon="17.925146275514">
        <ele>44.2</ele>
        <time>2016-04-13T19:49:08Z</time>
      </trkpt>
      <trkpt lat="59.202825945767" lon="17.925065641636">
        <ele>43.8</ele>
        <time>2016-04-13T19:49:11Z</time>
      </trkpt>
      <trkpt lat="59.202918984857" lon="17.925042339954">
        <ele>43.4</ele>
        <time>2016-04-13T19:49:12Z</time>
      </trkpt>
      <trkpt lat="59.203009090282" lon="17.925023815955">
        <ele>43</ele>
        <time>2016-04-13T19:49:13Z</time>
      </trkpt>
      <trkpt lat="59.203098776612" lon="17.925005711051">
        <ele>42.6</ele>
        <time>2016-04-13T19:49:14Z</time>
      </trkpt>
      <trkpt lat="59.203188965856" lon="17.924982409369">
        <ele>42.2</ele>
        <time>2016-04-13T19:49:15Z</time>
      </trkpt>
      <trkpt lat="59.203557098904" lon="17.924889537917">
        <ele>41.8</ele>
        <time>2016-04-13T19:49:19Z</time>
      </trkpt>
      <trkpt lat="59.203655250953" lon="17.924864559855">
        <ele>41.4</ele>
        <time>2016-04-13T19:49:20Z</time>
      </trkpt>
      <trkpt lat="59.203749463509" lon="17.924842515458">
        <ele>41</ele>
        <time>2016-04-13T19:49:21Z</time>
      </trkpt>
      <trkpt lat="59.203844346617" lon="17.924817705034">
        <ele>40.6</ele>
        <time>2016-04-13T19:49:22Z</time>
      </trkpt>
      <trkpt lat="59.203941660476" lon="17.92479289461">
        <ele>40.2</ele>
        <time>2016-04-13T19:49:23Z</time>
      </trkpt>
      <trkpt lat="59.204141401153" lon="17.924744195771">
        <ele>40.2</ele>
        <time>2016-04-13T19:49:25Z</time>
      </trkpt>
      <trkpt lat="59.204244079428" lon="17.924716451682">
        <ele>39.2</ele>
        <time>2016-04-13T19:49:26Z</time>
      </trkpt>
      <trkpt lat="59.204350445739" lon="17.924682672625">
        <ele>38.8</ele>
        <time>2016-04-13T19:49:27Z</time>
      </trkpt>
      <trkpt lat="59.204455638584" lon="17.924656688735">
        <ele>38.4</ele>
        <time>2016-04-13T19:49:28Z</time>
      </trkpt>
      <trkpt lat="59.204563345999" lon="17.924632213587">
        <ele>37.6</ele>
        <time>2016-04-13T19:49:29Z</time>
      </trkpt>
      <trkpt lat="59.204672562156" lon="17.924606397335">
        <ele>37</ele>
        <time>2016-04-13T19:49:30Z</time>
      </trkpt>
      <trkpt lat="59.204784460521" lon="17.924583766205">
        <ele>36.4</ele>
        <time>2016-04-13T19:49:31Z</time>
      </trkpt>
      <trkpt lat="59.204896275067" lon="17.924561973265">
        <ele>35.8</ele>
        <time>2016-04-13T19:49:32Z</time>
      </trkpt>
      <trkpt lat="59.205007083785" lon="17.924534061538">
        <ele>35.2</ele>
        <time>2016-04-13T19:49:33Z</time>
      </trkpt>
      <trkpt lat="59.205117641046" lon="17.924503467603">
        <ele>34.6</ele>
        <time>2016-04-13T19:49:34Z</time>
      </trkpt>
      <trkpt lat="59.205235825836" lon="17.924477399894">
        <ele>34</ele>
        <time>2016-04-13T19:49:35Z</time>
      </trkpt>
      <trkpt lat="59.205347472744" lon="17.924447308873">
        <ele>33.2</ele>
        <time>2016-04-13T19:49:36Z</time>
      </trkpt>
      <trkpt lat="59.205458784376" lon="17.924412272531">
        <ele>32.6</ele>
        <time>2016-04-13T19:49:37Z</time>
      </trkpt>
      <trkpt lat="59.205568503447" lon="17.924372626144">
        <ele>32</ele>
        <time>2016-04-13T19:49:38Z</time>
      </trkpt>
      <trkpt lat="59.205677300509" lon="17.924328118255">
        <ele>31.4</ele>
        <time>2016-04-13T19:49:39Z</time>
      </trkpt>
      <trkpt lat="59.205784085915" lon="17.924279167959">
        <ele>30.8</ele>
        <time>2016-04-13T19:49:40Z</time>
      </trkpt>
      <trkpt lat="59.205888608208" lon="17.924230217663">
        <ele>30.2</ele>
        <time>2016-04-13T19:49:41Z</time>
      </trkpt>
      <trkpt lat="59.206096227871" lon="17.924123516076">
        <ele>30.2</ele>
        <time>2016-04-13T19:49:43Z</time>
      </trkpt>
      <trkpt lat="59.20666460451" lon="17.923753371372">
        <ele>30.2</ele>
        <time>2016-04-13T19:49:49Z</time>
      </trkpt>
      <trkpt lat="59.207069366461" lon="17.92328834356">
        <ele>30.2</ele>
        <time>2016-04-13T19:49:54Z</time>
      </trkpt>
      <trkpt lat="59.207206661983" lon="17.923079969526">
        <ele>30.6</ele>
        <time>2016-04-13T19:49:56Z</time>
      </trkpt>
      <trkpt lat="59.207273046631" lon="17.922973687034">
        <ele>31.2</ele>
        <time>2016-04-13T19:49:57Z</time>
      </trkpt>
      <trkpt lat="59.207341359116" lon="17.922852987674">
        <ele>31.6</ele>
        <time>2016-04-13T19:49:58Z</time>
      </trkpt>
      <trkpt lat="59.207403301357" lon="17.922735389617">
        <ele>32</ele>
        <time>2016-04-13T19:49:59Z</time>
      </trkpt>
      <trkpt lat="59.207465662693" lon="17.922615863723">
        <ele>32.6</ele>
        <time>2016-04-13T19:50:00Z</time>
      </trkpt>
      <trkpt lat="59.20752794021" lon="17.922497427476">
        <ele>33</ele>
        <time>2016-04-13T19:50:01Z</time>
      </trkpt>
      <trkpt lat="59.20758912808" lon="17.922376895754">
        <ele>33.6</ele>
        <time>2016-04-13T19:50:02Z</time>
      </trkpt>
      <trkpt lat="59.207650818864" lon="17.922256699308">
        <ele>34</ele>
        <time>2016-04-13T19:50:03Z</time>
      </trkpt>
      <trkpt lat="59.207712677286" lon="17.922136838138">
        <ele>34.6</ele>
        <time>2016-04-13T19:50:04Z</time>
      </trkpt>
      <trkpt lat="59.20783723232" lon="17.921891499925">
        <ele>35</ele>
        <time>2016-04-13T19:50:06Z</time>
      </trkpt>
      <trkpt lat="59.207897917276" lon="17.92176535233">
        <ele>35.4</ele>
        <time>2016-04-13T19:50:07Z</time>
      </trkpt>
      <trkpt lat="59.207956422938" lon="17.92163794745">
        <ele>35.8</ele>
        <time>2016-04-13T19:50:08Z</time>
      </trkpt>
      <trkpt lat="59.208013000763" lon="17.921510626389">
        <ele>36.2</ele>
        <time>2016-04-13T19:50:09Z</time>
      </trkpt>
      <trkpt lat="59.208070416778" lon="17.921383305328">
        <ele>36.8</ele>
        <time>2016-04-13T19:50:10Z</time>
      </trkpt>
      <trkpt lat="59.208333608438" lon="17.920748124946">
        <ele>37.2</ele>
        <time>2016-04-13T19:50:15Z</time>
      </trkpt>
      <trkpt lat="59.208384654209" lon="17.920618205496">
        <ele>37.6</ele>
        <time>2016-04-13T19:50:16Z</time>
      </trkpt>
      <trkpt lat="59.208433939781" lon="17.920488537503">
        <ele>38</ele>
        <time>2016-04-13T19:50:17Z</time>
      </trkpt>
      <trkpt lat="59.208483057715" lon="17.920359456243">
        <ele>38.4</ele>
        <time>2016-04-13T19:50:18Z</time>
      </trkpt>
      <trkpt lat="59.208531840373" lon="17.920228363327">
        <ele>38.8</ele>
        <time>2016-04-13T19:50:19Z</time>
      </trkpt>
      <trkpt lat="59.208738538027" lon="17.919702147645">
        <ele>38.8</ele>
        <time>2016-04-13T19:50:23Z</time>
      </trkpt>
      <trkpt lat="59.209084626678" lon="17.918885834404">
        <ele>38.8</ele>
        <time>2016-04-13T19:50:30Z</time>
      </trkpt>
      <trkpt lat="59.209284367355" lon="17.918538907563">
        <ele>38.8</ele>
        <time>2016-04-13T19:50:34Z</time>
      </trkpt>
      <trkpt lat="59.209319487516" lon="17.918491968923">
        <ele>38.8</ele>
        <time>2016-04-13T19:50:35Z</time>
      </trkpt>
      <trkpt lat="59.209340023171" lon="17.918464811567">
        <ele>38.8</ele>
        <time>2016-04-13T19:50:36Z</time>
      </trkpt>
      <trkpt lat="59.209525514618" lon="17.918298766128">
        <ele>38.8</ele>
        <time>2016-04-13T19:50:52Z</time>
      </trkpt>
      <trkpt lat="59.209572369439" lon="17.91826674727">
        <ele>38.8</ele>
        <time>2016-04-13T19:50:53Z</time>
      </trkpt>
      <trkpt lat="59.209796501445" lon="17.91805887615">
        <ele>38.8</ele>
        <time>2016-04-13T19:50:57Z</time>
      </trkpt>
      <trkpt lat="59.209860539161" lon="17.917989725475">
        <ele>38.8</ele>
        <time>2016-04-13T19:50:58Z</time>
      </trkpt>
      <trkpt lat="59.210073271783" lon="17.917793002282">
        <ele>38.8</ele>
        <time>2016-04-13T19:51:01Z</time>
      </trkpt>
      <trkpt lat="59.210528408953" lon="17.917427216166">
        <ele>38.8</ele>
        <time>2016-04-13T19:51:07Z</time>
      </trkpt>
      <trkpt lat="59.210894278888" lon="17.917153295674">
        <ele>38.8</ele>
        <time>2016-04-13T19:51:12Z</time>
      </trkpt>
      <trkpt lat="59.211435162895" lon="17.916763704962">
        <ele>38.8</ele>
        <time>2016-04-13T19:51:19Z</time>
      </trkpt>
      <trkpt lat="59.211744287367" lon="17.916538231852">
        <ele>38.8</ele>
        <time>2016-04-13T19:51:23Z</time>
      </trkpt>
      <trkpt lat="59.211903375829" lon="17.916445108943">
        <ele>38.8</ele>
        <time>2016-04-13T19:51:25Z</time>
      </trkpt>
      <trkpt lat="59.212277208569" lon="17.916299431521">
        <ele>38.8</ele>
        <time>2016-04-13T19:51:30Z</time>
      </trkpt>
      <trkpt lat="59.212364799424" lon="17.916294234743">
        <ele>38.4</ele>
        <time>2016-04-13T19:51:31Z</time>
      </trkpt>
      <trkpt lat="59.21244811551" lon="17.916236315814">
        <ele>37.8</ele>
        <time>2016-04-13T19:51:32Z</time>
      </trkpt>
      <trkpt lat="59.212533107976" lon="17.91618049236">
        <ele>37.4</ele>
        <time>2016-04-13T19:51:33Z</time>
      </trkpt>
      <trkpt lat="59.212621285564" lon="17.916148724959">
        <ele>37</ele>
        <time>2016-04-13T19:51:34Z</time>
      </trkpt>
      <trkpt lat="59.21271885088" lon="17.916135900652">
        <ele>36.6</ele>
        <time>2016-04-13T19:51:35Z</time>
      </trkpt>
      <trkpt lat="59.212810465047" lon="17.91611343716">
        <ele>36.6</ele>
        <time>2016-04-13T19:51:36Z</time>
      </trkpt>
      <trkpt lat="59.212992771372" lon="17.916054177127">
        <ele>36.2</ele>
        <time>2016-04-13T19:51:38Z</time>
      </trkpt>
      <trkpt lat="59.213086313376" lon="17.916013860188">
        <ele>35.8</ele>
        <time>2016-04-13T19:51:39Z</time>
      </trkpt>
      <trkpt lat="59.213180609751" lon="17.915959545476">
        <ele>35.4</ele>
        <time>2016-04-13T19:51:40Z</time>
      </trkpt>
      <trkpt lat="59.213275660497" lon="17.915899028158">
        <ele>34.6</ele>
        <time>2016-04-13T19:51:41Z</time>
      </trkpt>
      <trkpt lat="59.21337180089" lon="17.915826524723">
        <ele>34</ele>
        <time>2016-04-13T19:51:42Z</time>
      </trkpt>
      <trkpt lat="59.213466013446" lon="17.915754524202">
        <ele>33.6</ele>
        <time>2016-04-13T19:51:43Z</time>
      </trkpt>
      <trkpt lat="59.213567853531" lon="17.915679338559">
        <ele>33</ele>
        <time>2016-04-13T19:51:44Z</time>
      </trkpt>
      <trkpt lat="59.213662820458" lon="17.915609936427">
        <ele>32.4</ele>
        <time>2016-04-13T19:51:45Z</time>
      </trkpt>
      <trkpt lat="59.213759547584" lon="17.915546988358">
        <ele>31.6</ele>
        <time>2016-04-13T19:51:46Z</time>
      </trkpt>
      <trkpt lat="59.213856107072" lon="17.915481022805">
        <ele>31</ele>
        <time>2016-04-13T19:51:47Z</time>
      </trkpt>
      <trkpt lat="59.213952834198" lon="17.915404831334">
        <ele>30.2</ele>
        <time>2016-04-13T19:51:48Z</time>
      </trkpt>
      <trkpt lat="59.214047549668" lon="17.915332579356">
        <ele>29.6</ele>
        <time>2016-04-13T19:51:49Z</time>
      </trkpt>
      <trkpt lat="59.214575777006" lon="17.914925302835">
        <ele>29.6</ele>
        <time>2016-04-13T19:51:55Z</time>
      </trkpt>
      <trkpt lat="59.214981712423" lon="17.914598492554">
        <ele>29.6</ele>
        <time>2016-04-13T19:52:00Z</time>
      </trkpt>
      <trkpt lat="59.215053712944" lon="17.914498580306">
        <ele>29.2</ele>
        <time>2016-04-13T19:52:01Z</time>
      </trkpt>
      <trkpt lat="59.215130239691" lon="17.914414509849">
        <ele>28.6</ele>
        <time>2016-04-13T19:52:02Z</time>
      </trkpt>
      <trkpt lat="59.215207939904" lon="17.914345862088">
        <ele>28.2</ele>
        <time>2016-04-13T19:52:03Z</time>
      </trkpt>
      <trkpt lat="59.215267451394" lon="17.914235137189">
        <ele>27.8</ele>
        <time>2016-04-13T19:52:04Z</time>
      </trkpt>
      <trkpt lat="59.215293267646" lon="17.914083843894">
        <ele>27.4</ele>
        <time>2016-04-13T19:52:05Z</time>
      </trkpt>
      <trkpt lat="59.215303158288" lon="17.913924252518">
        <ele>27.4</ele>
        <time>2016-04-13T19:52:06Z</time>
      </trkpt>
      <trkpt lat="59.21540189707" lon="17.913439024327">
        <ele>27.4</ele>
        <time>2016-04-13T19:52:09Z</time>
      </trkpt>
      <trkpt lat="59.215541958619" lon="17.912509303979">
        <ele>27.4</ele>
        <time>2016-04-13T19:52:14Z</time>
      </trkpt>
      <trkpt lat="59.21564581036" lon="17.911354529616">
        <ele>27.4</ele>
        <time>2016-04-13T19:52:20Z</time>
      </trkpt>
      <trkpt lat="59.215733652672" lon="17.910347360512">
        <ele>27</ele>
        <time>2016-04-13T19:52:25Z</time>
      </trkpt>
      <trkpt lat="59.215745806427" lon="17.910143764161">
        <ele>26.6</ele>
        <time>2016-04-13T19:52:26Z</time>
      </trkpt>
      <trkpt lat="59.215761732037" lon="17.909943855846">
        <ele>26.2</ele>
        <time>2016-04-13T19:52:27Z</time>
      </trkpt>
      <trkpt lat="59.215778579656" lon="17.909745288635">
        <ele>25.6</ele>
        <time>2016-04-13T19:52:28Z</time>
      </trkpt>
      <trkpt lat="59.215791571601" lon="17.909541692284">
        <ele>25.2</ele>
        <time>2016-04-13T19:52:29Z</time>
      </trkpt>
      <trkpt lat="59.215811436704" lon="17.908793775347">
        <ele>25.2</ele>
        <time>2016-04-13T19:52:33Z</time>
      </trkpt>
      <trkpt lat="59.215811185247" lon="17.908099418751">
        <ele>25.6</ele>
        <time>2016-04-13T19:52:37Z</time>
      </trkpt>
      <trkpt lat="59.215821494984" lon="17.907930020552">
        <ele>26</ele>
        <time>2016-04-13T19:52:38Z</time>
      </trkpt>
      <trkpt lat="59.21582937397" lon="17.907755760851">
        <ele>26.4</ele>
        <time>2016-04-13T19:52:39Z</time>
      </trkpt>
      <trkpt lat="59.215844796666" lon="17.907578316028">
        <ele>26.8</ele>
        <time>2016-04-13T19:52:40Z</time>
      </trkpt>
      <trkpt lat="59.215880252103" lon="17.907407073811">
        <ele>27.2</ele>
        <time>2016-04-13T19:52:41Z</time>
      </trkpt>
      <trkpt lat="59.215932638978" lon="17.907244464951">
        <ele>27.2</ele>
        <time>2016-04-13T19:52:42Z</time>
      </trkpt>
      <trkpt lat="59.216166410169" lon="17.906818915888">
        <ele>27.2</ele>
        <time>2016-04-13T19:52:45Z</time>
      </trkpt>
      <trkpt lat="59.216321642957" lon="17.906529069786">
        <ele>26.6</ele>
        <time>2016-04-13T19:52:47Z</time>
      </trkpt>
      <trkpt lat="59.216387357053" lon="17.906363275804">
        <ele>26</ele>
        <time>2016-04-13T19:52:48Z</time>
      </trkpt>
      <trkpt lat="59.21643957629" lon="17.906179879832">
        <ele>25.4</ele>
        <time>2016-04-13T19:52:49Z</time>
      </trkpt>
      <trkpt lat="59.216478803582" lon="17.905991287082">
        <ele>24.8</ele>
        <time>2016-04-13T19:52:50Z</time>
      </trkpt>
      <trkpt lat="59.216516186856" lon="17.905795485898">
        <ele>24</ele>
        <time>2016-04-13T19:52:51Z</time>
      </trkpt>
      <trkpt lat="59.216557677261" lon="17.905631619753">
        <ele>23.4</ele>
        <time>2016-04-13T19:52:52Z</time>
      </trkpt>
      <trkpt lat="59.216582152409" lon="17.905477979526">
        <ele>22.6</ele>
        <time>2016-04-13T19:52:53Z</time>
      </trkpt>
      <trkpt lat="59.216607717204" lon="17.905325428946">
        <ele>21.8</ele>
        <time>2016-04-13T19:52:54Z</time>
      </trkpt>
      <trkpt lat="59.216645603392" lon="17.904991158774">
        <ele>21.8</ele>
        <time>2016-04-13T19:52:56Z</time>
      </trkpt>
      <trkpt lat="59.216760854517" lon="17.904083566642">
        <ele>21.8</ele>
        <time>2016-04-13T19:53:01Z</time>
      </trkpt>
      <trkpt lat="59.216864203344" lon="17.903413936651">
        <ele>21.8</ele>
        <time>2016-04-13T19:53:05Z</time>
      </trkpt>
      <trkpt lat="59.216926397042" lon="17.903280999717">
        <ele>21.8</ele>
        <time>2016-04-13T19:53:06Z</time>
      </trkpt>
      <trkpt lat="59.216998062287" lon="17.903185362238">
        <ele>21.4</ele>
        <time>2016-04-13T19:53:07Z</time>
      </trkpt>
      <trkpt lat="59.217082132744" lon="17.90314915243">
        <ele>21</ele>
        <time>2016-04-13T19:53:08Z</time>
      </trkpt>
      <trkpt lat="59.217165867925" lon="17.903136244304">
        <ele>20.6</ele>
        <time>2016-04-13T19:53:09Z</time>
      </trkpt>
      <trkpt lat="59.217249435468" lon="17.903173543759">
        <ele>20.2</ele>
        <time>2016-04-13T19:53:10Z</time>
      </trkpt>
      <trkpt lat="59.217321938903" lon="17.90325392618">
        <ele>19.8</ele>
        <time>2016-04-13T19:53:11Z</time>
      </trkpt>
      <trkpt lat="59.217500557192" lon="17.903657682303">
        <ele>19.8</ele>
        <time>2016-04-13T19:53:14Z</time>
      </trkpt>
      <trkpt lat="59.217556380646" lon="17.903809478512">
        <ele>19.8</ele>
        <time>2016-04-13T19:53:15Z</time>
      </trkpt>
      <trkpt lat="59.217734915116" lon="17.904270902107">
        <ele>19.4</ele>
        <time>2016-04-13T19:53:18Z</time>
      </trkpt>
      <trkpt lat="59.217797947004" lon="17.90443158313">
        <ele>19</ele>
        <time>2016-04-13T19:53:19Z</time>
      </trkpt>
      <trkpt lat="59.217856452666" lon="17.904576422362">
        <ele>18.2</ele>
        <time>2016-04-13T19:53:20Z</time>
      </trkpt>
      <trkpt lat="59.217917137622" lon="17.904724614354">
        <ele>17.6</ele>
        <time>2016-04-13T19:53:21Z</time>
      </trkpt>
      <trkpt lat="59.218149735347" lon="17.905301037617">
        <ele>17.6</ele>
        <time>2016-04-13T19:53:25Z</time>
      </trkpt>
      <trkpt lat="59.218317540985" lon="17.905749804543">
        <ele>17.6</ele>
        <time>2016-04-13T19:53:28Z</time>
      </trkpt>
      <trkpt lat="59.218426757142" lon="17.906053229323">
        <ele>17.6</ele>
        <time>2016-04-13T19:53:30Z</time>
      </trkpt>
      <trkpt lat="59.218632616606" lon="17.906610793311">
        <ele>18</ele>
        <time>2016-04-13T19:53:34Z</time>
      </trkpt>
      <trkpt lat="59.218682321273" lon="17.906749513756">
        <ele>18.6</ele>
        <time>2016-04-13T19:53:35Z</time>
      </trkpt>
      <trkpt lat="59.218738899098" lon="17.906888988572">
        <ele>19</ele>
        <time>2016-04-13T19:53:36Z</time>
      </trkpt>
      <trkpt lat="59.218792543258" lon="17.907017483099">
        <ele>19.4</ele>
        <time>2016-04-13T19:53:37Z</time>
      </trkpt>
      <trkpt lat="59.218851803291" lon="17.907142960142">
        <ele>19.8</ele>
        <time>2016-04-13T19:53:38Z</time>
      </trkpt>
      <trkpt lat="59.21893402973" lon="17.907439930859">
        <ele>19.8</ele>
        <time>2016-04-13T19:53:40Z</time>
      </trkpt>
      <trkpt lat="59.218945345295" lon="17.907603880823">
        <ele>19.8</ele>
        <time>2016-04-13T19:53:41Z</time>
      </trkpt>
      <trkpt lat="59.219002593672" lon="17.90791174801">
        <ele>19.8</ele>
        <time>2016-04-13T19:53:43Z</time>
      </trkpt>
      <trkpt lat="59.219050873416" lon="17.908042170374">
        <ele>19.8</ele>
        <time>2016-04-13T19:53:44Z</time>
      </trkpt>
      <trkpt lat="59.219324961546" lon="17.908797798659">
        <ele>19.8</ele>
        <time>2016-04-13T19:53:50Z</time>
      </trkpt>
      <trkpt lat="59.219370642901" lon="17.908927550471">
        <ele>20.2</ele>
        <time>2016-04-13T19:53:51Z</time>
      </trkpt>
      <trkpt lat="59.219416240437" lon="17.909052859876">
        <ele>20.6</ele>
        <time>2016-04-13T19:53:52Z</time>
      </trkpt>
      <trkpt lat="59.219455551548" lon="17.909173056322">
        <ele>21</ele>
        <time>2016-04-13T19:53:53Z</time>
      </trkpt>
      <trkpt lat="59.219498466876" lon="17.909282859212">
        <ele>21.4</ele>
        <time>2016-04-13T19:53:54Z</time>
      </trkpt>
      <trkpt lat="59.219543980593" lon="17.909393584111">
        <ele>21.8</ele>
        <time>2016-04-13T19:53:55Z</time>
      </trkpt>
      <trkpt lat="59.21959284707" lon="17.909512858548">
        <ele>21.8</ele>
        <time>2016-04-13T19:53:56Z</time>
      </trkpt>
      <trkpt lat="59.219658393528" lon="17.909580081386">
        <ele>21.8</ele>
        <time>2016-04-13T19:53:57Z</time>
      </trkpt>
      <trkpt lat="59.219731651334" lon="17.909610842959">
        <ele>21.8</ele>
        <time>2016-04-13T19:53:58Z</time>
      </trkpt>
      <trkpt lat="59.219861403146" lon="17.909483940993">
        <ele>21.8</ele>
        <time>2016-04-13T19:54:00Z</time>
      </trkpt>
      <trkpt lat="59.220045302032" lon="17.909187892285">
        <ele>21.8</ele>
        <time>2016-04-13T19:54:03Z</time>
      </trkpt>
      <trkpt lat="59.22011084849" lon="17.909100217611">
        <ele>21.8</ele>
        <time>2016-04-13T19:54:04Z</time>
      </trkpt>
      <trkpt lat="59.220346882794" lon="17.908751782028">
        <ele>21.8</ele>
        <time>2016-04-13T19:54:08Z</time>
      </trkpt>
      <trkpt lat="59.220375465073" lon="17.908625718252">
        <ele>21.8</ele>
        <time>2016-04-13T19:54:09Z</time>
      </trkpt>
      <trkpt lat="59.220333555573" lon="17.908393958717">
        <ele>21.8</ele>
        <time>2016-04-13T19:54:11Z</time>
      </trkpt>
      <trkpt lat="59.22017538912" lon="17.908130683238">
        <ele>21.8</ele>
        <time>2016-04-13T19:54:14Z</time>
      </trkpt>
      <trkpt lat="59.220070699189" lon="17.907914094942">
        <ele>21.8</ele>
        <time>2016-04-13T19:54:16Z</time>
      </trkpt>
      <trkpt lat="59.219980174669" lon="17.907705637089">
        <ele>21.8</ele>
        <time>2016-04-13T19:54:18Z</time>
      </trkpt>
      <trkpt lat="59.219889817787" lon="17.907490725173">
        <ele>21.8</ele>
        <time>2016-04-13T19:54:20Z</time>
      </trkpt>
    </trkseg>
  </trk>
</gpx>